<?xml version="1.0" encoding="UTF-8"?>
<gpx version="1.1" creator="https://www.youtrack.es" xsi:schemaLocation="http://www.topografix.com/GPX/1/1 http://www.topografix.com/GPX/1/1/gpx.xsd http://www.garmin.com/xmlschemas/GpxExtensions/v3 http://www.garmin.com/xmlschemas/GpxExtensionsv3.xsd http://www.garmin.com/xmlschemas/TrackPointExtension/v1 http://www.garmin.com/xmlschemas/TrackPointExtensionv1.xsd" xmlns:gpxtpx="http://www.garmin.com/xmlschemas/TrackPointExtension/v1" xmlns:gpxx="http://www.garmin.com/xmlschemas/GpxExtensions/v3" xmlns:xsi="http://www.w3.org/2001/XMLSchema-instance">
  <metadata>
    <link href="https://www.youtrack.es">
      <text>YouTrack.es</text>
    </link>
    <time>2026-05-07T22:32:14Z</time>
  </metadata>
  <trk>
    <src>https://www.youtrack.es</src>
    <link href="https://www.youtrack.es/ruta/2176-capitana">
      <text>YouTrack.es</text>
    </link>
    <trkseg>
      <trkpt lat="43.2841710" lon="-2.9832600">
        <ele>73.0</ele>
        <time>2018-09-16T07:04:51Z</time>
      </trkpt>
      <trkpt lat="43.2841350" lon="-2.9832550">
        <ele>73.8</ele>
        <time>2018-09-16T07:04:52Z</time>
      </trkpt>
      <trkpt lat="43.2840990" lon="-2.9832480">
        <ele>74.0</ele>
        <time>2018-09-16T07:04:53Z</time>
      </trkpt>
      <trkpt lat="43.2840360" lon="-2.9832220">
        <ele>74.6</ele>
        <time>2018-09-16T07:04:55Z</time>
      </trkpt>
      <trkpt lat="43.2840050" lon="-2.9832080">
        <ele>75.6</ele>
        <time>2018-09-16T07:04:56Z</time>
      </trkpt>
      <trkpt lat="43.2839340" lon="-2.9831800">
        <ele>75.2</ele>
        <time>2018-09-16T07:04:58Z</time>
      </trkpt>
      <trkpt lat="43.2836400" lon="-2.9832550">
        <ele>76.0</ele>
        <time>2018-09-16T07:05:03Z</time>
      </trkpt>
      <trkpt lat="43.2835870" lon="-2.9832640">
        <ele>76.2</ele>
        <time>2018-09-16T07:05:04Z</time>
      </trkpt>
      <trkpt lat="43.2835420" lon="-2.9832690">
        <ele>76.6</ele>
        <time>2018-09-16T07:05:05Z</time>
      </trkpt>
      <trkpt lat="43.2835000" lon="-2.9832640">
        <ele>76.8</ele>
        <time>2018-09-16T07:05:06Z</time>
      </trkpt>
      <trkpt lat="43.2833650" lon="-2.9832570">
        <ele>77.2</ele>
        <time>2018-09-16T07:05:09Z</time>
      </trkpt>
      <trkpt lat="43.2831240" lon="-2.9831540">
        <ele>77.8</ele>
        <time>2018-09-16T07:05:13Z</time>
      </trkpt>
      <trkpt lat="43.2830380" lon="-2.9831170">
        <ele>77.8</ele>
        <time>2018-09-16T07:05:15Z</time>
      </trkpt>
      <trkpt lat="43.2829020" lon="-2.9830660">
        <ele>78.0</ele>
        <time>2018-09-16T07:05:18Z</time>
      </trkpt>
      <trkpt lat="43.2826820" lon="-2.9829940">
        <ele>78.8</ele>
        <time>2018-09-16T07:05:23Z</time>
      </trkpt>
      <trkpt lat="43.2825940" lon="-2.9829700">
        <ele>78.8</ele>
        <time>2018-09-16T07:05:25Z</time>
      </trkpt>
      <trkpt lat="43.2825120" lon="-2.9829490">
        <ele>79.0</ele>
        <time>2018-09-16T07:05:27Z</time>
      </trkpt>
      <trkpt lat="43.2822080" lon="-2.9829300">
        <ele>79.2</ele>
        <time>2018-09-16T07:05:35Z</time>
      </trkpt>
      <trkpt lat="43.2821250" lon="-2.9829450">
        <ele>79.4</ele>
        <time>2018-09-16T07:05:37Z</time>
      </trkpt>
      <trkpt lat="43.2820360" lon="-2.9829440">
        <ele>79.8</ele>
        <time>2018-09-16T07:05:39Z</time>
      </trkpt>
      <trkpt lat="43.2817420" lon="-2.9830130">
        <ele>79.2</ele>
        <time>2018-09-16T07:05:45Z</time>
      </trkpt>
      <trkpt lat="43.2816870" lon="-2.9830700">
        <ele>78.6</ele>
        <time>2018-09-16T07:05:47Z</time>
      </trkpt>
      <trkpt lat="43.2816520" lon="-2.9831040">
        <ele>78.4</ele>
        <time>2018-09-16T07:05:48Z</time>
      </trkpt>
      <trkpt lat="43.2816010" lon="-2.9831870">
        <ele>78.0</ele>
        <time>2018-09-16T07:05:50Z</time>
      </trkpt>
      <trkpt lat="43.2814740" lon="-2.9833600">
        <ele>78.0</ele>
        <time>2018-09-16T07:05:54Z</time>
      </trkpt>
      <trkpt lat="43.2814380" lon="-2.9834100">
        <ele>78.4</ele>
        <time>2018-09-16T07:05:55Z</time>
      </trkpt>
      <trkpt lat="43.2813490" lon="-2.9837030">
        <ele>79.8</ele>
        <time>2018-09-16T07:06:00Z</time>
      </trkpt>
      <trkpt lat="43.2813370" lon="-2.9837690">
        <ele>80.4</ele>
        <time>2018-09-16T07:06:01Z</time>
      </trkpt>
      <trkpt lat="43.2813200" lon="-2.9838860">
        <ele>81.2</ele>
        <time>2018-09-16T07:06:03Z</time>
      </trkpt>
      <trkpt lat="43.2813250" lon="-2.9839460">
        <ele>81.4</ele>
        <time>2018-09-16T07:06:04Z</time>
      </trkpt>
      <trkpt lat="43.2813220" lon="-2.9840100">
        <ele>81.4</ele>
        <time>2018-09-16T07:06:05Z</time>
      </trkpt>
      <trkpt lat="43.2813260" lon="-2.9841330">
        <ele>81.8</ele>
        <time>2018-09-16T07:06:07Z</time>
      </trkpt>
      <trkpt lat="43.2813020" lon="-2.9842570">
        <ele>82.0</ele>
        <time>2018-09-16T07:06:09Z</time>
      </trkpt>
      <trkpt lat="43.2813230" lon="-2.9842940">
        <ele>82.4</ele>
        <time>2018-09-16T07:06:10Z</time>
      </trkpt>
      <trkpt lat="43.2812500" lon="-2.9844790">
        <ele>83.2</ele>
        <time>2018-09-16T07:06:13Z</time>
      </trkpt>
      <trkpt lat="43.2812260" lon="-2.9845360">
        <ele>83.4</ele>
        <time>2018-09-16T07:06:14Z</time>
      </trkpt>
      <trkpt lat="43.2812030" lon="-2.9845920">
        <ele>83.6</ele>
        <time>2018-09-16T07:06:15Z</time>
      </trkpt>
      <trkpt lat="43.2811100" lon="-2.9848170">
        <ele>84.4</ele>
        <time>2018-09-16T07:06:19Z</time>
      </trkpt>
      <trkpt lat="43.2810900" lon="-2.9849320">
        <ele>84.4</ele>
        <time>2018-09-16T07:06:20Z</time>
      </trkpt>
      <trkpt lat="43.2809850" lon="-2.9852090">
        <ele>84.8</ele>
        <time>2018-09-16T07:06:25Z</time>
      </trkpt>
      <trkpt lat="43.2809470" lon="-2.9853110">
        <ele>84.8</ele>
        <time>2018-09-16T07:06:28Z</time>
      </trkpt>
      <trkpt lat="43.2809260" lon="-2.9853600">
        <ele>85.0</ele>
        <time>2018-09-16T07:06:32Z</time>
      </trkpt>
      <trkpt lat="43.2809070" lon="-2.9853940">
        <ele>84.8</ele>
        <time>2018-09-16T07:06:40Z</time>
      </trkpt>
      <trkpt lat="43.2808840" lon="-2.9854410">
        <ele>84.8</ele>
        <time>2018-09-16T07:06:42Z</time>
      </trkpt>
      <trkpt lat="43.2808650" lon="-2.9855100">
        <ele>84.6</ele>
        <time>2018-09-16T07:06:44Z</time>
      </trkpt>
      <trkpt lat="43.2808570" lon="-2.9855560">
        <ele>84.6</ele>
        <time>2018-09-16T07:06:45Z</time>
      </trkpt>
      <trkpt lat="43.2808560" lon="-2.9856130">
        <ele>84.6</ele>
        <time>2018-09-16T07:06:46Z</time>
      </trkpt>
      <trkpt lat="43.2808790" lon="-2.9857420">
        <ele>84.4</ele>
        <time>2018-09-16T07:06:48Z</time>
      </trkpt>
      <trkpt lat="43.2809160" lon="-2.9858870">
        <ele>83.8</ele>
        <time>2018-09-16T07:06:50Z</time>
      </trkpt>
      <trkpt lat="43.2809940" lon="-2.9860320">
        <ele>83.0</ele>
        <time>2018-09-16T07:06:52Z</time>
      </trkpt>
      <trkpt lat="43.2811170" lon="-2.9861730">
        <ele>81.6</ele>
        <time>2018-09-16T07:06:54Z</time>
      </trkpt>
      <trkpt lat="43.2811700" lon="-2.9862550">
        <ele>81.2</ele>
        <time>2018-09-16T07:06:55Z</time>
      </trkpt>
      <trkpt lat="43.2812180" lon="-2.9863410">
        <ele>81.0</ele>
        <time>2018-09-16T07:06:56Z</time>
      </trkpt>
      <trkpt lat="43.2812350" lon="-2.9865410">
        <ele>80.8</ele>
        <time>2018-09-16T07:06:58Z</time>
      </trkpt>
      <trkpt lat="43.2812330" lon="-2.9867470">
        <ele>80.8</ele>
        <time>2018-09-16T07:07:00Z</time>
      </trkpt>
      <trkpt lat="43.2811910" lon="-2.9870330">
        <ele>80.6</ele>
        <time>2018-09-16T07:07:03Z</time>
      </trkpt>
      <trkpt lat="43.2811710" lon="-2.9871950">
        <ele>80.4</ele>
        <time>2018-09-16T07:07:05Z</time>
      </trkpt>
      <trkpt lat="43.2811590" lon="-2.9874780">
        <ele>81.4</ele>
        <time>2018-09-16T07:07:09Z</time>
      </trkpt>
      <trkpt lat="43.2811610" lon="-2.9875490">
        <ele>81.6</ele>
        <time>2018-09-16T07:07:10Z</time>
      </trkpt>
      <trkpt lat="43.2811720" lon="-2.9878120">
        <ele>82.0</ele>
        <time>2018-09-16T07:07:14Z</time>
      </trkpt>
      <trkpt lat="43.2811920" lon="-2.9878620">
        <ele>82.0</ele>
        <time>2018-09-16T07:07:15Z</time>
      </trkpt>
      <trkpt lat="43.2812200" lon="-2.9878970">
        <ele>82.0</ele>
        <time>2018-09-16T07:07:16Z</time>
      </trkpt>
      <trkpt lat="43.2813050" lon="-2.9878910">
        <ele>82.0</ele>
        <time>2018-09-16T07:07:18Z</time>
      </trkpt>
      <trkpt lat="43.2814110" lon="-2.9878380">
        <ele>82.0</ele>
        <time>2018-09-16T07:07:20Z</time>
      </trkpt>
      <trkpt lat="43.2814660" lon="-2.9878140">
        <ele>82.0</ele>
        <time>2018-09-16T07:07:21Z</time>
      </trkpt>
      <trkpt lat="43.2816980" lon="-2.9877170">
        <ele>81.6</ele>
        <time>2018-09-16T07:07:25Z</time>
      </trkpt>
      <trkpt lat="43.2818190" lon="-2.9877170">
        <ele>81.4</ele>
        <time>2018-09-16T07:07:27Z</time>
      </trkpt>
      <trkpt lat="43.2819380" lon="-2.9877650">
        <ele>81.4</ele>
        <time>2018-09-16T07:07:29Z</time>
      </trkpt>
      <trkpt lat="43.2820500" lon="-2.9878510">
        <ele>81.4</ele>
        <time>2018-09-16T07:07:31Z</time>
      </trkpt>
      <trkpt lat="43.2822450" lon="-2.9881150">
        <ele>81.0</ele>
        <time>2018-09-16T07:07:35Z</time>
      </trkpt>
      <trkpt lat="43.2823330" lon="-2.9882730">
        <ele>80.8</ele>
        <time>2018-09-16T07:07:37Z</time>
      </trkpt>
      <trkpt lat="43.2823760" lon="-2.9883530">
        <ele>80.6</ele>
        <time>2018-09-16T07:07:38Z</time>
      </trkpt>
      <trkpt lat="43.2825530" lon="-2.9886880">
        <ele>79.2</ele>
        <time>2018-09-16T07:07:42Z</time>
      </trkpt>
      <trkpt lat="43.2825870" lon="-2.9887930">
        <ele>78.6</ele>
        <time>2018-09-16T07:07:43Z</time>
      </trkpt>
      <trkpt lat="43.2826120" lon="-2.9889080">
        <ele>78.0</ele>
        <time>2018-09-16T07:07:44Z</time>
      </trkpt>
      <trkpt lat="43.2826220" lon="-2.9890340">
        <ele>77.6</ele>
        <time>2018-09-16T07:07:45Z</time>
      </trkpt>
      <trkpt lat="43.2825980" lon="-2.9892870">
        <ele>76.8</ele>
        <time>2018-09-16T07:07:47Z</time>
      </trkpt>
      <trkpt lat="43.2825250" lon="-2.9896980">
        <ele>75.4</ele>
        <time>2018-09-16T07:07:50Z</time>
      </trkpt>
      <trkpt lat="43.2824580" lon="-2.9899790">
        <ele>74.2</ele>
        <time>2018-09-16T07:07:52Z</time>
      </trkpt>
      <trkpt lat="43.2823600" lon="-2.9904050">
        <ele>72.4</ele>
        <time>2018-09-16T07:07:55Z</time>
      </trkpt>
      <trkpt lat="43.2823330" lon="-2.9905430">
        <ele>71.4</ele>
        <time>2018-09-16T07:07:56Z</time>
      </trkpt>
      <trkpt lat="43.2822940" lon="-2.9908210">
        <ele>70.0</ele>
        <time>2018-09-16T07:07:58Z</time>
      </trkpt>
      <trkpt lat="43.2822600" lon="-2.9910900">
        <ele>68.6</ele>
        <time>2018-09-16T07:08:00Z</time>
      </trkpt>
      <trkpt lat="43.2822350" lon="-2.9913400">
        <ele>66.8</ele>
        <time>2018-09-16T07:08:02Z</time>
      </trkpt>
      <trkpt lat="43.2822250" lon="-2.9914620">
        <ele>66.4</ele>
        <time>2018-09-16T07:08:03Z</time>
      </trkpt>
      <trkpt lat="43.2822070" lon="-2.9916780">
        <ele>65.8</ele>
        <time>2018-09-16T07:08:05Z</time>
      </trkpt>
      <trkpt lat="43.2822010" lon="-2.9917740">
        <ele>65.6</ele>
        <time>2018-09-16T07:08:06Z</time>
      </trkpt>
      <trkpt lat="43.2822480" lon="-2.9919710">
        <ele>65.4</ele>
        <time>2018-09-16T07:08:08Z</time>
      </trkpt>
      <trkpt lat="43.2823440" lon="-2.9923020">
        <ele>64.6</ele>
        <time>2018-09-16T07:08:11Z</time>
      </trkpt>
      <trkpt lat="43.2823690" lon="-2.9924140">
        <ele>64.0</ele>
        <time>2018-09-16T07:08:12Z</time>
      </trkpt>
      <trkpt lat="43.2823940" lon="-2.9925350">
        <ele>63.4</ele>
        <time>2018-09-16T07:08:13Z</time>
      </trkpt>
      <trkpt lat="43.2824490" lon="-2.9927790">
        <ele>62.2</ele>
        <time>2018-09-16T07:08:15Z</time>
      </trkpt>
      <trkpt lat="43.2824940" lon="-2.9930130">
        <ele>60.2</ele>
        <time>2018-09-16T07:08:17Z</time>
      </trkpt>
      <trkpt lat="43.2825070" lon="-2.9931170">
        <ele>59.2</ele>
        <time>2018-09-16T07:08:18Z</time>
      </trkpt>
      <trkpt lat="43.2825300" lon="-2.9932790">
        <ele>57.2</ele>
        <time>2018-09-16T07:08:20Z</time>
      </trkpt>
      <trkpt lat="43.2825370" lon="-2.9933520">
        <ele>56.2</ele>
        <time>2018-09-16T07:08:21Z</time>
      </trkpt>
      <trkpt lat="43.2825320" lon="-2.9934190">
        <ele>55.2</ele>
        <time>2018-09-16T07:08:22Z</time>
      </trkpt>
      <trkpt lat="43.2825250" lon="-2.9935240">
        <ele>53.8</ele>
        <time>2018-09-16T07:08:24Z</time>
      </trkpt>
      <trkpt lat="43.2825320" lon="-2.9935720">
        <ele>53.2</ele>
        <time>2018-09-16T07:08:25Z</time>
      </trkpt>
      <trkpt lat="43.2825540" lon="-2.9936070">
        <ele>52.6</ele>
        <time>2018-09-16T07:08:26Z</time>
      </trkpt>
      <trkpt lat="43.2826320" lon="-2.9936070">
        <ele>52.2</ele>
        <time>2018-09-16T07:08:28Z</time>
      </trkpt>
      <trkpt lat="43.2827380" lon="-2.9935980">
        <ele>52.2</ele>
        <time>2018-09-16T07:08:30Z</time>
      </trkpt>
      <trkpt lat="43.2827920" lon="-2.9936210">
        <ele>52.2</ele>
        <time>2018-09-16T07:08:31Z</time>
      </trkpt>
      <trkpt lat="43.2828370" lon="-2.9936710">
        <ele>52.4</ele>
        <time>2018-09-16T07:08:32Z</time>
      </trkpt>
      <trkpt lat="43.2828890" lon="-2.9938210">
        <ele>52.8</ele>
        <time>2018-09-16T07:08:34Z</time>
      </trkpt>
      <trkpt lat="43.2829020" lon="-2.9939000">
        <ele>53.0</ele>
        <time>2018-09-16T07:08:35Z</time>
      </trkpt>
      <trkpt lat="43.2829230" lon="-2.9940440">
        <ele>52.8</ele>
        <time>2018-09-16T07:08:37Z</time>
      </trkpt>
      <trkpt lat="43.2829540" lon="-2.9942070">
        <ele>52.6</ele>
        <time>2018-09-16T07:08:39Z</time>
      </trkpt>
      <trkpt lat="43.2830100" lon="-2.9944550">
        <ele>52.2</ele>
        <time>2018-09-16T07:08:42Z</time>
      </trkpt>
      <trkpt lat="43.2830760" lon="-2.9947010">
        <ele>52.0</ele>
        <time>2018-09-16T07:08:45Z</time>
      </trkpt>
      <trkpt lat="43.2831710" lon="-2.9949700">
        <ele>51.4</ele>
        <time>2018-09-16T07:08:48Z</time>
      </trkpt>
      <trkpt lat="43.2832560" lon="-2.9951100">
        <ele>50.8</ele>
        <time>2018-09-16T07:08:50Z</time>
      </trkpt>
      <trkpt lat="43.2833810" lon="-2.9951970">
        <ele>50.2</ele>
        <time>2018-09-16T07:08:52Z</time>
      </trkpt>
      <trkpt lat="43.2835220" lon="-2.9951970">
        <ele>49.4</ele>
        <time>2018-09-16T07:08:54Z</time>
      </trkpt>
      <trkpt lat="43.2835920" lon="-2.9951650">
        <ele>49.0</ele>
        <time>2018-09-16T07:08:55Z</time>
      </trkpt>
      <trkpt lat="43.2836570" lon="-2.9951270">
        <ele>48.8</ele>
        <time>2018-09-16T07:08:56Z</time>
      </trkpt>
      <trkpt lat="43.2838690" lon="-2.9950110">
        <ele>48.8</ele>
        <time>2018-09-16T07:08:59Z</time>
      </trkpt>
      <trkpt lat="43.2840800" lon="-2.9949260">
        <ele>48.8</ele>
        <time>2018-09-16T07:09:02Z</time>
      </trkpt>
      <trkpt lat="43.2842860" lon="-2.9948060">
        <ele>48.8</ele>
        <time>2018-09-16T07:09:05Z</time>
      </trkpt>
      <trkpt lat="43.2846570" lon="-2.9945010">
        <ele>48.4</ele>
        <time>2018-09-16T07:09:10Z</time>
      </trkpt>
      <trkpt lat="43.2849680" lon="-2.9944060">
        <ele>48.6</ele>
        <time>2018-09-16T07:09:15Z</time>
      </trkpt>
      <trkpt lat="43.2850800" lon="-2.9943470">
        <ele>48.6</ele>
        <time>2018-09-16T07:09:17Z</time>
      </trkpt>
      <trkpt lat="43.2851740" lon="-2.9942550">
        <ele>48.2</ele>
        <time>2018-09-16T07:09:19Z</time>
      </trkpt>
      <trkpt lat="43.2852940" lon="-2.9940690">
        <ele>48.2</ele>
        <time>2018-09-16T07:09:22Z</time>
      </trkpt>
      <trkpt lat="43.2853910" lon="-2.9939930">
        <ele>48.4</ele>
        <time>2018-09-16T07:09:24Z</time>
      </trkpt>
      <trkpt lat="43.2854450" lon="-2.9939830">
        <ele>48.6</ele>
        <time>2018-09-16T07:09:25Z</time>
      </trkpt>
      <trkpt lat="43.2855010" lon="-2.9939920">
        <ele>48.6</ele>
        <time>2018-09-16T07:09:26Z</time>
      </trkpt>
      <trkpt lat="43.2855930" lon="-2.9940810">
        <ele>48.6</ele>
        <time>2018-09-16T07:09:28Z</time>
      </trkpt>
      <trkpt lat="43.2856470" lon="-2.9942230">
        <ele>48.2</ele>
        <time>2018-09-16T07:09:30Z</time>
      </trkpt>
      <trkpt lat="43.2857090" lon="-2.9946160">
        <ele>48.6</ele>
        <time>2018-09-16T07:09:35Z</time>
      </trkpt>
      <trkpt lat="43.2857760" lon="-2.9947610">
        <ele>48.8</ele>
        <time>2018-09-16T07:09:37Z</time>
      </trkpt>
      <trkpt lat="43.2858800" lon="-2.9949240">
        <ele>48.8</ele>
        <time>2018-09-16T07:09:39Z</time>
      </trkpt>
      <trkpt lat="43.2859700" lon="-2.9951070">
        <ele>48.4</ele>
        <time>2018-09-16T07:09:41Z</time>
      </trkpt>
      <trkpt lat="43.2861260" lon="-2.9954230">
        <ele>48.2</ele>
        <time>2018-09-16T07:09:45Z</time>
      </trkpt>
      <trkpt lat="43.2864030" lon="-2.9959820">
        <ele>48.2</ele>
        <time>2018-09-16T07:09:53Z</time>
      </trkpt>
      <trkpt lat="43.2864810" lon="-2.9961140">
        <ele>48.4</ele>
        <time>2018-09-16T07:09:55Z</time>
      </trkpt>
      <trkpt lat="43.2868300" lon="-2.9967530">
        <ele>48.2</ele>
        <time>2018-09-16T07:10:04Z</time>
      </trkpt>
      <trkpt lat="43.2868700" lon="-2.9968260">
        <ele>47.8</ele>
        <time>2018-09-16T07:10:05Z</time>
      </trkpt>
      <trkpt lat="43.2870680" lon="-2.9971840">
        <ele>47.2</ele>
        <time>2018-09-16T07:10:10Z</time>
      </trkpt>
      <trkpt lat="43.2872590" lon="-2.9975530">
        <ele>47.6</ele>
        <time>2018-09-16T07:10:15Z</time>
      </trkpt>
      <trkpt lat="43.2874110" lon="-2.9978460">
        <ele>47.6</ele>
        <time>2018-09-16T07:10:19Z</time>
      </trkpt>
      <trkpt lat="43.2875230" lon="-2.9980560">
        <ele>48.0</ele>
        <time>2018-09-16T07:10:22Z</time>
      </trkpt>
      <trkpt lat="43.2876310" lon="-2.9982500">
        <ele>48.8</ele>
        <time>2018-09-16T07:10:25Z</time>
      </trkpt>
      <trkpt lat="43.2876720" lon="-2.9983030">
        <ele>48.8</ele>
        <time>2018-09-16T07:10:26Z</time>
      </trkpt>
      <trkpt lat="43.2877830" lon="-2.9983520">
        <ele>48.8</ele>
        <time>2018-09-16T07:10:28Z</time>
      </trkpt>
      <trkpt lat="43.2879130" lon="-2.9983620">
        <ele>48.8</ele>
        <time>2018-09-16T07:10:30Z</time>
      </trkpt>
      <trkpt lat="43.2880370" lon="-2.9983680">
        <ele>48.8</ele>
        <time>2018-09-16T07:10:32Z</time>
      </trkpt>
      <trkpt lat="43.2881620" lon="-2.9983700">
        <ele>48.8</ele>
        <time>2018-09-16T07:10:34Z</time>
      </trkpt>
      <trkpt lat="43.2882210" lon="-2.9983730">
        <ele>48.8</ele>
        <time>2018-09-16T07:10:35Z</time>
      </trkpt>
      <trkpt lat="43.2885410" lon="-2.9984140">
        <ele>49.0</ele>
        <time>2018-09-16T07:10:41Z</time>
      </trkpt>
      <trkpt lat="43.2886250" lon="-2.9984840">
        <ele>49.0</ele>
        <time>2018-09-16T07:10:43Z</time>
      </trkpt>
      <trkpt lat="43.2886580" lon="-2.9985430">
        <ele>49.0</ele>
        <time>2018-09-16T07:10:44Z</time>
      </trkpt>
      <trkpt lat="43.2886930" lon="-2.9986100">
        <ele>49.0</ele>
        <time>2018-09-16T07:10:45Z</time>
      </trkpt>
      <trkpt lat="43.2887700" lon="-2.9987490">
        <ele>49.0</ele>
        <time>2018-09-16T07:10:47Z</time>
      </trkpt>
      <trkpt lat="43.2888850" lon="-2.9988730">
        <ele>49.2</ele>
        <time>2018-09-16T07:10:49Z</time>
      </trkpt>
      <trkpt lat="43.2889790" lon="-2.9989960">
        <ele>49.8</ele>
        <time>2018-09-16T07:10:51Z</time>
      </trkpt>
      <trkpt lat="43.2890210" lon="-2.9990590">
        <ele>50.0</ele>
        <time>2018-09-16T07:10:52Z</time>
      </trkpt>
      <trkpt lat="43.2891550" lon="-2.9992330">
        <ele>50.2</ele>
        <time>2018-09-16T07:10:55Z</time>
      </trkpt>
      <trkpt lat="43.2892560" lon="-2.9994220">
        <ele>50.4</ele>
        <time>2018-09-16T07:10:58Z</time>
      </trkpt>
      <trkpt lat="43.2893880" lon="-2.9996920">
        <ele>50.4</ele>
        <time>2018-09-16T07:11:02Z</time>
      </trkpt>
      <trkpt lat="43.2894590" lon="-2.9999020">
        <ele>50.6</ele>
        <time>2018-09-16T07:11:05Z</time>
      </trkpt>
      <trkpt lat="43.2896870" lon="-3.0005960">
        <ele>49.6</ele>
        <time>2018-09-16T07:11:15Z</time>
      </trkpt>
      <trkpt lat="43.2897040" lon="-3.0006680">
        <ele>49.4</ele>
        <time>2018-09-16T07:11:16Z</time>
      </trkpt>
      <trkpt lat="43.2897810" lon="-3.0010260">
        <ele>49.2</ele>
        <time>2018-09-16T07:11:21Z</time>
      </trkpt>
      <trkpt lat="43.2898110" lon="-3.0011720">
        <ele>49.4</ele>
        <time>2018-09-16T07:11:23Z</time>
      </trkpt>
      <trkpt lat="43.2898370" lon="-3.0013290">
        <ele>49.4</ele>
        <time>2018-09-16T07:11:25Z</time>
      </trkpt>
      <trkpt lat="43.2898640" lon="-3.0014950">
        <ele>49.4</ele>
        <time>2018-09-16T07:11:27Z</time>
      </trkpt>
      <trkpt lat="43.2899060" lon="-3.0016440">
        <ele>49.2</ele>
        <time>2018-09-16T07:11:29Z</time>
      </trkpt>
      <trkpt lat="43.2900280" lon="-3.0019580">
        <ele>49.0</ele>
        <time>2018-09-16T07:11:34Z</time>
      </trkpt>
      <trkpt lat="43.2900510" lon="-3.0020190">
        <ele>49.0</ele>
        <time>2018-09-16T07:11:35Z</time>
      </trkpt>
      <trkpt lat="43.2902680" lon="-3.0024730">
        <ele>49.4</ele>
        <time>2018-09-16T07:11:42Z</time>
      </trkpt>
      <trkpt lat="43.2903540" lon="-3.0026110">
        <ele>49.4</ele>
        <time>2018-09-16T07:11:44Z</time>
      </trkpt>
      <trkpt lat="43.2904010" lon="-3.0026830">
        <ele>49.4</ele>
        <time>2018-09-16T07:11:45Z</time>
      </trkpt>
      <trkpt lat="43.2905850" lon="-3.0030350">
        <ele>49.4</ele>
        <time>2018-09-16T07:11:50Z</time>
      </trkpt>
      <trkpt lat="43.2907590" lon="-3.0033470">
        <ele>50.0</ele>
        <time>2018-09-16T07:11:55Z</time>
      </trkpt>
      <trkpt lat="43.2907970" lon="-3.0034080">
        <ele>50.0</ele>
        <time>2018-09-16T07:11:56Z</time>
      </trkpt>
      <trkpt lat="43.2909310" lon="-3.0035950">
        <ele>50.2</ele>
        <time>2018-09-16T07:11:59Z</time>
      </trkpt>
      <trkpt lat="43.2910210" lon="-3.0037080">
        <ele>50.2</ele>
        <time>2018-09-16T07:12:01Z</time>
      </trkpt>
      <trkpt lat="43.2911190" lon="-3.0038160">
        <ele>50.4</ele>
        <time>2018-09-16T07:12:03Z</time>
      </trkpt>
      <trkpt lat="43.2912150" lon="-3.0039270">
        <ele>50.2</ele>
        <time>2018-09-16T07:12:05Z</time>
      </trkpt>
      <trkpt lat="43.2915260" lon="-3.0042140">
        <ele>50.0</ele>
        <time>2018-09-16T07:12:11Z</time>
      </trkpt>
      <trkpt lat="43.2917540" lon="-3.0043690">
        <ele>50.4</ele>
        <time>2018-09-16T07:12:15Z</time>
      </trkpt>
      <trkpt lat="43.2921560" lon="-3.0045390">
        <ele>51.0</ele>
        <time>2018-09-16T07:12:22Z</time>
      </trkpt>
      <trkpt lat="43.2923410" lon="-3.0045970">
        <ele>51.2</ele>
        <time>2018-09-16T07:12:25Z</time>
      </trkpt>
      <trkpt lat="43.2927060" lon="-3.0046090">
        <ele>51.6</ele>
        <time>2018-09-16T07:12:31Z</time>
      </trkpt>
      <trkpt lat="43.2928270" lon="-3.0045930">
        <ele>52.0</ele>
        <time>2018-09-16T07:12:33Z</time>
      </trkpt>
      <trkpt lat="43.2929460" lon="-3.0045690">
        <ele>52.2</ele>
        <time>2018-09-16T07:12:35Z</time>
      </trkpt>
      <trkpt lat="43.2931120" lon="-3.0045240">
        <ele>53.0</ele>
        <time>2018-09-16T07:12:38Z</time>
      </trkpt>
      <trkpt lat="43.2931620" lon="-3.0045080">
        <ele>53.2</ele>
        <time>2018-09-16T07:12:39Z</time>
      </trkpt>
      <trkpt lat="43.2932110" lon="-3.0045040">
        <ele>53.4</ele>
        <time>2018-09-16T07:12:40Z</time>
      </trkpt>
      <trkpt lat="43.2933020" lon="-3.0045430">
        <ele>53.4</ele>
        <time>2018-09-16T07:12:42Z</time>
      </trkpt>
      <trkpt lat="43.2933920" lon="-3.0045660">
        <ele>53.4</ele>
        <time>2018-09-16T07:12:44Z</time>
      </trkpt>
      <trkpt lat="43.2934400" lon="-3.0045560">
        <ele>53.6</ele>
        <time>2018-09-16T07:12:45Z</time>
      </trkpt>
      <trkpt lat="43.2934900" lon="-3.0045370">
        <ele>53.4</ele>
        <time>2018-09-16T07:12:46Z</time>
      </trkpt>
      <trkpt lat="43.2935680" lon="-3.0044540">
        <ele>53.4</ele>
        <time>2018-09-16T07:12:48Z</time>
      </trkpt>
      <trkpt lat="43.2936340" lon="-3.0043410">
        <ele>53.8</ele>
        <time>2018-09-16T07:12:50Z</time>
      </trkpt>
      <trkpt lat="43.2937750" lon="-3.0041870">
        <ele>53.8</ele>
        <time>2018-09-16T07:12:53Z</time>
      </trkpt>
      <trkpt lat="43.2938750" lon="-3.0040970">
        <ele>53.6</ele>
        <time>2018-09-16T07:12:55Z</time>
      </trkpt>
      <trkpt lat="43.2940670" lon="-3.0039190">
        <ele>53.8</ele>
        <time>2018-09-16T07:12:59Z</time>
      </trkpt>
      <trkpt lat="43.2942040" lon="-3.0037790">
        <ele>54.2</ele>
        <time>2018-09-16T07:13:02Z</time>
      </trkpt>
      <trkpt lat="43.2942900" lon="-3.0036810">
        <ele>54.6</ele>
        <time>2018-09-16T07:13:04Z</time>
      </trkpt>
      <trkpt lat="43.2943280" lon="-3.0036260">
        <ele>54.6</ele>
        <time>2018-09-16T07:13:05Z</time>
      </trkpt>
      <trkpt lat="43.2944010" lon="-3.0035140">
        <ele>54.8</ele>
        <time>2018-09-16T07:13:07Z</time>
      </trkpt>
      <trkpt lat="43.2944660" lon="-3.0034150">
        <ele>55.2</ele>
        <time>2018-09-16T07:13:09Z</time>
      </trkpt>
      <trkpt lat="43.2944950" lon="-3.0033740">
        <ele>55.4</ele>
        <time>2018-09-16T07:13:10Z</time>
      </trkpt>
      <trkpt lat="43.2945580" lon="-3.0032800">
        <ele>56.0</ele>
        <time>2018-09-16T07:13:12Z</time>
      </trkpt>
      <trkpt lat="43.2946340" lon="-3.0031300">
        <ele>56.8</ele>
        <time>2018-09-16T07:13:15Z</time>
      </trkpt>
      <trkpt lat="43.2946610" lon="-3.0030720">
        <ele>57.2</ele>
        <time>2018-09-16T07:13:16Z</time>
      </trkpt>
      <trkpt lat="43.2947160" lon="-3.0029580">
        <ele>57.8</ele>
        <time>2018-09-16T07:13:18Z</time>
      </trkpt>
      <trkpt lat="43.2947880" lon="-3.0027650">
        <ele>58.4</ele>
        <time>2018-09-16T07:13:21Z</time>
      </trkpt>
      <trkpt lat="43.2948560" lon="-3.0025650">
        <ele>59.2</ele>
        <time>2018-09-16T07:13:24Z</time>
      </trkpt>
      <trkpt lat="43.2948770" lon="-3.0025010">
        <ele>59.4</ele>
        <time>2018-09-16T07:13:25Z</time>
      </trkpt>
      <trkpt lat="43.2949360" lon="-3.0022910">
        <ele>60.4</ele>
        <time>2018-09-16T07:13:28Z</time>
      </trkpt>
      <trkpt lat="43.2949780" lon="-3.0021590">
        <ele>60.8</ele>
        <time>2018-09-16T07:13:30Z</time>
      </trkpt>
      <trkpt lat="43.2950490" lon="-3.0020600">
        <ele>61.2</ele>
        <time>2018-09-16T07:13:32Z</time>
      </trkpt>
      <trkpt lat="43.2950960" lon="-3.0020320">
        <ele>61.4</ele>
        <time>2018-09-16T07:13:33Z</time>
      </trkpt>
      <trkpt lat="43.2952060" lon="-3.0019740">
        <ele>61.8</ele>
        <time>2018-09-16T07:13:35Z</time>
      </trkpt>
      <trkpt lat="43.2957390" lon="-3.0016380">
        <ele>62.0</ele>
        <time>2018-09-16T07:13:44Z</time>
      </trkpt>
      <trkpt lat="43.2958050" lon="-3.0016030">
        <ele>61.8</ele>
        <time>2018-09-16T07:13:45Z</time>
      </trkpt>
      <trkpt lat="43.2963270" lon="-3.0012710">
        <ele>60.8</ele>
        <time>2018-09-16T07:13:53Z</time>
      </trkpt>
      <trkpt lat="43.2964510" lon="-3.0011840">
        <ele>60.6</ele>
        <time>2018-09-16T07:13:55Z</time>
      </trkpt>
      <trkpt lat="43.2967380" lon="-3.0009730">
        <ele>60.4</ele>
        <time>2018-09-16T07:14:00Z</time>
      </trkpt>
      <trkpt lat="43.2970240" lon="-3.0007710">
        <ele>60.4</ele>
        <time>2018-09-16T07:14:05Z</time>
      </trkpt>
      <trkpt lat="43.2975450" lon="-3.0003780">
        <ele>61.4</ele>
        <time>2018-09-16T07:14:14Z</time>
      </trkpt>
      <trkpt lat="43.2975970" lon="-3.0003360">
        <ele>61.4</ele>
        <time>2018-09-16T07:14:15Z</time>
      </trkpt>
      <trkpt lat="43.2977960" lon="-3.0001640">
        <ele>61.8</ele>
        <time>2018-09-16T07:14:19Z</time>
      </trkpt>
      <trkpt lat="43.2981330" lon="-2.9998720">
        <ele>62.4</ele>
        <time>2018-09-16T07:14:25Z</time>
      </trkpt>
      <trkpt lat="43.2982500" lon="-2.9997890">
        <ele>62.4</ele>
        <time>2018-09-16T07:14:27Z</time>
      </trkpt>
      <trkpt lat="43.2984680" lon="-2.9996510">
        <ele>62.4</ele>
        <time>2018-09-16T07:14:31Z</time>
      </trkpt>
      <trkpt lat="43.2986300" lon="-2.9995430">
        <ele>62.4</ele>
        <time>2018-09-16T07:14:34Z</time>
      </trkpt>
      <trkpt lat="43.2986860" lon="-2.9995070">
        <ele>62.4</ele>
        <time>2018-09-16T07:14:35Z</time>
      </trkpt>
      <trkpt lat="43.2988640" lon="-2.9993980">
        <ele>62.6</ele>
        <time>2018-09-16T07:14:38Z</time>
      </trkpt>
      <trkpt lat="43.2993020" lon="-2.9992410">
        <ele>62.8</ele>
        <time>2018-09-16T07:14:45Z</time>
      </trkpt>
      <trkpt lat="43.2995360" lon="-2.9991640">
        <ele>63.0</ele>
        <time>2018-09-16T07:14:49Z</time>
      </trkpt>
      <trkpt lat="43.2997000" lon="-2.9991100">
        <ele>63.0</ele>
        <time>2018-09-16T07:14:52Z</time>
      </trkpt>
      <trkpt lat="43.2998610" lon="-2.9990560">
        <ele>63.0</ele>
        <time>2018-09-16T07:14:55Z</time>
      </trkpt>
      <trkpt lat="43.2999150" lon="-2.9990330">
        <ele>62.8</ele>
        <time>2018-09-16T07:14:56Z</time>
      </trkpt>
      <trkpt lat="43.3000100" lon="-2.9989490">
        <ele>62.8</ele>
        <time>2018-09-16T07:14:58Z</time>
      </trkpt>
      <trkpt lat="43.3000790" lon="-2.9988230">
        <ele>62.8</ele>
        <time>2018-09-16T07:15:00Z</time>
      </trkpt>
      <trkpt lat="43.3002430" lon="-2.9984780">
        <ele>61.6</ele>
        <time>2018-09-16T07:15:05Z</time>
      </trkpt>
      <trkpt lat="43.3002760" lon="-2.9984050">
        <ele>61.4</ele>
        <time>2018-09-16T07:15:06Z</time>
      </trkpt>
      <trkpt lat="43.3003890" lon="-2.9981680">
        <ele>60.8</ele>
        <time>2018-09-16T07:15:09Z</time>
      </trkpt>
      <trkpt lat="43.3004730" lon="-2.9979930">
        <ele>60.4</ele>
        <time>2018-09-16T07:15:11Z</time>
      </trkpt>
      <trkpt lat="43.3005590" lon="-2.9978070">
        <ele>60.0</ele>
        <time>2018-09-16T07:15:13Z</time>
      </trkpt>
      <trkpt lat="43.3006530" lon="-2.9976110">
        <ele>59.6</ele>
        <time>2018-09-16T07:15:15Z</time>
      </trkpt>
      <trkpt lat="43.3007030" lon="-2.9975130">
        <ele>59.2</ele>
        <time>2018-09-16T07:15:16Z</time>
      </trkpt>
      <trkpt lat="43.3008600" lon="-2.9971820">
        <ele>58.2</ele>
        <time>2018-09-16T07:15:19Z</time>
      </trkpt>
      <trkpt lat="43.3010470" lon="-2.9967990">
        <ele>56.6</ele>
        <time>2018-09-16T07:15:22Z</time>
      </trkpt>
      <trkpt lat="43.3011650" lon="-2.9965460">
        <ele>55.0</ele>
        <time>2018-09-16T07:15:24Z</time>
      </trkpt>
      <trkpt lat="43.3012160" lon="-2.9964270">
        <ele>54.6</ele>
        <time>2018-09-16T07:15:25Z</time>
      </trkpt>
      <trkpt lat="43.3014970" lon="-2.9958130">
        <ele>54.6</ele>
        <time>2018-09-16T07:15:31Z</time>
      </trkpt>
      <trkpt lat="43.3016570" lon="-2.9954930">
        <ele>55.6</ele>
        <time>2018-09-16T07:15:35Z</time>
      </trkpt>
      <trkpt lat="43.3017760" lon="-2.9952040">
        <ele>56.0</ele>
        <time>2018-09-16T07:15:39Z</time>
      </trkpt>
      <trkpt lat="43.3018340" lon="-2.9950340">
        <ele>55.6</ele>
        <time>2018-09-16T07:15:41Z</time>
      </trkpt>
      <trkpt lat="43.3018840" lon="-2.9948670">
        <ele>55.2</ele>
        <time>2018-09-16T07:15:43Z</time>
      </trkpt>
      <trkpt lat="43.3019210" lon="-2.9947150">
        <ele>55.0</ele>
        <time>2018-09-16T07:15:45Z</time>
      </trkpt>
      <trkpt lat="43.3019610" lon="-2.9945250">
        <ele>55.0</ele>
        <time>2018-09-16T07:15:48Z</time>
      </trkpt>
      <trkpt lat="43.3019760" lon="-2.9944700">
        <ele>55.0</ele>
        <time>2018-09-16T07:15:49Z</time>
      </trkpt>
      <trkpt lat="43.3020360" lon="-2.9944240">
        <ele>55.0</ele>
        <time>2018-09-16T07:15:51Z</time>
      </trkpt>
      <trkpt lat="43.3022050" lon="-2.9945240">
        <ele>55.0</ele>
        <time>2018-09-16T07:15:55Z</time>
      </trkpt>
      <trkpt lat="43.3024470" lon="-2.9946580">
        <ele>53.6</ele>
        <time>2018-09-16T07:15:59Z</time>
      </trkpt>
      <trkpt lat="43.3024980" lon="-2.9946820">
        <ele>53.2</ele>
        <time>2018-09-16T07:16:00Z</time>
      </trkpt>
      <trkpt lat="43.3025990" lon="-2.9946830">
        <ele>52.6</ele>
        <time>2018-09-16T07:16:02Z</time>
      </trkpt>
      <trkpt lat="43.3026810" lon="-2.9946920">
        <ele>51.8</ele>
        <time>2018-09-16T07:16:04Z</time>
      </trkpt>
      <trkpt lat="43.3027060" lon="-2.9947260">
        <ele>51.6</ele>
        <time>2018-09-16T07:16:05Z</time>
      </trkpt>
      <trkpt lat="43.3027120" lon="-2.9947790">
        <ele>51.6</ele>
        <time>2018-09-16T07:16:06Z</time>
      </trkpt>
      <trkpt lat="43.3027060" lon="-2.9948500">
        <ele>51.4</ele>
        <time>2018-09-16T07:16:07Z</time>
      </trkpt>
      <trkpt lat="43.3026970" lon="-2.9949330">
        <ele>51.6</ele>
        <time>2018-09-16T07:16:08Z</time>
      </trkpt>
      <trkpt lat="43.3026940" lon="-2.9951030">
        <ele>51.6</ele>
        <time>2018-09-16T07:16:10Z</time>
      </trkpt>
      <trkpt lat="43.3026970" lon="-2.9952780">
        <ele>51.6</ele>
        <time>2018-09-16T07:16:12Z</time>
      </trkpt>
      <trkpt lat="43.3027110" lon="-2.9955490">
        <ele>51.0</ele>
        <time>2018-09-16T07:16:15Z</time>
      </trkpt>
      <trkpt lat="43.3027580" lon="-2.9957440">
        <ele>50.6</ele>
        <time>2018-09-16T07:16:17Z</time>
      </trkpt>
      <trkpt lat="43.3027630" lon="-2.9958490">
        <ele>50.4</ele>
        <time>2018-09-16T07:16:18Z</time>
      </trkpt>
      <trkpt lat="43.3027410" lon="-2.9965280">
        <ele>50.0</ele>
        <time>2018-09-16T07:16:25Z</time>
      </trkpt>
      <trkpt lat="43.3027100" lon="-2.9972850">
        <ele>50.2</ele>
        <time>2018-09-16T07:16:33Z</time>
      </trkpt>
      <trkpt lat="43.3027060" lon="-2.9974650">
        <ele>50.4</ele>
        <time>2018-09-16T07:16:35Z</time>
      </trkpt>
      <trkpt lat="43.3027020" lon="-2.9976410">
        <ele>50.6</ele>
        <time>2018-09-16T07:16:37Z</time>
      </trkpt>
      <trkpt lat="43.3026980" lon="-2.9978160">
        <ele>50.6</ele>
        <time>2018-09-16T07:16:39Z</time>
      </trkpt>
      <trkpt lat="43.3027000" lon="-2.9979900">
        <ele>50.8</ele>
        <time>2018-09-16T07:16:41Z</time>
      </trkpt>
      <trkpt lat="43.3026950" lon="-2.9981650">
        <ele>51.2</ele>
        <time>2018-09-16T07:16:43Z</time>
      </trkpt>
      <trkpt lat="43.3026560" lon="-2.9983350">
        <ele>51.6</ele>
        <time>2018-09-16T07:16:45Z</time>
      </trkpt>
      <trkpt lat="43.3026430" lon="-2.9984230">
        <ele>52.0</ele>
        <time>2018-09-16T07:16:46Z</time>
      </trkpt>
      <trkpt lat="43.3026240" lon="-2.9986890">
        <ele>52.8</ele>
        <time>2018-09-16T07:16:49Z</time>
      </trkpt>
      <trkpt lat="43.3025860" lon="-2.9988520">
        <ele>53.2</ele>
        <time>2018-09-16T07:16:51Z</time>
      </trkpt>
      <trkpt lat="43.3025390" lon="-2.9989980">
        <ele>53.6</ele>
        <time>2018-09-16T07:16:53Z</time>
      </trkpt>
      <trkpt lat="43.3025370" lon="-2.9990640">
        <ele>54.0</ele>
        <time>2018-09-16T07:16:54Z</time>
      </trkpt>
      <trkpt lat="43.3025550" lon="-2.9991190">
        <ele>54.2</ele>
        <time>2018-09-16T07:16:55Z</time>
      </trkpt>
      <trkpt lat="43.3026600" lon="-2.9992330">
        <ele>55.2</ele>
        <time>2018-09-16T07:16:58Z</time>
      </trkpt>
      <trkpt lat="43.3027850" lon="-2.9993480">
        <ele>56.2</ele>
        <time>2018-09-16T07:17:01Z</time>
      </trkpt>
      <trkpt lat="43.3029240" lon="-2.9994680">
        <ele>56.6</ele>
        <time>2018-09-16T07:17:04Z</time>
      </trkpt>
      <trkpt lat="43.3029710" lon="-2.9995100">
        <ele>56.6</ele>
        <time>2018-09-16T07:17:05Z</time>
      </trkpt>
      <trkpt lat="43.3031390" lon="-2.9996560">
        <ele>56.0</ele>
        <time>2018-09-16T07:17:08Z</time>
      </trkpt>
      <trkpt lat="43.3032820" lon="-2.9997220">
        <ele>55.2</ele>
        <time>2018-09-16T07:17:10Z</time>
      </trkpt>
      <trkpt lat="43.3033560" lon="-2.9997390">
        <ele>55.0</ele>
        <time>2018-09-16T07:17:11Z</time>
      </trkpt>
      <trkpt lat="43.3036620" lon="-2.9997020">
        <ele>54.6</ele>
        <time>2018-09-16T07:17:15Z</time>
      </trkpt>
      <trkpt lat="43.3038110" lon="-2.9996830">
        <ele>54.6</ele>
        <time>2018-09-16T07:17:17Z</time>
      </trkpt>
      <trkpt lat="43.3042320" lon="-2.9996830">
        <ele>54.4</ele>
        <time>2018-09-16T07:17:23Z</time>
      </trkpt>
      <trkpt lat="43.3043690" lon="-2.9996970">
        <ele>54.4</ele>
        <time>2018-09-16T07:17:25Z</time>
      </trkpt>
      <trkpt lat="43.3047100" lon="-2.9997640">
        <ele>54.4</ele>
        <time>2018-09-16T07:17:30Z</time>
      </trkpt>
      <trkpt lat="43.3049140" lon="-2.9998340">
        <ele>54.8</ele>
        <time>2018-09-16T07:17:33Z</time>
      </trkpt>
      <trkpt lat="43.3050520" lon="-2.9998810">
        <ele>55.0</ele>
        <time>2018-09-16T07:17:35Z</time>
      </trkpt>
      <trkpt lat="43.3052490" lon="-2.9999580">
        <ele>55.8</ele>
        <time>2018-09-16T07:17:38Z</time>
      </trkpt>
      <trkpt lat="43.3053720" lon="-3.0000220">
        <ele>55.8</ele>
        <time>2018-09-16T07:17:40Z</time>
      </trkpt>
      <trkpt lat="43.3056020" lon="-3.0001660">
        <ele>56.2</ele>
        <time>2018-09-16T07:17:44Z</time>
      </trkpt>
      <trkpt lat="43.3056580" lon="-3.0002020">
        <ele>56.6</ele>
        <time>2018-09-16T07:17:45Z</time>
      </trkpt>
      <trkpt lat="43.3058250" lon="-3.0003080">
        <ele>57.4</ele>
        <time>2018-09-16T07:17:48Z</time>
      </trkpt>
      <trkpt lat="43.3062060" lon="-3.0005310">
        <ele>58.4</ele>
        <time>2018-09-16T07:17:55Z</time>
      </trkpt>
      <trkpt lat="43.3062640" lon="-3.0005530">
        <ele>58.4</ele>
        <time>2018-09-16T07:17:56Z</time>
      </trkpt>
      <trkpt lat="43.3063850" lon="-3.0005460">
        <ele>58.2</ele>
        <time>2018-09-16T07:17:58Z</time>
      </trkpt>
      <trkpt lat="43.3064870" lon="-3.0004670">
        <ele>57.6</ele>
        <time>2018-09-16T07:18:00Z</time>
      </trkpt>
      <trkpt lat="43.3065650" lon="-3.0003440">
        <ele>57.2</ele>
        <time>2018-09-16T07:18:02Z</time>
      </trkpt>
      <trkpt lat="43.3065900" lon="-3.0001890">
        <ele>57.0</ele>
        <time>2018-09-16T07:18:04Z</time>
      </trkpt>
      <trkpt lat="43.3065780" lon="-3.0001160">
        <ele>57.0</ele>
        <time>2018-09-16T07:18:05Z</time>
      </trkpt>
      <trkpt lat="43.3065470" lon="-3.0000560">
        <ele>57.0</ele>
        <time>2018-09-16T07:18:06Z</time>
      </trkpt>
      <trkpt lat="43.3064450" lon="-3.0000060">
        <ele>56.8</ele>
        <time>2018-09-16T07:18:08Z</time>
      </trkpt>
      <trkpt lat="43.3063370" lon="-3.0000660">
        <ele>56.6</ele>
        <time>2018-09-16T07:18:10Z</time>
      </trkpt>
      <trkpt lat="43.3062870" lon="-3.0001340">
        <ele>56.2</ele>
        <time>2018-09-16T07:18:11Z</time>
      </trkpt>
      <trkpt lat="43.3062400" lon="-3.0002200">
        <ele>56.2</ele>
        <time>2018-09-16T07:18:12Z</time>
      </trkpt>
      <trkpt lat="43.3061580" lon="-3.0004200">
        <ele>55.2</ele>
        <time>2018-09-16T07:18:14Z</time>
      </trkpt>
      <trkpt lat="43.3061230" lon="-3.0005260">
        <ele>54.6</ele>
        <time>2018-09-16T07:18:15Z</time>
      </trkpt>
      <trkpt lat="43.3060470" lon="-3.0007520">
        <ele>53.8</ele>
        <time>2018-09-16T07:18:17Z</time>
      </trkpt>
      <trkpt lat="43.3059350" lon="-3.0010670">
        <ele>53.2</ele>
        <time>2018-09-16T07:18:20Z</time>
      </trkpt>
      <trkpt lat="43.3057620" lon="-3.0015870">
        <ele>53.4</ele>
        <time>2018-09-16T07:18:25Z</time>
      </trkpt>
      <trkpt lat="43.3055030" lon="-3.0023350">
        <ele>54.2</ele>
        <time>2018-09-16T07:18:33Z</time>
      </trkpt>
      <trkpt lat="43.3054420" lon="-3.0025090">
        <ele>54.6</ele>
        <time>2018-09-16T07:18:35Z</time>
      </trkpt>
      <trkpt lat="43.3054140" lon="-3.0025900">
        <ele>54.8</ele>
        <time>2018-09-16T07:18:36Z</time>
      </trkpt>
      <trkpt lat="43.3053350" lon="-3.0028210">
        <ele>55.8</ele>
        <time>2018-09-16T07:18:39Z</time>
      </trkpt>
      <trkpt lat="43.3053090" lon="-3.0028940">
        <ele>56.2</ele>
        <time>2018-09-16T07:18:40Z</time>
      </trkpt>
      <trkpt lat="43.3052620" lon="-3.0030350">
        <ele>57.0</ele>
        <time>2018-09-16T07:18:42Z</time>
      </trkpt>
      <trkpt lat="43.3052410" lon="-3.0031030">
        <ele>57.4</ele>
        <time>2018-09-16T07:18:43Z</time>
      </trkpt>
      <trkpt lat="43.3051970" lon="-3.0032410">
        <ele>58.4</ele>
        <time>2018-09-16T07:18:45Z</time>
      </trkpt>
      <trkpt lat="43.3051470" lon="-3.0033790">
        <ele>59.6</ele>
        <time>2018-09-16T07:18:47Z</time>
      </trkpt>
      <trkpt lat="43.3050730" lon="-3.0035860">
        <ele>60.6</ele>
        <time>2018-09-16T07:18:50Z</time>
      </trkpt>
      <trkpt lat="43.3049780" lon="-3.0038510">
        <ele>62.0</ele>
        <time>2018-09-16T07:18:54Z</time>
      </trkpt>
      <trkpt lat="43.3049520" lon="-3.0039170">
        <ele>62.6</ele>
        <time>2018-09-16T07:18:55Z</time>
      </trkpt>
      <trkpt lat="43.3049050" lon="-3.0040410">
        <ele>63.2</ele>
        <time>2018-09-16T07:18:57Z</time>
      </trkpt>
      <trkpt lat="43.3048990" lon="-3.0041640">
        <ele>63.4</ele>
        <time>2018-09-16T07:18:59Z</time>
      </trkpt>
      <trkpt lat="43.3049500" lon="-3.0042830">
        <ele>63.8</ele>
        <time>2018-09-16T07:19:01Z</time>
      </trkpt>
      <trkpt lat="43.3050920" lon="-3.0045440">
        <ele>63.8</ele>
        <time>2018-09-16T07:19:05Z</time>
      </trkpt>
      <trkpt lat="43.3051230" lon="-3.0046160">
        <ele>63.6</ele>
        <time>2018-09-16T07:19:06Z</time>
      </trkpt>
      <trkpt lat="43.3051410" lon="-3.0047810">
        <ele>63.8</ele>
        <time>2018-09-16T07:19:08Z</time>
      </trkpt>
      <trkpt lat="43.3050360" lon="-3.0052420">
        <ele>63.0</ele>
        <time>2018-09-16T07:19:13Z</time>
      </trkpt>
      <trkpt lat="43.3049850" lon="-3.0054510">
        <ele>62.4</ele>
        <time>2018-09-16T07:19:15Z</time>
      </trkpt>
      <trkpt lat="43.3049370" lon="-3.0056700">
        <ele>62.0</ele>
        <time>2018-09-16T07:19:17Z</time>
      </trkpt>
      <trkpt lat="43.3048830" lon="-3.0058910">
        <ele>61.4</ele>
        <time>2018-09-16T07:19:19Z</time>
      </trkpt>
      <trkpt lat="43.3048540" lon="-3.0060110">
        <ele>61.0</ele>
        <time>2018-09-16T07:19:20Z</time>
      </trkpt>
      <trkpt lat="43.3048020" lon="-3.0062420">
        <ele>60.2</ele>
        <time>2018-09-16T07:19:22Z</time>
      </trkpt>
      <trkpt lat="43.3047470" lon="-3.0064620">
        <ele>59.8</ele>
        <time>2018-09-16T07:19:24Z</time>
      </trkpt>
      <trkpt lat="43.3047200" lon="-3.0065620">
        <ele>59.8</ele>
        <time>2018-09-16T07:19:25Z</time>
      </trkpt>
      <trkpt lat="43.3045700" lon="-3.0072710">
        <ele>60.6</ele>
        <time>2018-09-16T07:19:32Z</time>
      </trkpt>
      <trkpt lat="43.3045670" lon="-3.0073780">
        <ele>60.6</ele>
        <time>2018-09-16T07:19:33Z</time>
      </trkpt>
      <trkpt lat="43.3045780" lon="-3.0075830">
        <ele>61.0</ele>
        <time>2018-09-16T07:19:35Z</time>
      </trkpt>
      <trkpt lat="43.3046190" lon="-3.0078780">
        <ele>61.4</ele>
        <time>2018-09-16T07:19:38Z</time>
      </trkpt>
      <trkpt lat="43.3046700" lon="-3.0080660">
        <ele>61.6</ele>
        <time>2018-09-16T07:19:40Z</time>
      </trkpt>
      <trkpt lat="43.3048730" lon="-3.0085150">
        <ele>62.0</ele>
        <time>2018-09-16T07:19:45Z</time>
      </trkpt>
      <trkpt lat="43.3051360" lon="-3.0088280">
        <ele>61.8</ele>
        <time>2018-09-16T07:19:50Z</time>
      </trkpt>
      <trkpt lat="43.3052410" lon="-3.0088800">
        <ele>62.2</ele>
        <time>2018-09-16T07:19:52Z</time>
      </trkpt>
      <trkpt lat="43.3053260" lon="-3.0089120">
        <ele>62.6</ele>
        <time>2018-09-16T07:19:54Z</time>
      </trkpt>
      <trkpt lat="43.3053560" lon="-3.0089400">
        <ele>62.6</ele>
        <time>2018-09-16T07:19:55Z</time>
      </trkpt>
      <trkpt lat="43.3053930" lon="-3.0090020">
        <ele>62.8</ele>
        <time>2018-09-16T07:19:57Z</time>
      </trkpt>
      <trkpt lat="43.3054020" lon="-3.0090180">
        <ele>62.8</ele>
        <time>2018-09-16T07:19:59Z</time>
      </trkpt>
      <trkpt lat="43.3054110" lon="-3.0090500">
        <ele>54.2</ele>
        <time>2018-09-16T07:21:16Z</time>
      </trkpt>
      <trkpt lat="43.3054260" lon="-3.0091050">
        <ele>53.8</ele>
        <time>2018-09-16T07:21:18Z</time>
      </trkpt>
      <trkpt lat="43.3054350" lon="-3.0091420">
        <ele>53.6</ele>
        <time>2018-09-16T07:21:19Z</time>
      </trkpt>
      <trkpt lat="43.3054400" lon="-3.0092180">
        <ele>53.6</ele>
        <time>2018-09-16T07:21:21Z</time>
      </trkpt>
      <trkpt lat="43.3054250" lon="-3.0092590">
        <ele>53.4</ele>
        <time>2018-09-16T07:21:22Z</time>
      </trkpt>
      <trkpt lat="43.3053940" lon="-3.0092990">
        <ele>53.4</ele>
        <time>2018-09-16T07:21:23Z</time>
      </trkpt>
      <trkpt lat="43.3053520" lon="-3.0093380">
        <ele>53.2</ele>
        <time>2018-09-16T07:21:24Z</time>
      </trkpt>
      <trkpt lat="43.3053040" lon="-3.0093840">
        <ele>52.8</ele>
        <time>2018-09-16T07:21:25Z</time>
      </trkpt>
      <trkpt lat="43.3052020" lon="-3.0094910">
        <ele>52.2</ele>
        <time>2018-09-16T07:21:27Z</time>
      </trkpt>
      <trkpt lat="43.3050820" lon="-3.0096270">
        <ele>51.2</ele>
        <time>2018-09-16T07:21:29Z</time>
      </trkpt>
      <trkpt lat="43.3049710" lon="-3.0097630">
        <ele>50.0</ele>
        <time>2018-09-16T07:21:31Z</time>
      </trkpt>
      <trkpt lat="43.3049330" lon="-3.0098350">
        <ele>49.6</ele>
        <time>2018-09-16T07:21:32Z</time>
      </trkpt>
      <trkpt lat="43.3049480" lon="-3.0100020">
        <ele>49.0</ele>
        <time>2018-09-16T07:21:34Z</time>
      </trkpt>
      <trkpt lat="43.3050090" lon="-3.0100550">
        <ele>48.6</ele>
        <time>2018-09-16T07:21:35Z</time>
      </trkpt>
      <trkpt lat="43.3051390" lon="-3.0101910">
        <ele>48.0</ele>
        <time>2018-09-16T07:21:37Z</time>
      </trkpt>
      <trkpt lat="43.3052550" lon="-3.0103650">
        <ele>47.6</ele>
        <time>2018-09-16T07:21:39Z</time>
      </trkpt>
      <trkpt lat="43.3053130" lon="-3.0104480">
        <ele>47.4</ele>
        <time>2018-09-16T07:21:40Z</time>
      </trkpt>
      <trkpt lat="43.3055500" lon="-3.0107040">
        <ele>47.2</ele>
        <time>2018-09-16T07:21:44Z</time>
      </trkpt>
      <trkpt lat="43.3056090" lon="-3.0107700">
        <ele>47.4</ele>
        <time>2018-09-16T07:21:45Z</time>
      </trkpt>
      <trkpt lat="43.3057210" lon="-3.0109180">
        <ele>47.6</ele>
        <time>2018-09-16T07:21:47Z</time>
      </trkpt>
      <trkpt lat="43.3058150" lon="-3.0110850">
        <ele>47.8</ele>
        <time>2018-09-16T07:21:49Z</time>
      </trkpt>
      <trkpt lat="43.3058880" lon="-3.0112690">
        <ele>48.2</ele>
        <time>2018-09-16T07:21:51Z</time>
      </trkpt>
      <trkpt lat="43.3059520" lon="-3.0114580">
        <ele>48.6</ele>
        <time>2018-09-16T07:21:53Z</time>
      </trkpt>
      <trkpt lat="43.3060130" lon="-3.0116490">
        <ele>48.8</ele>
        <time>2018-09-16T07:21:55Z</time>
      </trkpt>
      <trkpt lat="43.3061060" lon="-3.0119380">
        <ele>49.8</ele>
        <time>2018-09-16T07:21:58Z</time>
      </trkpt>
      <trkpt lat="43.3062030" lon="-3.0122260">
        <ele>51.0</ele>
        <time>2018-09-16T07:22:01Z</time>
      </trkpt>
      <trkpt lat="43.3063250" lon="-3.0126020">
        <ele>51.2</ele>
        <time>2018-09-16T07:22:05Z</time>
      </trkpt>
      <trkpt lat="43.3065590" lon="-3.0133420">
        <ele>51.2</ele>
        <time>2018-09-16T07:22:13Z</time>
      </trkpt>
      <trkpt lat="43.3066200" lon="-3.0135230">
        <ele>51.4</ele>
        <time>2018-09-16T07:22:15Z</time>
      </trkpt>
      <trkpt lat="43.3068620" lon="-3.0142330">
        <ele>52.0</ele>
        <time>2018-09-16T07:22:23Z</time>
      </trkpt>
      <trkpt lat="43.3068930" lon="-3.0143170">
        <ele>52.2</ele>
        <time>2018-09-16T07:22:24Z</time>
      </trkpt>
      <trkpt lat="43.3069260" lon="-3.0143990">
        <ele>52.6</ele>
        <time>2018-09-16T07:22:25Z</time>
      </trkpt>
      <trkpt lat="43.3070460" lon="-3.0146310">
        <ele>53.2</ele>
        <time>2018-09-16T07:22:28Z</time>
      </trkpt>
      <trkpt lat="43.3070920" lon="-3.0146960">
        <ele>53.2</ele>
        <time>2018-09-16T07:22:29Z</time>
      </trkpt>
      <trkpt lat="43.3071470" lon="-3.0147480">
        <ele>53.4</ele>
        <time>2018-09-16T07:22:30Z</time>
      </trkpt>
      <trkpt lat="43.3072630" lon="-3.0148300">
        <ele>53.8</ele>
        <time>2018-09-16T07:22:32Z</time>
      </trkpt>
      <trkpt lat="43.3073060" lon="-3.0148770">
        <ele>54.0</ele>
        <time>2018-09-16T07:22:33Z</time>
      </trkpt>
      <trkpt lat="43.3073770" lon="-3.0150010">
        <ele>54.2</ele>
        <time>2018-09-16T07:22:35Z</time>
      </trkpt>
      <trkpt lat="43.3073860" lon="-3.0151870">
        <ele>54.4</ele>
        <time>2018-09-16T07:22:37Z</time>
      </trkpt>
      <trkpt lat="43.3073650" lon="-3.0152650">
        <ele>54.4</ele>
        <time>2018-09-16T07:22:38Z</time>
      </trkpt>
      <trkpt lat="43.3073280" lon="-3.0153300">
        <ele>54.6</ele>
        <time>2018-09-16T07:22:39Z</time>
      </trkpt>
      <trkpt lat="43.3072180" lon="-3.0154220">
        <ele>55.4</ele>
        <time>2018-09-16T07:22:41Z</time>
      </trkpt>
      <trkpt lat="43.3071570" lon="-3.0154490">
        <ele>55.6</ele>
        <time>2018-09-16T07:22:42Z</time>
      </trkpt>
      <trkpt lat="43.3070370" lon="-3.0154840">
        <ele>56.2</ele>
        <time>2018-09-16T07:22:44Z</time>
      </trkpt>
      <trkpt lat="43.3069830" lon="-3.0155130">
        <ele>56.2</ele>
        <time>2018-09-16T07:22:45Z</time>
      </trkpt>
      <trkpt lat="43.3069360" lon="-3.0155570">
        <ele>56.4</ele>
        <time>2018-09-16T07:22:46Z</time>
      </trkpt>
      <trkpt lat="43.3068780" lon="-3.0156910">
        <ele>56.8</ele>
        <time>2018-09-16T07:22:48Z</time>
      </trkpt>
      <trkpt lat="43.3068850" lon="-3.0158590">
        <ele>57.6</ele>
        <time>2018-09-16T07:22:50Z</time>
      </trkpt>
      <trkpt lat="43.3069420" lon="-3.0160010">
        <ele>58.0</ele>
        <time>2018-09-16T07:22:52Z</time>
      </trkpt>
      <trkpt lat="43.3070620" lon="-3.0161670">
        <ele>59.4</ele>
        <time>2018-09-16T07:22:55Z</time>
      </trkpt>
      <trkpt lat="43.3072120" lon="-3.0164070">
        <ele>60.6</ele>
        <time>2018-09-16T07:22:59Z</time>
      </trkpt>
      <trkpt lat="43.3073780" lon="-3.0167250">
        <ele>61.8</ele>
        <time>2018-09-16T07:23:04Z</time>
      </trkpt>
      <trkpt lat="43.3074060" lon="-3.0167910">
        <ele>62.0</ele>
        <time>2018-09-16T07:23:05Z</time>
      </trkpt>
      <trkpt lat="43.3074910" lon="-3.0169920">
        <ele>63.0</ele>
        <time>2018-09-16T07:23:08Z</time>
      </trkpt>
      <trkpt lat="43.3076180" lon="-3.0173540">
        <ele>64.2</ele>
        <time>2018-09-16T07:23:13Z</time>
      </trkpt>
      <trkpt lat="43.3076630" lon="-3.0175020">
        <ele>64.8</ele>
        <time>2018-09-16T07:23:15Z</time>
      </trkpt>
      <trkpt lat="43.3077020" lon="-3.0176510">
        <ele>65.4</ele>
        <time>2018-09-16T07:23:17Z</time>
      </trkpt>
      <trkpt lat="43.3077810" lon="-3.0180290">
        <ele>66.4</ele>
        <time>2018-09-16T07:23:22Z</time>
      </trkpt>
      <trkpt lat="43.3078340" lon="-3.0182510">
        <ele>67.4</ele>
        <time>2018-09-16T07:23:25Z</time>
      </trkpt>
      <trkpt lat="43.3078550" lon="-3.0183230">
        <ele>67.8</ele>
        <time>2018-09-16T07:23:26Z</time>
      </trkpt>
      <trkpt lat="43.3079380" lon="-3.0186120">
        <ele>69.0</ele>
        <time>2018-09-16T07:23:30Z</time>
      </trkpt>
      <trkpt lat="43.3079720" lon="-3.0190140">
        <ele>69.8</ele>
        <time>2018-09-16T07:23:35Z</time>
      </trkpt>
      <trkpt lat="43.3079810" lon="-3.0190970">
        <ele>70.2</ele>
        <time>2018-09-16T07:23:36Z</time>
      </trkpt>
      <trkpt lat="43.3080310" lon="-3.0194370">
        <ele>71.2</ele>
        <time>2018-09-16T07:23:40Z</time>
      </trkpt>
      <trkpt lat="43.3081120" lon="-3.0198690">
        <ele>71.8</ele>
        <time>2018-09-16T07:23:45Z</time>
      </trkpt>
      <trkpt lat="43.3081690" lon="-3.0201350">
        <ele>72.2</ele>
        <time>2018-09-16T07:23:48Z</time>
      </trkpt>
      <trkpt lat="43.3083150" lon="-3.0207560">
        <ele>73.2</ele>
        <time>2018-09-16T07:23:55Z</time>
      </trkpt>
      <trkpt lat="43.3084200" lon="-3.0212040">
        <ele>74.6</ele>
        <time>2018-09-16T07:24:00Z</time>
      </trkpt>
      <trkpt lat="43.3085160" lon="-3.0215530">
        <ele>75.8</ele>
        <time>2018-09-16T07:24:04Z</time>
      </trkpt>
      <trkpt lat="43.3085410" lon="-3.0216430">
        <ele>76.0</ele>
        <time>2018-09-16T07:24:05Z</time>
      </trkpt>
      <trkpt lat="43.3086560" lon="-3.0219900">
        <ele>76.8</ele>
        <time>2018-09-16T07:24:09Z</time>
      </trkpt>
      <trkpt lat="43.3088180" lon="-3.0224180">
        <ele>78.0</ele>
        <time>2018-09-16T07:24:14Z</time>
      </trkpt>
      <trkpt lat="43.3088540" lon="-3.0225030">
        <ele>78.2</ele>
        <time>2018-09-16T07:24:15Z</time>
      </trkpt>
      <trkpt lat="43.3091310" lon="-3.0230750">
        <ele>79.0</ele>
        <time>2018-09-16T07:24:22Z</time>
      </trkpt>
      <trkpt lat="43.3092610" lon="-3.0233150">
        <ele>79.0</ele>
        <time>2018-09-16T07:24:25Z</time>
      </trkpt>
      <trkpt lat="43.3095680" lon="-3.0238740">
        <ele>80.0</ele>
        <time>2018-09-16T07:24:32Z</time>
      </trkpt>
      <trkpt lat="43.3096130" lon="-3.0239510">
        <ele>80.2</ele>
        <time>2018-09-16T07:24:33Z</time>
      </trkpt>
      <trkpt lat="43.3097060" lon="-3.0241050">
        <ele>80.6</ele>
        <time>2018-09-16T07:24:35Z</time>
      </trkpt>
      <trkpt lat="43.3100920" lon="-3.0246860">
        <ele>81.0</ele>
        <time>2018-09-16T07:24:43Z</time>
      </trkpt>
      <trkpt lat="43.3101980" lon="-3.0248250">
        <ele>81.0</ele>
        <time>2018-09-16T07:24:45Z</time>
      </trkpt>
      <trkpt lat="43.3102520" lon="-3.0248930">
        <ele>81.2</ele>
        <time>2018-09-16T07:24:46Z</time>
      </trkpt>
      <trkpt lat="43.3107180" lon="-3.0253700">
        <ele>82.2</ele>
        <time>2018-09-16T07:24:54Z</time>
      </trkpt>
      <trkpt lat="43.3107830" lon="-3.0254090">
        <ele>82.2</ele>
        <time>2018-09-16T07:24:55Z</time>
      </trkpt>
      <trkpt lat="43.3108480" lon="-3.0254430">
        <ele>82.2</ele>
        <time>2018-09-16T07:24:56Z</time>
      </trkpt>
      <trkpt lat="43.3111000" lon="-3.0255870">
        <ele>83.4</ele>
        <time>2018-09-16T07:25:00Z</time>
      </trkpt>
      <trkpt lat="43.3114010" lon="-3.0257740">
        <ele>84.6</ele>
        <time>2018-09-16T07:25:05Z</time>
      </trkpt>
      <trkpt lat="43.3116330" lon="-3.0259390">
        <ele>85.6</ele>
        <time>2018-09-16T07:25:09Z</time>
      </trkpt>
      <trkpt lat="43.3117870" lon="-3.0260960">
        <ele>86.6</ele>
        <time>2018-09-16T07:25:12Z</time>
      </trkpt>
      <trkpt lat="43.3118310" lon="-3.0261590">
        <ele>86.8</ele>
        <time>2018-09-16T07:25:13Z</time>
      </trkpt>
      <trkpt lat="43.3119110" lon="-3.0262950">
        <ele>87.6</ele>
        <time>2018-09-16T07:25:15Z</time>
      </trkpt>
      <trkpt lat="43.3119470" lon="-3.0263650">
        <ele>87.8</ele>
        <time>2018-09-16T07:25:16Z</time>
      </trkpt>
      <trkpt lat="43.3122060" lon="-3.0267470">
        <ele>89.0</ele>
        <time>2018-09-16T07:25:22Z</time>
      </trkpt>
      <trkpt lat="43.3123580" lon="-3.0269310">
        <ele>88.8</ele>
        <time>2018-09-16T07:25:25Z</time>
      </trkpt>
      <trkpt lat="43.3127700" lon="-3.0275120">
        <ele>88.0</ele>
        <time>2018-09-16T07:25:32Z</time>
      </trkpt>
      <trkpt lat="43.3128350" lon="-3.0275960">
        <ele>87.8</ele>
        <time>2018-09-16T07:25:33Z</time>
      </trkpt>
      <trkpt lat="43.3129710" lon="-3.0277600">
        <ele>87.0</ele>
        <time>2018-09-16T07:25:35Z</time>
      </trkpt>
      <trkpt lat="43.3130360" lon="-3.0278460">
        <ele>86.6</ele>
        <time>2018-09-16T07:25:36Z</time>
      </trkpt>
      <trkpt lat="43.3132250" lon="-3.0281030">
        <ele>85.6</ele>
        <time>2018-09-16T07:25:39Z</time>
      </trkpt>
      <trkpt lat="43.3133970" lon="-3.0283420">
        <ele>84.4</ele>
        <time>2018-09-16T07:25:42Z</time>
      </trkpt>
      <trkpt lat="43.3134810" lon="-3.0284880">
        <ele>83.8</ele>
        <time>2018-09-16T07:25:44Z</time>
      </trkpt>
      <trkpt lat="43.3134860" lon="-3.0285700">
        <ele>83.6</ele>
        <time>2018-09-16T07:25:45Z</time>
      </trkpt>
      <trkpt lat="43.3134570" lon="-3.0286460">
        <ele>83.4</ele>
        <time>2018-09-16T07:25:46Z</time>
      </trkpt>
      <trkpt lat="43.3134130" lon="-3.0287080">
        <ele>83.2</ele>
        <time>2018-09-16T07:25:47Z</time>
      </trkpt>
      <trkpt lat="43.3130650" lon="-3.0290900">
        <ele>82.4</ele>
        <time>2018-09-16T07:25:54Z</time>
      </trkpt>
      <trkpt lat="43.3130150" lon="-3.0291440">
        <ele>82.6</ele>
        <time>2018-09-16T07:25:55Z</time>
      </trkpt>
      <trkpt lat="43.3125680" lon="-3.0296720">
        <ele>83.8</ele>
        <time>2018-09-16T07:26:04Z</time>
      </trkpt>
      <trkpt lat="43.3125210" lon="-3.0297390">
        <ele>83.8</ele>
        <time>2018-09-16T07:26:05Z</time>
      </trkpt>
      <trkpt lat="43.3121970" lon="-3.0303700">
        <ele>84.2</ele>
        <time>2018-09-16T07:26:13Z</time>
      </trkpt>
      <trkpt lat="43.3121600" lon="-3.0304520">
        <ele>84.4</ele>
        <time>2018-09-16T07:26:14Z</time>
      </trkpt>
      <trkpt lat="43.3121240" lon="-3.0305360">
        <ele>84.6</ele>
        <time>2018-09-16T07:26:15Z</time>
      </trkpt>
      <trkpt lat="43.3120140" lon="-3.0307850">
        <ele>85.4</ele>
        <time>2018-09-16T07:26:18Z</time>
      </trkpt>
      <trkpt lat="43.3117350" lon="-3.0313780">
        <ele>84.8</ele>
        <time>2018-09-16T07:26:25Z</time>
      </trkpt>
      <trkpt lat="43.3116390" lon="-3.0315410">
        <ele>84.8</ele>
        <time>2018-09-16T07:26:27Z</time>
      </trkpt>
      <trkpt lat="43.3112230" lon="-3.0320390">
        <ele>86.4</ele>
        <time>2018-09-16T07:26:35Z</time>
      </trkpt>
      <trkpt lat="43.3111690" lon="-3.0320900">
        <ele>86.8</ele>
        <time>2018-09-16T07:26:36Z</time>
      </trkpt>
      <trkpt lat="43.3109500" lon="-3.0322870">
        <ele>88.0</ele>
        <time>2018-09-16T07:26:40Z</time>
      </trkpt>
      <trkpt lat="43.3107950" lon="-3.0324380">
        <ele>89.0</ele>
        <time>2018-09-16T07:26:43Z</time>
      </trkpt>
      <trkpt lat="43.3107510" lon="-3.0324990">
        <ele>89.2</ele>
        <time>2018-09-16T07:26:44Z</time>
      </trkpt>
      <trkpt lat="43.3107140" lon="-3.0325690">
        <ele>89.6</ele>
        <time>2018-09-16T07:26:45Z</time>
      </trkpt>
      <trkpt lat="43.3106710" lon="-3.0327260">
        <ele>90.2</ele>
        <time>2018-09-16T07:26:47Z</time>
      </trkpt>
      <trkpt lat="43.3106750" lon="-3.0328870">
        <ele>90.6</ele>
        <time>2018-09-16T07:26:49Z</time>
      </trkpt>
      <trkpt lat="43.3107220" lon="-3.0330380">
        <ele>91.2</ele>
        <time>2018-09-16T07:26:51Z</time>
      </trkpt>
      <trkpt lat="43.3108000" lon="-3.0331700">
        <ele>91.8</ele>
        <time>2018-09-16T07:26:53Z</time>
      </trkpt>
      <trkpt lat="43.3108960" lon="-3.0332790">
        <ele>92.2</ele>
        <time>2018-09-16T07:26:55Z</time>
      </trkpt>
      <trkpt lat="43.3109470" lon="-3.0333290">
        <ele>92.4</ele>
        <time>2018-09-16T07:26:56Z</time>
      </trkpt>
      <trkpt lat="43.3112160" lon="-3.0335550">
        <ele>93.8</ele>
        <time>2018-09-16T07:27:01Z</time>
      </trkpt>
      <trkpt lat="43.3113520" lon="-3.0337110">
        <ele>94.6</ele>
        <time>2018-09-16T07:27:04Z</time>
      </trkpt>
      <trkpt lat="43.3113920" lon="-3.0337730">
        <ele>94.8</ele>
        <time>2018-09-16T07:27:05Z</time>
      </trkpt>
      <trkpt lat="43.3114290" lon="-3.0338380">
        <ele>95.2</ele>
        <time>2018-09-16T07:27:06Z</time>
      </trkpt>
      <trkpt lat="43.3114920" lon="-3.0339800">
        <ele>96.0</ele>
        <time>2018-09-16T07:27:08Z</time>
      </trkpt>
      <trkpt lat="43.3115540" lon="-3.0344080">
        <ele>97.0</ele>
        <time>2018-09-16T07:27:13Z</time>
      </trkpt>
      <trkpt lat="43.3115430" lon="-3.0345920">
        <ele>97.2</ele>
        <time>2018-09-16T07:27:15Z</time>
      </trkpt>
      <trkpt lat="43.3114800" lon="-3.0352670">
        <ele>96.4</ele>
        <time>2018-09-16T07:27:22Z</time>
      </trkpt>
      <trkpt lat="43.3115100" lon="-3.0354540">
        <ele>95.8</ele>
        <time>2018-09-16T07:27:24Z</time>
      </trkpt>
      <trkpt lat="43.3115420" lon="-3.0355420">
        <ele>95.4</ele>
        <time>2018-09-16T07:27:25Z</time>
      </trkpt>
      <trkpt lat="43.3116710" lon="-3.0358060">
        <ele>94.6</ele>
        <time>2018-09-16T07:27:28Z</time>
      </trkpt>
      <trkpt lat="43.3117630" lon="-3.0360030">
        <ele>93.8</ele>
        <time>2018-09-16T07:27:30Z</time>
      </trkpt>
      <trkpt lat="43.3117990" lon="-3.0361130">
        <ele>93.2</ele>
        <time>2018-09-16T07:27:31Z</time>
      </trkpt>
      <trkpt lat="43.3118470" lon="-3.0363380">
        <ele>92.0</ele>
        <time>2018-09-16T07:27:33Z</time>
      </trkpt>
      <trkpt lat="43.3118820" lon="-3.0365580">
        <ele>91.4</ele>
        <time>2018-09-16T07:27:35Z</time>
      </trkpt>
      <trkpt lat="43.3119030" lon="-3.0366640">
        <ele>91.0</ele>
        <time>2018-09-16T07:27:36Z</time>
      </trkpt>
      <trkpt lat="43.3119730" lon="-3.0369810">
        <ele>90.2</ele>
        <time>2018-09-16T07:27:39Z</time>
      </trkpt>
      <trkpt lat="43.3119950" lon="-3.0370950">
        <ele>89.8</ele>
        <time>2018-09-16T07:27:40Z</time>
      </trkpt>
      <trkpt lat="43.3120700" lon="-3.0374580">
        <ele>88.4</ele>
        <time>2018-09-16T07:27:43Z</time>
      </trkpt>
      <trkpt lat="43.3121320" lon="-3.0377050">
        <ele>87.6</ele>
        <time>2018-09-16T07:27:45Z</time>
      </trkpt>
      <trkpt lat="43.3121880" lon="-3.0379390">
        <ele>87.2</ele>
        <time>2018-09-16T07:27:47Z</time>
      </trkpt>
      <trkpt lat="43.3123670" lon="-3.0387290">
        <ele>87.0</ele>
        <time>2018-09-16T07:27:55Z</time>
      </trkpt>
      <trkpt lat="43.3125060" lon="-3.0394550">
        <ele>87.8</ele>
        <time>2018-09-16T07:28:03Z</time>
      </trkpt>
      <trkpt lat="43.3125490" lon="-3.0396330">
        <ele>88.0</ele>
        <time>2018-09-16T07:28:05Z</time>
      </trkpt>
      <trkpt lat="43.3126530" lon="-3.0399840">
        <ele>88.2</ele>
        <time>2018-09-16T07:28:09Z</time>
      </trkpt>
      <trkpt lat="43.3128110" lon="-3.0405120">
        <ele>88.4</ele>
        <time>2018-09-16T07:28:15Z</time>
      </trkpt>
      <trkpt lat="43.3129130" lon="-3.0408530">
        <ele>89.0</ele>
        <time>2018-09-16T07:28:19Z</time>
      </trkpt>
      <trkpt lat="43.3129630" lon="-3.0410160">
        <ele>89.4</ele>
        <time>2018-09-16T07:28:21Z</time>
      </trkpt>
      <trkpt lat="43.3130550" lon="-3.0413280">
        <ele>90.4</ele>
        <time>2018-09-16T07:28:25Z</time>
      </trkpt>
      <trkpt lat="43.3130980" lon="-3.0414770">
        <ele>90.4</ele>
        <time>2018-09-16T07:28:27Z</time>
      </trkpt>
      <trkpt lat="43.3131650" lon="-3.0416940">
        <ele>91.2</ele>
        <time>2018-09-16T07:28:30Z</time>
      </trkpt>
      <trkpt lat="43.3131870" lon="-3.0417670">
        <ele>91.8</ele>
        <time>2018-09-16T07:28:31Z</time>
      </trkpt>
      <trkpt lat="43.3132320" lon="-3.0419140">
        <ele>93.0</ele>
        <time>2018-09-16T07:28:33Z</time>
      </trkpt>
      <trkpt lat="43.3132760" lon="-3.0420590">
        <ele>93.6</ele>
        <time>2018-09-16T07:28:35Z</time>
      </trkpt>
      <trkpt lat="43.3133220" lon="-3.0422050">
        <ele>94.4</ele>
        <time>2018-09-16T07:28:37Z</time>
      </trkpt>
      <trkpt lat="43.3133680" lon="-3.0423520">
        <ele>95.6</ele>
        <time>2018-09-16T07:28:39Z</time>
      </trkpt>
      <trkpt lat="43.3134380" lon="-3.0425820">
        <ele>96.8</ele>
        <time>2018-09-16T07:28:42Z</time>
      </trkpt>
      <trkpt lat="43.3135130" lon="-3.0428180">
        <ele>97.8</ele>
        <time>2018-09-16T07:28:45Z</time>
      </trkpt>
      <trkpt lat="43.3135370" lon="-3.0429010">
        <ele>98.0</ele>
        <time>2018-09-16T07:28:46Z</time>
      </trkpt>
      <trkpt lat="43.3136430" lon="-3.0434330">
        <ele>98.6</ele>
        <time>2018-09-16T07:28:52Z</time>
      </trkpt>
      <trkpt lat="43.3136650" lon="-3.0437210">
        <ele>98.8</ele>
        <time>2018-09-16T07:28:55Z</time>
      </trkpt>
      <trkpt lat="43.3136530" lon="-3.0442990">
        <ele>99.0</ele>
        <time>2018-09-16T07:29:01Z</time>
      </trkpt>
      <trkpt lat="43.3136110" lon="-3.0446850">
        <ele>99.2</ele>
        <time>2018-09-16T07:29:05Z</time>
      </trkpt>
      <trkpt lat="43.3135730" lon="-3.0454590">
        <ele>99.0</ele>
        <time>2018-09-16T07:29:13Z</time>
      </trkpt>
      <trkpt lat="43.3135960" lon="-3.0456450">
        <ele>99.0</ele>
        <time>2018-09-16T07:29:15Z</time>
      </trkpt>
      <trkpt lat="43.3138270" lon="-3.0463120">
        <ele>99.2</ele>
        <time>2018-09-16T07:29:23Z</time>
      </trkpt>
      <trkpt lat="43.3139040" lon="-3.0464690">
        <ele>99.0</ele>
        <time>2018-09-16T07:29:25Z</time>
      </trkpt>
      <trkpt lat="43.3141640" lon="-3.0471410">
        <ele>98.0</ele>
        <time>2018-09-16T07:29:33Z</time>
      </trkpt>
      <trkpt lat="43.3142090" lon="-3.0473210">
        <ele>97.8</ele>
        <time>2018-09-16T07:29:35Z</time>
      </trkpt>
      <trkpt lat="43.3142460" lon="-3.0476030">
        <ele>97.6</ele>
        <time>2018-09-16T07:29:38Z</time>
      </trkpt>
      <trkpt lat="43.3142510" lon="-3.0479820">
        <ele>98.0</ele>
        <time>2018-09-16T07:29:42Z</time>
      </trkpt>
      <trkpt lat="43.3142090" lon="-3.0482720">
        <ele>98.0</ele>
        <time>2018-09-16T07:29:45Z</time>
      </trkpt>
      <trkpt lat="43.3141030" lon="-3.0490080">
        <ele>97.8</ele>
        <time>2018-09-16T07:29:53Z</time>
      </trkpt>
      <trkpt lat="43.3141030" lon="-3.0491970">
        <ele>97.8</ele>
        <time>2018-09-16T07:29:55Z</time>
      </trkpt>
      <trkpt lat="43.3142670" lon="-3.0499840">
        <ele>97.2</ele>
        <time>2018-09-16T07:30:04Z</time>
      </trkpt>
      <trkpt lat="43.3143040" lon="-3.0500640">
        <ele>97.2</ele>
        <time>2018-09-16T07:30:05Z</time>
      </trkpt>
      <trkpt lat="43.3146680" lon="-3.0506320">
        <ele>98.0</ele>
        <time>2018-09-16T07:30:13Z</time>
      </trkpt>
      <trkpt lat="43.3147630" lon="-3.0507590">
        <ele>98.0</ele>
        <time>2018-09-16T07:30:15Z</time>
      </trkpt>
      <trkpt lat="43.3150690" lon="-3.0513620">
        <ele>99.0</ele>
        <time>2018-09-16T07:30:23Z</time>
      </trkpt>
      <trkpt lat="43.3151170" lon="-3.0515360">
        <ele>99.0</ele>
        <time>2018-09-16T07:30:25Z</time>
      </trkpt>
      <trkpt lat="43.3151640" lon="-3.0519040">
        <ele>99.0</ele>
        <time>2018-09-16T07:30:29Z</time>
      </trkpt>
      <trkpt lat="43.3151170" lon="-3.0524480">
        <ele>100.0</ele>
        <time>2018-09-16T07:30:35Z</time>
      </trkpt>
      <trkpt lat="43.3150990" lon="-3.0525380">
        <ele>100.2</ele>
        <time>2018-09-16T07:30:36Z</time>
      </trkpt>
      <trkpt lat="43.3148520" lon="-3.0532180">
        <ele>100.8</ele>
        <time>2018-09-16T07:30:44Z</time>
      </trkpt>
      <trkpt lat="43.3148180" lon="-3.0533000">
        <ele>100.8</ele>
        <time>2018-09-16T07:30:45Z</time>
      </trkpt>
      <trkpt lat="43.3146790" lon="-3.0537150">
        <ele>101.2</ele>
        <time>2018-09-16T07:30:50Z</time>
      </trkpt>
      <trkpt lat="43.3146460" lon="-3.0539740">
        <ele>101.4</ele>
        <time>2018-09-16T07:30:53Z</time>
      </trkpt>
      <trkpt lat="43.3146470" lon="-3.0540630">
        <ele>101.4</ele>
        <time>2018-09-16T07:30:54Z</time>
      </trkpt>
      <trkpt lat="43.3146540" lon="-3.0541470">
        <ele>101.4</ele>
        <time>2018-09-16T07:30:55Z</time>
      </trkpt>
      <trkpt lat="43.3147020" lon="-3.0544030">
        <ele>101.8</ele>
        <time>2018-09-16T07:30:58Z</time>
      </trkpt>
      <trkpt lat="43.3148650" lon="-3.0547920">
        <ele>102.4</ele>
        <time>2018-09-16T07:31:03Z</time>
      </trkpt>
      <trkpt lat="43.3149070" lon="-3.0548590">
        <ele>102.4</ele>
        <time>2018-09-16T07:31:04Z</time>
      </trkpt>
      <trkpt lat="43.3149550" lon="-3.0549170">
        <ele>102.6</ele>
        <time>2018-09-16T07:31:05Z</time>
      </trkpt>
      <trkpt lat="43.3150080" lon="-3.0549720">
        <ele>103.0</ele>
        <time>2018-09-16T07:31:06Z</time>
      </trkpt>
      <trkpt lat="43.3151210" lon="-3.0550550">
        <ele>103.8</ele>
        <time>2018-09-16T07:31:08Z</time>
      </trkpt>
      <trkpt lat="43.3151810" lon="-3.0550880">
        <ele>104.2</ele>
        <time>2018-09-16T07:31:09Z</time>
      </trkpt>
      <trkpt lat="43.3154460" lon="-3.0551810">
        <ele>105.0</ele>
        <time>2018-09-16T07:31:13Z</time>
      </trkpt>
      <trkpt lat="43.3155800" lon="-3.0552180">
        <ele>105.2</ele>
        <time>2018-09-16T07:31:15Z</time>
      </trkpt>
      <trkpt lat="43.3157780" lon="-3.0552880">
        <ele>106.2</ele>
        <time>2018-09-16T07:31:18Z</time>
      </trkpt>
      <trkpt lat="43.3160310" lon="-3.0554410">
        <ele>106.6</ele>
        <time>2018-09-16T07:31:22Z</time>
      </trkpt>
      <trkpt lat="43.3161960" lon="-3.0556050">
        <ele>106.6</ele>
        <time>2018-09-16T07:31:25Z</time>
      </trkpt>
      <trkpt lat="43.3165340" lon="-3.0562120">
        <ele>106.4</ele>
        <time>2018-09-16T07:31:33Z</time>
      </trkpt>
      <trkpt lat="43.3165920" lon="-3.0563850">
        <ele>106.4</ele>
        <time>2018-09-16T07:31:35Z</time>
      </trkpt>
      <trkpt lat="43.3167390" lon="-3.0568210">
        <ele>107.4</ele>
        <time>2018-09-16T07:31:40Z</time>
      </trkpt>
      <trkpt lat="43.3168850" lon="-3.0572380">
        <ele>108.8</ele>
        <time>2018-09-16T07:31:45Z</time>
      </trkpt>
      <trkpt lat="43.3169860" lon="-3.0575370">
        <ele>110.0</ele>
        <time>2018-09-16T07:31:49Z</time>
      </trkpt>
      <trkpt lat="43.3170640" lon="-3.0577510">
        <ele>111.6</ele>
        <time>2018-09-16T07:31:52Z</time>
      </trkpt>
      <trkpt lat="43.3170850" lon="-3.0578240">
        <ele>112.0</ele>
        <time>2018-09-16T07:31:53Z</time>
      </trkpt>
      <trkpt lat="43.3171000" lon="-3.0579030">
        <ele>112.6</ele>
        <time>2018-09-16T07:31:54Z</time>
      </trkpt>
      <trkpt lat="43.3171070" lon="-3.0579890">
        <ele>113.2</ele>
        <time>2018-09-16T07:31:55Z</time>
      </trkpt>
      <trkpt lat="43.3170890" lon="-3.0581480">
        <ele>114.0</ele>
        <time>2018-09-16T07:31:57Z</time>
      </trkpt>
      <trkpt lat="43.3170740" lon="-3.0583040">
        <ele>115.4</ele>
        <time>2018-09-16T07:31:59Z</time>
      </trkpt>
      <trkpt lat="43.3170580" lon="-3.0584670">
        <ele>116.4</ele>
        <time>2018-09-16T07:32:01Z</time>
      </trkpt>
      <trkpt lat="43.3170340" lon="-3.0587090">
        <ele>117.8</ele>
        <time>2018-09-16T07:32:04Z</time>
      </trkpt>
      <trkpt lat="43.3170270" lon="-3.0587900">
        <ele>118.2</ele>
        <time>2018-09-16T07:32:05Z</time>
      </trkpt>
      <trkpt lat="43.3170100" lon="-3.0589510">
        <ele>118.8</ele>
        <time>2018-09-16T07:32:07Z</time>
      </trkpt>
      <trkpt lat="43.3169880" lon="-3.0591720">
        <ele>119.6</ele>
        <time>2018-09-16T07:32:10Z</time>
      </trkpt>
      <trkpt lat="43.3170120" lon="-3.0592940">
        <ele>119.8</ele>
        <time>2018-09-16T07:32:12Z</time>
      </trkpt>
      <trkpt lat="43.3170990" lon="-3.0593790">
        <ele>119.8</ele>
        <time>2018-09-16T07:32:14Z</time>
      </trkpt>
      <trkpt lat="43.3171520" lon="-3.0594190">
        <ele>119.8</ele>
        <time>2018-09-16T07:32:15Z</time>
      </trkpt>
      <trkpt lat="43.3174400" lon="-3.0596320">
        <ele>119.0</ele>
        <time>2018-09-16T07:32:20Z</time>
      </trkpt>
      <trkpt lat="43.3175520" lon="-3.0597260">
        <ele>118.6</ele>
        <time>2018-09-16T07:32:22Z</time>
      </trkpt>
      <trkpt lat="43.3176320" lon="-3.0598660">
        <ele>118.4</ele>
        <time>2018-09-16T07:32:24Z</time>
      </trkpt>
      <trkpt lat="43.3176390" lon="-3.0599600">
        <ele>118.4</ele>
        <time>2018-09-16T07:32:25Z</time>
      </trkpt>
      <trkpt lat="43.3176190" lon="-3.0600550">
        <ele>118.4</ele>
        <time>2018-09-16T07:32:26Z</time>
      </trkpt>
      <trkpt lat="43.3174990" lon="-3.0603390">
        <ele>117.6</ele>
        <time>2018-09-16T07:32:29Z</time>
      </trkpt>
      <trkpt lat="43.3174080" lon="-3.0606790">
        <ele>116.2</ele>
        <time>2018-09-16T07:32:32Z</time>
      </trkpt>
      <trkpt lat="43.3173510" lon="-3.0610370">
        <ele>115.0</ele>
        <time>2018-09-16T07:32:35Z</time>
      </trkpt>
      <trkpt lat="43.3173050" lon="-3.0613520">
        <ele>114.8</ele>
        <time>2018-09-16T07:32:38Z</time>
      </trkpt>
      <trkpt lat="43.3172550" lon="-3.0617440">
        <ele>116.4</ele>
        <time>2018-09-16T07:32:42Z</time>
      </trkpt>
      <trkpt lat="43.3172430" lon="-3.0619250">
        <ele>117.4</ele>
        <time>2018-09-16T07:32:44Z</time>
      </trkpt>
      <trkpt lat="43.3172370" lon="-3.0620130">
        <ele>117.8</ele>
        <time>2018-09-16T07:32:45Z</time>
      </trkpt>
      <trkpt lat="43.3172360" lon="-3.0621010">
        <ele>118.4</ele>
        <time>2018-09-16T07:32:46Z</time>
      </trkpt>
      <trkpt lat="43.3172350" lon="-3.0623590">
        <ele>119.4</ele>
        <time>2018-09-16T07:32:49Z</time>
      </trkpt>
      <trkpt lat="43.3172860" lon="-3.0627100">
        <ele>120.6</ele>
        <time>2018-09-16T07:32:53Z</time>
      </trkpt>
      <trkpt lat="43.3173310" lon="-3.0628920">
        <ele>120.8</ele>
        <time>2018-09-16T07:32:55Z</time>
      </trkpt>
      <trkpt lat="43.3173860" lon="-3.0630730">
        <ele>120.8</ele>
        <time>2018-09-16T07:32:57Z</time>
      </trkpt>
      <trkpt lat="43.3174700" lon="-3.0632280">
        <ele>120.8</ele>
        <time>2018-09-16T07:32:59Z</time>
      </trkpt>
      <trkpt lat="43.3177920" lon="-3.0635870">
        <ele>121.2</ele>
        <time>2018-09-16T07:33:05Z</time>
      </trkpt>
      <trkpt lat="43.3180000" lon="-3.0638000">
        <ele>121.6</ele>
        <time>2018-09-16T07:33:09Z</time>
      </trkpt>
      <trkpt lat="43.3182190" lon="-3.0640180">
        <ele>122.6</ele>
        <time>2018-09-16T07:33:13Z</time>
      </trkpt>
      <trkpt lat="43.3183350" lon="-3.0641280">
        <ele>123.2</ele>
        <time>2018-09-16T07:33:15Z</time>
      </trkpt>
      <trkpt lat="43.3184550" lon="-3.0642400">
        <ele>123.6</ele>
        <time>2018-09-16T07:33:17Z</time>
      </trkpt>
      <trkpt lat="43.3188620" lon="-3.0647450">
        <ele>124.6</ele>
        <time>2018-09-16T07:33:25Z</time>
      </trkpt>
      <trkpt lat="43.3189030" lon="-3.0648240">
        <ele>124.8</ele>
        <time>2018-09-16T07:33:26Z</time>
      </trkpt>
      <trkpt lat="43.3189390" lon="-3.0649090">
        <ele>125.0</ele>
        <time>2018-09-16T07:33:27Z</time>
      </trkpt>
      <trkpt lat="43.3190740" lon="-3.0654440">
        <ele>125.8</ele>
        <time>2018-09-16T07:33:33Z</time>
      </trkpt>
      <trkpt lat="43.3191160" lon="-3.0656210">
        <ele>126.2</ele>
        <time>2018-09-16T07:33:35Z</time>
      </trkpt>
      <trkpt lat="43.3191880" lon="-3.0658860">
        <ele>127.0</ele>
        <time>2018-09-16T07:33:38Z</time>
      </trkpt>
      <trkpt lat="43.3192480" lon="-3.0660540">
        <ele>127.4</ele>
        <time>2018-09-16T07:33:40Z</time>
      </trkpt>
      <trkpt lat="43.3194680" lon="-3.0664080">
        <ele>128.2</ele>
        <time>2018-09-16T07:33:45Z</time>
      </trkpt>
      <trkpt lat="43.3195180" lon="-3.0664660">
        <ele>128.4</ele>
        <time>2018-09-16T07:33:46Z</time>
      </trkpt>
      <trkpt lat="43.3200180" lon="-3.0667750">
        <ele>128.8</ele>
        <time>2018-09-16T07:33:54Z</time>
      </trkpt>
      <trkpt lat="43.3200820" lon="-3.0668010">
        <ele>129.2</ele>
        <time>2018-09-16T07:33:55Z</time>
      </trkpt>
      <trkpt lat="43.3201460" lon="-3.0668270">
        <ele>129.4</ele>
        <time>2018-09-16T07:33:56Z</time>
      </trkpt>
      <trkpt lat="43.3206350" lon="-3.0671390">
        <ele>129.8</ele>
        <time>2018-09-16T07:34:04Z</time>
      </trkpt>
      <trkpt lat="43.3206780" lon="-3.0672050">
        <ele>130.0</ele>
        <time>2018-09-16T07:34:05Z</time>
      </trkpt>
      <trkpt lat="43.3207150" lon="-3.0672790">
        <ele>130.0</ele>
        <time>2018-09-16T07:34:06Z</time>
      </trkpt>
      <trkpt lat="43.3207770" lon="-3.0674400">
        <ele>130.4</ele>
        <time>2018-09-16T07:34:08Z</time>
      </trkpt>
      <trkpt lat="43.3208550" lon="-3.0677740">
        <ele>131.2</ele>
        <time>2018-09-16T07:34:12Z</time>
      </trkpt>
      <trkpt lat="43.3208650" lon="-3.0678590">
        <ele>131.6</ele>
        <time>2018-09-16T07:34:13Z</time>
      </trkpt>
      <trkpt lat="43.3208910" lon="-3.0680260">
        <ele>132.4</ele>
        <time>2018-09-16T07:34:15Z</time>
      </trkpt>
      <trkpt lat="43.3209090" lon="-3.0681100">
        <ele>132.8</ele>
        <time>2018-09-16T07:34:16Z</time>
      </trkpt>
      <trkpt lat="43.3210570" lon="-3.0687860">
        <ele>133.8</ele>
        <time>2018-09-16T07:34:24Z</time>
      </trkpt>
      <trkpt lat="43.3210720" lon="-3.0688720">
        <ele>133.8</ele>
        <time>2018-09-16T07:34:25Z</time>
      </trkpt>
      <trkpt lat="43.3212190" lon="-3.0694670">
        <ele>135.0</ele>
        <time>2018-09-16T07:34:32Z</time>
      </trkpt>
      <trkpt lat="43.3212460" lon="-3.0697570">
        <ele>135.4</ele>
        <time>2018-09-16T07:34:35Z</time>
      </trkpt>
      <trkpt lat="43.3212380" lon="-3.0699500">
        <ele>135.6</ele>
        <time>2018-09-16T07:34:37Z</time>
      </trkpt>
      <trkpt lat="43.3212210" lon="-3.0701380">
        <ele>136.0</ele>
        <time>2018-09-16T07:34:39Z</time>
      </trkpt>
      <trkpt lat="43.3211360" lon="-3.0705790">
        <ele>137.2</ele>
        <time>2018-09-16T07:34:44Z</time>
      </trkpt>
      <trkpt lat="43.3211130" lon="-3.0706630">
        <ele>137.6</ele>
        <time>2018-09-16T07:34:45Z</time>
      </trkpt>
      <trkpt lat="43.3210590" lon="-3.0708250">
        <ele>138.2</ele>
        <time>2018-09-16T07:34:47Z</time>
      </trkpt>
      <trkpt lat="43.3207780" lon="-3.0713690">
        <ele>138.6</ele>
        <time>2018-09-16T07:34:55Z</time>
      </trkpt>
      <trkpt lat="43.3207450" lon="-3.0714910">
        <ele>139.2</ele>
        <time>2018-09-16T07:34:57Z</time>
      </trkpt>
      <trkpt lat="43.3207910" lon="-3.0716120">
        <ele>140.0</ele>
        <time>2018-09-16T07:34:59Z</time>
      </trkpt>
      <trkpt lat="43.3208360" lon="-3.0716460">
        <ele>140.4</ele>
        <time>2018-09-16T07:35:00Z</time>
      </trkpt>
      <trkpt lat="43.3208890" lon="-3.0716560">
        <ele>141.0</ele>
        <time>2018-09-16T07:35:01Z</time>
      </trkpt>
      <trkpt lat="43.3209970" lon="-3.0716400">
        <ele>141.6</ele>
        <time>2018-09-16T07:35:03Z</time>
      </trkpt>
      <trkpt lat="43.3211220" lon="-3.0716100">
        <ele>142.2</ele>
        <time>2018-09-16T07:35:05Z</time>
      </trkpt>
      <trkpt lat="43.3213630" lon="-3.0715040">
        <ele>142.6</ele>
        <time>2018-09-16T07:35:09Z</time>
      </trkpt>
      <trkpt lat="43.3214170" lon="-3.0714560">
        <ele>142.8</ele>
        <time>2018-09-16T07:35:10Z</time>
      </trkpt>
      <trkpt lat="43.3215620" lon="-3.0712710">
        <ele>143.0</ele>
        <time>2018-09-16T07:35:13Z</time>
      </trkpt>
      <trkpt lat="43.3216350" lon="-3.0711250">
        <ele>143.0</ele>
        <time>2018-09-16T07:35:15Z</time>
      </trkpt>
      <trkpt lat="43.3217090" lon="-3.0708750">
        <ele>142.6</ele>
        <time>2018-09-16T07:35:18Z</time>
      </trkpt>
      <trkpt lat="43.3217490" lon="-3.0706020">
        <ele>142.4</ele>
        <time>2018-09-16T07:35:21Z</time>
      </trkpt>
      <trkpt lat="43.3218080" lon="-3.0704440">
        <ele>142.4</ele>
        <time>2018-09-16T07:35:23Z</time>
      </trkpt>
      <trkpt lat="43.3219170" lon="-3.0703640">
        <ele>142.6</ele>
        <time>2018-09-16T07:35:25Z</time>
      </trkpt>
      <trkpt lat="43.3220280" lon="-3.0703820">
        <ele>143.6</ele>
        <time>2018-09-16T07:35:27Z</time>
      </trkpt>
      <trkpt lat="43.3220730" lon="-3.0704280">
        <ele>144.2</ele>
        <time>2018-09-16T07:35:28Z</time>
      </trkpt>
      <trkpt lat="43.3221110" lon="-3.0704870">
        <ele>144.8</ele>
        <time>2018-09-16T07:35:29Z</time>
      </trkpt>
      <trkpt lat="43.3221460" lon="-3.0705500">
        <ele>145.2</ele>
        <time>2018-09-16T07:35:30Z</time>
      </trkpt>
      <trkpt lat="43.3222340" lon="-3.0707620">
        <ele>146.6</ele>
        <time>2018-09-16T07:35:33Z</time>
      </trkpt>
      <trkpt lat="43.3222750" lon="-3.0709080">
        <ele>147.4</ele>
        <time>2018-09-16T07:35:35Z</time>
      </trkpt>
      <trkpt lat="43.3222910" lon="-3.0709820">
        <ele>148.0</ele>
        <time>2018-09-16T07:35:36Z</time>
      </trkpt>
      <trkpt lat="43.3223110" lon="-3.0711410">
        <ele>149.0</ele>
        <time>2018-09-16T07:35:38Z</time>
      </trkpt>
      <trkpt lat="43.3223030" lon="-3.0712240">
        <ele>149.2</ele>
        <time>2018-09-16T07:35:39Z</time>
      </trkpt>
      <trkpt lat="43.3222930" lon="-3.0713080">
        <ele>149.4</ele>
        <time>2018-09-16T07:35:40Z</time>
      </trkpt>
      <trkpt lat="43.3222460" lon="-3.0715520">
        <ele>150.2</ele>
        <time>2018-09-16T07:35:43Z</time>
      </trkpt>
      <trkpt lat="43.3221970" lon="-3.0716980">
        <ele>150.6</ele>
        <time>2018-09-16T07:35:45Z</time>
      </trkpt>
      <trkpt lat="43.3221130" lon="-3.0718930">
        <ele>151.0</ele>
        <time>2018-09-16T07:35:48Z</time>
      </trkpt>
      <trkpt lat="43.3220400" lon="-3.0720060">
        <ele>151.2</ele>
        <time>2018-09-16T07:35:50Z</time>
      </trkpt>
      <trkpt lat="43.3219060" lon="-3.0721500">
        <ele>151.0</ele>
        <time>2018-09-16T07:35:53Z</time>
      </trkpt>
      <trkpt lat="43.3218410" lon="-3.0722800">
        <ele>150.2</ele>
        <time>2018-09-16T07:35:55Z</time>
      </trkpt>
      <trkpt lat="43.3218160" lon="-3.0726330">
        <ele>149.0</ele>
        <time>2018-09-16T07:35:59Z</time>
      </trkpt>
      <trkpt lat="43.3219260" lon="-3.0730940">
        <ele>148.4</ele>
        <time>2018-09-16T07:36:03Z</time>
      </trkpt>
      <trkpt lat="43.3219700" lon="-3.0732890">
        <ele>148.6</ele>
        <time>2018-09-16T07:36:05Z</time>
      </trkpt>
      <trkpt lat="43.3220020" lon="-3.0733620">
        <ele>148.8</ele>
        <time>2018-09-16T07:36:06Z</time>
      </trkpt>
      <trkpt lat="43.3220850" lon="-3.0734780">
        <ele>149.0</ele>
        <time>2018-09-16T07:36:08Z</time>
      </trkpt>
      <trkpt lat="43.3223910" lon="-3.0737920">
        <ele>150.2</ele>
        <time>2018-09-16T07:36:14Z</time>
      </trkpt>
      <trkpt lat="43.3224440" lon="-3.0738460">
        <ele>150.2</ele>
        <time>2018-09-16T07:36:15Z</time>
      </trkpt>
      <trkpt lat="43.3226560" lon="-3.0740680">
        <ele>151.2</ele>
        <time>2018-09-16T07:36:19Z</time>
      </trkpt>
      <trkpt lat="43.3229700" lon="-3.0743970">
        <ele>152.0</ele>
        <time>2018-09-16T07:36:25Z</time>
      </trkpt>
      <trkpt lat="43.3230260" lon="-3.0744490">
        <ele>152.2</ele>
        <time>2018-09-16T07:36:26Z</time>
      </trkpt>
      <trkpt lat="43.3233710" lon="-3.0748660">
        <ele>153.4</ele>
        <time>2018-09-16T07:36:33Z</time>
      </trkpt>
      <trkpt lat="43.3234590" lon="-3.0749990">
        <ele>153.8</ele>
        <time>2018-09-16T07:36:35Z</time>
      </trkpt>
      <trkpt lat="43.3235930" lon="-3.0752070">
        <ele>154.4</ele>
        <time>2018-09-16T07:36:38Z</time>
      </trkpt>
      <trkpt lat="43.3239190" lon="-3.0757560">
        <ele>154.8</ele>
        <time>2018-09-16T07:36:45Z</time>
      </trkpt>
      <trkpt lat="43.3240580" lon="-3.0760360">
        <ele>154.2</ele>
        <time>2018-09-16T07:36:48Z</time>
      </trkpt>
      <trkpt lat="43.3241490" lon="-3.0762360">
        <ele>153.6</ele>
        <time>2018-09-16T07:36:50Z</time>
      </trkpt>
      <trkpt lat="43.3241970" lon="-3.0763390">
        <ele>153.2</ele>
        <time>2018-09-16T07:36:51Z</time>
      </trkpt>
      <trkpt lat="43.3243530" lon="-3.0766460">
        <ele>152.2</ele>
        <time>2018-09-16T07:36:54Z</time>
      </trkpt>
      <trkpt lat="43.3244080" lon="-3.0767440">
        <ele>151.6</ele>
        <time>2018-09-16T07:36:55Z</time>
      </trkpt>
      <trkpt lat="43.3245310" lon="-3.0769180">
        <ele>151.0</ele>
        <time>2018-09-16T07:36:57Z</time>
      </trkpt>
      <trkpt lat="43.3247060" lon="-3.0769520">
        <ele>150.0</ele>
        <time>2018-09-16T07:36:59Z</time>
      </trkpt>
      <trkpt lat="43.3247880" lon="-3.0768720">
        <ele>149.8</ele>
        <time>2018-09-16T07:37:00Z</time>
      </trkpt>
      <trkpt lat="43.3248480" lon="-3.0766370">
        <ele>149.2</ele>
        <time>2018-09-16T07:37:02Z</time>
      </trkpt>
      <trkpt lat="43.3248930" lon="-3.0762540">
        <ele>149.0</ele>
        <time>2018-09-16T07:37:05Z</time>
      </trkpt>
      <trkpt lat="43.3250830" lon="-3.0755540">
        <ele>150.6</ele>
        <time>2018-09-16T07:37:12Z</time>
      </trkpt>
      <trkpt lat="43.3251140" lon="-3.0754760">
        <ele>150.8</ele>
        <time>2018-09-16T07:37:13Z</time>
      </trkpt>
      <trkpt lat="43.3251710" lon="-3.0753260">
        <ele>151.4</ele>
        <time>2018-09-16T07:37:15Z</time>
      </trkpt>
      <trkpt lat="43.3252260" lon="-3.0751690">
        <ele>151.6</ele>
        <time>2018-09-16T07:37:17Z</time>
      </trkpt>
      <trkpt lat="43.3253160" lon="-3.0750410">
        <ele>152.2</ele>
        <time>2018-09-16T07:37:19Z</time>
      </trkpt>
      <trkpt lat="43.3254390" lon="-3.0749660">
        <ele>152.8</ele>
        <time>2018-09-16T07:37:21Z</time>
      </trkpt>
      <trkpt lat="43.3255670" lon="-3.0749730">
        <ele>153.2</ele>
        <time>2018-09-16T07:37:23Z</time>
      </trkpt>
      <trkpt lat="43.3256730" lon="-3.0750750">
        <ele>153.4</ele>
        <time>2018-09-16T07:37:25Z</time>
      </trkpt>
      <trkpt lat="43.3257270" lon="-3.0752390">
        <ele>153.8</ele>
        <time>2018-09-16T07:37:27Z</time>
      </trkpt>
      <trkpt lat="43.3257870" lon="-3.0754900">
        <ele>154.4</ele>
        <time>2018-09-16T07:37:30Z</time>
      </trkpt>
      <trkpt lat="43.3258830" lon="-3.0759300">
        <ele>155.0</ele>
        <time>2018-09-16T07:37:35Z</time>
      </trkpt>
      <trkpt lat="43.3259920" lon="-3.0764860">
        <ele>155.8</ele>
        <time>2018-09-16T07:37:41Z</time>
      </trkpt>
      <trkpt lat="43.3260750" lon="-3.0768690">
        <ele>157.2</ele>
        <time>2018-09-16T07:37:45Z</time>
      </trkpt>
      <trkpt lat="43.3261980" lon="-3.0772240">
        <ele>158.2</ele>
        <time>2018-09-16T07:37:49Z</time>
      </trkpt>
      <trkpt lat="43.3263480" lon="-3.0774370">
        <ele>159.0</ele>
        <time>2018-09-16T07:37:52Z</time>
      </trkpt>
      <trkpt lat="43.3264070" lon="-3.0774950">
        <ele>159.2</ele>
        <time>2018-09-16T07:37:53Z</time>
      </trkpt>
      <trkpt lat="43.3265410" lon="-3.0776000">
        <ele>160.0</ele>
        <time>2018-09-16T07:37:55Z</time>
      </trkpt>
      <trkpt lat="43.3266100" lon="-3.0776540">
        <ele>160.4</ele>
        <time>2018-09-16T07:37:56Z</time>
      </trkpt>
      <trkpt lat="43.3271200" lon="-3.0780110">
        <ele>159.8</ele>
        <time>2018-09-16T07:38:03Z</time>
      </trkpt>
      <trkpt lat="43.3272710" lon="-3.0781240">
        <ele>159.4</ele>
        <time>2018-09-16T07:38:05Z</time>
      </trkpt>
      <trkpt lat="43.3276490" lon="-3.0784000">
        <ele>159.4</ele>
        <time>2018-09-16T07:38:10Z</time>
      </trkpt>
      <trkpt lat="43.3278840" lon="-3.0785500">
        <ele>159.0</ele>
        <time>2018-09-16T07:38:13Z</time>
      </trkpt>
      <trkpt lat="43.3280500" lon="-3.0786430">
        <ele>158.6</ele>
        <time>2018-09-16T07:38:15Z</time>
      </trkpt>
      <trkpt lat="43.3282240" lon="-3.0787240">
        <ele>158.2</ele>
        <time>2018-09-16T07:38:17Z</time>
      </trkpt>
      <trkpt lat="43.3285710" lon="-3.0788560">
        <ele>157.8</ele>
        <time>2018-09-16T07:38:21Z</time>
      </trkpt>
      <trkpt lat="43.3288220" lon="-3.0789510">
        <ele>157.2</ele>
        <time>2018-09-16T07:38:24Z</time>
      </trkpt>
      <trkpt lat="43.3289010" lon="-3.0789920">
        <ele>157.0</ele>
        <time>2018-09-16T07:38:25Z</time>
      </trkpt>
      <trkpt lat="43.3289770" lon="-3.0790410">
        <ele>156.8</ele>
        <time>2018-09-16T07:38:26Z</time>
      </trkpt>
      <trkpt lat="43.3291780" lon="-3.0792170">
        <ele>156.4</ele>
        <time>2018-09-16T07:38:29Z</time>
      </trkpt>
      <trkpt lat="43.3292420" lon="-3.0792700">
        <ele>156.4</ele>
        <time>2018-09-16T07:38:30Z</time>
      </trkpt>
      <trkpt lat="43.3293090" lon="-3.0793070">
        <ele>156.2</ele>
        <time>2018-09-16T07:38:31Z</time>
      </trkpt>
      <trkpt lat="43.3293750" lon="-3.0793170">
        <ele>155.8</ele>
        <time>2018-09-16T07:38:32Z</time>
      </trkpt>
      <trkpt lat="43.3294810" lon="-3.0792460">
        <ele>155.4</ele>
        <time>2018-09-16T07:38:34Z</time>
      </trkpt>
      <trkpt lat="43.3295250" lon="-3.0791780">
        <ele>155.2</ele>
        <time>2018-09-16T07:38:35Z</time>
      </trkpt>
      <trkpt lat="43.3297110" lon="-3.0787710">
        <ele>156.0</ele>
        <time>2018-09-16T07:38:40Z</time>
      </trkpt>
      <trkpt lat="43.3298060" lon="-3.0783010">
        <ele>156.4</ele>
        <time>2018-09-16T07:38:45Z</time>
      </trkpt>
      <trkpt lat="43.3298670" lon="-3.0779000">
        <ele>156.4</ele>
        <time>2018-09-16T07:38:49Z</time>
      </trkpt>
      <trkpt lat="43.3299130" lon="-3.0775770">
        <ele>155.4</ele>
        <time>2018-09-16T07:38:52Z</time>
      </trkpt>
      <trkpt lat="43.3298900" lon="-3.0774610">
        <ele>155.0</ele>
        <time>2018-09-16T07:38:53Z</time>
      </trkpt>
      <trkpt lat="43.3298500" lon="-3.0773430">
        <ele>154.6</ele>
        <time>2018-09-16T07:38:54Z</time>
      </trkpt>
      <trkpt lat="43.3298080" lon="-3.0772260">
        <ele>154.0</ele>
        <time>2018-09-16T07:38:55Z</time>
      </trkpt>
      <trkpt lat="43.3297630" lon="-3.0771130">
        <ele>153.4</ele>
        <time>2018-09-16T07:38:56Z</time>
      </trkpt>
      <trkpt lat="43.3296240" lon="-3.0767750">
        <ele>152.4</ele>
        <time>2018-09-16T07:38:59Z</time>
      </trkpt>
      <trkpt lat="43.3295420" lon="-3.0765410">
        <ele>151.8</ele>
        <time>2018-09-16T07:39:01Z</time>
      </trkpt>
      <trkpt lat="43.3295190" lon="-3.0764150">
        <ele>151.2</ele>
        <time>2018-09-16T07:39:02Z</time>
      </trkpt>
      <trkpt lat="43.3295180" lon="-3.0762840">
        <ele>150.8</ele>
        <time>2018-09-16T07:39:03Z</time>
      </trkpt>
      <trkpt lat="43.3295470" lon="-3.0761600">
        <ele>150.2</ele>
        <time>2018-09-16T07:39:04Z</time>
      </trkpt>
      <trkpt lat="43.3296030" lon="-3.0760550">
        <ele>149.8</ele>
        <time>2018-09-16T07:39:05Z</time>
      </trkpt>
      <trkpt lat="43.3297760" lon="-3.0759780">
        <ele>149.2</ele>
        <time>2018-09-16T07:39:07Z</time>
      </trkpt>
      <trkpt lat="43.3300500" lon="-3.0760080">
        <ele>148.4</ele>
        <time>2018-09-16T07:39:10Z</time>
      </trkpt>
      <trkpt lat="43.3301330" lon="-3.0759730">
        <ele>148.0</ele>
        <time>2018-09-16T07:39:11Z</time>
      </trkpt>
      <trkpt lat="43.3301910" lon="-3.0759050">
        <ele>147.6</ele>
        <time>2018-09-16T07:39:12Z</time>
      </trkpt>
      <trkpt lat="43.3302250" lon="-3.0756930">
        <ele>147.0</ele>
        <time>2018-09-16T07:39:14Z</time>
      </trkpt>
      <trkpt lat="43.3302080" lon="-3.0755760">
        <ele>146.8</ele>
        <time>2018-09-16T07:39:15Z</time>
      </trkpt>
      <trkpt lat="43.3300980" lon="-3.0749470">
        <ele>146.2</ele>
        <time>2018-09-16T07:39:20Z</time>
      </trkpt>
      <trkpt lat="43.3300220" lon="-3.0744440">
        <ele>145.8</ele>
        <time>2018-09-16T07:39:24Z</time>
      </trkpt>
      <trkpt lat="43.3300010" lon="-3.0743310">
        <ele>145.6</ele>
        <time>2018-09-16T07:39:25Z</time>
      </trkpt>
      <trkpt lat="43.3299850" lon="-3.0742230">
        <ele>145.0</ele>
        <time>2018-09-16T07:39:26Z</time>
      </trkpt>
      <trkpt lat="43.3299980" lon="-3.0741280">
        <ele>144.6</ele>
        <time>2018-09-16T07:39:27Z</time>
      </trkpt>
      <trkpt lat="43.3300280" lon="-3.0740490">
        <ele>143.8</ele>
        <time>2018-09-16T07:39:28Z</time>
      </trkpt>
      <trkpt lat="43.3300640" lon="-3.0739820">
        <ele>143.4</ele>
        <time>2018-09-16T07:39:29Z</time>
      </trkpt>
      <trkpt lat="43.3301590" lon="-3.0737730">
        <ele>142.0</ele>
        <time>2018-09-16T07:39:32Z</time>
      </trkpt>
      <trkpt lat="43.3302980" lon="-3.0738870">
        <ele>141.4</ele>
        <time>2018-09-16T07:39:33Z</time>
      </trkpt>
      <trkpt lat="43.3304360" lon="-3.0740020">
        <ele>141.0</ele>
        <time>2018-09-16T07:39:34Z</time>
      </trkpt>
      <trkpt lat="43.3305160" lon="-3.0740780">
        <ele>140.6</ele>
        <time>2018-09-16T07:39:35Z</time>
      </trkpt>
      <trkpt lat="43.3306930" lon="-3.0744210">
        <ele>139.8</ele>
        <time>2018-09-16T07:39:38Z</time>
      </trkpt>
      <trkpt lat="43.3308640" lon="-3.0747810">
        <ele>139.2</ele>
        <time>2018-09-16T07:39:41Z</time>
      </trkpt>
      <trkpt lat="43.3309750" lon="-3.0750270">
        <ele>138.4</ele>
        <time>2018-09-16T07:39:43Z</time>
      </trkpt>
      <trkpt lat="43.3310920" lon="-3.0752870">
        <ele>136.8</ele>
        <time>2018-09-16T07:39:45Z</time>
      </trkpt>
      <trkpt lat="43.3311980" lon="-3.0755660">
        <ele>135.4</ele>
        <time>2018-09-16T07:39:47Z</time>
      </trkpt>
      <trkpt lat="43.3313070" lon="-3.0758590">
        <ele>134.2</ele>
        <time>2018-09-16T07:39:49Z</time>
      </trkpt>
      <trkpt lat="43.3313490" lon="-3.0760150">
        <ele>133.8</ele>
        <time>2018-09-16T07:39:50Z</time>
      </trkpt>
      <trkpt lat="43.3313700" lon="-3.0761830">
        <ele>133.2</ele>
        <time>2018-09-16T07:39:51Z</time>
      </trkpt>
      <trkpt lat="43.3313670" lon="-3.0763570">
        <ele>132.6</ele>
        <time>2018-09-16T07:39:52Z</time>
      </trkpt>
      <trkpt lat="43.3313410" lon="-3.0765320">
        <ele>131.8</ele>
        <time>2018-09-16T07:39:53Z</time>
      </trkpt>
      <trkpt lat="43.3312930" lon="-3.0767010">
        <ele>131.0</ele>
        <time>2018-09-16T07:39:54Z</time>
      </trkpt>
      <trkpt lat="43.3312310" lon="-3.0768600">
        <ele>129.8</ele>
        <time>2018-09-16T07:39:55Z</time>
      </trkpt>
      <trkpt lat="43.3311700" lon="-3.0770110">
        <ele>128.6</ele>
        <time>2018-09-16T07:39:56Z</time>
      </trkpt>
      <trkpt lat="43.3311180" lon="-3.0771660">
        <ele>127.8</ele>
        <time>2018-09-16T07:39:57Z</time>
      </trkpt>
      <trkpt lat="43.3310900" lon="-3.0773220">
        <ele>127.0</ele>
        <time>2018-09-16T07:39:58Z</time>
      </trkpt>
      <trkpt lat="43.3310900" lon="-3.0774760">
        <ele>126.6</ele>
        <time>2018-09-16T07:39:59Z</time>
      </trkpt>
      <trkpt lat="43.3311190" lon="-3.0776170">
        <ele>126.0</ele>
        <time>2018-09-16T07:40:00Z</time>
      </trkpt>
      <trkpt lat="43.3311860" lon="-3.0777270">
        <ele>125.8</ele>
        <time>2018-09-16T07:40:01Z</time>
      </trkpt>
      <trkpt lat="43.3313700" lon="-3.0778920">
        <ele>125.4</ele>
        <time>2018-09-16T07:40:03Z</time>
      </trkpt>
      <trkpt lat="43.3314710" lon="-3.0779310">
        <ele>125.0</ele>
        <time>2018-09-16T07:40:04Z</time>
      </trkpt>
      <trkpt lat="43.3315790" lon="-3.0779440">
        <ele>124.6</ele>
        <time>2018-09-16T07:40:05Z</time>
      </trkpt>
      <trkpt lat="43.3317880" lon="-3.0780020">
        <ele>123.8</ele>
        <time>2018-09-16T07:40:07Z</time>
      </trkpt>
      <trkpt lat="43.3319490" lon="-3.0781800">
        <ele>123.2</ele>
        <time>2018-09-16T07:40:09Z</time>
      </trkpt>
      <trkpt lat="43.3320130" lon="-3.0782950">
        <ele>123.0</ele>
        <time>2018-09-16T07:40:10Z</time>
      </trkpt>
      <trkpt lat="43.3321390" lon="-3.0785240">
        <ele>123.0</ele>
        <time>2018-09-16T07:40:12Z</time>
      </trkpt>
      <trkpt lat="43.3322650" lon="-3.0787550">
        <ele>122.8</ele>
        <time>2018-09-16T07:40:14Z</time>
      </trkpt>
      <trkpt lat="43.3323340" lon="-3.0788910">
        <ele>122.6</ele>
        <time>2018-09-16T07:40:15Z</time>
      </trkpt>
      <trkpt lat="43.3322490" lon="-3.0790730">
        <ele>122.6</ele>
        <time>2018-09-16T07:40:16Z</time>
      </trkpt>
      <trkpt lat="43.3321640" lon="-3.0793970">
        <ele>122.4</ele>
        <time>2018-09-16T07:40:18Z</time>
      </trkpt>
      <trkpt lat="43.3319590" lon="-3.0796270">
        <ele>122.4</ele>
        <time>2018-09-16T07:40:20Z</time>
      </trkpt>
      <trkpt lat="43.3317470" lon="-3.0797850">
        <ele>122.0</ele>
        <time>2018-09-16T07:40:22Z</time>
      </trkpt>
      <trkpt lat="43.3316500" lon="-3.0798780">
        <ele>121.4</ele>
        <time>2018-09-16T07:40:23Z</time>
      </trkpt>
      <trkpt lat="43.3315710" lon="-3.0799960">
        <ele>120.4</ele>
        <time>2018-09-16T07:40:24Z</time>
      </trkpt>
      <trkpt lat="43.3315070" lon="-3.0801360">
        <ele>119.8</ele>
        <time>2018-09-16T07:40:25Z</time>
      </trkpt>
      <trkpt lat="43.3314620" lon="-3.0802930">
        <ele>119.2</ele>
        <time>2018-09-16T07:40:26Z</time>
      </trkpt>
      <trkpt lat="43.3314440" lon="-3.0806090">
        <ele>118.6</ele>
        <time>2018-09-16T07:40:28Z</time>
      </trkpt>
      <trkpt lat="43.3314490" lon="-3.0808780">
        <ele>117.4</ele>
        <time>2018-09-16T07:40:30Z</time>
      </trkpt>
      <trkpt lat="43.3314940" lon="-3.0810750">
        <ele>115.4</ele>
        <time>2018-09-16T07:40:32Z</time>
      </trkpt>
      <trkpt lat="43.3316250" lon="-3.0811420">
        <ele>114.2</ele>
        <time>2018-09-16T07:40:34Z</time>
      </trkpt>
      <trkpt lat="43.3317110" lon="-3.0811050">
        <ele>113.8</ele>
        <time>2018-09-16T07:40:35Z</time>
      </trkpt>
      <trkpt lat="43.3318960" lon="-3.0810060">
        <ele>113.4</ele>
        <time>2018-09-16T07:40:37Z</time>
      </trkpt>
      <trkpt lat="43.3321090" lon="-3.0809670">
        <ele>113.0</ele>
        <time>2018-09-16T07:40:39Z</time>
      </trkpt>
      <trkpt lat="43.3323270" lon="-3.0810490">
        <ele>112.6</ele>
        <time>2018-09-16T07:40:41Z</time>
      </trkpt>
      <trkpt lat="43.3325180" lon="-3.0812220">
        <ele>112.4</ele>
        <time>2018-09-16T07:40:43Z</time>
      </trkpt>
      <trkpt lat="43.3326470" lon="-3.0814690">
        <ele>111.8</ele>
        <time>2018-09-16T07:40:45Z</time>
      </trkpt>
      <trkpt lat="43.3327540" lon="-3.0817450">
        <ele>111.4</ele>
        <time>2018-09-16T07:40:47Z</time>
      </trkpt>
      <trkpt lat="43.3328210" lon="-3.0818670">
        <ele>110.6</ele>
        <time>2018-09-16T07:40:48Z</time>
      </trkpt>
      <trkpt lat="43.3329000" lon="-3.0819620">
        <ele>109.8</ele>
        <time>2018-09-16T07:40:49Z</time>
      </trkpt>
      <trkpt lat="43.3329890" lon="-3.0820320">
        <ele>109.2</ele>
        <time>2018-09-16T07:40:50Z</time>
      </trkpt>
      <trkpt lat="43.3330880" lon="-3.0820680">
        <ele>108.6</ele>
        <time>2018-09-16T07:40:51Z</time>
      </trkpt>
      <trkpt lat="43.3334090" lon="-3.0820310">
        <ele>108.2</ele>
        <time>2018-09-16T07:40:54Z</time>
      </trkpt>
      <trkpt lat="43.3335120" lon="-3.0820670">
        <ele>108.0</ele>
        <time>2018-09-16T07:40:55Z</time>
      </trkpt>
      <trkpt lat="43.3336120" lon="-3.0821280">
        <ele>108.0</ele>
        <time>2018-09-16T07:40:56Z</time>
      </trkpt>
      <trkpt lat="43.3340880" lon="-3.0825420">
        <ele>107.0</ele>
        <time>2018-09-16T07:41:01Z</time>
      </trkpt>
      <trkpt lat="43.3342800" lon="-3.0827050">
        <ele>105.8</ele>
        <time>2018-09-16T07:41:03Z</time>
      </trkpt>
      <trkpt lat="43.3344750" lon="-3.0828610">
        <ele>103.6</ele>
        <time>2018-09-16T07:41:05Z</time>
      </trkpt>
      <trkpt lat="43.3346610" lon="-3.0830130">
        <ele>102.0</ele>
        <time>2018-09-16T07:41:07Z</time>
      </trkpt>
      <trkpt lat="43.3348480" lon="-3.0831570">
        <ele>101.0</ele>
        <time>2018-09-16T07:41:09Z</time>
      </trkpt>
      <trkpt lat="43.3353300" lon="-3.0835240">
        <ele>99.8</ele>
        <time>2018-09-16T07:41:14Z</time>
      </trkpt>
      <trkpt lat="43.3354180" lon="-3.0836030">
        <ele>99.6</ele>
        <time>2018-09-16T07:41:15Z</time>
      </trkpt>
      <trkpt lat="43.3355960" lon="-3.0837650">
        <ele>98.8</ele>
        <time>2018-09-16T07:41:17Z</time>
      </trkpt>
      <trkpt lat="43.3359500" lon="-3.0841070">
        <ele>97.8</ele>
        <time>2018-09-16T07:41:21Z</time>
      </trkpt>
      <trkpt lat="43.3361320" lon="-3.0842660">
        <ele>97.6</ele>
        <time>2018-09-16T07:41:23Z</time>
      </trkpt>
      <trkpt lat="43.3363090" lon="-3.0844230">
        <ele>98.4</ele>
        <time>2018-09-16T07:41:25Z</time>
      </trkpt>
      <trkpt lat="43.3364550" lon="-3.0845960">
        <ele>98.6</ele>
        <time>2018-09-16T07:41:27Z</time>
      </trkpt>
      <trkpt lat="43.3364830" lon="-3.0847060">
        <ele>98.8</ele>
        <time>2018-09-16T07:41:28Z</time>
      </trkpt>
      <trkpt lat="43.3364620" lon="-3.0848230">
        <ele>98.4</ele>
        <time>2018-09-16T07:41:29Z</time>
      </trkpt>
      <trkpt lat="43.3363210" lon="-3.0849600">
        <ele>97.6</ele>
        <time>2018-09-16T07:41:31Z</time>
      </trkpt>
      <trkpt lat="43.3361350" lon="-3.0849130">
        <ele>97.0</ele>
        <time>2018-09-16T07:41:33Z</time>
      </trkpt>
      <trkpt lat="43.3359460" lon="-3.0848140">
        <ele>97.0</ele>
        <time>2018-09-16T07:41:35Z</time>
      </trkpt>
      <trkpt lat="43.3357500" lon="-3.0847190">
        <ele>96.6</ele>
        <time>2018-09-16T07:41:37Z</time>
      </trkpt>
      <trkpt lat="43.3356500" lon="-3.0846790">
        <ele>96.4</ele>
        <time>2018-09-16T07:41:38Z</time>
      </trkpt>
      <trkpt lat="43.3351490" lon="-3.0846050">
        <ele>96.0</ele>
        <time>2018-09-16T07:41:43Z</time>
      </trkpt>
      <trkpt lat="43.3349570" lon="-3.0846420">
        <ele>96.2</ele>
        <time>2018-09-16T07:41:45Z</time>
      </trkpt>
      <trkpt lat="43.3348640" lon="-3.0846720">
        <ele>96.0</ele>
        <time>2018-09-16T07:41:46Z</time>
      </trkpt>
      <trkpt lat="43.3346940" lon="-3.0847550">
        <ele>95.4</ele>
        <time>2018-09-16T07:41:48Z</time>
      </trkpt>
      <trkpt lat="43.3346190" lon="-3.0848080">
        <ele>94.8</ele>
        <time>2018-09-16T07:41:49Z</time>
      </trkpt>
      <trkpt lat="43.3345590" lon="-3.0848750">
        <ele>94.0</ele>
        <time>2018-09-16T07:41:50Z</time>
      </trkpt>
      <trkpt lat="43.3345220" lon="-3.0849570">
        <ele>93.6</ele>
        <time>2018-09-16T07:41:51Z</time>
      </trkpt>
      <trkpt lat="43.3345200" lon="-3.0850470">
        <ele>93.0</ele>
        <time>2018-09-16T07:41:52Z</time>
      </trkpt>
      <trkpt lat="43.3345590" lon="-3.0851260">
        <ele>92.6</ele>
        <time>2018-09-16T07:41:53Z</time>
      </trkpt>
      <trkpt lat="43.3346920" lon="-3.0852200">
        <ele>92.0</ele>
        <time>2018-09-16T07:41:55Z</time>
      </trkpt>
      <trkpt lat="43.3348620" lon="-3.0852260">
        <ele>91.6</ele>
        <time>2018-09-16T07:41:57Z</time>
      </trkpt>
      <trkpt lat="43.3350610" lon="-3.0852400">
        <ele>91.2</ele>
        <time>2018-09-16T07:41:59Z</time>
      </trkpt>
      <trkpt lat="43.3351630" lon="-3.0852790">
        <ele>90.8</ele>
        <time>2018-09-16T07:42:00Z</time>
      </trkpt>
      <trkpt lat="43.3352600" lon="-3.0853370">
        <ele>90.6</ele>
        <time>2018-09-16T07:42:01Z</time>
      </trkpt>
      <trkpt lat="43.3354420" lon="-3.0855010">
        <ele>89.4</ele>
        <time>2018-09-16T07:42:03Z</time>
      </trkpt>
      <trkpt lat="43.3356080" lon="-3.0856960">
        <ele>88.4</ele>
        <time>2018-09-16T07:42:05Z</time>
      </trkpt>
      <trkpt lat="43.3359640" lon="-3.0860310">
        <ele>87.2</ele>
        <time>2018-09-16T07:42:09Z</time>
      </trkpt>
      <trkpt lat="43.3363440" lon="-3.0863260">
        <ele>85.8</ele>
        <time>2018-09-16T07:42:13Z</time>
      </trkpt>
      <trkpt lat="43.3364400" lon="-3.0863870">
        <ele>85.8</ele>
        <time>2018-09-16T07:42:14Z</time>
      </trkpt>
      <trkpt lat="43.3365410" lon="-3.0864280">
        <ele>85.6</ele>
        <time>2018-09-16T07:42:15Z</time>
      </trkpt>
      <trkpt lat="43.3366450" lon="-3.0864560">
        <ele>85.6</ele>
        <time>2018-09-16T07:42:16Z</time>
      </trkpt>
      <trkpt lat="43.3370580" lon="-3.0865170">
        <ele>85.0</ele>
        <time>2018-09-16T07:42:20Z</time>
      </trkpt>
      <trkpt lat="43.3371570" lon="-3.0865540">
        <ele>84.6</ele>
        <time>2018-09-16T07:42:21Z</time>
      </trkpt>
      <trkpt lat="43.3373530" lon="-3.0866630">
        <ele>84.0</ele>
        <time>2018-09-16T07:42:23Z</time>
      </trkpt>
      <trkpt lat="43.3375240" lon="-3.0868450">
        <ele>83.4</ele>
        <time>2018-09-16T07:42:25Z</time>
      </trkpt>
      <trkpt lat="43.3376470" lon="-3.0870850">
        <ele>82.8</ele>
        <time>2018-09-16T07:42:27Z</time>
      </trkpt>
      <trkpt lat="43.3377260" lon="-3.0873550">
        <ele>82.2</ele>
        <time>2018-09-16T07:42:29Z</time>
      </trkpt>
      <trkpt lat="43.3377530" lon="-3.0874940">
        <ele>81.8</ele>
        <time>2018-09-16T07:42:30Z</time>
      </trkpt>
      <trkpt lat="43.3377770" lon="-3.0877800">
        <ele>81.6</ele>
        <time>2018-09-16T07:42:32Z</time>
      </trkpt>
      <trkpt lat="43.3377820" lon="-3.0880700">
        <ele>80.6</ele>
        <time>2018-09-16T07:42:34Z</time>
      </trkpt>
      <trkpt lat="43.3377830" lon="-3.0882170">
        <ele>80.0</ele>
        <time>2018-09-16T07:42:35Z</time>
      </trkpt>
      <trkpt lat="43.3377910" lon="-3.0885140">
        <ele>79.4</ele>
        <time>2018-09-16T07:42:37Z</time>
      </trkpt>
      <trkpt lat="43.3378250" lon="-3.0888090">
        <ele>78.4</ele>
        <time>2018-09-16T07:42:39Z</time>
      </trkpt>
      <trkpt lat="43.3378630" lon="-3.0889460">
        <ele>77.8</ele>
        <time>2018-09-16T07:42:40Z</time>
      </trkpt>
      <trkpt lat="43.3379190" lon="-3.0890720">
        <ele>77.2</ele>
        <time>2018-09-16T07:42:41Z</time>
      </trkpt>
      <trkpt lat="43.3379900" lon="-3.0891840">
        <ele>76.6</ele>
        <time>2018-09-16T07:42:42Z</time>
      </trkpt>
      <trkpt lat="43.3382180" lon="-3.0894900">
        <ele>75.4</ele>
        <time>2018-09-16T07:42:45Z</time>
      </trkpt>
      <trkpt lat="43.3382890" lon="-3.0897700">
        <ele>74.8</ele>
        <time>2018-09-16T07:42:47Z</time>
      </trkpt>
      <trkpt lat="43.3382650" lon="-3.0900780">
        <ele>74.2</ele>
        <time>2018-09-16T07:42:49Z</time>
      </trkpt>
      <trkpt lat="43.3382060" lon="-3.0903800">
        <ele>73.8</ele>
        <time>2018-09-16T07:42:51Z</time>
      </trkpt>
      <trkpt lat="43.3381880" lon="-3.0905320">
        <ele>73.8</ele>
        <time>2018-09-16T07:42:52Z</time>
      </trkpt>
      <trkpt lat="43.3381910" lon="-3.0908380">
        <ele>73.0</ele>
        <time>2018-09-16T07:42:54Z</time>
      </trkpt>
      <trkpt lat="43.3382130" lon="-3.0909910">
        <ele>72.8</ele>
        <time>2018-09-16T07:42:55Z</time>
      </trkpt>
      <trkpt lat="43.3382480" lon="-3.0911410">
        <ele>72.6</ele>
        <time>2018-09-16T07:42:56Z</time>
      </trkpt>
      <trkpt lat="43.3383840" lon="-3.0915830">
        <ele>71.6</ele>
        <time>2018-09-16T07:42:59Z</time>
      </trkpt>
      <trkpt lat="43.3384560" lon="-3.0918920">
        <ele>71.0</ele>
        <time>2018-09-16T07:43:01Z</time>
      </trkpt>
      <trkpt lat="43.3384980" lon="-3.0923830">
        <ele>70.8</ele>
        <time>2018-09-16T07:43:04Z</time>
      </trkpt>
      <trkpt lat="43.3385080" lon="-3.0925490">
        <ele>70.8</ele>
        <time>2018-09-16T07:43:05Z</time>
      </trkpt>
      <trkpt lat="43.3385360" lon="-3.0927110">
        <ele>70.6</ele>
        <time>2018-09-16T07:43:06Z</time>
      </trkpt>
      <trkpt lat="43.3386440" lon="-3.0930010">
        <ele>70.6</ele>
        <time>2018-09-16T07:43:08Z</time>
      </trkpt>
      <trkpt lat="43.3388180" lon="-3.0932400">
        <ele>70.2</ele>
        <time>2018-09-16T07:43:10Z</time>
      </trkpt>
      <trkpt lat="43.3390470" lon="-3.0934170">
        <ele>69.2</ele>
        <time>2018-09-16T07:43:12Z</time>
      </trkpt>
      <trkpt lat="43.3391500" lon="-3.0935230">
        <ele>68.6</ele>
        <time>2018-09-16T07:43:13Z</time>
      </trkpt>
      <trkpt lat="43.3392380" lon="-3.0936480">
        <ele>67.8</ele>
        <time>2018-09-16T07:43:14Z</time>
      </trkpt>
      <trkpt lat="43.3393070" lon="-3.0937950">
        <ele>67.2</ele>
        <time>2018-09-16T07:43:15Z</time>
      </trkpt>
      <trkpt lat="43.3393650" lon="-3.0939530">
        <ele>66.8</ele>
        <time>2018-09-16T07:43:16Z</time>
      </trkpt>
      <trkpt lat="43.3395000" lon="-3.0942450">
        <ele>66.6</ele>
        <time>2018-09-16T07:43:18Z</time>
      </trkpt>
      <trkpt lat="43.3396910" lon="-3.0944770">
        <ele>65.4</ele>
        <time>2018-09-16T07:43:20Z</time>
      </trkpt>
      <trkpt lat="43.3399230" lon="-3.0946790">
        <ele>63.8</ele>
        <time>2018-09-16T07:43:22Z</time>
      </trkpt>
      <trkpt lat="43.3401400" lon="-3.0949280">
        <ele>62.4</ele>
        <time>2018-09-16T07:43:24Z</time>
      </trkpt>
      <trkpt lat="43.3402320" lon="-3.0950770">
        <ele>62.0</ele>
        <time>2018-09-16T07:43:25Z</time>
      </trkpt>
      <trkpt lat="43.3403590" lon="-3.0954330">
        <ele>61.4</ele>
        <time>2018-09-16T07:43:27Z</time>
      </trkpt>
      <trkpt lat="43.3403990" lon="-3.0956240">
        <ele>61.0</ele>
        <time>2018-09-16T07:43:28Z</time>
      </trkpt>
      <trkpt lat="43.3404990" lon="-3.0959900">
        <ele>60.2</ele>
        <time>2018-09-16T07:43:30Z</time>
      </trkpt>
      <trkpt lat="43.3405700" lon="-3.0961560">
        <ele>59.8</ele>
        <time>2018-09-16T07:43:31Z</time>
      </trkpt>
      <trkpt lat="43.3407310" lon="-3.0964870">
        <ele>59.2</ele>
        <time>2018-09-16T07:43:33Z</time>
      </trkpt>
      <trkpt lat="43.3407840" lon="-3.0966670">
        <ele>58.8</ele>
        <time>2018-09-16T07:43:34Z</time>
      </trkpt>
      <trkpt lat="43.3408070" lon="-3.0968640">
        <ele>58.2</ele>
        <time>2018-09-16T07:43:35Z</time>
      </trkpt>
      <trkpt lat="43.3408050" lon="-3.0970650">
        <ele>57.6</ele>
        <time>2018-09-16T07:43:36Z</time>
      </trkpt>
      <trkpt lat="43.3407750" lon="-3.0976650">
        <ele>56.4</ele>
        <time>2018-09-16T07:43:39Z</time>
      </trkpt>
      <trkpt lat="43.3408200" lon="-3.0980570">
        <ele>55.8</ele>
        <time>2018-09-16T07:43:41Z</time>
      </trkpt>
      <trkpt lat="43.3408660" lon="-3.0982430">
        <ele>55.4</ele>
        <time>2018-09-16T07:43:42Z</time>
      </trkpt>
      <trkpt lat="43.3409900" lon="-3.0988350">
        <ele>53.8</ele>
        <time>2018-09-16T07:43:45Z</time>
      </trkpt>
      <trkpt lat="43.3410250" lon="-3.0994320">
        <ele>52.8</ele>
        <time>2018-09-16T07:43:48Z</time>
      </trkpt>
      <trkpt lat="43.3411600" lon="-3.1001330">
        <ele>51.6</ele>
        <time>2018-09-16T07:43:52Z</time>
      </trkpt>
      <trkpt lat="43.3413100" lon="-3.1006030">
        <ele>50.6</ele>
        <time>2018-09-16T07:43:55Z</time>
      </trkpt>
      <trkpt lat="43.3414390" lon="-3.1010770">
        <ele>49.6</ele>
        <time>2018-09-16T07:43:58Z</time>
      </trkpt>
      <trkpt lat="43.3415670" lon="-3.1017090">
        <ele>49.0</ele>
        <time>2018-09-16T07:44:02Z</time>
      </trkpt>
      <trkpt lat="43.3416810" lon="-3.1019880">
        <ele>48.4</ele>
        <time>2018-09-16T07:44:04Z</time>
      </trkpt>
      <trkpt lat="43.3417590" lon="-3.1021150">
        <ele>48.2</ele>
        <time>2018-09-16T07:44:05Z</time>
      </trkpt>
      <trkpt lat="43.3418440" lon="-3.1022300">
        <ele>48.0</ele>
        <time>2018-09-16T07:44:06Z</time>
      </trkpt>
      <trkpt lat="43.3423270" lon="-3.1026770">
        <ele>47.8</ele>
        <time>2018-09-16T07:44:11Z</time>
      </trkpt>
      <trkpt lat="43.3427130" lon="-3.1029940">
        <ele>47.8</ele>
        <time>2018-09-16T07:44:15Z</time>
      </trkpt>
      <trkpt lat="43.3431920" lon="-3.1033950">
        <ele>47.6</ele>
        <time>2018-09-16T07:44:20Z</time>
      </trkpt>
      <trkpt lat="43.3434720" lon="-3.1036270">
        <ele>47.4</ele>
        <time>2018-09-16T07:44:23Z</time>
      </trkpt>
      <trkpt lat="43.3436520" lon="-3.1037900">
        <ele>46.8</ele>
        <time>2018-09-16T07:44:25Z</time>
      </trkpt>
      <trkpt lat="43.3439010" lon="-3.1040600">
        <ele>46.2</ele>
        <time>2018-09-16T07:44:28Z</time>
      </trkpt>
      <trkpt lat="43.3441260" lon="-3.1043560">
        <ele>45.4</ele>
        <time>2018-09-16T07:44:31Z</time>
      </trkpt>
      <trkpt lat="43.3441960" lon="-3.1044600">
        <ele>45.0</ele>
        <time>2018-09-16T07:44:32Z</time>
      </trkpt>
      <trkpt lat="43.3443360" lon="-3.1046650">
        <ele>44.6</ele>
        <time>2018-09-16T07:44:34Z</time>
      </trkpt>
      <trkpt lat="43.3444040" lon="-3.1047660">
        <ele>44.4</ele>
        <time>2018-09-16T07:44:35Z</time>
      </trkpt>
      <trkpt lat="43.3444660" lon="-3.1048730">
        <ele>44.2</ele>
        <time>2018-09-16T07:44:36Z</time>
      </trkpt>
      <trkpt lat="43.3445190" lon="-3.1049880">
        <ele>43.8</ele>
        <time>2018-09-16T07:44:37Z</time>
      </trkpt>
      <trkpt lat="43.3446490" lon="-3.1053670">
        <ele>42.4</ele>
        <time>2018-09-16T07:44:40Z</time>
      </trkpt>
      <trkpt lat="43.3447590" lon="-3.1057890">
        <ele>41.8</ele>
        <time>2018-09-16T07:44:43Z</time>
      </trkpt>
      <trkpt lat="43.3448300" lon="-3.1060730">
        <ele>42.4</ele>
        <time>2018-09-16T07:44:45Z</time>
      </trkpt>
      <trkpt lat="43.3449400" lon="-3.1065050">
        <ele>42.0</ele>
        <time>2018-09-16T07:44:48Z</time>
      </trkpt>
      <trkpt lat="43.3451310" lon="-3.1072250">
        <ele>41.4</ele>
        <time>2018-09-16T07:44:53Z</time>
      </trkpt>
      <trkpt lat="43.3452090" lon="-3.1075110">
        <ele>40.8</ele>
        <time>2018-09-16T07:44:55Z</time>
      </trkpt>
      <trkpt lat="43.3452750" lon="-3.1078010">
        <ele>40.2</ele>
        <time>2018-09-16T07:44:57Z</time>
      </trkpt>
      <trkpt lat="43.3453070" lon="-3.1080970">
        <ele>39.6</ele>
        <time>2018-09-16T07:44:59Z</time>
      </trkpt>
      <trkpt lat="43.3452940" lon="-3.1083990">
        <ele>39.2</ele>
        <time>2018-09-16T07:45:01Z</time>
      </trkpt>
      <trkpt lat="43.3452830" lon="-3.1085480">
        <ele>38.8</ele>
        <time>2018-09-16T07:45:02Z</time>
      </trkpt>
      <trkpt lat="43.3452900" lon="-3.1089870">
        <ele>38.2</ele>
        <time>2018-09-16T07:45:05Z</time>
      </trkpt>
      <trkpt lat="43.3454360" lon="-3.1096140">
        <ele>37.8</ele>
        <time>2018-09-16T07:45:10Z</time>
      </trkpt>
      <trkpt lat="43.3455530" lon="-3.1099290">
        <ele>37.6</ele>
        <time>2018-09-16T07:45:13Z</time>
      </trkpt>
      <trkpt lat="43.3455190" lon="-3.1101340">
        <ele>37.6</ele>
        <time>2018-09-16T07:45:15Z</time>
      </trkpt>
      <trkpt lat="43.3454350" lon="-3.1103010">
        <ele>37.8</ele>
        <time>2018-09-16T07:45:17Z</time>
      </trkpt>
      <trkpt lat="43.3453640" lon="-3.1105880">
        <ele>37.8</ele>
        <time>2018-09-16T07:45:20Z</time>
      </trkpt>
      <trkpt lat="43.3452840" lon="-3.1107600">
        <ele>38.0</ele>
        <time>2018-09-16T07:45:22Z</time>
      </trkpt>
      <trkpt lat="43.3451680" lon="-3.1108960">
        <ele>38.2</ele>
        <time>2018-09-16T07:45:24Z</time>
      </trkpt>
      <trkpt lat="43.3451020" lon="-3.1109470">
        <ele>38.4</ele>
        <time>2018-09-16T07:45:25Z</time>
      </trkpt>
      <trkpt lat="43.3450330" lon="-3.1109870">
        <ele>38.6</ele>
        <time>2018-09-16T07:45:26Z</time>
      </trkpt>
      <trkpt lat="43.3448850" lon="-3.1110430">
        <ele>38.6</ele>
        <time>2018-09-16T07:45:28Z</time>
      </trkpt>
      <trkpt lat="43.3445960" lon="-3.1110890">
        <ele>38.8</ele>
        <time>2018-09-16T07:45:32Z</time>
      </trkpt>
      <trkpt lat="43.3443880" lon="-3.1111790">
        <ele>39.4</ele>
        <time>2018-09-16T07:45:35Z</time>
      </trkpt>
      <trkpt lat="43.3443220" lon="-3.1112220">
        <ele>39.6</ele>
        <time>2018-09-16T07:45:36Z</time>
      </trkpt>
      <trkpt lat="43.3442580" lon="-3.1112760">
        <ele>40.0</ele>
        <time>2018-09-16T07:45:37Z</time>
      </trkpt>
      <trkpt lat="43.3438170" lon="-3.1118240">
        <ele>40.6</ele>
        <time>2018-09-16T07:45:45Z</time>
      </trkpt>
      <trkpt lat="43.3436500" lon="-3.1120240">
        <ele>39.6</ele>
        <time>2018-09-16T07:45:48Z</time>
      </trkpt>
      <trkpt lat="43.3435080" lon="-3.1120410">
        <ele>38.8</ele>
        <time>2018-09-16T07:45:50Z</time>
      </trkpt>
      <trkpt lat="43.3432100" lon="-3.1119190">
        <ele>38.6</ele>
        <time>2018-09-16T07:45:54Z</time>
      </trkpt>
      <trkpt lat="43.3431310" lon="-3.1118940">
        <ele>38.8</ele>
        <time>2018-09-16T07:45:55Z</time>
      </trkpt>
      <trkpt lat="43.3425710" lon="-3.1117280">
        <ele>39.4</ele>
        <time>2018-09-16T07:46:02Z</time>
      </trkpt>
      <trkpt lat="43.3423300" lon="-3.1116800">
        <ele>39.8</ele>
        <time>2018-09-16T07:46:05Z</time>
      </trkpt>
      <trkpt lat="43.3422500" lon="-3.1116740">
        <ele>40.0</ele>
        <time>2018-09-16T07:46:06Z</time>
      </trkpt>
      <trkpt lat="43.3416910" lon="-3.1117510">
        <ele>40.8</ele>
        <time>2018-09-16T07:46:13Z</time>
      </trkpt>
      <trkpt lat="43.3415270" lon="-3.1117830">
        <ele>40.8</ele>
        <time>2018-09-16T07:46:15Z</time>
      </trkpt>
      <trkpt lat="43.3411960" lon="-3.1118130">
        <ele>41.2</ele>
        <time>2018-09-16T07:46:19Z</time>
      </trkpt>
      <trkpt lat="43.3407750" lon="-3.1117640">
        <ele>41.2</ele>
        <time>2018-09-16T07:46:24Z</time>
      </trkpt>
      <trkpt lat="43.3406940" lon="-3.1117480">
        <ele>40.8</ele>
        <time>2018-09-16T07:46:25Z</time>
      </trkpt>
      <trkpt lat="43.3405390" lon="-3.1116800">
        <ele>40.0</ele>
        <time>2018-09-16T07:46:27Z</time>
      </trkpt>
      <trkpt lat="43.3402200" lon="-3.1115400">
        <ele>39.0</ele>
        <time>2018-09-16T07:46:31Z</time>
      </trkpt>
      <trkpt lat="43.3399000" lon="-3.1114260">
        <ele>38.2</ele>
        <time>2018-09-16T07:46:35Z</time>
      </trkpt>
      <trkpt lat="43.3397470" lon="-3.1113760">
        <ele>37.8</ele>
        <time>2018-09-16T07:46:37Z</time>
      </trkpt>
      <trkpt lat="43.3392600" lon="-3.1113460">
        <ele>36.8</ele>
        <time>2018-09-16T07:46:43Z</time>
      </trkpt>
      <trkpt lat="43.3390940" lon="-3.1113540">
        <ele>36.6</ele>
        <time>2018-09-16T07:46:45Z</time>
      </trkpt>
      <trkpt lat="43.3385170" lon="-3.1114930">
        <ele>35.8</ele>
        <time>2018-09-16T07:46:52Z</time>
      </trkpt>
      <trkpt lat="43.3384350" lon="-3.1115310">
        <ele>35.8</ele>
        <time>2018-09-16T07:46:53Z</time>
      </trkpt>
      <trkpt lat="43.3382730" lon="-3.1116180">
        <ele>35.4</ele>
        <time>2018-09-16T07:46:55Z</time>
      </trkpt>
      <trkpt lat="43.3377150" lon="-3.1118870">
        <ele>35.4</ele>
        <time>2018-09-16T07:47:02Z</time>
      </trkpt>
      <trkpt lat="43.3374680" lon="-3.1119320">
        <ele>35.4</ele>
        <time>2018-09-16T07:47:05Z</time>
      </trkpt>
      <trkpt lat="43.3368940" lon="-3.1118160">
        <ele>35.2</ele>
        <time>2018-09-16T07:47:12Z</time>
      </trkpt>
      <trkpt lat="43.3366590" lon="-3.1116730">
        <ele>34.8</ele>
        <time>2018-09-16T07:47:15Z</time>
      </trkpt>
      <trkpt lat="43.3365850" lon="-3.1116150">
        <ele>34.6</ele>
        <time>2018-09-16T07:47:16Z</time>
      </trkpt>
      <trkpt lat="43.3363850" lon="-3.1114070">
        <ele>34.0</ele>
        <time>2018-09-16T07:47:19Z</time>
      </trkpt>
      <trkpt lat="43.3360070" lon="-3.1109340">
        <ele>33.8</ele>
        <time>2018-09-16T07:47:25Z</time>
      </trkpt>
      <trkpt lat="43.3355700" lon="-3.1104000">
        <ele>34.0</ele>
        <time>2018-09-16T07:47:32Z</time>
      </trkpt>
      <trkpt lat="43.3353850" lon="-3.1101720">
        <ele>33.6</ele>
        <time>2018-09-16T07:47:35Z</time>
      </trkpt>
      <trkpt lat="43.3353230" lon="-3.1100970">
        <ele>33.4</ele>
        <time>2018-09-16T07:47:36Z</time>
      </trkpt>
      <trkpt lat="43.3348820" lon="-3.1095790">
        <ele>33.6</ele>
        <time>2018-09-16T07:47:43Z</time>
      </trkpt>
      <trkpt lat="43.3347520" lon="-3.1094400">
        <ele>33.8</ele>
        <time>2018-09-16T07:47:45Z</time>
      </trkpt>
      <trkpt lat="43.3345570" lon="-3.1092310">
        <ele>34.8</ele>
        <time>2018-09-16T07:47:48Z</time>
      </trkpt>
      <trkpt lat="43.3342880" lon="-3.1089560">
        <ele>36.0</ele>
        <time>2018-09-16T07:47:52Z</time>
      </trkpt>
      <trkpt lat="43.3340700" lon="-3.1087780">
        <ele>37.0</ele>
        <time>2018-09-16T07:47:55Z</time>
      </trkpt>
      <trkpt lat="43.3339090" lon="-3.1086980">
        <ele>37.0</ele>
        <time>2018-09-16T07:47:57Z</time>
      </trkpt>
      <trkpt lat="43.3338270" lon="-3.1086730">
        <ele>37.2</ele>
        <time>2018-09-16T07:47:58Z</time>
      </trkpt>
      <trkpt lat="43.3335740" lon="-3.1086380">
        <ele>38.0</ele>
        <time>2018-09-16T07:48:01Z</time>
      </trkpt>
      <trkpt lat="43.3333150" lon="-3.1086970">
        <ele>37.6</ele>
        <time>2018-09-16T07:48:04Z</time>
      </trkpt>
      <trkpt lat="43.3332370" lon="-3.1087340">
        <ele>37.2</ele>
        <time>2018-09-16T07:48:05Z</time>
      </trkpt>
      <trkpt lat="43.3330790" lon="-3.1088280">
        <ele>36.6</ele>
        <time>2018-09-16T07:48:07Z</time>
      </trkpt>
      <trkpt lat="43.3329290" lon="-3.1089530">
        <ele>36.6</ele>
        <time>2018-09-16T07:48:09Z</time>
      </trkpt>
      <trkpt lat="43.3327280" lon="-3.1091830">
        <ele>37.0</ele>
        <time>2018-09-16T07:48:12Z</time>
      </trkpt>
      <trkpt lat="43.3326240" lon="-3.1093810">
        <ele>37.0</ele>
        <time>2018-09-16T07:48:14Z</time>
      </trkpt>
      <trkpt lat="43.3325800" lon="-3.1094880">
        <ele>36.8</ele>
        <time>2018-09-16T07:48:15Z</time>
      </trkpt>
      <trkpt lat="43.3325040" lon="-3.1097160">
        <ele>36.8</ele>
        <time>2018-09-16T07:48:17Z</time>
      </trkpt>
      <trkpt lat="43.3323680" lon="-3.1105330">
        <ele>36.2</ele>
        <time>2018-09-16T07:48:24Z</time>
      </trkpt>
      <trkpt lat="43.3323480" lon="-3.1106460">
        <ele>36.0</ele>
        <time>2018-09-16T07:48:25Z</time>
      </trkpt>
      <trkpt lat="43.3321900" lon="-3.1114210">
        <ele>36.0</ele>
        <time>2018-09-16T07:48:32Z</time>
      </trkpt>
      <trkpt lat="43.3321120" lon="-3.1117420">
        <ele>36.0</ele>
        <time>2018-09-16T07:48:35Z</time>
      </trkpt>
      <trkpt lat="43.3319380" lon="-3.1123820">
        <ele>37.2</ele>
        <time>2018-09-16T07:48:41Z</time>
      </trkpt>
      <trkpt lat="43.3318080" lon="-3.1127970">
        <ele>37.8</ele>
        <time>2018-09-16T07:48:45Z</time>
      </trkpt>
      <trkpt lat="43.3314120" lon="-3.1133880">
        <ele>38.2</ele>
        <time>2018-09-16T07:48:52Z</time>
      </trkpt>
      <trkpt lat="43.3312100" lon="-3.1135890">
        <ele>38.2</ele>
        <time>2018-09-16T07:48:55Z</time>
      </trkpt>
      <trkpt lat="43.3309870" lon="-3.1139050">
        <ele>39.2</ele>
        <time>2018-09-16T07:48:59Z</time>
      </trkpt>
      <trkpt lat="43.3307290" lon="-3.1144810">
        <ele>39.2</ele>
        <time>2018-09-16T07:49:05Z</time>
      </trkpt>
      <trkpt lat="43.3304460" lon="-3.1151620">
        <ele>38.6</ele>
        <time>2018-09-16T07:49:12Z</time>
      </trkpt>
      <trkpt lat="43.3303570" lon="-3.1154510">
        <ele>39.2</ele>
        <time>2018-09-16T07:49:15Z</time>
      </trkpt>
      <trkpt lat="43.3302870" lon="-3.1157510">
        <ele>40.2</ele>
        <time>2018-09-16T07:49:18Z</time>
      </trkpt>
      <trkpt lat="43.3302280" lon="-3.1160560">
        <ele>41.4</ele>
        <time>2018-09-16T07:49:21Z</time>
      </trkpt>
      <trkpt lat="43.3301430" lon="-3.1164740">
        <ele>41.2</ele>
        <time>2018-09-16T07:49:25Z</time>
      </trkpt>
      <trkpt lat="43.3300450" lon="-3.1168970">
        <ele>40.0</ele>
        <time>2018-09-16T07:49:29Z</time>
      </trkpt>
      <trkpt lat="43.3299570" lon="-3.1172110">
        <ele>38.8</ele>
        <time>2018-09-16T07:49:32Z</time>
      </trkpt>
      <trkpt lat="43.3298570" lon="-3.1175020">
        <ele>39.0</ele>
        <time>2018-09-16T07:49:35Z</time>
      </trkpt>
      <trkpt lat="43.3295150" lon="-3.1180930">
        <ele>39.6</ele>
        <time>2018-09-16T07:49:42Z</time>
      </trkpt>
      <trkpt lat="43.3293520" lon="-3.1183090">
        <ele>39.8</ele>
        <time>2018-09-16T07:49:45Z</time>
      </trkpt>
      <trkpt lat="43.3289500" lon="-3.1188580">
        <ele>39.8</ele>
        <time>2018-09-16T07:49:52Z</time>
      </trkpt>
      <trkpt lat="43.3287810" lon="-3.1190830">
        <ele>39.8</ele>
        <time>2018-09-16T07:49:55Z</time>
      </trkpt>
      <trkpt lat="43.3283970" lon="-3.1196380">
        <ele>39.4</ele>
        <time>2018-09-16T07:50:02Z</time>
      </trkpt>
      <trkpt lat="43.3282560" lon="-3.1199130">
        <ele>39.6</ele>
        <time>2018-09-16T07:50:05Z</time>
      </trkpt>
      <trkpt lat="43.3281240" lon="-3.1202070">
        <ele>40.0</ele>
        <time>2018-09-16T07:50:08Z</time>
      </trkpt>
      <trkpt lat="43.3278290" lon="-3.1207810">
        <ele>41.2</ele>
        <time>2018-09-16T07:50:14Z</time>
      </trkpt>
      <trkpt lat="43.3277710" lon="-3.1208660">
        <ele>41.4</ele>
        <time>2018-09-16T07:50:15Z</time>
      </trkpt>
      <trkpt lat="43.3277110" lon="-3.1209480">
        <ele>41.4</ele>
        <time>2018-09-16T07:50:16Z</time>
      </trkpt>
      <trkpt lat="43.3273780" lon="-3.1213090">
        <ele>40.0</ele>
        <time>2018-09-16T07:50:21Z</time>
      </trkpt>
      <trkpt lat="43.3270800" lon="-3.1215230">
        <ele>39.8</ele>
        <time>2018-09-16T07:50:25Z</time>
      </trkpt>
      <trkpt lat="43.3270020" lon="-3.1215610">
        <ele>39.8</ele>
        <time>2018-09-16T07:50:26Z</time>
      </trkpt>
      <trkpt lat="43.3267520" lon="-3.1216400">
        <ele>40.6</ele>
        <time>2018-09-16T07:50:29Z</time>
      </trkpt>
      <trkpt lat="43.3264860" lon="-3.1216490">
        <ele>41.0</ele>
        <time>2018-09-16T07:50:32Z</time>
      </trkpt>
      <trkpt lat="43.3264010" lon="-3.1216300">
        <ele>41.2</ele>
        <time>2018-09-16T07:50:33Z</time>
      </trkpt>
      <trkpt lat="43.3262370" lon="-3.1215670">
        <ele>40.6</ele>
        <time>2018-09-16T07:50:35Z</time>
      </trkpt>
      <trkpt lat="43.3261600" lon="-3.1215230">
        <ele>40.4</ele>
        <time>2018-09-16T07:50:36Z</time>
      </trkpt>
      <trkpt lat="43.3259450" lon="-3.1213330">
        <ele>40.0</ele>
        <time>2018-09-16T07:50:39Z</time>
      </trkpt>
      <trkpt lat="43.3258180" lon="-3.1211740">
        <ele>40.0</ele>
        <time>2018-09-16T07:50:41Z</time>
      </trkpt>
      <trkpt lat="43.3256400" lon="-3.1207660">
        <ele>39.8</ele>
        <time>2018-09-16T07:50:45Z</time>
      </trkpt>
      <trkpt lat="43.3253840" lon="-3.1200270">
        <ele>39.6</ele>
        <time>2018-09-16T07:50:52Z</time>
      </trkpt>
      <trkpt lat="43.3252500" lon="-3.1197370">
        <ele>40.0</ele>
        <time>2018-09-16T07:50:55Z</time>
      </trkpt>
      <trkpt lat="43.3248690" lon="-3.1191360">
        <ele>39.8</ele>
        <time>2018-09-16T07:51:02Z</time>
      </trkpt>
      <trkpt lat="43.3246950" lon="-3.1189120">
        <ele>39.8</ele>
        <time>2018-09-16T07:51:05Z</time>
      </trkpt>
      <trkpt lat="43.3242920" lon="-3.1184190">
        <ele>39.4</ele>
        <time>2018-09-16T07:51:12Z</time>
      </trkpt>
      <trkpt lat="43.3241390" lon="-3.1182140">
        <ele>39.4</ele>
        <time>2018-09-16T07:51:15Z</time>
      </trkpt>
      <trkpt lat="43.3238590" lon="-3.1176900">
        <ele>40.0</ele>
        <time>2018-09-16T07:51:22Z</time>
      </trkpt>
      <trkpt lat="43.3237870" lon="-3.1175630">
        <ele>40.0</ele>
        <time>2018-09-16T07:51:24Z</time>
      </trkpt>
      <trkpt lat="43.3237420" lon="-3.1175230">
        <ele>40.0</ele>
        <time>2018-09-16T07:51:25Z</time>
      </trkpt>
      <trkpt lat="43.3236900" lon="-3.1175030">
        <ele>40.2</ele>
        <time>2018-09-16T07:51:26Z</time>
      </trkpt>
      <trkpt lat="43.3235860" lon="-3.1175040">
        <ele>40.2</ele>
        <time>2018-09-16T07:51:28Z</time>
      </trkpt>
      <trkpt lat="43.3234850" lon="-3.1175550">
        <ele>40.8</ele>
        <time>2018-09-16T07:51:30Z</time>
      </trkpt>
      <trkpt lat="43.3234350" lon="-3.1175890">
        <ele>41.2</ele>
        <time>2018-09-16T07:51:31Z</time>
      </trkpt>
      <trkpt lat="43.3232200" lon="-3.1177380">
        <ele>41.4</ele>
        <time>2018-09-16T07:51:35Z</time>
      </trkpt>
      <trkpt lat="43.3226640" lon="-3.1180320">
        <ele>41.0</ele>
        <time>2018-09-16T07:51:44Z</time>
      </trkpt>
      <trkpt lat="43.3225960" lon="-3.1180440">
        <ele>41.2</ele>
        <time>2018-09-16T07:51:45Z</time>
      </trkpt>
      <trkpt lat="43.3223940" lon="-3.1180540">
        <ele>41.2</ele>
        <time>2018-09-16T07:51:48Z</time>
      </trkpt>
      <trkpt lat="43.3221270" lon="-3.1179780">
        <ele>40.0</ele>
        <time>2018-09-16T07:51:52Z</time>
      </trkpt>
      <trkpt lat="43.3219370" lon="-3.1179230">
        <ele>39.2</ele>
        <time>2018-09-16T07:51:55Z</time>
      </trkpt>
      <trkpt lat="43.3218420" lon="-3.1179920">
        <ele>39.0</ele>
        <time>2018-09-16T07:51:57Z</time>
      </trkpt>
      <trkpt lat="43.3218120" lon="-3.1180630">
        <ele>39.0</ele>
        <time>2018-09-16T07:51:58Z</time>
      </trkpt>
      <trkpt lat="43.3217920" lon="-3.1181430">
        <ele>39.2</ele>
        <time>2018-09-16T07:51:59Z</time>
      </trkpt>
      <trkpt lat="43.3217330" lon="-3.1184720">
        <ele>40.2</ele>
        <time>2018-09-16T07:52:03Z</time>
      </trkpt>
      <trkpt lat="43.3216990" lon="-3.1186350">
        <ele>40.2</ele>
        <time>2018-09-16T07:52:05Z</time>
      </trkpt>
      <trkpt lat="43.3216720" lon="-3.1187060">
        <ele>40.4</ele>
        <time>2018-09-16T07:52:06Z</time>
      </trkpt>
      <trkpt lat="43.3215790" lon="-3.1187760">
        <ele>40.0</ele>
        <time>2018-09-16T07:52:08Z</time>
      </trkpt>
      <trkpt lat="43.3214070" lon="-3.1187690">
        <ele>39.6</ele>
        <time>2018-09-16T07:52:11Z</time>
      </trkpt>
      <trkpt lat="43.3213180" lon="-3.1188530">
        <ele>39.4</ele>
        <time>2018-09-16T07:52:13Z</time>
      </trkpt>
      <trkpt lat="43.3212510" lon="-3.1189870">
        <ele>39.4</ele>
        <time>2018-09-16T07:52:15Z</time>
      </trkpt>
      <trkpt lat="43.3209930" lon="-3.1194830">
        <ele>40.6</ele>
        <time>2018-09-16T07:52:23Z</time>
      </trkpt>
      <trkpt lat="43.3208960" lon="-3.1195100">
        <ele>41.2</ele>
        <time>2018-09-16T07:52:25Z</time>
      </trkpt>
      <trkpt lat="43.3208010" lon="-3.1194480">
        <ele>41.6</ele>
        <time>2018-09-16T07:52:27Z</time>
      </trkpt>
      <trkpt lat="43.3207240" lon="-3.1193340">
        <ele>41.8</ele>
        <time>2018-09-16T07:52:29Z</time>
      </trkpt>
      <trkpt lat="43.3206030" lon="-3.1189850">
        <ele>41.8</ele>
        <time>2018-09-16T07:52:34Z</time>
      </trkpt>
      <trkpt lat="43.3205800" lon="-3.1189160">
        <ele>41.8</ele>
        <time>2018-09-16T07:52:35Z</time>
      </trkpt>
      <trkpt lat="43.3205090" lon="-3.1187140">
        <ele>42.2</ele>
        <time>2018-09-16T07:52:38Z</time>
      </trkpt>
      <trkpt lat="43.3204060" lon="-3.1184560">
        <ele>42.6</ele>
        <time>2018-09-16T07:52:42Z</time>
      </trkpt>
      <trkpt lat="43.3203780" lon="-3.1183200">
        <ele>42.6</ele>
        <time>2018-09-16T07:52:44Z</time>
      </trkpt>
      <trkpt lat="43.3203590" lon="-3.1182510">
        <ele>42.8</ele>
        <time>2018-09-16T07:52:45Z</time>
      </trkpt>
      <trkpt lat="43.3203160" lon="-3.1181080">
        <ele>43.6</ele>
        <time>2018-09-16T07:52:47Z</time>
      </trkpt>
      <trkpt lat="43.3202410" lon="-3.1179040">
        <ele>44.2</ele>
        <time>2018-09-16T07:52:50Z</time>
      </trkpt>
      <trkpt lat="43.3200620" lon="-3.1176160">
        <ele>44.4</ele>
        <time>2018-09-16T07:52:55Z</time>
      </trkpt>
      <trkpt lat="43.3199490" lon="-3.1174550">
        <ele>44.6</ele>
        <time>2018-09-16T07:52:58Z</time>
      </trkpt>
      <trkpt lat="43.3197320" lon="-3.1171470">
        <ele>46.2</ele>
        <time>2018-09-16T07:53:05Z</time>
      </trkpt>
      <trkpt lat="43.3196750" lon="-3.1171040">
        <ele>47.6</ele>
        <time>2018-09-16T07:53:07Z</time>
      </trkpt>
      <trkpt lat="43.3196360" lon="-3.1170890">
        <ele>47.8</ele>
        <time>2018-09-16T07:53:08Z</time>
      </trkpt>
      <trkpt lat="43.3192650" lon="-3.1171250">
        <ele>47.8</ele>
        <time>2018-09-16T07:53:15Z</time>
      </trkpt>
      <trkpt lat="43.3189230" lon="-3.1171660">
        <ele>46.2</ele>
        <time>2018-09-16T07:53:20Z</time>
      </trkpt>
      <trkpt lat="43.3187030" lon="-3.1172760">
        <ele>45.6</ele>
        <time>2018-09-16T07:53:23Z</time>
      </trkpt>
      <trkpt lat="43.3185450" lon="-3.1173900">
        <ele>44.8</ele>
        <time>2018-09-16T07:53:25Z</time>
      </trkpt>
      <trkpt lat="43.3184680" lon="-3.1174610">
        <ele>44.4</ele>
        <time>2018-09-16T07:53:26Z</time>
      </trkpt>
      <trkpt lat="43.3183970" lon="-3.1175440">
        <ele>43.6</ele>
        <time>2018-09-16T07:53:27Z</time>
      </trkpt>
      <trkpt lat="43.3183330" lon="-3.1176350">
        <ele>43.2</ele>
        <time>2018-09-16T07:53:28Z</time>
      </trkpt>
      <trkpt lat="43.3182230" lon="-3.1178320">
        <ele>42.6</ele>
        <time>2018-09-16T07:53:30Z</time>
      </trkpt>
      <trkpt lat="43.3181650" lon="-3.1179270">
        <ele>42.4</ele>
        <time>2018-09-16T07:53:31Z</time>
      </trkpt>
      <trkpt lat="43.3181010" lon="-3.1180110">
        <ele>42.2</ele>
        <time>2018-09-16T07:53:32Z</time>
      </trkpt>
      <trkpt lat="43.3179690" lon="-3.1181590">
        <ele>41.8</ele>
        <time>2018-09-16T07:53:34Z</time>
      </trkpt>
      <trkpt lat="43.3179030" lon="-3.1182290">
        <ele>41.8</ele>
        <time>2018-09-16T07:53:35Z</time>
      </trkpt>
      <trkpt lat="43.3177090" lon="-3.1184340">
        <ele>41.6</ele>
        <time>2018-09-16T07:53:38Z</time>
      </trkpt>
      <trkpt lat="43.3173540" lon="-3.1188130">
        <ele>42.2</ele>
        <time>2018-09-16T07:53:44Z</time>
      </trkpt>
      <trkpt lat="43.3173030" lon="-3.1188700">
        <ele>42.6</ele>
        <time>2018-09-16T07:53:45Z</time>
      </trkpt>
      <trkpt lat="43.3168830" lon="-3.1193590">
        <ele>43.2</ele>
        <time>2018-09-16T07:53:53Z</time>
      </trkpt>
      <trkpt lat="43.3167860" lon="-3.1194970">
        <ele>43.2</ele>
        <time>2018-09-16T07:53:55Z</time>
      </trkpt>
      <trkpt lat="43.3166180" lon="-3.1198230">
        <ele>43.2</ele>
        <time>2018-09-16T07:53:59Z</time>
      </trkpt>
      <trkpt lat="43.3164730" lon="-3.1200120">
        <ele>43.4</ele>
        <time>2018-09-16T07:54:02Z</time>
      </trkpt>
      <trkpt lat="43.3164210" lon="-3.1200590">
        <ele>43.6</ele>
        <time>2018-09-16T07:54:03Z</time>
      </trkpt>
      <trkpt lat="43.3163150" lon="-3.1201490">
        <ele>44.0</ele>
        <time>2018-09-16T07:54:05Z</time>
      </trkpt>
      <trkpt lat="43.3161590" lon="-3.1202590">
        <ele>45.0</ele>
        <time>2018-09-16T07:54:08Z</time>
      </trkpt>
      <trkpt lat="43.3160620" lon="-3.1203210">
        <ele>46.0</ele>
        <time>2018-09-16T07:54:10Z</time>
      </trkpt>
      <trkpt lat="43.3158580" lon="-3.1204710">
        <ele>47.0</ele>
        <time>2018-09-16T07:54:14Z</time>
      </trkpt>
      <trkpt lat="43.3158120" lon="-3.1205050">
        <ele>47.4</ele>
        <time>2018-09-16T07:54:15Z</time>
      </trkpt>
      <trkpt lat="43.3156760" lon="-3.1206150">
        <ele>48.0</ele>
        <time>2018-09-16T07:54:18Z</time>
      </trkpt>
      <trkpt lat="43.3155410" lon="-3.1207250">
        <ele>48.6</ele>
        <time>2018-09-16T07:54:21Z</time>
      </trkpt>
      <trkpt lat="43.3154520" lon="-3.1208010">
        <ele>49.2</ele>
        <time>2018-09-16T07:54:23Z</time>
      </trkpt>
      <trkpt lat="43.3153580" lon="-3.1208700">
        <ele>49.6</ele>
        <time>2018-09-16T07:54:25Z</time>
      </trkpt>
      <trkpt lat="43.3152140" lon="-3.1209650">
        <ele>50.2</ele>
        <time>2018-09-16T07:54:28Z</time>
      </trkpt>
      <trkpt lat="43.3150220" lon="-3.1210780">
        <ele>51.4</ele>
        <time>2018-09-16T07:54:32Z</time>
      </trkpt>
      <trkpt lat="43.3148650" lon="-3.1211540">
        <ele>52.6</ele>
        <time>2018-09-16T07:54:35Z</time>
      </trkpt>
      <trkpt lat="43.3146960" lon="-3.1212070">
        <ele>53.6</ele>
        <time>2018-09-16T07:54:38Z</time>
      </trkpt>
      <trkpt lat="43.3142540" lon="-3.1211930">
        <ele>54.0</ele>
        <time>2018-09-16T07:54:45Z</time>
      </trkpt>
      <trkpt lat="43.3140630" lon="-3.1211490">
        <ele>54.6</ele>
        <time>2018-09-16T07:54:48Z</time>
      </trkpt>
      <trkpt lat="43.3140020" lon="-3.1211200">
        <ele>54.6</ele>
        <time>2018-09-16T07:54:49Z</time>
      </trkpt>
      <trkpt lat="43.3136560" lon="-3.1208750">
        <ele>54.8</ele>
        <time>2018-09-16T07:54:55Z</time>
      </trkpt>
      <trkpt lat="43.3131350" lon="-3.1205670">
        <ele>54.4</ele>
        <time>2018-09-16T07:55:03Z</time>
      </trkpt>
      <trkpt lat="43.3129890" lon="-3.1205100">
        <ele>54.0</ele>
        <time>2018-09-16T07:55:05Z</time>
      </trkpt>
      <trkpt lat="43.3124680" lon="-3.1202020">
        <ele>53.6</ele>
        <time>2018-09-16T07:55:13Z</time>
      </trkpt>
      <trkpt lat="43.3123550" lon="-3.1200980">
        <ele>53.2</ele>
        <time>2018-09-16T07:55:15Z</time>
      </trkpt>
      <trkpt lat="43.3121850" lon="-3.1199110">
        <ele>53.0</ele>
        <time>2018-09-16T07:55:18Z</time>
      </trkpt>
      <trkpt lat="43.3120600" lon="-3.1197740">
        <ele>52.6</ele>
        <time>2018-09-16T07:55:20Z</time>
      </trkpt>
      <trkpt lat="43.3119870" lon="-3.1197230">
        <ele>52.4</ele>
        <time>2018-09-16T07:55:21Z</time>
      </trkpt>
      <trkpt lat="43.3119090" lon="-3.1196960">
        <ele>52.2</ele>
        <time>2018-09-16T07:55:22Z</time>
      </trkpt>
      <trkpt lat="43.3117520" lon="-3.1197540">
        <ele>51.6</ele>
        <time>2018-09-16T07:55:24Z</time>
      </trkpt>
      <trkpt lat="43.3116850" lon="-3.1198090">
        <ele>51.4</ele>
        <time>2018-09-16T07:55:25Z</time>
      </trkpt>
      <trkpt lat="43.3112230" lon="-3.1202490">
        <ele>50.8</ele>
        <time>2018-09-16T07:55:32Z</time>
      </trkpt>
      <trkpt lat="43.3111200" lon="-3.1204310">
        <ele>50.2</ele>
        <time>2018-09-16T07:55:34Z</time>
      </trkpt>
      <trkpt lat="43.3110810" lon="-3.1205340">
        <ele>50.0</ele>
        <time>2018-09-16T07:55:35Z</time>
      </trkpt>
      <trkpt lat="43.3110480" lon="-3.1206470">
        <ele>49.8</ele>
        <time>2018-09-16T07:55:36Z</time>
      </trkpt>
      <trkpt lat="43.3110200" lon="-3.1208900">
        <ele>49.2</ele>
        <time>2018-09-16T07:55:38Z</time>
      </trkpt>
      <trkpt lat="43.3110170" lon="-3.1212740">
        <ele>47.8</ele>
        <time>2018-09-16T07:55:41Z</time>
      </trkpt>
      <trkpt lat="43.3110180" lon="-3.1215330">
        <ele>47.4</ele>
        <time>2018-09-16T07:55:43Z</time>
      </trkpt>
      <trkpt lat="43.3110050" lon="-3.1217760">
        <ele>47.0</ele>
        <time>2018-09-16T07:55:45Z</time>
      </trkpt>
      <trkpt lat="43.3109900" lon="-3.1218950">
        <ele>47.0</ele>
        <time>2018-09-16T07:55:46Z</time>
      </trkpt>
      <trkpt lat="43.3108120" lon="-3.1225030">
        <ele>47.2</ele>
        <time>2018-09-16T07:55:52Z</time>
      </trkpt>
      <trkpt lat="43.3106900" lon="-3.1227540">
        <ele>47.8</ele>
        <time>2018-09-16T07:55:55Z</time>
      </trkpt>
      <trkpt lat="43.3105990" lon="-3.1228950">
        <ele>47.8</ele>
        <time>2018-09-16T07:55:57Z</time>
      </trkpt>
      <trkpt lat="43.3104990" lon="-3.1230250">
        <ele>48.2</ele>
        <time>2018-09-16T07:55:59Z</time>
      </trkpt>
      <trkpt lat="43.3102150" lon="-3.1232810">
        <ele>48.8</ele>
        <time>2018-09-16T07:56:04Z</time>
      </trkpt>
      <trkpt lat="43.3101440" lon="-3.1233060">
        <ele>48.8</ele>
        <time>2018-09-16T07:56:05Z</time>
      </trkpt>
      <trkpt lat="43.3096290" lon="-3.1234750">
        <ele>48.8</ele>
        <time>2018-09-16T07:56:12Z</time>
      </trkpt>
      <trkpt lat="43.3094090" lon="-3.1235310">
        <ele>49.4</ele>
        <time>2018-09-16T07:56:15Z</time>
      </trkpt>
      <trkpt lat="43.3090000" lon="-3.1235660">
        <ele>49.8</ele>
        <time>2018-09-16T07:56:21Z</time>
      </trkpt>
      <trkpt lat="43.3087220" lon="-3.1235080">
        <ele>50.4</ele>
        <time>2018-09-16T07:56:25Z</time>
      </trkpt>
      <trkpt lat="43.3081730" lon="-3.1231580">
        <ele>50.6</ele>
        <time>2018-09-16T07:56:33Z</time>
      </trkpt>
      <trkpt lat="43.3080590" lon="-3.1230130">
        <ele>50.4</ele>
        <time>2018-09-16T07:56:35Z</time>
      </trkpt>
      <trkpt lat="43.3078820" lon="-3.1227740">
        <ele>50.0</ele>
        <time>2018-09-16T07:56:38Z</time>
      </trkpt>
      <trkpt lat="43.3076260" lon="-3.1224530">
        <ele>49.2</ele>
        <time>2018-09-16T07:56:42Z</time>
      </trkpt>
      <trkpt lat="43.3075600" lon="-3.1223720">
        <ele>48.8</ele>
        <time>2018-09-16T07:56:43Z</time>
      </trkpt>
      <trkpt lat="43.3074330" lon="-3.1222060">
        <ele>48.6</ele>
        <time>2018-09-16T07:56:45Z</time>
      </trkpt>
      <trkpt lat="43.3069680" lon="-3.1217220">
        <ele>48.4</ele>
        <time>2018-09-16T07:56:52Z</time>
      </trkpt>
      <trkpt lat="43.3067730" lon="-3.1215990">
        <ele>48.8</ele>
        <time>2018-09-16T07:56:55Z</time>
      </trkpt>
      <trkpt lat="43.3064630" lon="-3.1214790">
        <ele>49.6</ele>
        <time>2018-09-16T07:57:00Z</time>
      </trkpt>
      <trkpt lat="43.3063480" lon="-3.1214460">
        <ele>50.0</ele>
        <time>2018-09-16T07:57:02Z</time>
      </trkpt>
      <trkpt lat="43.3061790" lon="-3.1214010">
        <ele>50.6</ele>
        <time>2018-09-16T07:57:05Z</time>
      </trkpt>
      <trkpt lat="43.3060710" lon="-3.1213720">
        <ele>51.2</ele>
        <time>2018-09-16T07:57:07Z</time>
      </trkpt>
      <trkpt lat="43.3057620" lon="-3.1212910">
        <ele>52.2</ele>
        <time>2018-09-16T07:57:13Z</time>
      </trkpt>
      <trkpt lat="43.3056640" lon="-3.1212700">
        <ele>52.8</ele>
        <time>2018-09-16T07:57:15Z</time>
      </trkpt>
      <trkpt lat="43.3055220" lon="-3.1212470">
        <ele>53.4</ele>
        <time>2018-09-16T07:57:18Z</time>
      </trkpt>
      <trkpt lat="43.3053280" lon="-3.1212460">
        <ele>54.6</ele>
        <time>2018-09-16T07:57:22Z</time>
      </trkpt>
      <trkpt lat="43.3051900" lon="-3.1212620">
        <ele>55.4</ele>
        <time>2018-09-16T07:57:25Z</time>
      </trkpt>
      <trkpt lat="43.3051450" lon="-3.1212680">
        <ele>55.8</ele>
        <time>2018-09-16T07:57:26Z</time>
      </trkpt>
      <trkpt lat="43.3049490" lon="-3.1213080">
        <ele>56.8</ele>
        <time>2018-09-16T07:57:30Z</time>
      </trkpt>
      <trkpt lat="43.3049010" lon="-3.1213180">
        <ele>57.0</ele>
        <time>2018-09-16T07:57:31Z</time>
      </trkpt>
      <trkpt lat="43.3047110" lon="-3.1213510">
        <ele>57.8</ele>
        <time>2018-09-16T07:57:35Z</time>
      </trkpt>
      <trkpt lat="43.3046630" lon="-3.1213640">
        <ele>58.2</ele>
        <time>2018-09-16T07:57:36Z</time>
      </trkpt>
      <trkpt lat="43.3045690" lon="-3.1213810">
        <ele>58.6</ele>
        <time>2018-09-16T07:57:38Z</time>
      </trkpt>
      <trkpt lat="43.3044240" lon="-3.1214030">
        <ele>59.2</ele>
        <time>2018-09-16T07:57:41Z</time>
      </trkpt>
      <trkpt lat="43.3042320" lon="-3.1214250">
        <ele>59.8</ele>
        <time>2018-09-16T07:57:45Z</time>
      </trkpt>
      <trkpt lat="43.3041850" lon="-3.1214310">
        <ele>60.0</ele>
        <time>2018-09-16T07:57:46Z</time>
      </trkpt>
      <trkpt lat="43.3041410" lon="-3.1214390">
        <ele>60.2</ele>
        <time>2018-09-16T07:57:47Z</time>
      </trkpt>
      <trkpt lat="43.3038730" lon="-3.1214870">
        <ele>61.4</ele>
        <time>2018-09-16T07:57:53Z</time>
      </trkpt>
      <trkpt lat="43.3037830" lon="-3.1215120">
        <ele>61.8</ele>
        <time>2018-09-16T07:57:55Z</time>
      </trkpt>
      <trkpt lat="43.3036440" lon="-3.1215430">
        <ele>62.6</ele>
        <time>2018-09-16T07:57:58Z</time>
      </trkpt>
      <trkpt lat="43.3033000" lon="-3.1216480">
        <ele>64.0</ele>
        <time>2018-09-16T07:58:05Z</time>
      </trkpt>
      <trkpt lat="43.3031140" lon="-3.1217290">
        <ele>65.0</ele>
        <time>2018-09-16T07:58:09Z</time>
      </trkpt>
      <trkpt lat="43.3029340" lon="-3.1218110">
        <ele>66.2</ele>
        <time>2018-09-16T07:58:13Z</time>
      </trkpt>
      <trkpt lat="43.3028460" lon="-3.1218590">
        <ele>66.6</ele>
        <time>2018-09-16T07:58:15Z</time>
      </trkpt>
      <trkpt lat="43.3026620" lon="-3.1219580">
        <ele>67.4</ele>
        <time>2018-09-16T07:58:19Z</time>
      </trkpt>
      <trkpt lat="43.3026070" lon="-3.1219830">
        <ele>67.4</ele>
        <time>2018-09-16T07:58:20Z</time>
      </trkpt>
      <trkpt lat="43.3023220" lon="-3.1221440">
        <ele>68.4</ele>
        <time>2018-09-16T07:58:25Z</time>
      </trkpt>
      <trkpt lat="43.3017510" lon="-3.1224170">
        <ele>67.6</ele>
        <time>2018-09-16T07:58:33Z</time>
      </trkpt>
      <trkpt lat="43.3016690" lon="-3.1224550">
        <ele>67.2</ele>
        <time>2018-09-16T07:58:34Z</time>
      </trkpt>
      <trkpt lat="43.3015840" lon="-3.1224920">
        <ele>67.0</ele>
        <time>2018-09-16T07:58:35Z</time>
      </trkpt>
      <trkpt lat="43.3013330" lon="-3.1226320">
        <ele>66.4</ele>
        <time>2018-09-16T07:58:38Z</time>
      </trkpt>
      <trkpt lat="43.3012470" lon="-3.1226740">
        <ele>66.2</ele>
        <time>2018-09-16T07:58:39Z</time>
      </trkpt>
      <trkpt lat="43.3009830" lon="-3.1228120">
        <ele>65.6</ele>
        <time>2018-09-16T07:58:42Z</time>
      </trkpt>
      <trkpt lat="43.3008050" lon="-3.1229060">
        <ele>65.0</ele>
        <time>2018-09-16T07:58:44Z</time>
      </trkpt>
      <trkpt lat="43.3007170" lon="-3.1229560">
        <ele>64.8</ele>
        <time>2018-09-16T07:58:45Z</time>
      </trkpt>
      <trkpt lat="43.3004800" lon="-3.1231450">
        <ele>64.6</ele>
        <time>2018-09-16T07:58:48Z</time>
      </trkpt>
      <trkpt lat="43.3003450" lon="-3.1233070">
        <ele>64.2</ele>
        <time>2018-09-16T07:58:50Z</time>
      </trkpt>
      <trkpt lat="43.3002820" lon="-3.1234010">
        <ele>64.0</ele>
        <time>2018-09-16T07:58:51Z</time>
      </trkpt>
      <trkpt lat="43.3002220" lon="-3.1235060">
        <ele>64.0</ele>
        <time>2018-09-16T07:58:52Z</time>
      </trkpt>
      <trkpt lat="43.3000810" lon="-3.1238540">
        <ele>63.2</ele>
        <time>2018-09-16T07:58:55Z</time>
      </trkpt>
      <trkpt lat="43.3000420" lon="-3.1239810">
        <ele>62.8</ele>
        <time>2018-09-16T07:58:56Z</time>
      </trkpt>
      <trkpt lat="43.2999110" lon="-3.1243720">
        <ele>62.2</ele>
        <time>2018-09-16T07:58:59Z</time>
      </trkpt>
      <trkpt lat="43.2997890" lon="-3.1246240">
        <ele>61.4</ele>
        <time>2018-09-16T07:59:01Z</time>
      </trkpt>
      <trkpt lat="43.2996560" lon="-3.1248810">
        <ele>60.6</ele>
        <time>2018-09-16T07:59:03Z</time>
      </trkpt>
      <trkpt lat="43.2995900" lon="-3.1250150">
        <ele>59.8</ele>
        <time>2018-09-16T07:59:04Z</time>
      </trkpt>
      <trkpt lat="43.2995240" lon="-3.1251470">
        <ele>58.8</ele>
        <time>2018-09-16T07:59:05Z</time>
      </trkpt>
      <trkpt lat="43.2994590" lon="-3.1252750">
        <ele>58.0</ele>
        <time>2018-09-16T07:59:06Z</time>
      </trkpt>
      <trkpt lat="43.2993320" lon="-3.1255310">
        <ele>57.0</ele>
        <time>2018-09-16T07:59:08Z</time>
      </trkpt>
      <trkpt lat="43.2991530" lon="-3.1258810">
        <ele>56.0</ele>
        <time>2018-09-16T07:59:11Z</time>
      </trkpt>
      <trkpt lat="43.2990920" lon="-3.1259810">
        <ele>55.8</ele>
        <time>2018-09-16T07:59:12Z</time>
      </trkpt>
      <trkpt lat="43.2990240" lon="-3.1260720">
        <ele>56.0</ele>
        <time>2018-09-16T07:59:13Z</time>
      </trkpt>
      <trkpt lat="43.2988730" lon="-3.1262120">
        <ele>56.4</ele>
        <time>2018-09-16T07:59:15Z</time>
      </trkpt>
      <trkpt lat="43.2987120" lon="-3.1262960">
        <ele>56.8</ele>
        <time>2018-09-16T07:59:17Z</time>
      </trkpt>
      <trkpt lat="43.2986320" lon="-3.1263130">
        <ele>57.0</ele>
        <time>2018-09-16T07:59:18Z</time>
      </trkpt>
      <trkpt lat="43.2984790" lon="-3.1263200">
        <ele>57.6</ele>
        <time>2018-09-16T07:59:20Z</time>
      </trkpt>
      <trkpt lat="43.2984080" lon="-3.1263130">
        <ele>58.0</ele>
        <time>2018-09-16T07:59:21Z</time>
      </trkpt>
      <trkpt lat="43.2981380" lon="-3.1262890">
        <ele>59.2</ele>
        <time>2018-09-16T07:59:25Z</time>
      </trkpt>
      <trkpt lat="43.2979460" lon="-3.1262750">
        <ele>59.8</ele>
        <time>2018-09-16T07:59:28Z</time>
      </trkpt>
      <trkpt lat="43.2978230" lon="-3.1262630">
        <ele>60.2</ele>
        <time>2018-09-16T07:59:30Z</time>
      </trkpt>
      <trkpt lat="43.2975250" lon="-3.1262450">
        <ele>61.2</ele>
        <time>2018-09-16T07:59:35Z</time>
      </trkpt>
      <trkpt lat="43.2971700" lon="-3.1262430">
        <ele>62.4</ele>
        <time>2018-09-16T07:59:41Z</time>
      </trkpt>
      <trkpt lat="43.2970570" lon="-3.1262420">
        <ele>62.6</ele>
        <time>2018-09-16T07:59:43Z</time>
      </trkpt>
      <trkpt lat="43.2969450" lon="-3.1262560">
        <ele>63.0</ele>
        <time>2018-09-16T07:59:45Z</time>
      </trkpt>
      <trkpt lat="43.2968330" lon="-3.1262710">
        <ele>63.4</ele>
        <time>2018-09-16T07:59:47Z</time>
      </trkpt>
      <trkpt lat="43.2966140" lon="-3.1263100">
        <ele>64.4</ele>
        <time>2018-09-16T07:59:51Z</time>
      </trkpt>
      <trkpt lat="43.2964020" lon="-3.1263760">
        <ele>65.2</ele>
        <time>2018-09-16T07:59:55Z</time>
      </trkpt>
      <trkpt lat="43.2962990" lon="-3.1264150">
        <ele>65.6</ele>
        <time>2018-09-16T07:59:57Z</time>
      </trkpt>
      <trkpt lat="43.2961020" lon="-3.1265030">
        <ele>66.6</ele>
        <time>2018-09-16T08:00:01Z</time>
      </trkpt>
      <trkpt lat="43.2959110" lon="-3.1266040">
        <ele>67.6</ele>
        <time>2018-09-16T08:00:05Z</time>
      </trkpt>
      <trkpt lat="43.2958650" lon="-3.1266280">
        <ele>67.8</ele>
        <time>2018-09-16T08:00:06Z</time>
      </trkpt>
      <trkpt lat="43.2955920" lon="-3.1267620">
        <ele>68.8</ele>
        <time>2018-09-16T08:00:12Z</time>
      </trkpt>
      <trkpt lat="43.2955470" lon="-3.1267830">
        <ele>69.0</ele>
        <time>2018-09-16T08:00:13Z</time>
      </trkpt>
      <trkpt lat="43.2954530" lon="-3.1268250">
        <ele>69.8</ele>
        <time>2018-09-16T08:00:15Z</time>
      </trkpt>
      <trkpt lat="43.2954090" lon="-3.1268460">
        <ele>70.2</ele>
        <time>2018-09-16T08:00:16Z</time>
      </trkpt>
      <trkpt lat="43.2952310" lon="-3.1269290">
        <ele>71.2</ele>
        <time>2018-09-16T08:00:20Z</time>
      </trkpt>
      <trkpt lat="43.2950560" lon="-3.1270140">
        <ele>72.4</ele>
        <time>2018-09-16T08:00:24Z</time>
      </trkpt>
      <trkpt lat="43.2950140" lon="-3.1270310">
        <ele>72.6</ele>
        <time>2018-09-16T08:00:25Z</time>
      </trkpt>
      <trkpt lat="43.2949370" lon="-3.1270950">
        <ele>73.2</ele>
        <time>2018-09-16T08:00:27Z</time>
      </trkpt>
      <trkpt lat="43.2948970" lon="-3.1271280">
        <ele>73.6</ele>
        <time>2018-09-16T08:00:28Z</time>
      </trkpt>
      <trkpt lat="43.2947350" lon="-3.1272690">
        <ele>75.0</ele>
        <time>2018-09-16T08:00:32Z</time>
      </trkpt>
      <trkpt lat="43.2946530" lon="-3.1273410">
        <ele>76.2</ele>
        <time>2018-09-16T08:00:34Z</time>
      </trkpt>
      <trkpt lat="43.2946140" lon="-3.1273780">
        <ele>76.6</ele>
        <time>2018-09-16T08:00:35Z</time>
      </trkpt>
      <trkpt lat="43.2945420" lon="-3.1274570">
        <ele>77.4</ele>
        <time>2018-09-16T08:00:37Z</time>
      </trkpt>
      <trkpt lat="43.2944390" lon="-3.1275880">
        <ele>78.6</ele>
        <time>2018-09-16T08:00:40Z</time>
      </trkpt>
      <trkpt lat="43.2943420" lon="-3.1277260">
        <ele>80.0</ele>
        <time>2018-09-16T08:00:43Z</time>
      </trkpt>
      <trkpt lat="43.2942730" lon="-3.1278170">
        <ele>81.2</ele>
        <time>2018-09-16T08:00:45Z</time>
      </trkpt>
      <trkpt lat="43.2941320" lon="-3.1279880">
        <ele>82.4</ele>
        <time>2018-09-16T08:00:49Z</time>
      </trkpt>
      <trkpt lat="43.2940250" lon="-3.1281220">
        <ele>83.6</ele>
        <time>2018-09-16T08:00:52Z</time>
      </trkpt>
      <trkpt lat="43.2939130" lon="-3.1282410">
        <ele>84.6</ele>
        <time>2018-09-16T08:00:55Z</time>
      </trkpt>
      <trkpt lat="43.2938750" lon="-3.1282780">
        <ele>84.8</ele>
        <time>2018-09-16T08:00:56Z</time>
      </trkpt>
      <trkpt lat="43.2937370" lon="-3.1283690">
        <ele>86.4</ele>
        <time>2018-09-16T08:00:59Z</time>
      </trkpt>
      <trkpt lat="43.2935610" lon="-3.1284820">
        <ele>87.6</ele>
        <time>2018-09-16T08:01:03Z</time>
      </trkpt>
      <trkpt lat="43.2934670" lon="-3.1285300">
        <ele>88.4</ele>
        <time>2018-09-16T08:01:05Z</time>
      </trkpt>
      <trkpt lat="43.2934210" lon="-3.1285520">
        <ele>88.8</ele>
        <time>2018-09-16T08:01:06Z</time>
      </trkpt>
      <trkpt lat="43.2932360" lon="-3.1286230">
        <ele>89.8</ele>
        <time>2018-09-16T08:01:10Z</time>
      </trkpt>
      <trkpt lat="43.2930490" lon="-3.1286840">
        <ele>90.8</ele>
        <time>2018-09-16T08:01:14Z</time>
      </trkpt>
      <trkpt lat="43.2930010" lon="-3.1286930">
        <ele>91.2</ele>
        <time>2018-09-16T08:01:15Z</time>
      </trkpt>
      <trkpt lat="43.2928550" lon="-3.1287270">
        <ele>92.2</ele>
        <time>2018-09-16T08:01:18Z</time>
      </trkpt>
      <trkpt lat="43.2926670" lon="-3.1287740">
        <ele>93.2</ele>
        <time>2018-09-16T08:01:22Z</time>
      </trkpt>
      <trkpt lat="43.2925290" lon="-3.1288050">
        <ele>94.0</ele>
        <time>2018-09-16T08:01:25Z</time>
      </trkpt>
      <trkpt lat="43.2924850" lon="-3.1288160">
        <ele>94.4</ele>
        <time>2018-09-16T08:01:26Z</time>
      </trkpt>
      <trkpt lat="43.2922960" lon="-3.1288560">
        <ele>95.6</ele>
        <time>2018-09-16T08:01:30Z</time>
      </trkpt>
      <trkpt lat="43.2920620" lon="-3.1289300">
        <ele>96.6</ele>
        <time>2018-09-16T08:01:35Z</time>
      </trkpt>
      <trkpt lat="43.2918790" lon="-3.1290170">
        <ele>98.0</ele>
        <time>2018-09-16T08:01:39Z</time>
      </trkpt>
      <trkpt lat="43.2916180" lon="-3.1292080">
        <ele>99.0</ele>
        <time>2018-09-16T08:01:45Z</time>
      </trkpt>
      <trkpt lat="43.2915720" lon="-3.1292470">
        <ele>99.0</ele>
        <time>2018-09-16T08:01:46Z</time>
      </trkpt>
      <trkpt lat="43.2913970" lon="-3.1293960">
        <ele>100.0</ele>
        <time>2018-09-16T08:01:50Z</time>
      </trkpt>
      <trkpt lat="43.2911690" lon="-3.1295740">
        <ele>101.2</ele>
        <time>2018-09-16T08:01:55Z</time>
      </trkpt>
      <trkpt lat="43.2910340" lon="-3.1296720">
        <ele>102.4</ele>
        <time>2018-09-16T08:01:58Z</time>
      </trkpt>
      <trkpt lat="43.2908060" lon="-3.1298640">
        <ele>103.4</ele>
        <time>2018-09-16T08:02:03Z</time>
      </trkpt>
      <trkpt lat="43.2907200" lon="-3.1299480">
        <ele>104.0</ele>
        <time>2018-09-16T08:02:05Z</time>
      </trkpt>
      <trkpt lat="43.2906340" lon="-3.1300460">
        <ele>104.6</ele>
        <time>2018-09-16T08:02:07Z</time>
      </trkpt>
      <trkpt lat="43.2903280" lon="-3.1304670">
        <ele>105.2</ele>
        <time>2018-09-16T08:02:15Z</time>
      </trkpt>
      <trkpt lat="43.2902770" lon="-3.1305160">
        <ele>105.2</ele>
        <time>2018-09-16T08:02:16Z</time>
      </trkpt>
      <trkpt lat="43.2901050" lon="-3.1306300">
        <ele>105.6</ele>
        <time>2018-09-16T08:02:19Z</time>
      </trkpt>
      <trkpt lat="43.2896940" lon="-3.1307380">
        <ele>105.6</ele>
        <time>2018-09-16T08:02:25Z</time>
      </trkpt>
      <trkpt lat="43.2894810" lon="-3.1307830">
        <ele>105.6</ele>
        <time>2018-09-16T08:02:28Z</time>
      </trkpt>
      <trkpt lat="43.2891960" lon="-3.1308840">
        <ele>105.2</ele>
        <time>2018-09-16T08:02:32Z</time>
      </trkpt>
      <trkpt lat="43.2890590" lon="-3.1309970">
        <ele>104.8</ele>
        <time>2018-09-16T08:02:34Z</time>
      </trkpt>
      <trkpt lat="43.2890000" lon="-3.1310690">
        <ele>104.6</ele>
        <time>2018-09-16T08:02:35Z</time>
      </trkpt>
      <trkpt lat="43.2889510" lon="-3.1311470">
        <ele>104.4</ele>
        <time>2018-09-16T08:02:36Z</time>
      </trkpt>
      <trkpt lat="43.2888670" lon="-3.1313500">
        <ele>103.8</ele>
        <time>2018-09-16T08:02:38Z</time>
      </trkpt>
      <trkpt lat="43.2888190" lon="-3.1315820">
        <ele>103.4</ele>
        <time>2018-09-16T08:02:40Z</time>
      </trkpt>
      <trkpt lat="43.2888030" lon="-3.1318240">
        <ele>102.8</ele>
        <time>2018-09-16T08:02:42Z</time>
      </trkpt>
      <trkpt lat="43.2888090" lon="-3.1320830">
        <ele>102.0</ele>
        <time>2018-09-16T08:02:44Z</time>
      </trkpt>
      <trkpt lat="43.2888160" lon="-3.1322210">
        <ele>101.6</ele>
        <time>2018-09-16T08:02:45Z</time>
      </trkpt>
      <trkpt lat="43.2888440" lon="-3.1326500">
        <ele>101.0</ele>
        <time>2018-09-16T08:02:48Z</time>
      </trkpt>
      <trkpt lat="43.2888500" lon="-3.1327970">
        <ele>100.6</ele>
        <time>2018-09-16T08:02:49Z</time>
      </trkpt>
      <trkpt lat="43.2888590" lon="-3.1331030">
        <ele>99.6</ele>
        <time>2018-09-16T08:02:51Z</time>
      </trkpt>
      <trkpt lat="43.2888420" lon="-3.1335790">
        <ele>98.0</ele>
        <time>2018-09-16T08:02:54Z</time>
      </trkpt>
      <trkpt lat="43.2888140" lon="-3.1337330">
        <ele>97.6</ele>
        <time>2018-09-16T08:02:55Z</time>
      </trkpt>
      <trkpt lat="43.2887740" lon="-3.1338800">
        <ele>97.0</ele>
        <time>2018-09-16T08:02:56Z</time>
      </trkpt>
      <trkpt lat="43.2886600" lon="-3.1341600">
        <ele>95.8</ele>
        <time>2018-09-16T08:02:58Z</time>
      </trkpt>
      <trkpt lat="43.2885860" lon="-3.1342860">
        <ele>95.4</ele>
        <time>2018-09-16T08:02:59Z</time>
      </trkpt>
      <trkpt lat="43.2884080" lon="-3.1344910">
        <ele>94.6</ele>
        <time>2018-09-16T08:03:01Z</time>
      </trkpt>
      <trkpt lat="43.2881990" lon="-3.1346410">
        <ele>93.2</ele>
        <time>2018-09-16T08:03:03Z</time>
      </trkpt>
      <trkpt lat="43.2879900" lon="-3.1347360">
        <ele>91.8</ele>
        <time>2018-09-16T08:03:05Z</time>
      </trkpt>
      <trkpt lat="43.2874300" lon="-3.1349120">
        <ele>91.8</ele>
        <time>2018-09-16T08:03:11Z</time>
      </trkpt>
      <trkpt lat="43.2871690" lon="-3.1349900">
        <ele>92.2</ele>
        <time>2018-09-16T08:03:14Z</time>
      </trkpt>
      <trkpt lat="43.2870810" lon="-3.1350130">
        <ele>92.2</ele>
        <time>2018-09-16T08:03:15Z</time>
      </trkpt>
      <trkpt lat="43.2867260" lon="-3.1351130">
        <ele>92.2</ele>
        <time>2018-09-16T08:03:19Z</time>
      </trkpt>
      <trkpt lat="43.2864550" lon="-3.1351950">
        <ele>92.2</ele>
        <time>2018-09-16T08:03:22Z</time>
      </trkpt>
      <trkpt lat="43.2861770" lon="-3.1352940">
        <ele>92.0</ele>
        <time>2018-09-16T08:03:25Z</time>
      </trkpt>
      <trkpt lat="43.2856210" lon="-3.1354360">
        <ele>91.4</ele>
        <time>2018-09-16T08:03:31Z</time>
      </trkpt>
      <trkpt lat="43.2853530" lon="-3.1355160">
        <ele>91.2</ele>
        <time>2018-09-16T08:03:34Z</time>
      </trkpt>
      <trkpt lat="43.2852690" lon="-3.1355410">
        <ele>91.2</ele>
        <time>2018-09-16T08:03:35Z</time>
      </trkpt>
      <trkpt lat="43.2850310" lon="-3.1356130">
        <ele>91.2</ele>
        <time>2018-09-16T08:03:38Z</time>
      </trkpt>
      <trkpt lat="43.2847400" lon="-3.1356980">
        <ele>91.4</ele>
        <time>2018-09-16T08:03:42Z</time>
      </trkpt>
      <trkpt lat="43.2846700" lon="-3.1357210">
        <ele>91.4</ele>
        <time>2018-09-16T08:03:43Z</time>
      </trkpt>
      <trkpt lat="43.2845340" lon="-3.1357770">
        <ele>91.6</ele>
        <time>2018-09-16T08:03:45Z</time>
      </trkpt>
      <trkpt lat="43.2842960" lon="-3.1359360">
        <ele>91.6</ele>
        <time>2018-09-16T08:03:49Z</time>
      </trkpt>
      <trkpt lat="43.2842070" lon="-3.1360240">
        <ele>91.6</ele>
        <time>2018-09-16T08:03:51Z</time>
      </trkpt>
      <trkpt lat="43.2841730" lon="-3.1360740">
        <ele>91.6</ele>
        <time>2018-09-16T08:03:52Z</time>
      </trkpt>
      <trkpt lat="43.2840660" lon="-3.1362660">
        <ele>91.8</ele>
        <time>2018-09-16T08:03:55Z</time>
      </trkpt>
      <trkpt lat="43.2839960" lon="-3.1364300">
        <ele>91.8</ele>
        <time>2018-09-16T08:03:57Z</time>
      </trkpt>
      <trkpt lat="43.2839420" lon="-3.1366210">
        <ele>91.6</ele>
        <time>2018-09-16T08:03:59Z</time>
      </trkpt>
      <trkpt lat="43.2838150" lon="-3.1370910">
        <ele>91.4</ele>
        <time>2018-09-16T08:04:04Z</time>
      </trkpt>
      <trkpt lat="43.2837890" lon="-3.1371910">
        <ele>91.2</ele>
        <time>2018-09-16T08:04:05Z</time>
      </trkpt>
      <trkpt lat="43.2837360" lon="-3.1373950">
        <ele>91.0</ele>
        <time>2018-09-16T08:04:07Z</time>
      </trkpt>
      <trkpt lat="43.2836720" lon="-3.1375940">
        <ele>90.6</ele>
        <time>2018-09-16T08:04:09Z</time>
      </trkpt>
      <trkpt lat="43.2836010" lon="-3.1377870">
        <ele>90.0</ele>
        <time>2018-09-16T08:04:11Z</time>
      </trkpt>
      <trkpt lat="43.2835100" lon="-3.1379710">
        <ele>89.4</ele>
        <time>2018-09-16T08:04:13Z</time>
      </trkpt>
      <trkpt lat="43.2834060" lon="-3.1381500">
        <ele>88.8</ele>
        <time>2018-09-16T08:04:15Z</time>
      </trkpt>
      <trkpt lat="43.2833420" lon="-3.1382400">
        <ele>88.6</ele>
        <time>2018-09-16T08:04:16Z</time>
      </trkpt>
      <trkpt lat="43.2832770" lon="-3.1383230">
        <ele>88.4</ele>
        <time>2018-09-16T08:04:17Z</time>
      </trkpt>
      <trkpt lat="43.2829860" lon="-3.1386380">
        <ele>87.4</ele>
        <time>2018-09-16T08:04:21Z</time>
      </trkpt>
      <trkpt lat="43.2827700" lon="-3.1388640">
        <ele>86.4</ele>
        <time>2018-09-16T08:04:24Z</time>
      </trkpt>
      <trkpt lat="43.2827000" lon="-3.1389320">
        <ele>86.2</ele>
        <time>2018-09-16T08:04:25Z</time>
      </trkpt>
      <trkpt lat="43.2825630" lon="-3.1390520">
        <ele>86.0</ele>
        <time>2018-09-16T08:04:27Z</time>
      </trkpt>
      <trkpt lat="43.2821100" lon="-3.1393550">
        <ele>85.8</ele>
        <time>2018-09-16T08:04:33Z</time>
      </trkpt>
      <trkpt lat="43.2819640" lon="-3.1394410">
        <ele>85.8</ele>
        <time>2018-09-16T08:04:35Z</time>
      </trkpt>
      <trkpt lat="43.2815290" lon="-3.1396710">
        <ele>86.0</ele>
        <time>2018-09-16T08:04:41Z</time>
      </trkpt>
      <trkpt lat="43.2813080" lon="-3.1397450">
        <ele>86.4</ele>
        <time>2018-09-16T08:04:44Z</time>
      </trkpt>
      <trkpt lat="43.2812310" lon="-3.1397700">
        <ele>86.4</ele>
        <time>2018-09-16T08:04:45Z</time>
      </trkpt>
      <trkpt lat="43.2806450" lon="-3.1397680">
        <ele>86.8</ele>
        <time>2018-09-16T08:04:53Z</time>
      </trkpt>
      <trkpt lat="43.2805770" lon="-3.1397470">
        <ele>86.8</ele>
        <time>2018-09-16T08:04:54Z</time>
      </trkpt>
      <trkpt lat="43.2805050" lon="-3.1397270">
        <ele>86.8</ele>
        <time>2018-09-16T08:04:55Z</time>
      </trkpt>
      <trkpt lat="43.2801250" lon="-3.1395510">
        <ele>86.6</ele>
        <time>2018-09-16T08:05:01Z</time>
      </trkpt>
      <trkpt lat="43.2799660" lon="-3.1394530">
        <ele>87.6</ele>
        <time>2018-09-16T08:05:04Z</time>
      </trkpt>
      <trkpt lat="43.2799170" lon="-3.1394230">
        <ele>87.8</ele>
        <time>2018-09-16T08:05:05Z</time>
      </trkpt>
      <trkpt lat="43.2794510" lon="-3.1391950">
        <ele>88.2</ele>
        <time>2018-09-16T08:05:15Z</time>
      </trkpt>
      <trkpt lat="43.2793080" lon="-3.1391650">
        <ele>88.6</ele>
        <time>2018-09-16T08:05:18Z</time>
      </trkpt>
      <trkpt lat="43.2792550" lon="-3.1391590">
        <ele>88.8</ele>
        <time>2018-09-16T08:05:19Z</time>
      </trkpt>
      <trkpt lat="43.2789920" lon="-3.1391820">
        <ele>89.8</ele>
        <time>2018-09-16T08:05:24Z</time>
      </trkpt>
      <trkpt lat="43.2789350" lon="-3.1391870">
        <ele>90.0</ele>
        <time>2018-09-16T08:05:25Z</time>
      </trkpt>
      <trkpt lat="43.2787090" lon="-3.1392110">
        <ele>90.6</ele>
        <time>2018-09-16T08:05:29Z</time>
      </trkpt>
      <trkpt lat="43.2785990" lon="-3.1392200">
        <ele>90.8</ele>
        <time>2018-09-16T08:05:31Z</time>
      </trkpt>
      <trkpt lat="43.2783730" lon="-3.1392570">
        <ele>91.2</ele>
        <time>2018-09-16T08:05:35Z</time>
      </trkpt>
      <trkpt lat="43.2782160" lon="-3.1392970">
        <ele>92.2</ele>
        <time>2018-09-16T08:05:38Z</time>
      </trkpt>
      <trkpt lat="43.2779890" lon="-3.1393790">
        <ele>93.2</ele>
        <time>2018-09-16T08:05:43Z</time>
      </trkpt>
      <trkpt lat="43.2779000" lon="-3.1394150">
        <ele>93.6</ele>
        <time>2018-09-16T08:05:45Z</time>
      </trkpt>
      <trkpt lat="43.2777280" lon="-3.1394750">
        <ele>94.2</ele>
        <time>2018-09-16T08:05:49Z</time>
      </trkpt>
      <trkpt lat="43.2776840" lon="-3.1394920">
        <ele>94.4</ele>
        <time>2018-09-16T08:05:50Z</time>
      </trkpt>
      <trkpt lat="43.2774740" lon="-3.1395790">
        <ele>95.4</ele>
        <time>2018-09-16T08:05:55Z</time>
      </trkpt>
      <trkpt lat="43.2774320" lon="-3.1395940">
        <ele>95.6</ele>
        <time>2018-09-16T08:05:56Z</time>
      </trkpt>
      <trkpt lat="43.2772700" lon="-3.1396430">
        <ele>96.8</ele>
        <time>2018-09-16T08:06:00Z</time>
      </trkpt>
      <trkpt lat="43.2770660" lon="-3.1397190">
        <ele>97.6</ele>
        <time>2018-09-16T08:06:05Z</time>
      </trkpt>
      <trkpt lat="43.2769760" lon="-3.1397540">
        <ele>98.0</ele>
        <time>2018-09-16T08:06:07Z</time>
      </trkpt>
      <trkpt lat="43.2768120" lon="-3.1398240">
        <ele>99.0</ele>
        <time>2018-09-16T08:06:11Z</time>
      </trkpt>
      <trkpt lat="43.2766640" lon="-3.1399340">
        <ele>99.6</ele>
        <time>2018-09-16T08:06:15Z</time>
      </trkpt>
      <trkpt lat="43.2766030" lon="-3.1400120">
        <ele>100.0</ele>
        <time>2018-09-16T08:06:17Z</time>
      </trkpt>
      <trkpt lat="43.2765480" lon="-3.1400990">
        <ele>100.4</ele>
        <time>2018-09-16T08:06:19Z</time>
      </trkpt>
      <trkpt lat="43.2764960" lon="-3.1402000">
        <ele>100.8</ele>
        <time>2018-09-16T08:06:21Z</time>
      </trkpt>
      <trkpt lat="43.2764730" lon="-3.1402530">
        <ele>101.2</ele>
        <time>2018-09-16T08:06:22Z</time>
      </trkpt>
      <trkpt lat="43.2764220" lon="-3.1404240">
        <ele>101.8</ele>
        <time>2018-09-16T08:06:25Z</time>
      </trkpt>
      <trkpt lat="43.2764090" lon="-3.1405440">
        <ele>102.2</ele>
        <time>2018-09-16T08:06:27Z</time>
      </trkpt>
      <trkpt lat="43.2764050" lon="-3.1406070">
        <ele>102.6</ele>
        <time>2018-09-16T08:06:28Z</time>
      </trkpt>
      <trkpt lat="43.2764010" lon="-3.1408440">
        <ele>103.4</ele>
        <time>2018-09-16T08:06:32Z</time>
      </trkpt>
      <trkpt lat="43.2763990" lon="-3.1410200">
        <ele>104.4</ele>
        <time>2018-09-16T08:06:35Z</time>
      </trkpt>
      <trkpt lat="43.2763990" lon="-3.1410810">
        <ele>104.8</ele>
        <time>2018-09-16T08:06:36Z</time>
      </trkpt>
      <trkpt lat="43.2764020" lon="-3.1413290">
        <ele>105.8</ele>
        <time>2018-09-16T08:06:40Z</time>
      </trkpt>
      <trkpt lat="43.2764280" lon="-3.1416260">
        <ele>107.0</ele>
        <time>2018-09-16T08:06:45Z</time>
      </trkpt>
      <trkpt lat="43.2764500" lon="-3.1418590">
        <ele>107.8</ele>
        <time>2018-09-16T08:06:49Z</time>
      </trkpt>
      <trkpt lat="43.2764590" lon="-3.1419170">
        <ele>108.2</ele>
        <time>2018-09-16T08:06:50Z</time>
      </trkpt>
      <trkpt lat="43.2764820" lon="-3.1421530">
        <ele>109.4</ele>
        <time>2018-09-16T08:06:54Z</time>
      </trkpt>
      <trkpt lat="43.2764880" lon="-3.1422100">
        <ele>109.4</ele>
        <time>2018-09-16T08:06:55Z</time>
      </trkpt>
      <trkpt lat="43.2765300" lon="-3.1426270">
        <ele>110.4</ele>
        <time>2018-09-16T08:07:02Z</time>
      </trkpt>
      <trkpt lat="43.2765310" lon="-3.1428150">
        <ele>111.0</ele>
        <time>2018-09-16T08:07:05Z</time>
      </trkpt>
      <trkpt lat="43.2765280" lon="-3.1428750">
        <ele>111.2</ele>
        <time>2018-09-16T08:07:06Z</time>
      </trkpt>
      <trkpt lat="43.2765220" lon="-3.1429340">
        <ele>111.4</ele>
        <time>2018-09-16T08:07:07Z</time>
      </trkpt>
      <trkpt lat="43.2764900" lon="-3.1431750">
        <ele>112.6</ele>
        <time>2018-09-16T08:07:11Z</time>
      </trkpt>
      <trkpt lat="43.2764400" lon="-3.1433520">
        <ele>113.6</ele>
        <time>2018-09-16T08:07:14Z</time>
      </trkpt>
      <trkpt lat="43.2764220" lon="-3.1434110">
        <ele>114.0</ele>
        <time>2018-09-16T08:07:15Z</time>
      </trkpt>
      <trkpt lat="43.2763850" lon="-3.1435260">
        <ele>114.8</ele>
        <time>2018-09-16T08:07:17Z</time>
      </trkpt>
      <trkpt lat="43.2762940" lon="-3.1438150">
        <ele>115.8</ele>
        <time>2018-09-16T08:07:22Z</time>
      </trkpt>
      <trkpt lat="43.2762390" lon="-3.1439880">
        <ele>116.8</ele>
        <time>2018-09-16T08:07:25Z</time>
      </trkpt>
      <trkpt lat="43.2761860" lon="-3.1441570">
        <ele>118.0</ele>
        <time>2018-09-16T08:07:28Z</time>
      </trkpt>
      <trkpt lat="43.2761520" lon="-3.1442690">
        <ele>118.8</ele>
        <time>2018-09-16T08:07:30Z</time>
      </trkpt>
      <trkpt lat="43.2761380" lon="-3.1443290">
        <ele>119.2</ele>
        <time>2018-09-16T08:07:31Z</time>
      </trkpt>
      <trkpt lat="43.2760860" lon="-3.1445700">
        <ele>120.2</ele>
        <time>2018-09-16T08:07:35Z</time>
      </trkpt>
      <trkpt lat="43.2760740" lon="-3.1446290">
        <ele>120.4</ele>
        <time>2018-09-16T08:07:36Z</time>
      </trkpt>
      <trkpt lat="43.2760390" lon="-3.1448050">
        <ele>121.2</ele>
        <time>2018-09-16T08:07:39Z</time>
      </trkpt>
      <trkpt lat="43.2760260" lon="-3.1449250">
        <ele>121.6</ele>
        <time>2018-09-16T08:07:41Z</time>
      </trkpt>
      <trkpt lat="43.2760090" lon="-3.1451080">
        <ele>122.8</ele>
        <time>2018-09-16T08:07:44Z</time>
      </trkpt>
      <trkpt lat="43.2760050" lon="-3.1451670">
        <ele>123.0</ele>
        <time>2018-09-16T08:07:45Z</time>
      </trkpt>
      <trkpt lat="43.2759790" lon="-3.1454050">
        <ele>124.0</ele>
        <time>2018-09-16T08:07:49Z</time>
      </trkpt>
      <trkpt lat="43.2759650" lon="-3.1455210">
        <ele>124.4</ele>
        <time>2018-09-16T08:07:51Z</time>
      </trkpt>
      <trkpt lat="43.2759530" lon="-3.1457090">
        <ele>125.2</ele>
        <time>2018-09-16T08:07:54Z</time>
      </trkpt>
      <trkpt lat="43.2759450" lon="-3.1457720">
        <ele>125.6</ele>
        <time>2018-09-16T08:07:55Z</time>
      </trkpt>
      <trkpt lat="43.2759240" lon="-3.1459580">
        <ele>126.4</ele>
        <time>2018-09-16T08:07:58Z</time>
      </trkpt>
      <trkpt lat="43.2759000" lon="-3.1462180">
        <ele>127.4</ele>
        <time>2018-09-16T08:08:02Z</time>
      </trkpt>
      <trkpt lat="43.2758800" lon="-3.1464020">
        <ele>128.2</ele>
        <time>2018-09-16T08:08:05Z</time>
      </trkpt>
      <trkpt lat="43.2758670" lon="-3.1464630">
        <ele>128.6</ele>
        <time>2018-09-16T08:08:06Z</time>
      </trkpt>
      <trkpt lat="43.2758220" lon="-3.1466350">
        <ele>129.8</ele>
        <time>2018-09-16T08:08:09Z</time>
      </trkpt>
      <trkpt lat="43.2757690" lon="-3.1468010">
        <ele>131.0</ele>
        <time>2018-09-16T08:08:12Z</time>
      </trkpt>
      <trkpt lat="43.2757010" lon="-3.1469850">
        <ele>132.0</ele>
        <time>2018-09-16T08:08:15Z</time>
      </trkpt>
      <trkpt lat="43.2756680" lon="-3.1470430">
        <ele>132.2</ele>
        <time>2018-09-16T08:08:16Z</time>
      </trkpt>
      <trkpt lat="43.2754670" lon="-3.1473080">
        <ele>133.2</ele>
        <time>2018-09-16T08:08:21Z</time>
      </trkpt>
      <trkpt lat="43.2752580" lon="-3.1474640">
        <ele>133.0</ele>
        <time>2018-09-16T08:08:25Z</time>
      </trkpt>
      <trkpt lat="43.2750620" lon="-3.1475730">
        <ele>132.2</ele>
        <time>2018-09-16T08:08:28Z</time>
      </trkpt>
      <trkpt lat="43.2749270" lon="-3.1476620">
        <ele>131.4</ele>
        <time>2018-09-16T08:08:30Z</time>
      </trkpt>
      <trkpt lat="43.2748570" lon="-3.1477070">
        <ele>131.2</ele>
        <time>2018-09-16T08:08:31Z</time>
      </trkpt>
      <trkpt lat="43.2745610" lon="-3.1478920">
        <ele>130.0</ele>
        <time>2018-09-16T08:08:35Z</time>
      </trkpt>
      <trkpt lat="43.2743240" lon="-3.1480470">
        <ele>128.6</ele>
        <time>2018-09-16T08:08:38Z</time>
      </trkpt>
      <trkpt lat="43.2740780" lon="-3.1482090">
        <ele>127.6</ele>
        <time>2018-09-16T08:08:41Z</time>
      </trkpt>
      <trkpt lat="43.2738220" lon="-3.1483740">
        <ele>126.6</ele>
        <time>2018-09-16T08:08:44Z</time>
      </trkpt>
      <trkpt lat="43.2737360" lon="-3.1484250">
        <ele>126.2</ele>
        <time>2018-09-16T08:08:45Z</time>
      </trkpt>
      <trkpt lat="43.2736480" lon="-3.1484800">
        <ele>125.8</ele>
        <time>2018-09-16T08:08:46Z</time>
      </trkpt>
      <trkpt lat="43.2735620" lon="-3.1485350">
        <ele>125.4</ele>
        <time>2018-09-16T08:08:47Z</time>
      </trkpt>
      <trkpt lat="43.2733970" lon="-3.1486570">
        <ele>124.6</ele>
        <time>2018-09-16T08:08:49Z</time>
      </trkpt>
      <trkpt lat="43.2733180" lon="-3.1487190">
        <ele>124.2</ele>
        <time>2018-09-16T08:08:50Z</time>
      </trkpt>
      <trkpt lat="43.2731660" lon="-3.1488500">
        <ele>123.6</ele>
        <time>2018-09-16T08:08:52Z</time>
      </trkpt>
      <trkpt lat="43.2730250" lon="-3.1489890">
        <ele>123.4</ele>
        <time>2018-09-16T08:08:54Z</time>
      </trkpt>
      <trkpt lat="43.2729560" lon="-3.1490590">
        <ele>123.4</ele>
        <time>2018-09-16T08:08:55Z</time>
      </trkpt>
      <trkpt lat="43.2727700" lon="-3.1492710">
        <ele>123.6</ele>
        <time>2018-09-16T08:08:58Z</time>
      </trkpt>
      <trkpt lat="43.2726130" lon="-3.1494940">
        <ele>124.0</ele>
        <time>2018-09-16T08:09:01Z</time>
      </trkpt>
      <trkpt lat="43.2725270" lon="-3.1496410">
        <ele>124.2</ele>
        <time>2018-09-16T08:09:03Z</time>
      </trkpt>
      <trkpt lat="43.2724520" lon="-3.1497860">
        <ele>124.8</ele>
        <time>2018-09-16T08:09:05Z</time>
      </trkpt>
      <trkpt lat="43.2722880" lon="-3.1501600">
        <ele>125.4</ele>
        <time>2018-09-16T08:09:10Z</time>
      </trkpt>
      <trkpt lat="43.2721830" lon="-3.1504460">
        <ele>126.6</ele>
        <time>2018-09-16T08:09:14Z</time>
      </trkpt>
      <trkpt lat="43.2721590" lon="-3.1505180">
        <ele>127.0</ele>
        <time>2018-09-16T08:09:15Z</time>
      </trkpt>
      <trkpt lat="43.2720930" lon="-3.1507320">
        <ele>127.6</ele>
        <time>2018-09-16T08:09:18Z</time>
      </trkpt>
      <trkpt lat="43.2720000" lon="-3.1510740">
        <ele>128.8</ele>
        <time>2018-09-16T08:09:23Z</time>
      </trkpt>
      <trkpt lat="43.2719650" lon="-3.1511960">
        <ele>129.4</ele>
        <time>2018-09-16T08:09:25Z</time>
      </trkpt>
      <trkpt lat="43.2719190" lon="-3.1513730">
        <ele>130.0</ele>
        <time>2018-09-16T08:09:28Z</time>
      </trkpt>
      <trkpt lat="43.2718130" lon="-3.1517180">
        <ele>131.0</ele>
        <time>2018-09-16T08:09:34Z</time>
      </trkpt>
      <trkpt lat="43.2717990" lon="-3.1517740">
        <ele>131.2</ele>
        <time>2018-09-16T08:09:35Z</time>
      </trkpt>
      <trkpt lat="43.2717510" lon="-3.1519410">
        <ele>132.0</ele>
        <time>2018-09-16T08:09:38Z</time>
      </trkpt>
      <trkpt lat="43.2716820" lon="-3.1521670">
        <ele>132.6</ele>
        <time>2018-09-16T08:09:42Z</time>
      </trkpt>
      <trkpt lat="43.2716510" lon="-3.1522930">
        <ele>133.4</ele>
        <time>2018-09-16T08:09:44Z</time>
      </trkpt>
      <trkpt lat="43.2716360" lon="-3.1523540">
        <ele>133.6</ele>
        <time>2018-09-16T08:09:45Z</time>
      </trkpt>
      <trkpt lat="43.2716070" lon="-3.1524780">
        <ele>134.0</ele>
        <time>2018-09-16T08:09:47Z</time>
      </trkpt>
      <trkpt lat="43.2715560" lon="-3.1526430">
        <ele>134.4</ele>
        <time>2018-09-16T08:09:50Z</time>
      </trkpt>
      <trkpt lat="43.2714950" lon="-3.1528040">
        <ele>134.6</ele>
        <time>2018-09-16T08:09:53Z</time>
      </trkpt>
      <trkpt lat="43.2714430" lon="-3.1529050">
        <ele>135.0</ele>
        <time>2018-09-16T08:09:55Z</time>
      </trkpt>
      <trkpt lat="43.2713800" lon="-3.1529990">
        <ele>135.6</ele>
        <time>2018-09-16T08:09:57Z</time>
      </trkpt>
      <trkpt lat="43.2712010" lon="-3.1531920">
        <ele>136.6</ele>
        <time>2018-09-16T08:10:02Z</time>
      </trkpt>
      <trkpt lat="43.2710730" lon="-3.1532860">
        <ele>137.2</ele>
        <time>2018-09-16T08:10:05Z</time>
      </trkpt>
      <trkpt lat="43.2709840" lon="-3.1533230">
        <ele>137.6</ele>
        <time>2018-09-16T08:10:07Z</time>
      </trkpt>
      <trkpt lat="43.2706420" lon="-3.1534120">
        <ele>138.6</ele>
        <time>2018-09-16T08:10:14Z</time>
      </trkpt>
      <trkpt lat="43.2705900" lon="-3.1534220">
        <ele>138.8</ele>
        <time>2018-09-16T08:10:15Z</time>
      </trkpt>
      <trkpt lat="43.2703240" lon="-3.1534750">
        <ele>139.6</ele>
        <time>2018-09-16T08:10:20Z</time>
      </trkpt>
      <trkpt lat="43.2700570" lon="-3.1535200">
        <ele>139.6</ele>
        <time>2018-09-16T08:10:25Z</time>
      </trkpt>
      <trkpt lat="43.2695100" lon="-3.1535960">
        <ele>140.4</ele>
        <time>2018-09-16T08:10:35Z</time>
      </trkpt>
      <trkpt lat="43.2694060" lon="-3.1535930">
        <ele>140.8</ele>
        <time>2018-09-16T08:10:37Z</time>
      </trkpt>
      <trkpt lat="43.2689780" lon="-3.1535100">
        <ele>141.8</ele>
        <time>2018-09-16T08:10:45Z</time>
      </trkpt>
      <trkpt lat="43.2687200" lon="-3.1534410">
        <ele>140.6</ele>
        <time>2018-09-16T08:10:49Z</time>
      </trkpt>
      <trkpt lat="43.2685010" lon="-3.1533770">
        <ele>139.8</ele>
        <time>2018-09-16T08:10:52Z</time>
      </trkpt>
      <trkpt lat="43.2684210" lon="-3.1533580">
        <ele>139.8</ele>
        <time>2018-09-16T08:10:53Z</time>
      </trkpt>
      <trkpt lat="43.2682590" lon="-3.1533140">
        <ele>139.6</ele>
        <time>2018-09-16T08:10:55Z</time>
      </trkpt>
      <trkpt lat="43.2680150" lon="-3.1532390">
        <ele>139.6</ele>
        <time>2018-09-16T08:10:58Z</time>
      </trkpt>
      <trkpt lat="43.2678480" lon="-3.1531920">
        <ele>139.0</ele>
        <time>2018-09-16T08:11:00Z</time>
      </trkpt>
      <trkpt lat="43.2676870" lon="-3.1531420">
        <ele>138.4</ele>
        <time>2018-09-16T08:11:02Z</time>
      </trkpt>
      <trkpt lat="43.2675270" lon="-3.1530930">
        <ele>138.2</ele>
        <time>2018-09-16T08:11:04Z</time>
      </trkpt>
      <trkpt lat="43.2674480" lon="-3.1530690">
        <ele>138.0</ele>
        <time>2018-09-16T08:11:05Z</time>
      </trkpt>
      <trkpt lat="43.2672210" lon="-3.1530030">
        <ele>138.0</ele>
        <time>2018-09-16T08:11:08Z</time>
      </trkpt>
      <trkpt lat="43.2667660" lon="-3.1528810">
        <ele>138.2</ele>
        <time>2018-09-16T08:11:14Z</time>
      </trkpt>
      <trkpt lat="43.2666930" lon="-3.1528660">
        <ele>138.4</ele>
        <time>2018-09-16T08:11:15Z</time>
      </trkpt>
      <trkpt lat="43.2661170" lon="-3.1527090">
        <ele>138.8</ele>
        <time>2018-09-16T08:11:23Z</time>
      </trkpt>
      <trkpt lat="43.2659700" lon="-3.1526700">
        <ele>138.4</ele>
        <time>2018-09-16T08:11:25Z</time>
      </trkpt>
      <trkpt lat="43.2658960" lon="-3.1526540">
        <ele>138.2</ele>
        <time>2018-09-16T08:11:26Z</time>
      </trkpt>
      <trkpt lat="43.2656870" lon="-3.1525950">
        <ele>137.4</ele>
        <time>2018-09-16T08:11:29Z</time>
      </trkpt>
      <trkpt lat="43.2654850" lon="-3.1525340">
        <ele>137.2</ele>
        <time>2018-09-16T08:11:32Z</time>
      </trkpt>
      <trkpt lat="43.2652900" lon="-3.1524980">
        <ele>137.4</ele>
        <time>2018-09-16T08:11:35Z</time>
      </trkpt>
      <trkpt lat="43.2651750" lon="-3.1525610">
        <ele>137.4</ele>
        <time>2018-09-16T08:11:37Z</time>
      </trkpt>
      <trkpt lat="43.2650450" lon="-3.1527970">
        <ele>137.6</ele>
        <time>2018-09-16T08:11:40Z</time>
      </trkpt>
      <trkpt lat="43.2648370" lon="-3.1532290">
        <ele>135.6</ele>
        <time>2018-09-16T08:11:45Z</time>
      </trkpt>
      <trkpt lat="43.2646690" lon="-3.1535800">
        <ele>134.6</ele>
        <time>2018-09-16T08:11:49Z</time>
      </trkpt>
      <trkpt lat="43.2645260" lon="-3.1538540">
        <ele>134.0</ele>
        <time>2018-09-16T08:11:52Z</time>
      </trkpt>
      <trkpt lat="43.2643820" lon="-3.1541160">
        <ele>134.0</ele>
        <time>2018-09-16T08:11:55Z</time>
      </trkpt>
      <trkpt lat="43.2642850" lon="-3.1542850">
        <ele>135.0</ele>
        <time>2018-09-16T08:11:57Z</time>
      </trkpt>
      <trkpt lat="43.2641780" lon="-3.1544530">
        <ele>135.6</ele>
        <time>2018-09-16T08:11:59Z</time>
      </trkpt>
      <trkpt lat="43.2641230" lon="-3.1545350">
        <ele>135.8</ele>
        <time>2018-09-16T08:12:00Z</time>
      </trkpt>
      <trkpt lat="43.2638250" lon="-3.1549220">
        <ele>135.4</ele>
        <time>2018-09-16T08:12:05Z</time>
      </trkpt>
      <trkpt lat="43.2636990" lon="-3.1550690">
        <ele>134.6</ele>
        <time>2018-09-16T08:12:07Z</time>
      </trkpt>
      <trkpt lat="43.2635780" lon="-3.1552200">
        <ele>133.6</ele>
        <time>2018-09-16T08:12:09Z</time>
      </trkpt>
      <trkpt lat="43.2635290" lon="-3.1552970">
        <ele>133.4</ele>
        <time>2018-09-16T08:12:10Z</time>
      </trkpt>
      <trkpt lat="43.2633720" lon="-3.1556400">
        <ele>133.2</ele>
        <time>2018-09-16T08:12:14Z</time>
      </trkpt>
      <trkpt lat="43.2633450" lon="-3.1557450">
        <ele>133.2</ele>
        <time>2018-09-16T08:12:15Z</time>
      </trkpt>
      <trkpt lat="43.2633270" lon="-3.1558500">
        <ele>133.4</ele>
        <time>2018-09-16T08:12:16Z</time>
      </trkpt>
      <trkpt lat="43.2633120" lon="-3.1561520">
        <ele>133.6</ele>
        <time>2018-09-16T08:12:19Z</time>
      </trkpt>
      <trkpt lat="43.2633410" lon="-3.1563590">
        <ele>133.6</ele>
        <time>2018-09-16T08:12:21Z</time>
      </trkpt>
      <trkpt lat="43.2635080" lon="-3.1567000">
        <ele>134.4</ele>
        <time>2018-09-16T08:12:25Z</time>
      </trkpt>
      <trkpt lat="43.2635620" lon="-3.1567750">
        <ele>134.6</ele>
        <time>2018-09-16T08:12:26Z</time>
      </trkpt>
      <trkpt lat="43.2636580" lon="-3.1569300">
        <ele>135.0</ele>
        <time>2018-09-16T08:12:28Z</time>
      </trkpt>
      <trkpt lat="43.2638070" lon="-3.1572980">
        <ele>135.4</ele>
        <time>2018-09-16T08:12:32Z</time>
      </trkpt>
      <trkpt lat="43.2638330" lon="-3.1573990">
        <ele>135.4</ele>
        <time>2018-09-16T08:12:33Z</time>
      </trkpt>
      <trkpt lat="43.2638760" lon="-3.1575940">
        <ele>135.4</ele>
        <time>2018-09-16T08:12:35Z</time>
      </trkpt>
      <trkpt lat="43.2639560" lon="-3.1579860">
        <ele>135.2</ele>
        <time>2018-09-16T08:12:39Z</time>
      </trkpt>
      <trkpt lat="43.2639680" lon="-3.1581640">
        <ele>135.2</ele>
        <time>2018-09-16T08:12:41Z</time>
      </trkpt>
      <trkpt lat="43.2638990" lon="-3.1585430">
        <ele>135.2</ele>
        <time>2018-09-16T08:12:45Z</time>
      </trkpt>
      <trkpt lat="43.2638710" lon="-3.1586320">
        <ele>135.2</ele>
        <time>2018-09-16T08:12:46Z</time>
      </trkpt>
      <trkpt lat="43.2637810" lon="-3.1587940">
        <ele>135.2</ele>
        <time>2018-09-16T08:12:48Z</time>
      </trkpt>
      <trkpt lat="43.2636610" lon="-3.1589140">
        <ele>135.2</ele>
        <time>2018-09-16T08:12:50Z</time>
      </trkpt>
      <trkpt lat="43.2632890" lon="-3.1590670">
        <ele>135.0</ele>
        <time>2018-09-16T08:12:55Z</time>
      </trkpt>
      <trkpt lat="43.2630130" lon="-3.1591580">
        <ele>135.6</ele>
        <time>2018-09-16T08:12:59Z</time>
      </trkpt>
      <trkpt lat="43.2629480" lon="-3.1591950">
        <ele>135.8</ele>
        <time>2018-09-16T08:13:00Z</time>
      </trkpt>
      <trkpt lat="43.2628370" lon="-3.1592940">
        <ele>135.6</ele>
        <time>2018-09-16T08:13:02Z</time>
      </trkpt>
      <trkpt lat="43.2627630" lon="-3.1594620">
        <ele>135.4</ele>
        <time>2018-09-16T08:13:04Z</time>
      </trkpt>
      <trkpt lat="43.2627440" lon="-3.1595560">
        <ele>135.2</ele>
        <time>2018-09-16T08:13:05Z</time>
      </trkpt>
      <trkpt lat="43.2627360" lon="-3.1596600">
        <ele>135.0</ele>
        <time>2018-09-16T08:13:06Z</time>
      </trkpt>
      <trkpt lat="43.2627490" lon="-3.1598570">
        <ele>134.8</ele>
        <time>2018-09-16T08:13:08Z</time>
      </trkpt>
      <trkpt lat="43.2628010" lon="-3.1600500">
        <ele>134.8</ele>
        <time>2018-09-16T08:13:10Z</time>
      </trkpt>
      <trkpt lat="43.2629010" lon="-3.1602050">
        <ele>135.0</ele>
        <time>2018-09-16T08:13:12Z</time>
      </trkpt>
      <trkpt lat="43.2630910" lon="-3.1603880">
        <ele>136.0</ele>
        <time>2018-09-16T08:13:15Z</time>
      </trkpt>
      <trkpt lat="43.2633450" lon="-3.1606120">
        <ele>136.8</ele>
        <time>2018-09-16T08:13:19Z</time>
      </trkpt>
      <trkpt lat="43.2637160" lon="-3.1609970">
        <ele>137.6</ele>
        <time>2018-09-16T08:13:25Z</time>
      </trkpt>
      <trkpt lat="43.2637700" lon="-3.1610760">
        <ele>137.8</ele>
        <time>2018-09-16T08:13:26Z</time>
      </trkpt>
      <trkpt lat="43.2638170" lon="-3.1611620">
        <ele>138.0</ele>
        <time>2018-09-16T08:13:27Z</time>
      </trkpt>
      <trkpt lat="43.2640050" lon="-3.1616410">
        <ele>138.6</ele>
        <time>2018-09-16T08:13:32Z</time>
      </trkpt>
      <trkpt lat="43.2640780" lon="-3.1619500">
        <ele>138.6</ele>
        <time>2018-09-16T08:13:35Z</time>
      </trkpt>
      <trkpt lat="43.2642620" lon="-3.1625410">
        <ele>139.0</ele>
        <time>2018-09-16T08:13:41Z</time>
      </trkpt>
      <trkpt lat="43.2644390" lon="-3.1628940">
        <ele>139.4</ele>
        <time>2018-09-16T08:13:45Z</time>
      </trkpt>
      <trkpt lat="43.2644810" lon="-3.1631070">
        <ele>139.6</ele>
        <time>2018-09-16T08:13:47Z</time>
      </trkpt>
      <trkpt lat="43.2644600" lon="-3.1637640">
        <ele>139.8</ele>
        <time>2018-09-16T08:13:53Z</time>
      </trkpt>
      <trkpt lat="43.2644020" lon="-3.1639730">
        <ele>139.8</ele>
        <time>2018-09-16T08:13:55Z</time>
      </trkpt>
      <trkpt lat="43.2641580" lon="-3.1646550">
        <ele>139.8</ele>
        <time>2018-09-16T08:14:02Z</time>
      </trkpt>
      <trkpt lat="43.2640770" lon="-3.1649570">
        <ele>140.0</ele>
        <time>2018-09-16T08:14:05Z</time>
      </trkpt>
      <trkpt lat="43.2638280" lon="-3.1654940">
        <ele>139.8</ele>
        <time>2018-09-16T08:14:11Z</time>
      </trkpt>
      <trkpt lat="43.2637300" lon="-3.1656570">
        <ele>139.6</ele>
        <time>2018-09-16T08:14:13Z</time>
      </trkpt>
      <trkpt lat="43.2636000" lon="-3.1657920">
        <ele>139.4</ele>
        <time>2018-09-16T08:14:15Z</time>
      </trkpt>
      <trkpt lat="43.2630930" lon="-3.1659960">
        <ele>139.0</ele>
        <time>2018-09-16T08:14:22Z</time>
      </trkpt>
      <trkpt lat="43.2629400" lon="-3.1660300">
        <ele>138.6</ele>
        <time>2018-09-16T08:14:24Z</time>
      </trkpt>
      <trkpt lat="43.2628660" lon="-3.1660700">
        <ele>138.6</ele>
        <time>2018-09-16T08:14:25Z</time>
      </trkpt>
      <trkpt lat="43.2628030" lon="-3.1661270">
        <ele>138.4</ele>
        <time>2018-09-16T08:14:26Z</time>
      </trkpt>
      <trkpt lat="43.2626810" lon="-3.1663680">
        <ele>138.6</ele>
        <time>2018-09-16T08:14:29Z</time>
      </trkpt>
      <trkpt lat="43.2626440" lon="-3.1665590">
        <ele>139.6</ele>
        <time>2018-09-16T08:14:31Z</time>
      </trkpt>
      <trkpt lat="43.2626400" lon="-3.1666550">
        <ele>140.4</ele>
        <time>2018-09-16T08:14:32Z</time>
      </trkpt>
      <trkpt lat="43.2626410" lon="-3.1667500">
        <ele>140.8</ele>
        <time>2018-09-16T08:14:33Z</time>
      </trkpt>
      <trkpt lat="43.2626550" lon="-3.1669540">
        <ele>141.2</ele>
        <time>2018-09-16T08:14:35Z</time>
      </trkpt>
      <trkpt lat="43.2626780" lon="-3.1672520">
        <ele>141.4</ele>
        <time>2018-09-16T08:14:38Z</time>
      </trkpt>
      <trkpt lat="43.2627210" lon="-3.1676420">
        <ele>142.2</ele>
        <time>2018-09-16T08:14:42Z</time>
      </trkpt>
      <trkpt lat="43.2626940" lon="-3.1678400">
        <ele>142.4</ele>
        <time>2018-09-16T08:14:44Z</time>
      </trkpt>
      <trkpt lat="43.2626690" lon="-3.1679360">
        <ele>142.4</ele>
        <time>2018-09-16T08:14:45Z</time>
      </trkpt>
      <trkpt lat="43.2626460" lon="-3.1680310">
        <ele>142.2</ele>
        <time>2018-09-16T08:14:46Z</time>
      </trkpt>
      <trkpt lat="43.2626390" lon="-3.1682230">
        <ele>142.0</ele>
        <time>2018-09-16T08:14:48Z</time>
      </trkpt>
      <trkpt lat="43.2627030" lon="-3.1683990">
        <ele>141.6</ele>
        <time>2018-09-16T08:14:50Z</time>
      </trkpt>
      <trkpt lat="43.2628160" lon="-3.1685320">
        <ele>141.6</ele>
        <time>2018-09-16T08:14:52Z</time>
      </trkpt>
      <trkpt lat="43.2629960" lon="-3.1687160">
        <ele>141.4</ele>
        <time>2018-09-16T08:14:55Z</time>
      </trkpt>
      <trkpt lat="43.2631080" lon="-3.1688690">
        <ele>141.4</ele>
        <time>2018-09-16T08:14:57Z</time>
      </trkpt>
      <trkpt lat="43.2632240" lon="-3.1691450">
        <ele>141.2</ele>
        <time>2018-09-16T08:15:00Z</time>
      </trkpt>
      <trkpt lat="43.2633030" lon="-3.1694430">
        <ele>140.4</ele>
        <time>2018-09-16T08:15:03Z</time>
      </trkpt>
      <trkpt lat="43.2633180" lon="-3.1695490">
        <ele>140.4</ele>
        <time>2018-09-16T08:15:04Z</time>
      </trkpt>
      <trkpt lat="43.2633300" lon="-3.1696580">
        <ele>140.2</ele>
        <time>2018-09-16T08:15:05Z</time>
      </trkpt>
      <trkpt lat="43.2633200" lon="-3.1701150">
        <ele>140.4</ele>
        <time>2018-09-16T08:15:09Z</time>
      </trkpt>
      <trkpt lat="43.2633390" lon="-3.1703280">
        <ele>140.8</ele>
        <time>2018-09-16T08:15:11Z</time>
      </trkpt>
      <trkpt lat="43.2634050" lon="-3.1707580">
        <ele>141.8</ele>
        <time>2018-09-16T08:15:15Z</time>
      </trkpt>
      <trkpt lat="43.2633940" lon="-3.1709570">
        <ele>142.2</ele>
        <time>2018-09-16T08:15:17Z</time>
      </trkpt>
      <trkpt lat="43.2632390" lon="-3.1716730">
        <ele>141.8</ele>
        <time>2018-09-16T08:15:24Z</time>
      </trkpt>
      <trkpt lat="43.2632200" lon="-3.1717700">
        <ele>141.8</ele>
        <time>2018-09-16T08:15:25Z</time>
      </trkpt>
      <trkpt lat="43.2631110" lon="-3.1723110">
        <ele>143.0</ele>
        <time>2018-09-16T08:15:30Z</time>
      </trkpt>
      <trkpt lat="43.2631060" lon="-3.1724060">
        <ele>143.2</ele>
        <time>2018-09-16T08:15:31Z</time>
      </trkpt>
      <trkpt lat="43.2631090" lon="-3.1728050">
        <ele>143.8</ele>
        <time>2018-09-16T08:15:35Z</time>
      </trkpt>
      <trkpt lat="43.2631120" lon="-3.1729040">
        <ele>144.0</ele>
        <time>2018-09-16T08:15:36Z</time>
      </trkpt>
      <trkpt lat="43.2631200" lon="-3.1733200">
        <ele>145.2</ele>
        <time>2018-09-16T08:15:40Z</time>
      </trkpt>
      <trkpt lat="43.2631320" lon="-3.1734320">
        <ele>145.4</ele>
        <time>2018-09-16T08:15:41Z</time>
      </trkpt>
      <trkpt lat="43.2632250" lon="-3.1738180">
        <ele>146.0</ele>
        <time>2018-09-16T08:15:45Z</time>
      </trkpt>
      <trkpt lat="43.2632660" lon="-3.1740080">
        <ele>146.2</ele>
        <time>2018-09-16T08:15:47Z</time>
      </trkpt>
      <trkpt lat="43.2633840" lon="-3.1747340">
        <ele>147.0</ele>
        <time>2018-09-16T08:15:55Z</time>
      </trkpt>
      <trkpt lat="43.2633840" lon="-3.1750230">
        <ele>147.2</ele>
        <time>2018-09-16T08:15:58Z</time>
      </trkpt>
      <trkpt lat="43.2633300" lon="-3.1752250">
        <ele>147.4</ele>
        <time>2018-09-16T08:16:00Z</time>
      </trkpt>
      <trkpt lat="43.2631920" lon="-3.1755410">
        <ele>148.6</ele>
        <time>2018-09-16T08:16:04Z</time>
      </trkpt>
      <trkpt lat="43.2631610" lon="-3.1756240">
        <ele>148.8</ele>
        <time>2018-09-16T08:16:05Z</time>
      </trkpt>
      <trkpt lat="43.2631250" lon="-3.1758030">
        <ele>149.4</ele>
        <time>2018-09-16T08:16:07Z</time>
      </trkpt>
      <trkpt lat="43.2631160" lon="-3.1759730">
        <ele>149.8</ele>
        <time>2018-09-16T08:16:09Z</time>
      </trkpt>
      <trkpt lat="43.2631460" lon="-3.1761960">
        <ele>150.0</ele>
        <time>2018-09-16T08:16:12Z</time>
      </trkpt>
      <trkpt lat="43.2631850" lon="-3.1763390">
        <ele>150.6</ele>
        <time>2018-09-16T08:16:14Z</time>
      </trkpt>
      <trkpt lat="43.2632120" lon="-3.1764120">
        <ele>150.8</ele>
        <time>2018-09-16T08:16:15Z</time>
      </trkpt>
      <trkpt lat="43.2633440" lon="-3.1767970">
        <ele>151.4</ele>
        <time>2018-09-16T08:16:20Z</time>
      </trkpt>
      <trkpt lat="43.2634070" lon="-3.1770320">
        <ele>152.0</ele>
        <time>2018-09-16T08:16:23Z</time>
      </trkpt>
      <trkpt lat="43.2634440" lon="-3.1771880">
        <ele>152.4</ele>
        <time>2018-09-16T08:16:25Z</time>
      </trkpt>
      <trkpt lat="43.2634590" lon="-3.1773580">
        <ele>152.8</ele>
        <time>2018-09-16T08:16:27Z</time>
      </trkpt>
      <trkpt lat="43.2634470" lon="-3.1775330">
        <ele>153.0</ele>
        <time>2018-09-16T08:16:29Z</time>
      </trkpt>
      <trkpt lat="43.2634460" lon="-3.1777060">
        <ele>153.0</ele>
        <time>2018-09-16T08:16:31Z</time>
      </trkpt>
      <trkpt lat="43.2634730" lon="-3.1778740">
        <ele>153.0</ele>
        <time>2018-09-16T08:16:33Z</time>
      </trkpt>
      <trkpt lat="43.2635020" lon="-3.1780360">
        <ele>153.2</ele>
        <time>2018-09-16T08:16:35Z</time>
      </trkpt>
      <trkpt lat="43.2635180" lon="-3.1782090">
        <ele>153.2</ele>
        <time>2018-09-16T08:16:37Z</time>
      </trkpt>
      <trkpt lat="43.2635270" lon="-3.1789570">
        <ele>153.4</ele>
        <time>2018-09-16T08:16:45Z</time>
      </trkpt>
      <trkpt lat="43.2636360" lon="-3.1793700">
        <ele>154.0</ele>
        <time>2018-09-16T08:16:50Z</time>
      </trkpt>
      <trkpt lat="43.2636690" lon="-3.1795390">
        <ele>154.2</ele>
        <time>2018-09-16T08:16:52Z</time>
      </trkpt>
      <trkpt lat="43.2637020" lon="-3.1798040">
        <ele>154.2</ele>
        <time>2018-09-16T08:16:55Z</time>
      </trkpt>
      <trkpt lat="43.2637050" lon="-3.1799880">
        <ele>154.4</ele>
        <time>2018-09-16T08:16:57Z</time>
      </trkpt>
      <trkpt lat="43.2636940" lon="-3.1801740">
        <ele>154.6</ele>
        <time>2018-09-16T08:16:59Z</time>
      </trkpt>
      <trkpt lat="43.2636030" lon="-3.1807100">
        <ele>155.2</ele>
        <time>2018-09-16T08:17:05Z</time>
      </trkpt>
      <trkpt lat="43.2634880" lon="-3.1815080">
        <ele>155.4</ele>
        <time>2018-09-16T08:17:14Z</time>
      </trkpt>
      <trkpt lat="43.2634750" lon="-3.1815970">
        <ele>155.6</ele>
        <time>2018-09-16T08:17:15Z</time>
      </trkpt>
      <trkpt lat="43.2633830" lon="-3.1822410">
        <ele>156.4</ele>
        <time>2018-09-16T08:17:22Z</time>
      </trkpt>
      <trkpt lat="43.2633390" lon="-3.1825020">
        <ele>157.6</ele>
        <time>2018-09-16T08:17:25Z</time>
      </trkpt>
      <trkpt lat="43.2631770" lon="-3.1832650">
        <ele>157.2</ele>
        <time>2018-09-16T08:17:34Z</time>
      </trkpt>
      <trkpt lat="43.2631610" lon="-3.1833560">
        <ele>157.2</ele>
        <time>2018-09-16T08:17:35Z</time>
      </trkpt>
      <trkpt lat="43.2631410" lon="-3.1835290">
        <ele>157.4</ele>
        <time>2018-09-16T08:17:37Z</time>
      </trkpt>
      <trkpt lat="43.2632140" lon="-3.1842010">
        <ele>157.6</ele>
        <time>2018-09-16T08:17:45Z</time>
      </trkpt>
      <trkpt lat="43.2632260" lon="-3.1846200">
        <ele>157.8</ele>
        <time>2018-09-16T08:17:50Z</time>
      </trkpt>
      <trkpt lat="43.2631980" lon="-3.1848050">
        <ele>158.0</ele>
        <time>2018-09-16T08:17:52Z</time>
      </trkpt>
      <trkpt lat="43.2631690" lon="-3.1850890">
        <ele>158.6</ele>
        <time>2018-09-16T08:17:55Z</time>
      </trkpt>
      <trkpt lat="43.2631650" lon="-3.1853580">
        <ele>159.2</ele>
        <time>2018-09-16T08:17:58Z</time>
      </trkpt>
      <trkpt lat="43.2631670" lon="-3.1855240">
        <ele>160.0</ele>
        <time>2018-09-16T08:18:00Z</time>
      </trkpt>
      <trkpt lat="43.2631470" lon="-3.1856880">
        <ele>160.6</ele>
        <time>2018-09-16T08:18:02Z</time>
      </trkpt>
      <trkpt lat="43.2630620" lon="-3.1859380">
        <ele>161.2</ele>
        <time>2018-09-16T08:18:05Z</time>
      </trkpt>
      <trkpt lat="43.2630190" lon="-3.1861010">
        <ele>161.8</ele>
        <time>2018-09-16T08:18:07Z</time>
      </trkpt>
      <trkpt lat="43.2630080" lon="-3.1862670">
        <ele>162.2</ele>
        <time>2018-09-16T08:18:09Z</time>
      </trkpt>
      <trkpt lat="43.2630380" lon="-3.1865870">
        <ele>162.4</ele>
        <time>2018-09-16T08:18:13Z</time>
      </trkpt>
      <trkpt lat="43.2629940" lon="-3.1867430">
        <ele>163.0</ele>
        <time>2018-09-16T08:18:15Z</time>
      </trkpt>
      <trkpt lat="43.2628870" lon="-3.1868480">
        <ele>163.2</ele>
        <time>2018-09-16T08:18:17Z</time>
      </trkpt>
      <trkpt lat="43.2627570" lon="-3.1868450">
        <ele>163.4</ele>
        <time>2018-09-16T08:18:19Z</time>
      </trkpt>
      <trkpt lat="43.2626390" lon="-3.1867610">
        <ele>163.4</ele>
        <time>2018-09-16T08:18:21Z</time>
      </trkpt>
      <trkpt lat="43.2625270" lon="-3.1866780">
        <ele>163.6</ele>
        <time>2018-09-16T08:18:23Z</time>
      </trkpt>
      <trkpt lat="43.2624070" lon="-3.1866510">
        <ele>164.0</ele>
        <time>2018-09-16T08:18:25Z</time>
      </trkpt>
      <trkpt lat="43.2623010" lon="-3.1867050">
        <ele>164.0</ele>
        <time>2018-09-16T08:18:27Z</time>
      </trkpt>
      <trkpt lat="43.2622200" lon="-3.1868350">
        <ele>164.0</ele>
        <time>2018-09-16T08:18:29Z</time>
      </trkpt>
      <trkpt lat="43.2621160" lon="-3.1871450">
        <ele>164.2</ele>
        <time>2018-09-16T08:18:33Z</time>
      </trkpt>
      <trkpt lat="43.2620680" lon="-3.1873030">
        <ele>164.4</ele>
        <time>2018-09-16T08:18:35Z</time>
      </trkpt>
      <trkpt lat="43.2620280" lon="-3.1874570">
        <ele>164.8</ele>
        <time>2018-09-16T08:18:37Z</time>
      </trkpt>
      <trkpt lat="43.2620090" lon="-3.1876070">
        <ele>165.0</ele>
        <time>2018-09-16T08:18:39Z</time>
      </trkpt>
      <trkpt lat="43.2620190" lon="-3.1877680">
        <ele>165.2</ele>
        <time>2018-09-16T08:18:41Z</time>
      </trkpt>
      <trkpt lat="43.2620370" lon="-3.1878460">
        <ele>165.2</ele>
        <time>2018-09-16T08:18:42Z</time>
      </trkpt>
      <trkpt lat="43.2620660" lon="-3.1880090">
        <ele>165.4</ele>
        <time>2018-09-16T08:18:44Z</time>
      </trkpt>
      <trkpt lat="43.2620700" lon="-3.1880930">
        <ele>165.6</ele>
        <time>2018-09-16T08:18:45Z</time>
      </trkpt>
      <trkpt lat="43.2620620" lon="-3.1881790">
        <ele>165.8</ele>
        <time>2018-09-16T08:18:46Z</time>
      </trkpt>
      <trkpt lat="43.2620220" lon="-3.1883350">
        <ele>166.0</ele>
        <time>2018-09-16T08:18:48Z</time>
      </trkpt>
      <trkpt lat="43.2619900" lon="-3.1884080">
        <ele>166.4</ele>
        <time>2018-09-16T08:18:49Z</time>
      </trkpt>
      <trkpt lat="43.2618640" lon="-3.1886850">
        <ele>167.0</ele>
        <time>2018-09-16T08:18:53Z</time>
      </trkpt>
      <trkpt lat="43.2618290" lon="-3.1888300">
        <ele>167.2</ele>
        <time>2018-09-16T08:18:55Z</time>
      </trkpt>
      <trkpt lat="43.2618040" lon="-3.1890000">
        <ele>167.4</ele>
        <time>2018-09-16T08:18:57Z</time>
      </trkpt>
      <trkpt lat="43.2616940" lon="-3.1896320">
        <ele>168.4</ele>
        <time>2018-09-16T08:19:05Z</time>
      </trkpt>
      <trkpt lat="43.2616810" lon="-3.1897120">
        <ele>168.4</ele>
        <time>2018-09-16T08:19:06Z</time>
      </trkpt>
      <trkpt lat="43.2616630" lon="-3.1898670">
        <ele>169.2</ele>
        <time>2018-09-16T08:19:08Z</time>
      </trkpt>
      <trkpt lat="43.2616720" lon="-3.1900280">
        <ele>169.8</ele>
        <time>2018-09-16T08:19:10Z</time>
      </trkpt>
      <trkpt lat="43.2617340" lon="-3.1903390">
        <ele>170.8</ele>
        <time>2018-09-16T08:19:14Z</time>
      </trkpt>
      <trkpt lat="43.2617480" lon="-3.1904170">
        <ele>171.4</ele>
        <time>2018-09-16T08:19:15Z</time>
      </trkpt>
      <trkpt lat="43.2617560" lon="-3.1904960">
        <ele>171.8</ele>
        <time>2018-09-16T08:19:16Z</time>
      </trkpt>
      <trkpt lat="43.2617590" lon="-3.1905760">
        <ele>172.2</ele>
        <time>2018-09-16T08:19:17Z</time>
      </trkpt>
      <trkpt lat="43.2617580" lon="-3.1906510">
        <ele>172.6</ele>
        <time>2018-09-16T08:19:18Z</time>
      </trkpt>
      <trkpt lat="43.2617310" lon="-3.1908090">
        <ele>173.4</ele>
        <time>2018-09-16T08:19:20Z</time>
      </trkpt>
      <trkpt lat="43.2616980" lon="-3.1909580">
        <ele>173.8</ele>
        <time>2018-09-16T08:19:22Z</time>
      </trkpt>
      <trkpt lat="43.2616930" lon="-3.1911150">
        <ele>174.2</ele>
        <time>2018-09-16T08:19:24Z</time>
      </trkpt>
      <trkpt lat="43.2617080" lon="-3.1911910">
        <ele>174.4</ele>
        <time>2018-09-16T08:19:25Z</time>
      </trkpt>
      <trkpt lat="43.2617300" lon="-3.1912650">
        <ele>174.6</ele>
        <time>2018-09-16T08:19:26Z</time>
      </trkpt>
      <trkpt lat="43.2618210" lon="-3.1915300">
        <ele>175.0</ele>
        <time>2018-09-16T08:19:30Z</time>
      </trkpt>
      <trkpt lat="43.2618320" lon="-3.1916830">
        <ele>175.6</ele>
        <time>2018-09-16T08:19:32Z</time>
      </trkpt>
      <trkpt lat="43.2617810" lon="-3.1918200">
        <ele>176.0</ele>
        <time>2018-09-16T08:19:34Z</time>
      </trkpt>
      <trkpt lat="43.2617330" lon="-3.1918680">
        <ele>176.2</ele>
        <time>2018-09-16T08:19:35Z</time>
      </trkpt>
      <trkpt lat="43.2616750" lon="-3.1918940">
        <ele>176.2</ele>
        <time>2018-09-16T08:19:36Z</time>
      </trkpt>
      <trkpt lat="43.2615540" lon="-3.1918980">
        <ele>176.6</ele>
        <time>2018-09-16T08:19:38Z</time>
      </trkpt>
      <trkpt lat="43.2611700" lon="-3.1918470">
        <ele>177.0</ele>
        <time>2018-09-16T08:19:45Z</time>
      </trkpt>
      <trkpt lat="43.2610690" lon="-3.1918800">
        <ele>177.2</ele>
        <time>2018-09-16T08:19:47Z</time>
      </trkpt>
      <trkpt lat="43.2608660" lon="-3.1920010">
        <ele>177.6</ele>
        <time>2018-09-16T08:19:51Z</time>
      </trkpt>
      <trkpt lat="43.2606550" lon="-3.1921470">
        <ele>178.0</ele>
        <time>2018-09-16T08:19:55Z</time>
      </trkpt>
      <trkpt lat="43.2605410" lon="-3.1921960">
        <ele>178.2</ele>
        <time>2018-09-16T08:19:57Z</time>
      </trkpt>
      <trkpt lat="43.2603630" lon="-3.1922220">
        <ele>178.6</ele>
        <time>2018-09-16T08:20:00Z</time>
      </trkpt>
      <trkpt lat="43.2603090" lon="-3.1922130">
        <ele>178.8</ele>
        <time>2018-09-16T08:20:01Z</time>
      </trkpt>
      <trkpt lat="43.2601990" lon="-3.1921710">
        <ele>179.0</ele>
        <time>2018-09-16T08:20:03Z</time>
      </trkpt>
      <trkpt lat="43.2600940" lon="-3.1921380">
        <ele>179.2</ele>
        <time>2018-09-16T08:20:05Z</time>
      </trkpt>
      <trkpt lat="43.2598810" lon="-3.1920680">
        <ele>179.4</ele>
        <time>2018-09-16T08:20:09Z</time>
      </trkpt>
      <trkpt lat="43.2597720" lon="-3.1920630">
        <ele>179.8</ele>
        <time>2018-09-16T08:20:11Z</time>
      </trkpt>
      <trkpt lat="43.2596600" lon="-3.1921010">
        <ele>180.0</ele>
        <time>2018-09-16T08:20:13Z</time>
      </trkpt>
      <trkpt lat="43.2595500" lon="-3.1921410">
        <ele>180.6</ele>
        <time>2018-09-16T08:20:15Z</time>
      </trkpt>
      <trkpt lat="43.2594350" lon="-3.1921840">
        <ele>180.8</ele>
        <time>2018-09-16T08:20:17Z</time>
      </trkpt>
      <trkpt lat="43.2593550" lon="-3.1922430">
        <ele>180.8</ele>
        <time>2018-09-16T08:20:19Z</time>
      </trkpt>
      <trkpt lat="43.2592760" lon="-3.1923560">
        <ele>181.0</ele>
        <time>2018-09-16T08:20:21Z</time>
      </trkpt>
      <trkpt lat="43.2592440" lon="-3.1924390">
        <ele>181.2</ele>
        <time>2018-09-16T08:20:22Z</time>
      </trkpt>
      <trkpt lat="43.2592230" lon="-3.1925230">
        <ele>181.2</ele>
        <time>2018-09-16T08:20:23Z</time>
      </trkpt>
      <trkpt lat="43.2592090" lon="-3.1926760">
        <ele>181.6</ele>
        <time>2018-09-16T08:20:25Z</time>
      </trkpt>
      <trkpt lat="43.2592410" lon="-3.1928290">
        <ele>182.4</ele>
        <time>2018-09-16T08:20:27Z</time>
      </trkpt>
      <trkpt lat="43.2595090" lon="-3.1932650">
        <ele>182.4</ele>
        <time>2018-09-16T08:20:34Z</time>
      </trkpt>
      <trkpt lat="43.2595540" lon="-3.1933290">
        <ele>182.4</ele>
        <time>2018-09-16T08:20:35Z</time>
      </trkpt>
      <trkpt lat="43.2596450" lon="-3.1934590">
        <ele>182.4</ele>
        <time>2018-09-16T08:20:37Z</time>
      </trkpt>
      <trkpt lat="43.2598640" lon="-3.1940090">
        <ele>182.8</ele>
        <time>2018-09-16T08:20:44Z</time>
      </trkpt>
      <trkpt lat="43.2598790" lon="-3.1940940">
        <ele>183.0</ele>
        <time>2018-09-16T08:20:45Z</time>
      </trkpt>
      <trkpt lat="43.2598840" lon="-3.1941830">
        <ele>183.0</ele>
        <time>2018-09-16T08:20:46Z</time>
      </trkpt>
      <trkpt lat="43.2598780" lon="-3.1943640">
        <ele>183.2</ele>
        <time>2018-09-16T08:20:48Z</time>
      </trkpt>
      <trkpt lat="43.2598050" lon="-3.1948040">
        <ele>183.0</ele>
        <time>2018-09-16T08:20:53Z</time>
      </trkpt>
      <trkpt lat="43.2597750" lon="-3.1949850">
        <ele>183.2</ele>
        <time>2018-09-16T08:20:55Z</time>
      </trkpt>
      <trkpt lat="43.2597540" lon="-3.1950730">
        <ele>183.4</ele>
        <time>2018-09-16T08:20:56Z</time>
      </trkpt>
      <trkpt lat="43.2596560" lon="-3.1956000">
        <ele>183.6</ele>
        <time>2018-09-16T08:21:02Z</time>
      </trkpt>
      <trkpt lat="43.2596390" lon="-3.1956820">
        <ele>183.4</ele>
        <time>2018-09-16T08:21:03Z</time>
      </trkpt>
      <trkpt lat="43.2595990" lon="-3.1958540">
        <ele>183.6</ele>
        <time>2018-09-16T08:21:05Z</time>
      </trkpt>
      <trkpt lat="43.2595490" lon="-3.1960140">
        <ele>184.2</ele>
        <time>2018-09-16T08:21:07Z</time>
      </trkpt>
      <trkpt lat="43.2595060" lon="-3.1960900">
        <ele>184.4</ele>
        <time>2018-09-16T08:21:08Z</time>
      </trkpt>
      <trkpt lat="43.2594580" lon="-3.1961630">
        <ele>184.4</ele>
        <time>2018-09-16T08:21:09Z</time>
      </trkpt>
      <trkpt lat="43.2591510" lon="-3.1965380">
        <ele>185.4</ele>
        <time>2018-09-16T08:21:15Z</time>
      </trkpt>
      <trkpt lat="43.2588440" lon="-3.1969020">
        <ele>186.8</ele>
        <time>2018-09-16T08:21:21Z</time>
      </trkpt>
      <trkpt lat="43.2586930" lon="-3.1970710">
        <ele>188.0</ele>
        <time>2018-09-16T08:21:24Z</time>
      </trkpt>
      <trkpt lat="43.2586380" lon="-3.1971200">
        <ele>188.2</ele>
        <time>2018-09-16T08:21:25Z</time>
      </trkpt>
      <trkpt lat="43.2585820" lon="-3.1971580">
        <ele>188.4</ele>
        <time>2018-09-16T08:21:26Z</time>
      </trkpt>
      <trkpt lat="43.2580060" lon="-3.1972670">
        <ele>187.8</ele>
        <time>2018-09-16T08:21:35Z</time>
      </trkpt>
      <trkpt lat="43.2574150" lon="-3.1973370">
        <ele>187.8</ele>
        <time>2018-09-16T08:21:44Z</time>
      </trkpt>
      <trkpt lat="43.2573500" lon="-3.1973450">
        <ele>187.8</ele>
        <time>2018-09-16T08:21:45Z</time>
      </trkpt>
      <trkpt lat="43.2570190" lon="-3.1974340">
        <ele>187.8</ele>
        <time>2018-09-16T08:21:50Z</time>
      </trkpt>
      <trkpt lat="43.2569040" lon="-3.1975150">
        <ele>188.0</ele>
        <time>2018-09-16T08:21:52Z</time>
      </trkpt>
      <trkpt lat="43.2568230" lon="-3.1976430">
        <ele>188.4</ele>
        <time>2018-09-16T08:21:54Z</time>
      </trkpt>
      <trkpt lat="43.2567850" lon="-3.1977210">
        <ele>188.6</ele>
        <time>2018-09-16T08:21:55Z</time>
      </trkpt>
      <trkpt lat="43.2566570" lon="-3.1979340">
        <ele>189.0</ele>
        <time>2018-09-16T08:21:58Z</time>
      </trkpt>
      <trkpt lat="43.2566050" lon="-3.1979940">
        <ele>189.2</ele>
        <time>2018-09-16T08:21:59Z</time>
      </trkpt>
      <trkpt lat="43.2562960" lon="-3.1983390">
        <ele>190.0</ele>
        <time>2018-09-16T08:22:05Z</time>
      </trkpt>
      <trkpt lat="43.2561900" lon="-3.1984620">
        <ele>190.2</ele>
        <time>2018-09-16T08:22:07Z</time>
      </trkpt>
      <trkpt lat="43.2561380" lon="-3.1985080">
        <ele>190.2</ele>
        <time>2018-09-16T08:22:08Z</time>
      </trkpt>
      <trkpt lat="43.2557400" lon="-3.1988020">
        <ele>190.8</ele>
        <time>2018-09-16T08:22:15Z</time>
      </trkpt>
      <trkpt lat="43.2556240" lon="-3.1988740">
        <ele>191.0</ele>
        <time>2018-09-16T08:22:17Z</time>
      </trkpt>
      <trkpt lat="43.2555690" lon="-3.1989150">
        <ele>191.2</ele>
        <time>2018-09-16T08:22:18Z</time>
      </trkpt>
      <trkpt lat="43.2553520" lon="-3.1990690">
        <ele>192.0</ele>
        <time>2018-09-16T08:22:22Z</time>
      </trkpt>
      <trkpt lat="43.2552330" lon="-3.1990860">
        <ele>192.4</ele>
        <time>2018-09-16T08:22:24Z</time>
      </trkpt>
      <trkpt lat="43.2551690" lon="-3.1990830">
        <ele>192.6</ele>
        <time>2018-09-16T08:22:25Z</time>
      </trkpt>
      <trkpt lat="43.2550360" lon="-3.1990500">
        <ele>192.6</ele>
        <time>2018-09-16T08:22:27Z</time>
      </trkpt>
      <trkpt lat="43.2549070" lon="-3.1989730">
        <ele>192.8</ele>
        <time>2018-09-16T08:22:29Z</time>
      </trkpt>
      <trkpt lat="43.2547970" lon="-3.1988470">
        <ele>192.8</ele>
        <time>2018-09-16T08:22:31Z</time>
      </trkpt>
      <trkpt lat="43.2546140" lon="-3.1985680">
        <ele>192.8</ele>
        <time>2018-09-16T08:22:35Z</time>
      </trkpt>
      <trkpt lat="43.2545600" lon="-3.1985090">
        <ele>192.8</ele>
        <time>2018-09-16T08:22:36Z</time>
      </trkpt>
      <trkpt lat="43.2541740" lon="-3.1983210">
        <ele>193.2</ele>
        <time>2018-09-16T08:22:42Z</time>
      </trkpt>
      <trkpt lat="43.2540370" lon="-3.1983280">
        <ele>193.4</ele>
        <time>2018-09-16T08:22:44Z</time>
      </trkpt>
      <trkpt lat="43.2539730" lon="-3.1983580">
        <ele>193.6</ele>
        <time>2018-09-16T08:22:45Z</time>
      </trkpt>
      <trkpt lat="43.2539260" lon="-3.1983950">
        <ele>193.8</ele>
        <time>2018-09-16T08:22:46Z</time>
      </trkpt>
      <trkpt lat="43.2538020" lon="-3.1985940">
        <ele>194.6</ele>
        <time>2018-09-16T08:22:49Z</time>
      </trkpt>
      <trkpt lat="43.2536060" lon="-3.1989470">
        <ele>195.6</ele>
        <time>2018-09-16T08:22:54Z</time>
      </trkpt>
      <trkpt lat="43.2535570" lon="-3.1990030">
        <ele>195.8</ele>
        <time>2018-09-16T08:22:55Z</time>
      </trkpt>
      <trkpt lat="43.2535010" lon="-3.1990490">
        <ele>196.0</ele>
        <time>2018-09-16T08:22:56Z</time>
      </trkpt>
      <trkpt lat="43.2533860" lon="-3.1991310">
        <ele>196.4</ele>
        <time>2018-09-16T08:22:58Z</time>
      </trkpt>
      <trkpt lat="43.2533290" lon="-3.1991700">
        <ele>196.6</ele>
        <time>2018-09-16T08:22:59Z</time>
      </trkpt>
      <trkpt lat="43.2530640" lon="-3.1993890">
        <ele>197.6</ele>
        <time>2018-09-16T08:23:04Z</time>
      </trkpt>
      <trkpt lat="43.2530090" lon="-3.1994350">
        <ele>197.8</ele>
        <time>2018-09-16T08:23:05Z</time>
      </trkpt>
      <trkpt lat="43.2527930" lon="-3.1995820">
        <ele>198.8</ele>
        <time>2018-09-16T08:23:09Z</time>
      </trkpt>
      <trkpt lat="43.2526300" lon="-3.1996700">
        <ele>199.6</ele>
        <time>2018-09-16T08:23:12Z</time>
      </trkpt>
      <trkpt lat="43.2525750" lon="-3.1996890">
        <ele>200.0</ele>
        <time>2018-09-16T08:23:13Z</time>
      </trkpt>
      <trkpt lat="43.2525170" lon="-3.1997020">
        <ele>200.2</ele>
        <time>2018-09-16T08:23:14Z</time>
      </trkpt>
      <trkpt lat="43.2524610" lon="-3.1997090">
        <ele>200.4</ele>
        <time>2018-09-16T08:23:15Z</time>
      </trkpt>
      <trkpt lat="43.2522180" lon="-3.1997380">
        <ele>201.0</ele>
        <time>2018-09-16T08:23:19Z</time>
      </trkpt>
      <trkpt lat="43.2521700" lon="-3.1997560">
        <ele>201.2</ele>
        <time>2018-09-16T08:23:20Z</time>
      </trkpt>
      <trkpt lat="43.2521220" lon="-3.1997890">
        <ele>201.2</ele>
        <time>2018-09-16T08:23:21Z</time>
      </trkpt>
      <trkpt lat="43.2520410" lon="-3.1998820">
        <ele>201.6</ele>
        <time>2018-09-16T08:23:23Z</time>
      </trkpt>
      <trkpt lat="43.2519590" lon="-3.1999790">
        <ele>202.2</ele>
        <time>2018-09-16T08:23:25Z</time>
      </trkpt>
      <trkpt lat="43.2518870" lon="-3.2001140">
        <ele>202.8</ele>
        <time>2018-09-16T08:23:27Z</time>
      </trkpt>
      <trkpt lat="43.2518110" lon="-3.2002350">
        <ele>203.2</ele>
        <time>2018-09-16T08:23:29Z</time>
      </trkpt>
      <trkpt lat="43.2516670" lon="-3.2003980">
        <ele>204.0</ele>
        <time>2018-09-16T08:23:32Z</time>
      </trkpt>
      <trkpt lat="43.2515540" lon="-3.2004680">
        <ele>204.4</ele>
        <time>2018-09-16T08:23:34Z</time>
      </trkpt>
      <trkpt lat="43.2514980" lon="-3.2004960">
        <ele>204.6</ele>
        <time>2018-09-16T08:23:35Z</time>
      </trkpt>
      <trkpt lat="43.2511520" lon="-3.2006910">
        <ele>205.6</ele>
        <time>2018-09-16T08:23:41Z</time>
      </trkpt>
      <trkpt lat="43.2509310" lon="-3.2008440">
        <ele>206.8</ele>
        <time>2018-09-16T08:23:45Z</time>
      </trkpt>
      <trkpt lat="43.2507020" lon="-3.2011030">
        <ele>207.2</ele>
        <time>2018-09-16T08:23:50Z</time>
      </trkpt>
      <trkpt lat="43.2506560" lon="-3.2012390">
        <ele>207.6</ele>
        <time>2018-09-16T08:23:52Z</time>
      </trkpt>
      <trkpt lat="43.2506450" lon="-3.2013120">
        <ele>207.8</ele>
        <time>2018-09-16T08:23:53Z</time>
      </trkpt>
      <trkpt lat="43.2506230" lon="-3.2014610">
        <ele>208.2</ele>
        <time>2018-09-16T08:23:55Z</time>
      </trkpt>
      <trkpt lat="43.2506040" lon="-3.2015380">
        <ele>208.4</ele>
        <time>2018-09-16T08:23:56Z</time>
      </trkpt>
      <trkpt lat="43.2505340" lon="-3.2016800">
        <ele>208.8</ele>
        <time>2018-09-16T08:23:58Z</time>
      </trkpt>
      <trkpt lat="43.2504940" lon="-3.2017390">
        <ele>208.8</ele>
        <time>2018-09-16T08:23:59Z</time>
      </trkpt>
      <trkpt lat="43.2503600" lon="-3.2019010">
        <ele>210.2</ele>
        <time>2018-09-16T08:24:02Z</time>
      </trkpt>
      <trkpt lat="43.2502290" lon="-3.2020670">
        <ele>211.4</ele>
        <time>2018-09-16T08:24:05Z</time>
      </trkpt>
      <trkpt lat="43.2500330" lon="-3.2023110">
        <ele>212.6</ele>
        <time>2018-09-16T08:24:09Z</time>
      </trkpt>
      <trkpt lat="43.2499460" lon="-3.2024180">
        <ele>213.2</ele>
        <time>2018-09-16T08:24:11Z</time>
      </trkpt>
      <trkpt lat="43.2498720" lon="-3.2025520">
        <ele>213.8</ele>
        <time>2018-09-16T08:24:13Z</time>
      </trkpt>
      <trkpt lat="43.2498110" lon="-3.2027010">
        <ele>214.8</ele>
        <time>2018-09-16T08:24:15Z</time>
      </trkpt>
      <trkpt lat="43.2497810" lon="-3.2027880">
        <ele>215.0</ele>
        <time>2018-09-16T08:24:16Z</time>
      </trkpt>
      <trkpt lat="43.2496330" lon="-3.2031740">
        <ele>215.8</ele>
        <time>2018-09-16T08:24:21Z</time>
      </trkpt>
      <trkpt lat="43.2495690" lon="-3.2033070">
        <ele>216.0</ele>
        <time>2018-09-16T08:24:23Z</time>
      </trkpt>
      <trkpt lat="43.2495370" lon="-3.2034690">
        <ele>216.0</ele>
        <time>2018-09-16T08:24:25Z</time>
      </trkpt>
      <trkpt lat="43.2495310" lon="-3.2036480">
        <ele>215.8</ele>
        <time>2018-09-16T08:24:27Z</time>
      </trkpt>
      <trkpt lat="43.2495300" lon="-3.2039410">
        <ele>215.8</ele>
        <time>2018-09-16T08:24:30Z</time>
      </trkpt>
      <trkpt lat="43.2494790" lon="-3.2041200">
        <ele>216.0</ele>
        <time>2018-09-16T08:24:32Z</time>
      </trkpt>
      <trkpt lat="43.2493650" lon="-3.2043490">
        <ele>216.6</ele>
        <time>2018-09-16T08:24:35Z</time>
      </trkpt>
      <trkpt lat="43.2490130" lon="-3.2049990">
        <ele>216.4</ele>
        <time>2018-09-16T08:24:44Z</time>
      </trkpt>
      <trkpt lat="43.2489770" lon="-3.2050850">
        <ele>216.4</ele>
        <time>2018-09-16T08:24:45Z</time>
      </trkpt>
      <trkpt lat="43.2489340" lon="-3.2051620">
        <ele>216.4</ele>
        <time>2018-09-16T08:24:46Z</time>
      </trkpt>
      <trkpt lat="43.2487830" lon="-3.2053630">
        <ele>216.4</ele>
        <time>2018-09-16T08:24:49Z</time>
      </trkpt>
      <trkpt lat="43.2486890" lon="-3.2054750">
        <ele>216.2</ele>
        <time>2018-09-16T08:24:51Z</time>
      </trkpt>
      <trkpt lat="43.2484610" lon="-3.2056980">
        <ele>216.0</ele>
        <time>2018-09-16T08:24:55Z</time>
      </trkpt>
      <trkpt lat="43.2480680" lon="-3.2058750">
        <ele>215.8</ele>
        <time>2018-09-16T08:25:01Z</time>
      </trkpt>
      <trkpt lat="43.2478060" lon="-3.2059570">
        <ele>215.6</ele>
        <time>2018-09-16T08:25:05Z</time>
      </trkpt>
      <trkpt lat="43.2475450" lon="-3.2060330">
        <ele>215.6</ele>
        <time>2018-09-16T08:25:09Z</time>
      </trkpt>
      <trkpt lat="43.2474420" lon="-3.2061300">
        <ele>215.6</ele>
        <time>2018-09-16T08:25:11Z</time>
      </trkpt>
      <trkpt lat="43.2473760" lon="-3.2063040">
        <ele>215.6</ele>
        <time>2018-09-16T08:25:13Z</time>
      </trkpt>
      <trkpt lat="43.2473510" lon="-3.2064990">
        <ele>215.6</ele>
        <time>2018-09-16T08:25:15Z</time>
      </trkpt>
      <trkpt lat="43.2473820" lon="-3.2070860">
        <ele>216.4</ele>
        <time>2018-09-16T08:25:21Z</time>
      </trkpt>
      <trkpt lat="43.2473520" lon="-3.2073730">
        <ele>216.8</ele>
        <time>2018-09-16T08:25:24Z</time>
      </trkpt>
      <trkpt lat="43.2473320" lon="-3.2074610">
        <ele>217.0</ele>
        <time>2018-09-16T08:25:25Z</time>
      </trkpt>
      <trkpt lat="43.2473020" lon="-3.2075470">
        <ele>217.2</ele>
        <time>2018-09-16T08:25:26Z</time>
      </trkpt>
      <trkpt lat="43.2469870" lon="-3.2080580">
        <ele>217.0</ele>
        <time>2018-09-16T08:25:33Z</time>
      </trkpt>
      <trkpt lat="43.2468680" lon="-3.2081620">
        <ele>217.0</ele>
        <time>2018-09-16T08:25:35Z</time>
      </trkpt>
      <trkpt lat="43.2468030" lon="-3.2082050">
        <ele>217.0</ele>
        <time>2018-09-16T08:25:36Z</time>
      </trkpt>
      <trkpt lat="43.2466740" lon="-3.2082710">
        <ele>217.0</ele>
        <time>2018-09-16T08:25:38Z</time>
      </trkpt>
      <trkpt lat="43.2465580" lon="-3.2083150">
        <ele>216.8</ele>
        <time>2018-09-16T08:25:40Z</time>
      </trkpt>
      <trkpt lat="43.2463690" lon="-3.2083840">
        <ele>216.6</ele>
        <time>2018-09-16T08:25:43Z</time>
      </trkpt>
      <trkpt lat="43.2462330" lon="-3.2084180">
        <ele>216.4</ele>
        <time>2018-09-16T08:25:45Z</time>
      </trkpt>
      <trkpt lat="43.2461690" lon="-3.2084310">
        <ele>216.4</ele>
        <time>2018-09-16T08:25:46Z</time>
      </trkpt>
      <trkpt lat="43.2457830" lon="-3.2083860">
        <ele>216.6</ele>
        <time>2018-09-16T08:25:52Z</time>
      </trkpt>
      <trkpt lat="43.2456480" lon="-3.2084170">
        <ele>217.0</ele>
        <time>2018-09-16T08:25:54Z</time>
      </trkpt>
      <trkpt lat="43.2455800" lon="-3.2084590">
        <ele>217.2</ele>
        <time>2018-09-16T08:25:55Z</time>
      </trkpt>
      <trkpt lat="43.2455330" lon="-3.2084920">
        <ele>217.4</ele>
        <time>2018-09-16T08:25:56Z</time>
      </trkpt>
      <trkpt lat="43.2453750" lon="-3.2086540">
        <ele>218.2</ele>
        <time>2018-09-16T08:25:59Z</time>
      </trkpt>
      <trkpt lat="43.2451160" lon="-3.2089930">
        <ele>219.4</ele>
        <time>2018-09-16T08:26:04Z</time>
      </trkpt>
      <trkpt lat="43.2450670" lon="-3.2090700">
        <ele>219.6</ele>
        <time>2018-09-16T08:26:05Z</time>
      </trkpt>
      <trkpt lat="43.2449120" lon="-3.2093720">
        <ele>220.4</ele>
        <time>2018-09-16T08:26:09Z</time>
      </trkpt>
      <trkpt lat="43.2448860" lon="-3.2094520">
        <ele>220.6</ele>
        <time>2018-09-16T08:26:10Z</time>
      </trkpt>
      <trkpt lat="43.2448150" lon="-3.2098920">
        <ele>221.2</ele>
        <time>2018-09-16T08:26:15Z</time>
      </trkpt>
      <trkpt lat="43.2447880" lon="-3.2099870">
        <ele>221.4</ele>
        <time>2018-09-16T08:26:16Z</time>
      </trkpt>
      <trkpt lat="43.2447230" lon="-3.2102610">
        <ele>222.8</ele>
        <time>2018-09-16T08:26:19Z</time>
      </trkpt>
      <trkpt lat="43.2445000" lon="-3.2107580">
        <ele>223.8</ele>
        <time>2018-09-16T08:26:25Z</time>
      </trkpt>
      <trkpt lat="43.2444180" lon="-3.2109280">
        <ele>223.8</ele>
        <time>2018-09-16T08:26:27Z</time>
      </trkpt>
      <trkpt lat="43.2441010" lon="-3.2115740">
        <ele>224.8</ele>
        <time>2018-09-16T08:26:35Z</time>
      </trkpt>
      <trkpt lat="43.2438340" lon="-3.2122710">
        <ele>225.4</ele>
        <time>2018-09-16T08:26:43Z</time>
      </trkpt>
      <trkpt lat="43.2437720" lon="-3.2124460">
        <ele>225.4</ele>
        <time>2018-09-16T08:26:45Z</time>
      </trkpt>
      <trkpt lat="43.2435700" lon="-3.2130490">
        <ele>225.0</ele>
        <time>2018-09-16T08:26:52Z</time>
      </trkpt>
      <trkpt lat="43.2435340" lon="-3.2131450">
        <ele>225.0</ele>
        <time>2018-09-16T08:26:53Z</time>
      </trkpt>
      <trkpt lat="43.2434310" lon="-3.2133070">
        <ele>225.0</ele>
        <time>2018-09-16T08:26:55Z</time>
      </trkpt>
      <trkpt lat="43.2431900" lon="-3.2135380">
        <ele>224.8</ele>
        <time>2018-09-16T08:26:59Z</time>
      </trkpt>
      <trkpt lat="43.2430780" lon="-3.2136590">
        <ele>224.6</ele>
        <time>2018-09-16T08:27:01Z</time>
      </trkpt>
      <trkpt lat="43.2429620" lon="-3.2137630">
        <ele>224.4</ele>
        <time>2018-09-16T08:27:03Z</time>
      </trkpt>
      <trkpt lat="43.2429010" lon="-3.2138060">
        <ele>224.2</ele>
        <time>2018-09-16T08:27:04Z</time>
      </trkpt>
      <trkpt lat="43.2428320" lon="-3.2138370">
        <ele>224.0</ele>
        <time>2018-09-16T08:27:05Z</time>
      </trkpt>
      <trkpt lat="43.2427610" lon="-3.2138440">
        <ele>224.0</ele>
        <time>2018-09-16T08:27:06Z</time>
      </trkpt>
      <trkpt lat="43.2425180" lon="-3.2137880">
        <ele>224.0</ele>
        <time>2018-09-16T08:27:10Z</time>
      </trkpt>
      <trkpt lat="43.2422380" lon="-3.2137000">
        <ele>224.4</ele>
        <time>2018-09-16T08:27:15Z</time>
      </trkpt>
      <trkpt lat="43.2419190" lon="-3.2137390">
        <ele>225.4</ele>
        <time>2018-09-16T08:27:22Z</time>
      </trkpt>
      <trkpt lat="43.2418030" lon="-3.2138720">
        <ele>225.6</ele>
        <time>2018-09-16T08:27:25Z</time>
      </trkpt>
      <trkpt lat="43.2417290" lon="-3.2139570">
        <ele>225.6</ele>
        <time>2018-09-16T08:27:27Z</time>
      </trkpt>
      <trkpt lat="43.2415760" lon="-3.2141090">
        <ele>226.0</ele>
        <time>2018-09-16T08:27:31Z</time>
      </trkpt>
      <trkpt lat="43.2414130" lon="-3.2142770">
        <ele>226.8</ele>
        <time>2018-09-16T08:27:35Z</time>
      </trkpt>
      <trkpt lat="43.2413700" lon="-3.2143200">
        <ele>227.2</ele>
        <time>2018-09-16T08:27:36Z</time>
      </trkpt>
      <trkpt lat="43.2411290" lon="-3.2145760">
        <ele>228.2</ele>
        <time>2018-09-16T08:27:42Z</time>
      </trkpt>
      <trkpt lat="43.2410130" lon="-3.2147020">
        <ele>229.0</ele>
        <time>2018-09-16T08:27:45Z</time>
      </trkpt>
      <trkpt lat="43.2409000" lon="-3.2148270">
        <ele>229.4</ele>
        <time>2018-09-16T08:27:48Z</time>
      </trkpt>
      <trkpt lat="43.2407640" lon="-3.2150000">
        <ele>230.8</ele>
        <time>2018-09-16T08:27:52Z</time>
      </trkpt>
      <trkpt lat="43.2406610" lon="-3.2151540">
        <ele>231.0</ele>
        <time>2018-09-16T08:27:55Z</time>
      </trkpt>
      <trkpt lat="43.2406290" lon="-3.2152030">
        <ele>231.2</ele>
        <time>2018-09-16T08:27:56Z</time>
      </trkpt>
      <trkpt lat="43.2405240" lon="-3.2153620">
        <ele>231.8</ele>
        <time>2018-09-16T08:27:59Z</time>
      </trkpt>
      <trkpt lat="43.2404250" lon="-3.2155290">
        <ele>232.6</ele>
        <time>2018-09-16T08:28:02Z</time>
      </trkpt>
      <trkpt lat="43.2403670" lon="-3.2156420">
        <ele>233.0</ele>
        <time>2018-09-16T08:28:04Z</time>
      </trkpt>
      <trkpt lat="43.2403330" lon="-3.2156970">
        <ele>233.2</ele>
        <time>2018-09-16T08:28:05Z</time>
      </trkpt>
      <trkpt lat="43.2401690" lon="-3.2160400">
        <ele>233.6</ele>
        <time>2018-09-16T08:28:11Z</time>
      </trkpt>
      <trkpt lat="43.2401320" lon="-3.2161520">
        <ele>234.2</ele>
        <time>2018-09-16T08:28:13Z</time>
      </trkpt>
      <trkpt lat="43.2400930" lon="-3.2162790">
        <ele>234.4</ele>
        <time>2018-09-16T08:28:15Z</time>
      </trkpt>
      <trkpt lat="43.2399850" lon="-3.2167060">
        <ele>235.2</ele>
        <time>2018-09-16T08:28:21Z</time>
      </trkpt>
      <trkpt lat="43.2399450" lon="-3.2170090">
        <ele>235.8</ele>
        <time>2018-09-16T08:28:25Z</time>
      </trkpt>
      <trkpt lat="43.2399370" lon="-3.2173420">
        <ele>235.8</ele>
        <time>2018-09-16T08:28:29Z</time>
      </trkpt>
      <trkpt lat="43.2399570" lon="-3.2178490">
        <ele>235.4</ele>
        <time>2018-09-16T08:28:35Z</time>
      </trkpt>
      <trkpt lat="43.2399990" lon="-3.2183530">
        <ele>235.6</ele>
        <time>2018-09-16T08:28:41Z</time>
      </trkpt>
      <trkpt lat="43.2400930" lon="-3.2186530">
        <ele>236.0</ele>
        <time>2018-09-16T08:28:45Z</time>
      </trkpt>
      <trkpt lat="43.2401690" lon="-3.2188730">
        <ele>236.2</ele>
        <time>2018-09-16T08:28:48Z</time>
      </trkpt>
      <trkpt lat="43.2402870" lon="-3.2194450">
        <ele>236.4</ele>
        <time>2018-09-16T08:28:55Z</time>
      </trkpt>
      <trkpt lat="43.2403620" lon="-3.2198720">
        <ele>236.2</ele>
        <time>2018-09-16T08:29:00Z</time>
      </trkpt>
      <trkpt lat="43.2403830" lon="-3.2199560">
        <ele>236.4</ele>
        <time>2018-09-16T08:29:01Z</time>
      </trkpt>
      <trkpt lat="43.2404440" lon="-3.2201160">
        <ele>236.4</ele>
        <time>2018-09-16T08:29:03Z</time>
      </trkpt>
      <trkpt lat="43.2405190" lon="-3.2202630">
        <ele>236.6</ele>
        <time>2018-09-16T08:29:05Z</time>
      </trkpt>
      <trkpt lat="43.2408420" lon="-3.2209080">
        <ele>237.4</ele>
        <time>2018-09-16T08:29:14Z</time>
      </trkpt>
      <trkpt lat="43.2408640" lon="-3.2209920">
        <ele>237.4</ele>
        <time>2018-09-16T08:29:15Z</time>
      </trkpt>
      <trkpt lat="43.2408770" lon="-3.2210780">
        <ele>237.4</ele>
        <time>2018-09-16T08:29:16Z</time>
      </trkpt>
      <trkpt lat="43.2408840" lon="-3.2212600">
        <ele>237.4</ele>
        <time>2018-09-16T08:29:18Z</time>
      </trkpt>
      <trkpt lat="43.2408850" lon="-3.2216300">
        <ele>236.8</ele>
        <time>2018-09-16T08:29:22Z</time>
      </trkpt>
      <trkpt lat="43.2408940" lon="-3.2217190">
        <ele>236.8</ele>
        <time>2018-09-16T08:29:23Z</time>
      </trkpt>
      <trkpt lat="43.2409300" lon="-3.2218910">
        <ele>236.6</ele>
        <time>2018-09-16T08:29:25Z</time>
      </trkpt>
      <trkpt lat="43.2409680" lon="-3.2220660">
        <ele>236.6</ele>
        <time>2018-09-16T08:29:27Z</time>
      </trkpt>
      <trkpt lat="43.2410190" lon="-3.2224280">
        <ele>236.8</ele>
        <time>2018-09-16T08:29:31Z</time>
      </trkpt>
      <trkpt lat="43.2410770" lon="-3.2227780">
        <ele>236.8</ele>
        <time>2018-09-16T08:29:35Z</time>
      </trkpt>
      <trkpt lat="43.2411720" lon="-3.2230190">
        <ele>237.0</ele>
        <time>2018-09-16T08:29:38Z</time>
      </trkpt>
      <trkpt lat="43.2414430" lon="-3.2235210">
        <ele>237.6</ele>
        <time>2018-09-16T08:29:45Z</time>
      </trkpt>
      <trkpt lat="43.2416370" lon="-3.2242530">
        <ele>238.0</ele>
        <time>2018-09-16T08:29:54Z</time>
      </trkpt>
      <trkpt lat="43.2416510" lon="-3.2243370">
        <ele>238.2</ele>
        <time>2018-09-16T08:29:55Z</time>
      </trkpt>
      <trkpt lat="43.2416670" lon="-3.2245180">
        <ele>238.4</ele>
        <time>2018-09-16T08:29:57Z</time>
      </trkpt>
      <trkpt lat="43.2416570" lon="-3.2246920">
        <ele>238.6</ele>
        <time>2018-09-16T08:29:59Z</time>
      </trkpt>
      <trkpt lat="43.2416250" lon="-3.2248600">
        <ele>238.6</ele>
        <time>2018-09-16T08:30:01Z</time>
      </trkpt>
      <trkpt lat="43.2415090" lon="-3.2252110">
        <ele>239.4</ele>
        <time>2018-09-16T08:30:05Z</time>
      </trkpt>
      <trkpt lat="43.2414860" lon="-3.2253030">
        <ele>239.6</ele>
        <time>2018-09-16T08:30:06Z</time>
      </trkpt>
      <trkpt lat="43.2414420" lon="-3.2257600">
        <ele>240.6</ele>
        <time>2018-09-16T08:30:11Z</time>
      </trkpt>
      <trkpt lat="43.2414780" lon="-3.2261150">
        <ele>241.0</ele>
        <time>2018-09-16T08:30:15Z</time>
      </trkpt>
      <trkpt lat="43.2415040" lon="-3.2267550">
        <ele>241.2</ele>
        <time>2018-09-16T08:30:22Z</time>
      </trkpt>
      <trkpt lat="43.2414760" lon="-3.2269340">
        <ele>241.6</ele>
        <time>2018-09-16T08:30:24Z</time>
      </trkpt>
      <trkpt lat="43.2414560" lon="-3.2270220">
        <ele>241.8</ele>
        <time>2018-09-16T08:30:25Z</time>
      </trkpt>
      <trkpt lat="43.2413820" lon="-3.2273660">
        <ele>242.2</ele>
        <time>2018-09-16T08:30:29Z</time>
      </trkpt>
      <trkpt lat="43.2413030" lon="-3.2275340">
        <ele>242.4</ele>
        <time>2018-09-16T08:30:31Z</time>
      </trkpt>
      <trkpt lat="43.2412550" lon="-3.2276120">
        <ele>242.6</ele>
        <time>2018-09-16T08:30:32Z</time>
      </trkpt>
      <trkpt lat="43.2411110" lon="-3.2278260">
        <ele>243.2</ele>
        <time>2018-09-16T08:30:35Z</time>
      </trkpt>
      <trkpt lat="43.2409560" lon="-3.2281000">
        <ele>243.6</ele>
        <time>2018-09-16T08:30:39Z</time>
      </trkpt>
      <trkpt lat="43.2409220" lon="-3.2281730">
        <ele>243.6</ele>
        <time>2018-09-16T08:30:40Z</time>
      </trkpt>
      <trkpt lat="43.2407550" lon="-3.2285070">
        <ele>244.8</ele>
        <time>2018-09-16T08:30:45Z</time>
      </trkpt>
      <trkpt lat="43.2406470" lon="-3.2286850">
        <ele>246.0</ele>
        <time>2018-09-16T08:30:48Z</time>
      </trkpt>
      <trkpt lat="43.2404090" lon="-3.2289710">
        <ele>247.0</ele>
        <time>2018-09-16T08:30:54Z</time>
      </trkpt>
      <trkpt lat="43.2403610" lon="-3.2290110">
        <ele>247.2</ele>
        <time>2018-09-16T08:30:55Z</time>
      </trkpt>
      <trkpt lat="43.2403040" lon="-3.2290390">
        <ele>247.4</ele>
        <time>2018-09-16T08:30:56Z</time>
      </trkpt>
      <trkpt lat="43.2399950" lon="-3.2291630">
        <ele>246.8</ele>
        <time>2018-09-16T08:31:01Z</time>
      </trkpt>
      <trkpt lat="43.2399380" lon="-3.2291990">
        <ele>246.6</ele>
        <time>2018-09-16T08:31:02Z</time>
      </trkpt>
      <trkpt lat="43.2398840" lon="-3.2292910">
        <ele>246.4</ele>
        <time>2018-09-16T08:31:04Z</time>
      </trkpt>
      <trkpt lat="43.2398920" lon="-3.2293440">
        <ele>246.4</ele>
        <time>2018-09-16T08:31:05Z</time>
      </trkpt>
      <trkpt lat="43.2399270" lon="-3.2293980">
        <ele>246.2</ele>
        <time>2018-09-16T08:31:06Z</time>
      </trkpt>
      <trkpt lat="43.2400580" lon="-3.2294440">
        <ele>246.4</ele>
        <time>2018-09-16T08:31:08Z</time>
      </trkpt>
      <trkpt lat="43.2403810" lon="-3.2293700">
        <ele>248.0</ele>
        <time>2018-09-16T08:31:14Z</time>
      </trkpt>
      <trkpt lat="43.2404350" lon="-3.2293550">
        <ele>248.4</ele>
        <time>2018-09-16T08:31:15Z</time>
      </trkpt>
      <trkpt lat="43.2407100" lon="-3.2292760">
        <ele>249.4</ele>
        <time>2018-09-16T08:31:20Z</time>
      </trkpt>
      <trkpt lat="43.2409120" lon="-3.2291900">
        <ele>250.6</ele>
        <time>2018-09-16T08:31:24Z</time>
      </trkpt>
      <trkpt lat="43.2409600" lon="-3.2291760">
        <ele>250.8</ele>
        <time>2018-09-16T08:31:25Z</time>
      </trkpt>
      <trkpt lat="43.2411950" lon="-3.2290810">
        <ele>251.8</ele>
        <time>2018-09-16T08:31:30Z</time>
      </trkpt>
      <trkpt lat="43.2414320" lon="-3.2289890">
        <ele>252.4</ele>
        <time>2018-09-16T08:31:35Z</time>
      </trkpt>
      <trkpt lat="43.2415700" lon="-3.2289130">
        <ele>253.0</ele>
        <time>2018-09-16T08:31:38Z</time>
      </trkpt>
      <trkpt lat="43.2417080" lon="-3.2288450">
        <ele>254.0</ele>
        <time>2018-09-16T08:31:41Z</time>
      </trkpt>
      <trkpt lat="43.2418010" lon="-3.2288280">
        <ele>254.8</ele>
        <time>2018-09-16T08:31:43Z</time>
      </trkpt>
      <trkpt lat="43.2418990" lon="-3.2288580">
        <ele>255.2</ele>
        <time>2018-09-16T08:31:45Z</time>
      </trkpt>
      <trkpt lat="43.2419880" lon="-3.2289320">
        <ele>255.6</ele>
        <time>2018-09-16T08:31:47Z</time>
      </trkpt>
      <trkpt lat="43.2420550" lon="-3.2290510">
        <ele>256.4</ele>
        <time>2018-09-16T08:31:49Z</time>
      </trkpt>
      <trkpt lat="43.2421590" lon="-3.2294050">
        <ele>257.6</ele>
        <time>2018-09-16T08:31:54Z</time>
      </trkpt>
      <trkpt lat="43.2421760" lon="-3.2294760">
        <ele>257.8</ele>
        <time>2018-09-16T08:31:55Z</time>
      </trkpt>
      <trkpt lat="43.2422270" lon="-3.2296840">
        <ele>258.8</ele>
        <time>2018-09-16T08:31:58Z</time>
      </trkpt>
      <trkpt lat="43.2422740" lon="-3.2298890">
        <ele>259.8</ele>
        <time>2018-09-16T08:32:01Z</time>
      </trkpt>
      <trkpt lat="43.2423030" lon="-3.2301080">
        <ele>260.4</ele>
        <time>2018-09-16T08:32:04Z</time>
      </trkpt>
      <trkpt lat="43.2423030" lon="-3.2301830">
        <ele>260.6</ele>
        <time>2018-09-16T08:32:05Z</time>
      </trkpt>
      <trkpt lat="43.2422910" lon="-3.2303400">
        <ele>261.0</ele>
        <time>2018-09-16T08:32:07Z</time>
      </trkpt>
      <trkpt lat="43.2422550" lon="-3.2304860">
        <ele>261.2</ele>
        <time>2018-09-16T08:32:09Z</time>
      </trkpt>
      <trkpt lat="43.2420590" lon="-3.2308760">
        <ele>261.4</ele>
        <time>2018-09-16T08:32:15Z</time>
      </trkpt>
      <trkpt lat="43.2418750" lon="-3.2311780">
        <ele>262.0</ele>
        <time>2018-09-16T08:32:20Z</time>
      </trkpt>
      <trkpt lat="43.2416990" lon="-3.2314710">
        <ele>262.4</ele>
        <time>2018-09-16T08:32:25Z</time>
      </trkpt>
      <trkpt lat="43.2416690" lon="-3.2315990">
        <ele>262.2</ele>
        <time>2018-09-16T08:32:27Z</time>
      </trkpt>
      <trkpt lat="43.2416950" lon="-3.2317130">
        <ele>262.2</ele>
        <time>2018-09-16T08:32:29Z</time>
      </trkpt>
      <trkpt lat="43.2417770" lon="-3.2317840">
        <ele>262.2</ele>
        <time>2018-09-16T08:32:31Z</time>
      </trkpt>
      <trkpt lat="43.2418800" lon="-3.2318130">
        <ele>262.6</ele>
        <time>2018-09-16T08:32:33Z</time>
      </trkpt>
      <trkpt lat="43.2419860" lon="-3.2318040">
        <ele>263.0</ele>
        <time>2018-09-16T08:32:35Z</time>
      </trkpt>
      <trkpt lat="43.2420380" lon="-3.2318010">
        <ele>263.4</ele>
        <time>2018-09-16T08:32:36Z</time>
      </trkpt>
      <trkpt lat="43.2422890" lon="-3.2317840">
        <ele>264.6</ele>
        <time>2018-09-16T08:32:41Z</time>
      </trkpt>
      <trkpt lat="43.2423410" lon="-3.2317830">
        <ele>264.8</ele>
        <time>2018-09-16T08:32:42Z</time>
      </trkpt>
      <trkpt lat="43.2424940" lon="-3.2318050">
        <ele>265.4</ele>
        <time>2018-09-16T08:32:45Z</time>
      </trkpt>
      <trkpt lat="43.2425900" lon="-3.2318390">
        <ele>265.6</ele>
        <time>2018-09-16T08:32:47Z</time>
      </trkpt>
      <trkpt lat="43.2427730" lon="-3.2319410">
        <ele>266.2</ele>
        <time>2018-09-16T08:32:51Z</time>
      </trkpt>
      <trkpt lat="43.2428850" lon="-3.2320580">
        <ele>266.6</ele>
        <time>2018-09-16T08:32:54Z</time>
      </trkpt>
      <trkpt lat="43.2429190" lon="-3.2321080">
        <ele>266.8</ele>
        <time>2018-09-16T08:32:55Z</time>
      </trkpt>
      <trkpt lat="43.2430670" lon="-3.2324400">
        <ele>267.8</ele>
        <time>2018-09-16T08:33:01Z</time>
      </trkpt>
      <trkpt lat="43.2431590" lon="-3.2326780">
        <ele>268.8</ele>
        <time>2018-09-16T08:33:05Z</time>
      </trkpt>
      <trkpt lat="43.2432070" lon="-3.2329460">
        <ele>269.8</ele>
        <time>2018-09-16T08:33:09Z</time>
      </trkpt>
      <trkpt lat="43.2432150" lon="-3.2330870">
        <ele>270.2</ele>
        <time>2018-09-16T08:33:11Z</time>
      </trkpt>
      <trkpt lat="43.2431930" lon="-3.2332350">
        <ele>270.4</ele>
        <time>2018-09-16T08:33:13Z</time>
      </trkpt>
      <trkpt lat="43.2431510" lon="-3.2333660">
        <ele>270.8</ele>
        <time>2018-09-16T08:33:15Z</time>
      </trkpt>
      <trkpt lat="43.2431230" lon="-3.2334310">
        <ele>271.0</ele>
        <time>2018-09-16T08:33:16Z</time>
      </trkpt>
      <trkpt lat="43.2428630" lon="-3.2340130">
        <ele>271.8</ele>
        <time>2018-09-16T08:33:25Z</time>
      </trkpt>
      <trkpt lat="43.2428370" lon="-3.2340810">
        <ele>272.0</ele>
        <time>2018-09-16T08:33:26Z</time>
      </trkpt>
      <trkpt lat="43.2427890" lon="-3.2342080">
        <ele>272.2</ele>
        <time>2018-09-16T08:33:28Z</time>
      </trkpt>
      <trkpt lat="43.2427740" lon="-3.2343460">
        <ele>272.6</ele>
        <time>2018-09-16T08:33:30Z</time>
      </trkpt>
      <trkpt lat="43.2428150" lon="-3.2344830">
        <ele>272.6</ele>
        <time>2018-09-16T08:33:32Z</time>
      </trkpt>
      <trkpt lat="43.2429130" lon="-3.2345570">
        <ele>273.2</ele>
        <time>2018-09-16T08:33:34Z</time>
      </trkpt>
      <trkpt lat="43.2429670" lon="-3.2345790">
        <ele>273.4</ele>
        <time>2018-09-16T08:33:35Z</time>
      </trkpt>
      <trkpt lat="43.2430770" lon="-3.2346070">
        <ele>274.2</ele>
        <time>2018-09-16T08:33:37Z</time>
      </trkpt>
      <trkpt lat="43.2432420" lon="-3.2346440">
        <ele>275.2</ele>
        <time>2018-09-16T08:33:40Z</time>
      </trkpt>
      <trkpt lat="43.2433510" lon="-3.2346650">
        <ele>275.8</ele>
        <time>2018-09-16T08:33:42Z</time>
      </trkpt>
      <trkpt lat="43.2434590" lon="-3.2346920">
        <ele>276.4</ele>
        <time>2018-09-16T08:33:44Z</time>
      </trkpt>
      <trkpt lat="43.2435130" lon="-3.2347040">
        <ele>276.6</ele>
        <time>2018-09-16T08:33:45Z</time>
      </trkpt>
      <trkpt lat="43.2436890" lon="-3.2347220">
        <ele>277.4</ele>
        <time>2018-09-16T08:33:48Z</time>
      </trkpt>
      <trkpt lat="43.2439150" lon="-3.2347660">
        <ele>278.6</ele>
        <time>2018-09-16T08:33:52Z</time>
      </trkpt>
      <trkpt lat="43.2440770" lon="-3.2348310">
        <ele>279.6</ele>
        <time>2018-09-16T08:33:55Z</time>
      </trkpt>
      <trkpt lat="43.2442180" lon="-3.2349650">
        <ele>280.2</ele>
        <time>2018-09-16T08:33:58Z</time>
      </trkpt>
      <trkpt lat="43.2442930" lon="-3.2350870">
        <ele>280.4</ele>
        <time>2018-09-16T08:34:00Z</time>
      </trkpt>
      <trkpt lat="43.2443200" lon="-3.2351580">
        <ele>280.6</ele>
        <time>2018-09-16T08:34:01Z</time>
      </trkpt>
      <trkpt lat="43.2443400" lon="-3.2352300">
        <ele>280.8</ele>
        <time>2018-09-16T08:34:02Z</time>
      </trkpt>
      <trkpt lat="43.2443580" lon="-3.2353810">
        <ele>281.2</ele>
        <time>2018-09-16T08:34:04Z</time>
      </trkpt>
      <trkpt lat="43.2443570" lon="-3.2354590">
        <ele>281.4</ele>
        <time>2018-09-16T08:34:05Z</time>
      </trkpt>
      <trkpt lat="43.2443500" lon="-3.2355380">
        <ele>281.6</ele>
        <time>2018-09-16T08:34:06Z</time>
      </trkpt>
      <trkpt lat="43.2443380" lon="-3.2356170">
        <ele>282.0</ele>
        <time>2018-09-16T08:34:07Z</time>
      </trkpt>
      <trkpt lat="43.2442880" lon="-3.2358510">
        <ele>283.0</ele>
        <time>2018-09-16T08:34:10Z</time>
      </trkpt>
      <trkpt lat="43.2441840" lon="-3.2362370">
        <ele>284.0</ele>
        <time>2018-09-16T08:34:15Z</time>
      </trkpt>
      <trkpt lat="43.2440690" lon="-3.2367340">
        <ele>285.2</ele>
        <time>2018-09-16T08:34:21Z</time>
      </trkpt>
      <trkpt lat="43.2439900" lon="-3.2370810">
        <ele>286.4</ele>
        <time>2018-09-16T08:34:25Z</time>
      </trkpt>
      <trkpt lat="43.2439510" lon="-3.2372610">
        <ele>287.6</ele>
        <time>2018-09-16T08:34:27Z</time>
      </trkpt>
      <trkpt lat="43.2439030" lon="-3.2375330">
        <ele>288.6</ele>
        <time>2018-09-16T08:34:30Z</time>
      </trkpt>
      <trkpt lat="43.2438110" lon="-3.2379420">
        <ele>289.0</ele>
        <time>2018-09-16T08:34:35Z</time>
      </trkpt>
      <trkpt lat="43.2437730" lon="-3.2380900">
        <ele>289.6</ele>
        <time>2018-09-16T08:34:37Z</time>
      </trkpt>
      <trkpt lat="43.2437230" lon="-3.2382280">
        <ele>291.0</ele>
        <time>2018-09-16T08:34:39Z</time>
      </trkpt>
      <trkpt lat="43.2436280" lon="-3.2384100">
        <ele>292.0</ele>
        <time>2018-09-16T08:34:42Z</time>
      </trkpt>
      <trkpt lat="43.2435880" lon="-3.2384580">
        <ele>292.0</ele>
        <time>2018-09-16T08:34:43Z</time>
      </trkpt>
      <trkpt lat="43.2435030" lon="-3.2385430">
        <ele>291.8</ele>
        <time>2018-09-16T08:34:45Z</time>
      </trkpt>
      <trkpt lat="43.2433590" lon="-3.2386620">
        <ele>291.8</ele>
        <time>2018-09-16T08:34:48Z</time>
      </trkpt>
      <trkpt lat="43.2432470" lon="-3.2386880">
        <ele>291.8</ele>
        <time>2018-09-16T08:34:50Z</time>
      </trkpt>
      <trkpt lat="43.2430920" lon="-3.2386830">
        <ele>291.8</ele>
        <time>2018-09-16T08:34:53Z</time>
      </trkpt>
      <trkpt lat="43.2430140" lon="-3.2386760">
        <ele>291.4</ele>
        <time>2018-09-16T08:34:55Z</time>
      </trkpt>
      <trkpt lat="43.2429900" lon="-3.2386620">
        <ele>291.0</ele>
        <time>2018-09-16T08:34:56Z</time>
      </trkpt>
      <trkpt lat="43.2429790" lon="-3.2386510">
        <ele>290.8</ele>
        <time>2018-09-16T08:34:57Z</time>
      </trkpt>
      <trkpt lat="43.2429770" lon="-3.2386490">
        <ele>290.6</ele>
        <time>2018-09-16T08:34:58Z</time>
      </trkpt>
      <trkpt lat="43.2429430" lon="-3.2386310">
        <ele>287.8</ele>
        <time>2018-09-16T08:35:33Z</time>
      </trkpt>
      <trkpt lat="43.2429030" lon="-3.2386050">
        <ele>287.6</ele>
        <time>2018-09-16T08:35:35Z</time>
      </trkpt>
      <trkpt lat="43.2428190" lon="-3.2385790">
        <ele>287.0</ele>
        <time>2018-09-16T08:35:38Z</time>
      </trkpt>
      <trkpt lat="43.2424800" lon="-3.2384590">
        <ele>286.8</ele>
        <time>2018-09-16T08:35:45Z</time>
      </trkpt>
      <trkpt lat="43.2423580" lon="-3.2384160">
        <ele>286.4</ele>
        <time>2018-09-16T08:35:47Z</time>
      </trkpt>
      <trkpt lat="43.2421610" lon="-3.2383460">
        <ele>286.0</ele>
        <time>2018-09-16T08:35:50Z</time>
      </trkpt>
      <trkpt lat="43.2420270" lon="-3.2383100">
        <ele>285.6</ele>
        <time>2018-09-16T08:35:52Z</time>
      </trkpt>
      <trkpt lat="43.2418850" lon="-3.2382910">
        <ele>285.6</ele>
        <time>2018-09-16T08:35:54Z</time>
      </trkpt>
      <trkpt lat="43.2418110" lon="-3.2382890">
        <ele>285.6</ele>
        <time>2018-09-16T08:35:55Z</time>
      </trkpt>
      <trkpt lat="43.2414350" lon="-3.2382720">
        <ele>284.4</ele>
        <time>2018-09-16T08:36:00Z</time>
      </trkpt>
      <trkpt lat="43.2412770" lon="-3.2382550">
        <ele>283.2</ele>
        <time>2018-09-16T08:36:02Z</time>
      </trkpt>
      <trkpt lat="43.2410250" lon="-3.2382140">
        <ele>282.6</ele>
        <time>2018-09-16T08:36:05Z</time>
      </trkpt>
      <trkpt lat="43.2408480" lon="-3.2381700">
        <ele>281.8</ele>
        <time>2018-09-16T08:36:07Z</time>
      </trkpt>
      <trkpt lat="43.2406650" lon="-3.2381240">
        <ele>280.8</ele>
        <time>2018-09-16T08:36:09Z</time>
      </trkpt>
      <trkpt lat="43.2405760" lon="-3.2381140">
        <ele>280.6</ele>
        <time>2018-09-16T08:36:10Z</time>
      </trkpt>
      <trkpt lat="43.2403980" lon="-3.2381800">
        <ele>280.2</ele>
        <time>2018-09-16T08:36:12Z</time>
      </trkpt>
      <trkpt lat="43.2402700" lon="-3.2383840">
        <ele>279.8</ele>
        <time>2018-09-16T08:36:14Z</time>
      </trkpt>
      <trkpt lat="43.2402370" lon="-3.2385060">
        <ele>279.8</ele>
        <time>2018-09-16T08:36:15Z</time>
      </trkpt>
      <trkpt lat="43.2401920" lon="-3.2387610">
        <ele>279.8</ele>
        <time>2018-09-16T08:36:17Z</time>
      </trkpt>
      <trkpt lat="43.2401520" lon="-3.2390180">
        <ele>280.2</ele>
        <time>2018-09-16T08:36:19Z</time>
      </trkpt>
      <trkpt lat="43.2401280" lon="-3.2391430">
        <ele>280.2</ele>
        <time>2018-09-16T08:36:20Z</time>
      </trkpt>
      <trkpt lat="43.2400310" lon="-3.2395160">
        <ele>280.8</ele>
        <time>2018-09-16T08:36:23Z</time>
      </trkpt>
      <trkpt lat="43.2399550" lon="-3.2397730">
        <ele>280.4</ele>
        <time>2018-09-16T08:36:25Z</time>
      </trkpt>
      <trkpt lat="43.2397980" lon="-3.2402970">
        <ele>278.6</ele>
        <time>2018-09-16T08:36:29Z</time>
      </trkpt>
      <trkpt lat="43.2397260" lon="-3.2405670">
        <ele>277.8</ele>
        <time>2018-09-16T08:36:31Z</time>
      </trkpt>
      <trkpt lat="43.2397130" lon="-3.2407120">
        <ele>277.6</ele>
        <time>2018-09-16T08:36:32Z</time>
      </trkpt>
      <trkpt lat="43.2397170" lon="-3.2408620">
        <ele>277.2</ele>
        <time>2018-09-16T08:36:33Z</time>
      </trkpt>
      <trkpt lat="43.2397610" lon="-3.2411520">
        <ele>276.4</ele>
        <time>2018-09-16T08:36:35Z</time>
      </trkpt>
      <trkpt lat="43.2398510" lon="-3.2414460">
        <ele>275.8</ele>
        <time>2018-09-16T08:36:37Z</time>
      </trkpt>
      <trkpt lat="43.2399070" lon="-3.2415890">
        <ele>275.4</ele>
        <time>2018-09-16T08:36:38Z</time>
      </trkpt>
      <trkpt lat="43.2399720" lon="-3.2417290">
        <ele>275.0</ele>
        <time>2018-09-16T08:36:39Z</time>
      </trkpt>
      <trkpt lat="43.2402270" lon="-3.2422550">
        <ele>274.0</ele>
        <time>2018-09-16T08:36:43Z</time>
      </trkpt>
      <trkpt lat="43.2403570" lon="-3.2425220">
        <ele>273.0</ele>
        <time>2018-09-16T08:36:45Z</time>
      </trkpt>
      <trkpt lat="43.2405420" lon="-3.2429200">
        <ele>272.0</ele>
        <time>2018-09-16T08:36:48Z</time>
      </trkpt>
      <trkpt lat="43.2405850" lon="-3.2430570">
        <ele>271.8</ele>
        <time>2018-09-16T08:36:49Z</time>
      </trkpt>
      <trkpt lat="43.2406090" lon="-3.2432010">
        <ele>271.6</ele>
        <time>2018-09-16T08:36:50Z</time>
      </trkpt>
      <trkpt lat="43.2406110" lon="-3.2434930">
        <ele>271.4</ele>
        <time>2018-09-16T08:36:52Z</time>
      </trkpt>
      <trkpt lat="43.2405940" lon="-3.2437940">
        <ele>270.8</ele>
        <time>2018-09-16T08:36:54Z</time>
      </trkpt>
      <trkpt lat="43.2406140" lon="-3.2439520">
        <ele>270.2</ele>
        <time>2018-09-16T08:36:55Z</time>
      </trkpt>
      <trkpt lat="43.2406580" lon="-3.2441030">
        <ele>269.8</ele>
        <time>2018-09-16T08:36:56Z</time>
      </trkpt>
      <trkpt lat="43.2407290" lon="-3.2442490">
        <ele>269.2</ele>
        <time>2018-09-16T08:36:57Z</time>
      </trkpt>
      <trkpt lat="43.2408820" lon="-3.2445320">
        <ele>267.2</ele>
        <time>2018-09-16T08:36:59Z</time>
      </trkpt>
      <trkpt lat="43.2410290" lon="-3.2448140">
        <ele>265.8</ele>
        <time>2018-09-16T08:37:01Z</time>
      </trkpt>
      <trkpt lat="43.2411770" lon="-3.2451180">
        <ele>265.2</ele>
        <time>2018-09-16T08:37:03Z</time>
      </trkpt>
      <trkpt lat="43.2412590" lon="-3.2452730">
        <ele>264.8</ele>
        <time>2018-09-16T08:37:04Z</time>
      </trkpt>
      <trkpt lat="43.2413490" lon="-3.2454240">
        <ele>264.4</ele>
        <time>2018-09-16T08:37:05Z</time>
      </trkpt>
      <trkpt lat="43.2415360" lon="-3.2457020">
        <ele>263.8</ele>
        <time>2018-09-16T08:37:07Z</time>
      </trkpt>
      <trkpt lat="43.2416360" lon="-3.2458360">
        <ele>263.4</ele>
        <time>2018-09-16T08:37:08Z</time>
      </trkpt>
      <trkpt lat="43.2417450" lon="-3.2459700">
        <ele>262.6</ele>
        <time>2018-09-16T08:37:09Z</time>
      </trkpt>
      <trkpt lat="43.2419720" lon="-3.2462050">
        <ele>260.4</ele>
        <time>2018-09-16T08:37:11Z</time>
      </trkpt>
      <trkpt lat="43.2422060" lon="-3.2464300">
        <ele>258.6</ele>
        <time>2018-09-16T08:37:13Z</time>
      </trkpt>
      <trkpt lat="43.2423930" lon="-3.2467310">
        <ele>257.6</ele>
        <time>2018-09-16T08:37:15Z</time>
      </trkpt>
      <trkpt lat="43.2425310" lon="-3.2470900">
        <ele>256.4</ele>
        <time>2018-09-16T08:37:17Z</time>
      </trkpt>
      <trkpt lat="43.2426500" lon="-3.2474630">
        <ele>255.4</ele>
        <time>2018-09-16T08:37:19Z</time>
      </trkpt>
      <trkpt lat="43.2427340" lon="-3.2478550">
        <ele>253.8</ele>
        <time>2018-09-16T08:37:21Z</time>
      </trkpt>
      <trkpt lat="43.2427410" lon="-3.2482580">
        <ele>252.2</ele>
        <time>2018-09-16T08:37:23Z</time>
      </trkpt>
      <trkpt lat="43.2426770" lon="-3.2486560">
        <ele>250.6</ele>
        <time>2018-09-16T08:37:25Z</time>
      </trkpt>
      <trkpt lat="43.2426480" lon="-3.2488460">
        <ele>249.4</ele>
        <time>2018-09-16T08:37:26Z</time>
      </trkpt>
      <trkpt lat="43.2426230" lon="-3.2490350">
        <ele>248.2</ele>
        <time>2018-09-16T08:37:27Z</time>
      </trkpt>
      <trkpt lat="43.2426140" lon="-3.2492150">
        <ele>247.2</ele>
        <time>2018-09-16T08:37:28Z</time>
      </trkpt>
      <trkpt lat="43.2426300" lon="-3.2493870">
        <ele>246.4</ele>
        <time>2018-09-16T08:37:29Z</time>
      </trkpt>
      <trkpt lat="43.2426870" lon="-3.2495330">
        <ele>246.0</ele>
        <time>2018-09-16T08:37:30Z</time>
      </trkpt>
      <trkpt lat="43.2427630" lon="-3.2496710">
        <ele>245.8</ele>
        <time>2018-09-16T08:37:31Z</time>
      </trkpt>
      <trkpt lat="43.2430840" lon="-3.2502310">
        <ele>246.4</ele>
        <time>2018-09-16T08:37:35Z</time>
      </trkpt>
      <trkpt lat="43.2432980" lon="-3.2508050">
        <ele>247.0</ele>
        <time>2018-09-16T08:37:39Z</time>
      </trkpt>
      <trkpt lat="43.2433550" lon="-3.2512480">
        <ele>246.8</ele>
        <time>2018-09-16T08:37:42Z</time>
      </trkpt>
      <trkpt lat="43.2433430" lon="-3.2516860">
        <ele>246.4</ele>
        <time>2018-09-16T08:37:45Z</time>
      </trkpt>
      <trkpt lat="43.2432900" lon="-3.2519700">
        <ele>245.6</ele>
        <time>2018-09-16T08:37:47Z</time>
      </trkpt>
      <trkpt lat="43.2432500" lon="-3.2521130">
        <ele>245.2</ele>
        <time>2018-09-16T08:37:48Z</time>
      </trkpt>
      <trkpt lat="43.2431540" lon="-3.2524140">
        <ele>244.2</ele>
        <time>2018-09-16T08:37:50Z</time>
      </trkpt>
      <trkpt lat="43.2429860" lon="-3.2528740">
        <ele>242.8</ele>
        <time>2018-09-16T08:37:53Z</time>
      </trkpt>
      <trkpt lat="43.2428550" lon="-3.2531780">
        <ele>241.2</ele>
        <time>2018-09-16T08:37:55Z</time>
      </trkpt>
      <trkpt lat="43.2427120" lon="-3.2534750">
        <ele>239.6</ele>
        <time>2018-09-16T08:37:57Z</time>
      </trkpt>
      <trkpt lat="43.2425960" lon="-3.2537730">
        <ele>238.0</ele>
        <time>2018-09-16T08:37:59Z</time>
      </trkpt>
      <trkpt lat="43.2425960" lon="-3.2540890">
        <ele>236.2</ele>
        <time>2018-09-16T08:38:01Z</time>
      </trkpt>
      <trkpt lat="43.2427230" lon="-3.2543340">
        <ele>235.4</ele>
        <time>2018-09-16T08:38:03Z</time>
      </trkpt>
      <trkpt lat="43.2428260" lon="-3.2544150">
        <ele>235.2</ele>
        <time>2018-09-16T08:38:04Z</time>
      </trkpt>
      <trkpt lat="43.2429390" lon="-3.2544730">
        <ele>235.2</ele>
        <time>2018-09-16T08:38:05Z</time>
      </trkpt>
      <trkpt lat="43.2431720" lon="-3.2545520">
        <ele>234.6</ele>
        <time>2018-09-16T08:38:07Z</time>
      </trkpt>
      <trkpt lat="43.2433940" lon="-3.2545690">
        <ele>234.4</ele>
        <time>2018-09-16T08:38:09Z</time>
      </trkpt>
      <trkpt lat="43.2435030" lon="-3.2545640">
        <ele>234.0</ele>
        <time>2018-09-16T08:38:10Z</time>
      </trkpt>
      <trkpt lat="43.2440390" lon="-3.2545070">
        <ele>233.0</ele>
        <time>2018-09-16T08:38:15Z</time>
      </trkpt>
      <trkpt lat="43.2446330" lon="-3.2544830">
        <ele>233.0</ele>
        <time>2018-09-16T08:38:21Z</time>
      </trkpt>
      <trkpt lat="43.2447250" lon="-3.2545020">
        <ele>233.0</ele>
        <time>2018-09-16T08:38:22Z</time>
      </trkpt>
      <trkpt lat="43.2448880" lon="-3.2545940">
        <ele>233.2</ele>
        <time>2018-09-16T08:38:24Z</time>
      </trkpt>
      <trkpt lat="43.2449510" lon="-3.2546810">
        <ele>233.2</ele>
        <time>2018-09-16T08:38:25Z</time>
      </trkpt>
      <trkpt lat="43.2449940" lon="-3.2547940">
        <ele>233.0</ele>
        <time>2018-09-16T08:38:26Z</time>
      </trkpt>
      <trkpt lat="43.2450090" lon="-3.2550370">
        <ele>232.4</ele>
        <time>2018-09-16T08:38:28Z</time>
      </trkpt>
      <trkpt lat="43.2449430" lon="-3.2552940">
        <ele>232.2</ele>
        <time>2018-09-16T08:38:30Z</time>
      </trkpt>
      <trkpt lat="43.2448290" lon="-3.2557010">
        <ele>232.0</ele>
        <time>2018-09-16T08:38:33Z</time>
      </trkpt>
      <trkpt lat="43.2448240" lon="-3.2559950">
        <ele>231.8</ele>
        <time>2018-09-16T08:38:35Z</time>
      </trkpt>
      <trkpt lat="43.2448750" lon="-3.2564170">
        <ele>230.4</ele>
        <time>2018-09-16T08:38:38Z</time>
      </trkpt>
      <trkpt lat="43.2449400" lon="-3.2570030">
        <ele>229.4</ele>
        <time>2018-09-16T08:38:42Z</time>
      </trkpt>
      <trkpt lat="43.2449510" lon="-3.2573010">
        <ele>229.0</ele>
        <time>2018-09-16T08:38:44Z</time>
      </trkpt>
      <trkpt lat="43.2449470" lon="-3.2574480">
        <ele>228.4</ele>
        <time>2018-09-16T08:38:45Z</time>
      </trkpt>
      <trkpt lat="43.2449120" lon="-3.2577430">
        <ele>227.0</ele>
        <time>2018-09-16T08:38:47Z</time>
      </trkpt>
      <trkpt lat="43.2448570" lon="-3.2580350">
        <ele>225.4</ele>
        <time>2018-09-16T08:38:49Z</time>
      </trkpt>
      <trkpt lat="43.2447910" lon="-3.2583280">
        <ele>224.6</ele>
        <time>2018-09-16T08:38:51Z</time>
      </trkpt>
      <trkpt lat="43.2447550" lon="-3.2584720">
        <ele>224.4</ele>
        <time>2018-09-16T08:38:52Z</time>
      </trkpt>
      <trkpt lat="43.2446540" lon="-3.2589120">
        <ele>223.6</ele>
        <time>2018-09-16T08:38:55Z</time>
      </trkpt>
      <trkpt lat="43.2446220" lon="-3.2590610">
        <ele>223.2</ele>
        <time>2018-09-16T08:38:56Z</time>
      </trkpt>
      <trkpt lat="43.2444850" lon="-3.2596570">
        <ele>221.8</ele>
        <time>2018-09-16T08:39:00Z</time>
      </trkpt>
      <trkpt lat="43.2443800" lon="-3.2601110">
        <ele>220.8</ele>
        <time>2018-09-16T08:39:03Z</time>
      </trkpt>
      <trkpt lat="43.2443100" lon="-3.2604180">
        <ele>220.2</ele>
        <time>2018-09-16T08:39:05Z</time>
      </trkpt>
      <trkpt lat="43.2442460" lon="-3.2607180">
        <ele>219.6</ele>
        <time>2018-09-16T08:39:07Z</time>
      </trkpt>
      <trkpt lat="43.2441580" lon="-3.2611030">
        <ele>218.4</ele>
        <time>2018-09-16T08:39:10Z</time>
      </trkpt>
      <trkpt lat="43.2441380" lon="-3.2612810">
        <ele>216.8</ele>
        <time>2018-09-16T08:39:12Z</time>
      </trkpt>
      <trkpt lat="43.2441750" lon="-3.2613820">
        <ele>215.6</ele>
        <time>2018-09-16T08:39:14Z</time>
      </trkpt>
      <trkpt lat="43.2442160" lon="-3.2613960">
        <ele>215.2</ele>
        <time>2018-09-16T08:39:15Z</time>
      </trkpt>
      <trkpt lat="43.2443260" lon="-3.2613500">
        <ele>215.0</ele>
        <time>2018-09-16T08:39:17Z</time>
      </trkpt>
      <trkpt lat="43.2446200" lon="-3.2611960">
        <ele>215.2</ele>
        <time>2018-09-16T08:39:21Z</time>
      </trkpt>
      <trkpt lat="43.2449340" lon="-3.2610570">
        <ele>215.2</ele>
        <time>2018-09-16T08:39:25Z</time>
      </trkpt>
      <trkpt lat="43.2453390" lon="-3.2608950">
        <ele>214.6</ele>
        <time>2018-09-16T08:39:30Z</time>
      </trkpt>
      <trkpt lat="43.2455210" lon="-3.2608340">
        <ele>213.0</ele>
        <time>2018-09-16T08:39:32Z</time>
      </trkpt>
      <trkpt lat="43.2456180" lon="-3.2608110">
        <ele>211.8</ele>
        <time>2018-09-16T08:39:33Z</time>
      </trkpt>
      <trkpt lat="43.2458230" lon="-3.2607580">
        <ele>209.6</ele>
        <time>2018-09-16T08:39:35Z</time>
      </trkpt>
      <trkpt lat="43.2459270" lon="-3.2607290">
        <ele>208.2</ele>
        <time>2018-09-16T08:39:36Z</time>
      </trkpt>
      <trkpt lat="43.2460320" lon="-3.2606960">
        <ele>206.8</ele>
        <time>2018-09-16T08:39:37Z</time>
      </trkpt>
      <trkpt lat="43.2461380" lon="-3.2606570">
        <ele>205.8</ele>
        <time>2018-09-16T08:39:38Z</time>
      </trkpt>
      <trkpt lat="43.2463480" lon="-3.2605610">
        <ele>204.2</ele>
        <time>2018-09-16T08:39:40Z</time>
      </trkpt>
      <trkpt lat="43.2465510" lon="-3.2604360">
        <ele>203.6</ele>
        <time>2018-09-16T08:39:42Z</time>
      </trkpt>
      <trkpt lat="43.2466440" lon="-3.2603610">
        <ele>203.2</ele>
        <time>2018-09-16T08:39:43Z</time>
      </trkpt>
      <trkpt lat="43.2468210" lon="-3.2601900">
        <ele>202.6</ele>
        <time>2018-09-16T08:39:45Z</time>
      </trkpt>
      <trkpt lat="43.2473190" lon="-3.2598140">
        <ele>203.4</ele>
        <time>2018-09-16T08:39:50Z</time>
      </trkpt>
      <trkpt lat="43.2475400" lon="-3.2596730">
        <ele>203.4</ele>
        <time>2018-09-16T08:39:52Z</time>
      </trkpt>
      <trkpt lat="43.2477740" lon="-3.2595520">
        <ele>203.6</ele>
        <time>2018-09-16T08:39:54Z</time>
      </trkpt>
      <trkpt lat="43.2478980" lon="-3.2595160">
        <ele>203.4</ele>
        <time>2018-09-16T08:39:55Z</time>
      </trkpt>
      <trkpt lat="43.2482900" lon="-3.2594800">
        <ele>202.2</ele>
        <time>2018-09-16T08:39:58Z</time>
      </trkpt>
      <trkpt lat="43.2484200" lon="-3.2594800">
        <ele>202.0</ele>
        <time>2018-09-16T08:39:59Z</time>
      </trkpt>
      <trkpt lat="43.2486780" lon="-3.2594870">
        <ele>201.0</ele>
        <time>2018-09-16T08:40:01Z</time>
      </trkpt>
      <trkpt lat="43.2488030" lon="-3.2595030">
        <ele>200.4</ele>
        <time>2018-09-16T08:40:02Z</time>
      </trkpt>
      <trkpt lat="43.2490530" lon="-3.2595800">
        <ele>199.8</ele>
        <time>2018-09-16T08:40:04Z</time>
      </trkpt>
      <trkpt lat="43.2491760" lon="-3.2596450">
        <ele>199.6</ele>
        <time>2018-09-16T08:40:05Z</time>
      </trkpt>
      <trkpt lat="43.2492900" lon="-3.2597260">
        <ele>199.6</ele>
        <time>2018-09-16T08:40:06Z</time>
      </trkpt>
      <trkpt lat="43.2495250" lon="-3.2599130">
        <ele>200.0</ele>
        <time>2018-09-16T08:40:08Z</time>
      </trkpt>
      <trkpt lat="43.2497600" lon="-3.2601000">
        <ele>200.0</ele>
        <time>2018-09-16T08:40:10Z</time>
      </trkpt>
      <trkpt lat="43.2499910" lon="-3.2602910">
        <ele>200.0</ele>
        <time>2018-09-16T08:40:12Z</time>
      </trkpt>
      <trkpt lat="43.2502280" lon="-3.2604760">
        <ele>200.2</ele>
        <time>2018-09-16T08:40:14Z</time>
      </trkpt>
      <trkpt lat="43.2503520" lon="-3.2605710">
        <ele>199.8</ele>
        <time>2018-09-16T08:40:15Z</time>
      </trkpt>
      <trkpt lat="43.2506010" lon="-3.2607630">
        <ele>199.2</ele>
        <time>2018-09-16T08:40:17Z</time>
      </trkpt>
      <trkpt lat="43.2507260" lon="-3.2608590">
        <ele>198.6</ele>
        <time>2018-09-16T08:40:18Z</time>
      </trkpt>
      <trkpt lat="43.2509690" lon="-3.2610370">
        <ele>197.6</ele>
        <time>2018-09-16T08:40:20Z</time>
      </trkpt>
      <trkpt lat="43.2510950" lon="-3.2611120">
        <ele>197.2</ele>
        <time>2018-09-16T08:40:21Z</time>
      </trkpt>
      <trkpt lat="43.2513490" lon="-3.2612670">
        <ele>196.2</ele>
        <time>2018-09-16T08:40:23Z</time>
      </trkpt>
      <trkpt lat="43.2515820" lon="-3.2614400">
        <ele>195.4</ele>
        <time>2018-09-16T08:40:25Z</time>
      </trkpt>
      <trkpt lat="43.2518030" lon="-3.2616000">
        <ele>194.8</ele>
        <time>2018-09-16T08:40:27Z</time>
      </trkpt>
      <trkpt lat="43.2522120" lon="-3.2619020">
        <ele>194.0</ele>
        <time>2018-09-16T08:40:31Z</time>
      </trkpt>
      <trkpt lat="43.2525010" lon="-3.2621110">
        <ele>193.6</ele>
        <time>2018-09-16T08:40:34Z</time>
      </trkpt>
      <trkpt lat="43.2525930" lon="-3.2621790">
        <ele>193.4</ele>
        <time>2018-09-16T08:40:35Z</time>
      </trkpt>
      <trkpt lat="43.2530410" lon="-3.2625010">
        <ele>193.0</ele>
        <time>2018-09-16T08:40:40Z</time>
      </trkpt>
      <trkpt lat="43.2534640" lon="-3.2627870">
        <ele>193.4</ele>
        <time>2018-09-16T08:40:45Z</time>
      </trkpt>
      <trkpt lat="43.2536350" lon="-3.2628360">
        <ele>193.4</ele>
        <time>2018-09-16T08:40:47Z</time>
      </trkpt>
      <trkpt lat="43.2542180" lon="-3.2628370">
        <ele>193.2</ele>
        <time>2018-09-16T08:40:54Z</time>
      </trkpt>
      <trkpt lat="43.2542990" lon="-3.2628360">
        <ele>193.2</ele>
        <time>2018-09-16T08:40:55Z</time>
      </trkpt>
      <trkpt lat="43.2547430" lon="-3.2628860">
        <ele>193.4</ele>
        <time>2018-09-16T08:41:01Z</time>
      </trkpt>
      <trkpt lat="43.2550120" lon="-3.2629940">
        <ele>193.0</ele>
        <time>2018-09-16T08:41:05Z</time>
      </trkpt>
      <trkpt lat="43.2552070" lon="-3.2631030">
        <ele>192.8</ele>
        <time>2018-09-16T08:41:08Z</time>
      </trkpt>
      <trkpt lat="43.2552710" lon="-3.2631450">
        <ele>192.6</ele>
        <time>2018-09-16T08:41:09Z</time>
      </trkpt>
      <trkpt lat="43.2555220" lon="-3.2633070">
        <ele>192.4</ele>
        <time>2018-09-16T08:41:13Z</time>
      </trkpt>
      <trkpt lat="43.2555800" lon="-3.2633520">
        <ele>192.4</ele>
        <time>2018-09-16T08:41:14Z</time>
      </trkpt>
      <trkpt lat="43.2556340" lon="-3.2634020">
        <ele>192.4</ele>
        <time>2018-09-16T08:41:15Z</time>
      </trkpt>
      <trkpt lat="43.2557730" lon="-3.2635530">
        <ele>192.4</ele>
        <time>2018-09-16T08:41:18Z</time>
      </trkpt>
      <trkpt lat="43.2558710" lon="-3.2637100">
        <ele>192.0</ele>
        <time>2018-09-16T08:41:22Z</time>
      </trkpt>
      <trkpt lat="43.2558840" lon="-3.2637740">
        <ele>191.6</ele>
        <time>2018-09-16T08:41:25Z</time>
      </trkpt>
      <trkpt lat="43.2558900" lon="-3.2637860">
        <ele>191.6</ele>
        <time>2018-09-16T08:41:26Z</time>
      </trkpt>
      <trkpt lat="43.2558950" lon="-3.2637950">
        <ele>191.2</ele>
        <time>2018-09-16T08:41:28Z</time>
      </trkpt>
      <trkpt lat="43.2557920" lon="-3.2636790">
        <ele>175.6</ele>
        <time>2018-09-16T09:08:27Z</time>
      </trkpt>
      <trkpt lat="43.2557910" lon="-3.2636780">
        <ele>175.8</ele>
        <time>2018-09-16T09:08:28Z</time>
      </trkpt>
      <trkpt lat="43.2557570" lon="-3.2636490">
        <ele>175.6</ele>
        <time>2018-09-16T09:08:31Z</time>
      </trkpt>
      <trkpt lat="43.2557170" lon="-3.2635910">
        <ele>175.8</ele>
        <time>2018-09-16T09:08:35Z</time>
      </trkpt>
      <trkpt lat="43.2556570" lon="-3.2635500">
        <ele>176.0</ele>
        <time>2018-09-16T09:08:38Z</time>
      </trkpt>
      <trkpt lat="43.2555180" lon="-3.2634440">
        <ele>176.4</ele>
        <time>2018-09-16T09:08:43Z</time>
      </trkpt>
      <trkpt lat="43.2554410" lon="-3.2633770">
        <ele>176.6</ele>
        <time>2018-09-16T09:08:46Z</time>
      </trkpt>
      <trkpt lat="43.2551960" lon="-3.2631870">
        <ele>177.8</ele>
        <time>2018-09-16T09:08:54Z</time>
      </trkpt>
      <trkpt lat="43.2551200" lon="-3.2631410">
        <ele>178.2</ele>
        <time>2018-09-16T09:08:56Z</time>
      </trkpt>
      <trkpt lat="43.2550110" lon="-3.2630740">
        <ele>179.0</ele>
        <time>2018-09-16T09:08:59Z</time>
      </trkpt>
      <trkpt lat="43.2547150" lon="-3.2629340">
        <ele>180.2</ele>
        <time>2018-09-16T09:09:06Z</time>
      </trkpt>
      <trkpt lat="43.2543790" lon="-3.2629090">
        <ele>180.8</ele>
        <time>2018-09-16T09:09:13Z</time>
      </trkpt>
      <trkpt lat="43.2537930" lon="-3.2629080">
        <ele>181.0</ele>
        <time>2018-09-16T09:09:23Z</time>
      </trkpt>
      <trkpt lat="43.2534960" lon="-3.2628870">
        <ele>181.0</ele>
        <time>2018-09-16T09:09:28Z</time>
      </trkpt>
      <trkpt lat="43.2534360" lon="-3.2628660">
        <ele>181.2</ele>
        <time>2018-09-16T09:09:29Z</time>
      </trkpt>
      <trkpt lat="43.2531520" lon="-3.2626940">
        <ele>181.8</ele>
        <time>2018-09-16T09:09:34Z</time>
      </trkpt>
      <trkpt lat="43.2530350" lon="-3.2626110">
        <ele>181.6</ele>
        <time>2018-09-16T09:09:36Z</time>
      </trkpt>
      <trkpt lat="43.2526090" lon="-3.2622940">
        <ele>181.0</ele>
        <time>2018-09-16T09:09:43Z</time>
      </trkpt>
      <trkpt lat="43.2522400" lon="-3.2620300">
        <ele>181.0</ele>
        <time>2018-09-16T09:09:49Z</time>
      </trkpt>
      <trkpt lat="43.2521210" lon="-3.2619460">
        <ele>181.0</ele>
        <time>2018-09-16T09:09:51Z</time>
      </trkpt>
      <trkpt lat="43.2519500" lon="-3.2618220">
        <ele>181.2</ele>
        <time>2018-09-16T09:09:54Z</time>
      </trkpt>
      <trkpt lat="43.2517710" lon="-3.2616960">
        <ele>181.6</ele>
        <time>2018-09-16T09:09:57Z</time>
      </trkpt>
      <trkpt lat="43.2516000" lon="-3.2615760">
        <ele>182.2</ele>
        <time>2018-09-16T09:10:00Z</time>
      </trkpt>
      <trkpt lat="43.2515440" lon="-3.2615350">
        <ele>182.2</ele>
        <time>2018-09-16T09:10:01Z</time>
      </trkpt>
      <trkpt lat="43.2510970" lon="-3.2612080">
        <ele>183.4</ele>
        <time>2018-09-16T09:10:09Z</time>
      </trkpt>
      <trkpt lat="43.2507670" lon="-3.2609630">
        <ele>184.2</ele>
        <time>2018-09-16T09:10:15Z</time>
      </trkpt>
      <trkpt lat="43.2506570" lon="-3.2608820">
        <ele>184.4</ele>
        <time>2018-09-16T09:10:17Z</time>
      </trkpt>
      <trkpt lat="43.2506040" lon="-3.2608410">
        <ele>184.6</ele>
        <time>2018-09-16T09:10:18Z</time>
      </trkpt>
      <trkpt lat="43.2502350" lon="-3.2605800">
        <ele>185.6</ele>
        <time>2018-09-16T09:10:25Z</time>
      </trkpt>
      <trkpt lat="43.2498730" lon="-3.2603200">
        <ele>186.8</ele>
        <time>2018-09-16T09:10:32Z</time>
      </trkpt>
      <trkpt lat="43.2497120" lon="-3.2601970">
        <ele>187.4</ele>
        <time>2018-09-16T09:10:35Z</time>
      </trkpt>
      <trkpt lat="43.2492120" lon="-3.2597860">
        <ele>187.4</ele>
        <time>2018-09-16T09:10:44Z</time>
      </trkpt>
      <trkpt lat="43.2490270" lon="-3.2596600">
        <ele>187.6</ele>
        <time>2018-09-16T09:10:47Z</time>
      </trkpt>
      <trkpt lat="43.2487660" lon="-3.2595910">
        <ele>188.0</ele>
        <time>2018-09-16T09:10:51Z</time>
      </trkpt>
      <trkpt lat="43.2484410" lon="-3.2595960">
        <ele>189.0</ele>
        <time>2018-09-16T09:10:56Z</time>
      </trkpt>
      <trkpt lat="43.2483790" lon="-3.2595960">
        <ele>189.0</ele>
        <time>2018-09-16T09:10:57Z</time>
      </trkpt>
      <trkpt lat="43.2481350" lon="-3.2595800">
        <ele>190.2</ele>
        <time>2018-09-16T09:11:01Z</time>
      </trkpt>
      <trkpt lat="43.2477950" lon="-3.2596230">
        <ele>191.6</ele>
        <time>2018-09-16T09:11:07Z</time>
      </trkpt>
      <trkpt lat="43.2475920" lon="-3.2597160">
        <ele>192.4</ele>
        <time>2018-09-16T09:11:11Z</time>
      </trkpt>
      <trkpt lat="43.2475440" lon="-3.2597480">
        <ele>192.8</ele>
        <time>2018-09-16T09:11:12Z</time>
      </trkpt>
      <trkpt lat="43.2473620" lon="-3.2598730">
        <ele>193.6</ele>
        <time>2018-09-16T09:11:16Z</time>
      </trkpt>
      <trkpt lat="43.2473170" lon="-3.2599040">
        <ele>193.8</ele>
        <time>2018-09-16T09:11:17Z</time>
      </trkpt>
      <trkpt lat="43.2471300" lon="-3.2600270">
        <ele>195.0</ele>
        <time>2018-09-16T09:11:21Z</time>
      </trkpt>
      <trkpt lat="43.2469480" lon="-3.2601530">
        <ele>196.2</ele>
        <time>2018-09-16T09:11:25Z</time>
      </trkpt>
      <trkpt lat="43.2467690" lon="-3.2603020">
        <ele>197.4</ele>
        <time>2018-09-16T09:11:29Z</time>
      </trkpt>
      <trkpt lat="43.2465930" lon="-3.2604610">
        <ele>198.4</ele>
        <time>2018-09-16T09:11:33Z</time>
      </trkpt>
      <trkpt lat="43.2464510" lon="-3.2605570">
        <ele>199.4</ele>
        <time>2018-09-16T09:11:36Z</time>
      </trkpt>
      <trkpt lat="43.2462090" lon="-3.2606690">
        <ele>200.6</ele>
        <time>2018-09-16T09:11:41Z</time>
      </trkpt>
      <trkpt lat="43.2459780" lon="-3.2607410">
        <ele>202.0</ele>
        <time>2018-09-16T09:11:46Z</time>
      </trkpt>
      <trkpt lat="43.2458450" lon="-3.2607830">
        <ele>203.0</ele>
        <time>2018-09-16T09:11:49Z</time>
      </trkpt>
      <trkpt lat="43.2457180" lon="-3.2608070">
        <ele>204.2</ele>
        <time>2018-09-16T09:11:52Z</time>
      </trkpt>
      <trkpt lat="43.2455930" lon="-3.2608380">
        <ele>205.6</ele>
        <time>2018-09-16T09:11:55Z</time>
      </trkpt>
      <trkpt lat="43.2454110" lon="-3.2608880">
        <ele>206.6</ele>
        <time>2018-09-16T09:11:59Z</time>
      </trkpt>
      <trkpt lat="43.2452770" lon="-3.2609230">
        <ele>207.6</ele>
        <time>2018-09-16T09:12:02Z</time>
      </trkpt>
      <trkpt lat="43.2450910" lon="-3.2609950">
        <ele>208.6</ele>
        <time>2018-09-16T09:12:06Z</time>
      </trkpt>
      <trkpt lat="43.2449180" lon="-3.2610700">
        <ele>209.8</ele>
        <time>2018-09-16T09:12:10Z</time>
      </trkpt>
      <trkpt lat="43.2446280" lon="-3.2611870">
        <ele>211.0</ele>
        <time>2018-09-16T09:12:16Z</time>
      </trkpt>
      <trkpt lat="43.2442480" lon="-3.2613580">
        <ele>211.8</ele>
        <time>2018-09-16T09:12:25Z</time>
      </trkpt>
      <trkpt lat="43.2441600" lon="-3.2613820">
        <ele>211.8</ele>
        <time>2018-09-16T09:12:28Z</time>
      </trkpt>
      <trkpt lat="43.2440980" lon="-3.2613520">
        <ele>211.8</ele>
        <time>2018-09-16T09:12:31Z</time>
      </trkpt>
      <trkpt lat="43.2440980" lon="-3.2612080">
        <ele>212.0</ele>
        <time>2018-09-16T09:12:34Z</time>
      </trkpt>
      <trkpt lat="43.2441210" lon="-3.2610840">
        <ele>212.6</ele>
        <time>2018-09-16T09:12:36Z</time>
      </trkpt>
      <trkpt lat="43.2441360" lon="-3.2610230">
        <ele>212.8</ele>
        <time>2018-09-16T09:12:37Z</time>
      </trkpt>
      <trkpt lat="43.2441650" lon="-3.2609040">
        <ele>213.0</ele>
        <time>2018-09-16T09:12:39Z</time>
      </trkpt>
      <trkpt lat="43.2442380" lon="-3.2606000">
        <ele>214.0</ele>
        <time>2018-09-16T09:12:44Z</time>
      </trkpt>
      <trkpt lat="43.2442540" lon="-3.2605420">
        <ele>214.2</ele>
        <time>2018-09-16T09:12:45Z</time>
      </trkpt>
      <trkpt lat="43.2442690" lon="-3.2604820">
        <ele>214.4</ele>
        <time>2018-09-16T09:12:46Z</time>
      </trkpt>
      <trkpt lat="43.2443100" lon="-3.2603060">
        <ele>215.4</ele>
        <time>2018-09-16T09:12:49Z</time>
      </trkpt>
      <trkpt lat="43.2443960" lon="-3.2598750">
        <ele>216.6</ele>
        <time>2018-09-16T09:12:56Z</time>
      </trkpt>
      <trkpt lat="43.2445090" lon="-3.2594400">
        <ele>217.8</ele>
        <time>2018-09-16T09:13:03Z</time>
      </trkpt>
      <trkpt lat="43.2445800" lon="-3.2591260">
        <ele>218.8</ele>
        <time>2018-09-16T09:13:08Z</time>
      </trkpt>
      <trkpt lat="43.2446770" lon="-3.2586550">
        <ele>220.0</ele>
        <time>2018-09-16T09:13:15Z</time>
      </trkpt>
      <trkpt lat="43.2447530" lon="-3.2583840">
        <ele>221.0</ele>
        <time>2018-09-16T09:13:19Z</time>
      </trkpt>
      <trkpt lat="43.2448030" lon="-3.2581830">
        <ele>222.2</ele>
        <time>2018-09-16T09:13:22Z</time>
      </trkpt>
      <trkpt lat="43.2449120" lon="-3.2577030">
        <ele>222.8</ele>
        <time>2018-09-16T09:13:29Z</time>
      </trkpt>
      <trkpt lat="43.2449500" lon="-3.2573500">
        <ele>223.2</ele>
        <time>2018-09-16T09:13:34Z</time>
      </trkpt>
      <trkpt lat="43.2449420" lon="-3.2571290">
        <ele>223.2</ele>
        <time>2018-09-16T09:13:37Z</time>
      </trkpt>
      <trkpt lat="43.2449330" lon="-3.2570580">
        <ele>223.4</ele>
        <time>2018-09-16T09:13:38Z</time>
      </trkpt>
      <trkpt lat="43.2448970" lon="-3.2567810">
        <ele>224.4</ele>
        <time>2018-09-16T09:13:42Z</time>
      </trkpt>
      <trkpt lat="43.2448640" lon="-3.2565750">
        <ele>225.6</ele>
        <time>2018-09-16T09:13:45Z</time>
      </trkpt>
      <trkpt lat="43.2447800" lon="-3.2560780">
        <ele>226.6</ele>
        <time>2018-09-16T09:13:52Z</time>
      </trkpt>
      <trkpt lat="43.2447420" lon="-3.2557920">
        <ele>227.8</ele>
        <time>2018-09-16T09:13:56Z</time>
      </trkpt>
      <trkpt lat="43.2447400" lon="-3.2557250">
        <ele>228.0</ele>
        <time>2018-09-16T09:13:57Z</time>
      </trkpt>
      <trkpt lat="43.2447560" lon="-3.2555950">
        <ele>228.8</ele>
        <time>2018-09-16T09:13:59Z</time>
      </trkpt>
      <trkpt lat="43.2447690" lon="-3.2555310">
        <ele>229.0</ele>
        <time>2018-09-16T09:14:00Z</time>
      </trkpt>
      <trkpt lat="43.2448540" lon="-3.2551960">
        <ele>230.0</ele>
        <time>2018-09-16T09:14:05Z</time>
      </trkpt>
      <trkpt lat="43.2449000" lon="-3.2549780">
        <ele>231.0</ele>
        <time>2018-09-16T09:14:08Z</time>
      </trkpt>
      <trkpt lat="43.2449080" lon="-3.2548420">
        <ele>231.6</ele>
        <time>2018-09-16T09:14:10Z</time>
      </trkpt>
      <trkpt lat="43.2448810" lon="-3.2547220">
        <ele>231.8</ele>
        <time>2018-09-16T09:14:12Z</time>
      </trkpt>
      <trkpt lat="43.2448270" lon="-3.2546140">
        <ele>231.8</ele>
        <time>2018-09-16T09:14:14Z</time>
      </trkpt>
      <trkpt lat="43.2447450" lon="-3.2545450">
        <ele>232.2</ele>
        <time>2018-09-16T09:14:16Z</time>
      </trkpt>
      <trkpt lat="43.2446490" lon="-3.2545100">
        <ele>232.8</ele>
        <time>2018-09-16T09:14:18Z</time>
      </trkpt>
      <trkpt lat="43.2445540" lon="-3.2544930">
        <ele>233.4</ele>
        <time>2018-09-16T09:14:20Z</time>
      </trkpt>
      <trkpt lat="43.2445050" lon="-3.2544920">
        <ele>233.6</ele>
        <time>2018-09-16T09:14:21Z</time>
      </trkpt>
      <trkpt lat="43.2442480" lon="-3.2545140">
        <ele>234.4</ele>
        <time>2018-09-16T09:14:26Z</time>
      </trkpt>
      <trkpt lat="43.2438900" lon="-3.2545630">
        <ele>235.6</ele>
        <time>2018-09-16T09:14:33Z</time>
      </trkpt>
      <trkpt lat="43.2433520" lon="-3.2546360">
        <ele>236.4</ele>
        <time>2018-09-16T09:14:43Z</time>
      </trkpt>
      <trkpt lat="43.2432510" lon="-3.2546300">
        <ele>236.4</ele>
        <time>2018-09-16T09:14:45Z</time>
      </trkpt>
      <trkpt lat="43.2431490" lon="-3.2546000">
        <ele>236.6</ele>
        <time>2018-09-16T09:14:47Z</time>
      </trkpt>
      <trkpt lat="43.2430980" lon="-3.2545810">
        <ele>236.6</ele>
        <time>2018-09-16T09:14:48Z</time>
      </trkpt>
      <trkpt lat="43.2428450" lon="-3.2544260">
        <ele>237.0</ele>
        <time>2018-09-16T09:14:53Z</time>
      </trkpt>
      <trkpt lat="43.2427520" lon="-3.2543390">
        <ele>237.2</ele>
        <time>2018-09-16T09:14:55Z</time>
      </trkpt>
      <trkpt lat="43.2426390" lon="-3.2541660">
        <ele>237.6</ele>
        <time>2018-09-16T09:14:58Z</time>
      </trkpt>
      <trkpt lat="43.2425890" lon="-3.2540210">
        <ele>237.4</ele>
        <time>2018-09-16T09:15:00Z</time>
      </trkpt>
      <trkpt lat="43.2425690" lon="-3.2538690">
        <ele>237.2</ele>
        <time>2018-09-16T09:15:02Z</time>
      </trkpt>
      <trkpt lat="43.2425660" lon="-3.2537920">
        <ele>237.0</ele>
        <time>2018-09-16T09:15:03Z</time>
      </trkpt>
      <trkpt lat="43.2425810" lon="-3.2536440">
        <ele>237.0</ele>
        <time>2018-09-16T09:15:05Z</time>
      </trkpt>
      <trkpt lat="43.2426230" lon="-3.2535060">
        <ele>237.4</ele>
        <time>2018-09-16T09:15:07Z</time>
      </trkpt>
      <trkpt lat="43.2426780" lon="-3.2533770">
        <ele>237.6</ele>
        <time>2018-09-16T09:15:09Z</time>
      </trkpt>
      <trkpt lat="43.2428510" lon="-3.2529680">
        <ele>238.8</ele>
        <time>2018-09-16T09:15:16Z</time>
      </trkpt>
      <trkpt lat="43.2429370" lon="-3.2527410">
        <ele>239.8</ele>
        <time>2018-09-16T09:15:20Z</time>
      </trkpt>
      <trkpt lat="43.2430260" lon="-3.2525140">
        <ele>240.6</ele>
        <time>2018-09-16T09:15:24Z</time>
      </trkpt>
      <trkpt lat="43.2430880" lon="-3.2523420">
        <ele>241.0</ele>
        <time>2018-09-16T09:15:27Z</time>
      </trkpt>
      <trkpt lat="43.2432050" lon="-3.2519870">
        <ele>242.0</ele>
        <time>2018-09-16T09:15:33Z</time>
      </trkpt>
      <trkpt lat="43.2432780" lon="-3.2516950">
        <ele>243.2</ele>
        <time>2018-09-16T09:15:38Z</time>
      </trkpt>
      <trkpt lat="43.2433170" lon="-3.2512440">
        <ele>244.2</ele>
        <time>2018-09-16T09:15:45Z</time>
      </trkpt>
      <trkpt lat="43.2431900" lon="-3.2505150">
        <ele>245.0</ele>
        <time>2018-09-16T09:15:56Z</time>
      </trkpt>
      <trkpt lat="43.2429410" lon="-3.2500010">
        <ele>244.8</ele>
        <time>2018-09-16T09:16:04Z</time>
      </trkpt>
      <trkpt lat="43.2428360" lon="-3.2498200">
        <ele>244.6</ele>
        <time>2018-09-16T09:16:07Z</time>
      </trkpt>
      <trkpt lat="43.2426700" lon="-3.2495270">
        <ele>244.4</ele>
        <time>2018-09-16T09:16:12Z</time>
      </trkpt>
      <trkpt lat="43.2425630" lon="-3.2492910">
        <ele>244.8</ele>
        <time>2018-09-16T09:16:16Z</time>
      </trkpt>
      <trkpt lat="43.2425400" lon="-3.2491670">
        <ele>244.8</ele>
        <time>2018-09-16T09:16:18Z</time>
      </trkpt>
      <trkpt lat="43.2425430" lon="-3.2490430">
        <ele>245.0</ele>
        <time>2018-09-16T09:16:20Z</time>
      </trkpt>
      <trkpt lat="43.2425790" lon="-3.2487940">
        <ele>245.4</ele>
        <time>2018-09-16T09:16:24Z</time>
      </trkpt>
      <trkpt lat="43.2426140" lon="-3.2485200">
        <ele>246.4</ele>
        <time>2018-09-16T09:16:28Z</time>
      </trkpt>
      <trkpt lat="43.2426360" lon="-3.2483190">
        <ele>247.4</ele>
        <time>2018-09-16T09:16:31Z</time>
      </trkpt>
      <trkpt lat="43.2426430" lon="-3.2482560">
        <ele>247.6</ele>
        <time>2018-09-16T09:16:32Z</time>
      </trkpt>
      <trkpt lat="43.2426670" lon="-3.2480010">
        <ele>248.8</ele>
        <time>2018-09-16T09:16:36Z</time>
      </trkpt>
      <trkpt lat="43.2426590" lon="-3.2478070">
        <ele>249.2</ele>
        <time>2018-09-16T09:16:39Z</time>
      </trkpt>
      <trkpt lat="43.2426120" lon="-3.2476230">
        <ele>250.0</ele>
        <time>2018-09-16T09:16:42Z</time>
      </trkpt>
      <trkpt lat="43.2425320" lon="-3.2473820">
        <ele>251.2</ele>
        <time>2018-09-16T09:16:46Z</time>
      </trkpt>
      <trkpt lat="43.2424200" lon="-3.2470130">
        <ele>252.2</ele>
        <time>2018-09-16T09:16:52Z</time>
      </trkpt>
      <trkpt lat="43.2423210" lon="-3.2467230">
        <ele>253.4</ele>
        <time>2018-09-16T09:16:57Z</time>
      </trkpt>
      <trkpt lat="43.2422010" lon="-3.2464600">
        <ele>254.2</ele>
        <time>2018-09-16T09:17:02Z</time>
      </trkpt>
      <trkpt lat="43.2421700" lon="-3.2464160">
        <ele>254.4</ele>
        <time>2018-09-16T09:17:03Z</time>
      </trkpt>
      <trkpt lat="43.2420140" lon="-3.2462710">
        <ele>255.6</ele>
        <time>2018-09-16T09:17:07Z</time>
      </trkpt>
      <trkpt lat="43.2418930" lon="-3.2461760">
        <ele>256.6</ele>
        <time>2018-09-16T09:17:10Z</time>
      </trkpt>
      <trkpt lat="43.2416300" lon="-3.2458750">
        <ele>257.8</ele>
        <time>2018-09-16T09:17:17Z</time>
      </trkpt>
      <trkpt lat="43.2414940" lon="-3.2456830">
        <ele>259.0</ele>
        <time>2018-09-16T09:17:21Z</time>
      </trkpt>
      <trkpt lat="43.2413540" lon="-3.2454730">
        <ele>260.2</ele>
        <time>2018-09-16T09:17:25Z</time>
      </trkpt>
      <trkpt lat="43.2411360" lon="-3.2450690">
        <ele>261.4</ele>
        <time>2018-09-16T09:17:32Z</time>
      </trkpt>
      <trkpt lat="43.2410230" lon="-3.2448530">
        <ele>262.6</ele>
        <time>2018-09-16T09:17:36Z</time>
      </trkpt>
      <trkpt lat="43.2409730" lon="-3.2447440">
        <ele>263.6</ele>
        <time>2018-09-16T09:17:38Z</time>
      </trkpt>
      <trkpt lat="43.2408690" lon="-3.2445350">
        <ele>264.8</ele>
        <time>2018-09-16T09:17:42Z</time>
      </trkpt>
      <trkpt lat="43.2407630" lon="-3.2443140">
        <ele>265.8</ele>
        <time>2018-09-16T09:17:46Z</time>
      </trkpt>
      <trkpt lat="43.2405990" lon="-3.2438660">
        <ele>266.8</ele>
        <time>2018-09-16T09:17:54Z</time>
      </trkpt>
      <trkpt lat="43.2405910" lon="-3.2438030">
        <ele>267.0</ele>
        <time>2018-09-16T09:17:55Z</time>
      </trkpt>
      <trkpt lat="43.2405890" lon="-3.2436060">
        <ele>268.0</ele>
        <time>2018-09-16T09:17:58Z</time>
      </trkpt>
      <trkpt lat="43.2406160" lon="-3.2433630">
        <ele>269.0</ele>
        <time>2018-09-16T09:18:02Z</time>
      </trkpt>
      <trkpt lat="43.2406220" lon="-3.2431070">
        <ele>270.0</ele>
        <time>2018-09-16T09:18:06Z</time>
      </trkpt>
      <trkpt lat="43.2406100" lon="-3.2430400">
        <ele>270.0</ele>
        <time>2018-09-16T09:18:07Z</time>
      </trkpt>
      <trkpt lat="43.2405920" lon="-3.2429740">
        <ele>270.2</ele>
        <time>2018-09-16T09:18:08Z</time>
      </trkpt>
      <trkpt lat="43.2405490" lon="-3.2428450">
        <ele>270.4</ele>
        <time>2018-09-16T09:18:10Z</time>
      </trkpt>
      <trkpt lat="43.2403800" lon="-3.2424860">
        <ele>270.8</ele>
        <time>2018-09-16T09:18:16Z</time>
      </trkpt>
      <trkpt lat="43.2402170" lon="-3.2421320">
        <ele>271.2</ele>
        <time>2018-09-16T09:18:22Z</time>
      </trkpt>
      <trkpt lat="43.2401220" lon="-3.2419050">
        <ele>272.4</ele>
        <time>2018-09-16T09:18:26Z</time>
      </trkpt>
      <trkpt lat="43.2398910" lon="-3.2414480">
        <ele>273.8</ele>
        <time>2018-09-16T09:18:34Z</time>
      </trkpt>
      <trkpt lat="43.2398390" lon="-3.2413260">
        <ele>274.8</ele>
        <time>2018-09-16T09:18:36Z</time>
      </trkpt>
      <trkpt lat="43.2397310" lon="-3.2409400">
        <ele>275.8</ele>
        <time>2018-09-16T09:18:42Z</time>
      </trkpt>
      <trkpt lat="43.2396940" lon="-3.2406690">
        <ele>276.4</ele>
        <time>2018-09-16T09:18:46Z</time>
      </trkpt>
      <trkpt lat="43.2397100" lon="-3.2404600">
        <ele>277.0</ele>
        <time>2018-09-16T09:18:49Z</time>
      </trkpt>
      <trkpt lat="43.2397440" lon="-3.2403200">
        <ele>277.4</ele>
        <time>2018-09-16T09:18:51Z</time>
      </trkpt>
      <trkpt lat="43.2397860" lon="-3.2401990">
        <ele>278.0</ele>
        <time>2018-09-16T09:18:53Z</time>
      </trkpt>
      <trkpt lat="43.2398770" lon="-3.2398780">
        <ele>279.2</ele>
        <time>2018-09-16T09:18:58Z</time>
      </trkpt>
      <trkpt lat="43.2399940" lon="-3.2394460">
        <ele>280.2</ele>
        <time>2018-09-16T09:19:05Z</time>
      </trkpt>
      <trkpt lat="43.2400820" lon="-3.2391180">
        <ele>281.4</ele>
        <time>2018-09-16T09:19:10Z</time>
      </trkpt>
      <trkpt lat="43.2402110" lon="-3.2384350">
        <ele>282.4</ele>
        <time>2018-09-16T09:19:19Z</time>
      </trkpt>
      <trkpt lat="43.2402510" lon="-3.2382910">
        <ele>282.4</ele>
        <time>2018-09-16T09:19:21Z</time>
      </trkpt>
      <trkpt lat="43.2403210" lon="-3.2381700">
        <ele>282.4</ele>
        <time>2018-09-16T09:19:23Z</time>
      </trkpt>
      <trkpt lat="43.2404200" lon="-3.2380850">
        <ele>282.0</ele>
        <time>2018-09-16T09:19:25Z</time>
      </trkpt>
      <trkpt lat="43.2405220" lon="-3.2380530">
        <ele>281.8</ele>
        <time>2018-09-16T09:19:27Z</time>
      </trkpt>
      <trkpt lat="43.2410060" lon="-3.2381690">
        <ele>283.2</ele>
        <time>2018-09-16T09:19:36Z</time>
      </trkpt>
      <trkpt lat="43.2411070" lon="-3.2381960">
        <ele>283.4</ele>
        <time>2018-09-16T09:19:38Z</time>
      </trkpt>
      <trkpt lat="43.2414240" lon="-3.2382280">
        <ele>284.6</ele>
        <time>2018-09-16T09:19:45Z</time>
      </trkpt>
      <trkpt lat="43.2416750" lon="-3.2382300">
        <ele>286.0</ele>
        <time>2018-09-16T09:19:50Z</time>
      </trkpt>
      <trkpt lat="43.2420110" lon="-3.2382470">
        <ele>287.0</ele>
        <time>2018-09-16T09:19:56Z</time>
      </trkpt>
      <trkpt lat="43.2423360" lon="-3.2383400">
        <ele>287.8</ele>
        <time>2018-09-16T09:20:02Z</time>
      </trkpt>
      <trkpt lat="43.2428150" lon="-3.2384890">
        <ele>287.8</ele>
        <time>2018-09-16T09:20:10Z</time>
      </trkpt>
      <trkpt lat="43.2430390" lon="-3.2385490">
        <ele>288.0</ele>
        <time>2018-09-16T09:20:14Z</time>
      </trkpt>
      <trkpt lat="43.2432590" lon="-3.2385880">
        <ele>288.4</ele>
        <time>2018-09-16T09:20:18Z</time>
      </trkpt>
      <trkpt lat="43.2433620" lon="-3.2385700">
        <ele>288.8</ele>
        <time>2018-09-16T09:20:20Z</time>
      </trkpt>
      <trkpt lat="43.2434630" lon="-3.2385120">
        <ele>289.0</ele>
        <time>2018-09-16T09:20:22Z</time>
      </trkpt>
      <trkpt lat="43.2435860" lon="-3.2383890">
        <ele>289.2</ele>
        <time>2018-09-16T09:20:25Z</time>
      </trkpt>
      <trkpt lat="43.2436400" lon="-3.2383060">
        <ele>289.2</ele>
        <time>2018-09-16T09:20:27Z</time>
      </trkpt>
      <trkpt lat="43.2436690" lon="-3.2382290">
        <ele>289.2</ele>
        <time>2018-09-16T09:20:29Z</time>
      </trkpt>
      <trkpt lat="43.2436720" lon="-3.2381420">
        <ele>289.4</ele>
        <time>2018-09-16T09:20:32Z</time>
      </trkpt>
      <trkpt lat="43.2436870" lon="-3.2381240">
        <ele>289.4</ele>
        <time>2018-09-16T09:20:35Z</time>
      </trkpt>
      <trkpt lat="43.2437310" lon="-3.2381050">
        <ele>267.4</ele>
        <time>2018-09-16T09:22:29Z</time>
      </trkpt>
      <trkpt lat="43.2437460" lon="-3.2380890">
        <ele>267.2</ele>
        <time>2018-09-16T09:22:30Z</time>
      </trkpt>
      <trkpt lat="43.2438320" lon="-3.2377780">
        <ele>267.2</ele>
        <time>2018-09-16T09:22:37Z</time>
      </trkpt>
      <trkpt lat="43.2438540" lon="-3.2376540">
        <ele>267.6</ele>
        <time>2018-09-16T09:22:39Z</time>
      </trkpt>
      <trkpt lat="43.2438860" lon="-3.2375200">
        <ele>267.8</ele>
        <time>2018-09-16T09:22:41Z</time>
      </trkpt>
      <trkpt lat="43.2439540" lon="-3.2372640">
        <ele>267.6</ele>
        <time>2018-09-16T09:22:44Z</time>
      </trkpt>
      <trkpt lat="43.2439740" lon="-3.2371660">
        <ele>267.8</ele>
        <time>2018-09-16T09:22:45Z</time>
      </trkpt>
      <trkpt lat="43.2440250" lon="-3.2369550">
        <ele>268.2</ele>
        <time>2018-09-16T09:22:47Z</time>
      </trkpt>
      <trkpt lat="43.2440960" lon="-3.2366280">
        <ele>268.4</ele>
        <time>2018-09-16T09:22:50Z</time>
      </trkpt>
      <trkpt lat="43.2442580" lon="-3.2359160">
        <ele>267.0</ele>
        <time>2018-09-16T09:22:56Z</time>
      </trkpt>
      <trkpt lat="43.2443350" lon="-3.2355590">
        <ele>267.4</ele>
        <time>2018-09-16T09:22:59Z</time>
      </trkpt>
      <trkpt lat="43.2443420" lon="-3.2354370">
        <ele>268.2</ele>
        <time>2018-09-16T09:23:00Z</time>
      </trkpt>
      <trkpt lat="43.2442950" lon="-3.2351820">
        <ele>268.6</ele>
        <time>2018-09-16T09:23:02Z</time>
      </trkpt>
      <trkpt lat="43.2441630" lon="-3.2349550">
        <ele>268.8</ele>
        <time>2018-09-16T09:23:04Z</time>
      </trkpt>
      <trkpt lat="43.2439770" lon="-3.2348130">
        <ele>268.8</ele>
        <time>2018-09-16T09:23:06Z</time>
      </trkpt>
      <trkpt lat="43.2434500" lon="-3.2347020">
        <ele>269.6</ele>
        <time>2018-09-16T09:23:11Z</time>
      </trkpt>
      <trkpt lat="43.2429230" lon="-3.2345840">
        <ele>268.8</ele>
        <time>2018-09-16T09:23:16Z</time>
      </trkpt>
      <trkpt lat="43.2427620" lon="-3.2344530">
        <ele>268.2</ele>
        <time>2018-09-16T09:23:18Z</time>
      </trkpt>
      <trkpt lat="43.2427370" lon="-3.2342180">
        <ele>267.4</ele>
        <time>2018-09-16T09:23:20Z</time>
      </trkpt>
      <trkpt lat="43.2428240" lon="-3.2339830">
        <ele>266.8</ele>
        <time>2018-09-16T09:23:22Z</time>
      </trkpt>
      <trkpt lat="43.2429440" lon="-3.2337380">
        <ele>266.2</ele>
        <time>2018-09-16T09:23:24Z</time>
      </trkpt>
      <trkpt lat="43.2431530" lon="-3.2332280">
        <ele>265.4</ele>
        <time>2018-09-16T09:23:28Z</time>
      </trkpt>
      <trkpt lat="43.2431800" lon="-3.2330860">
        <ele>265.0</ele>
        <time>2018-09-16T09:23:29Z</time>
      </trkpt>
      <trkpt lat="43.2431880" lon="-3.2329400">
        <ele>264.6</ele>
        <time>2018-09-16T09:23:30Z</time>
      </trkpt>
      <trkpt lat="43.2431500" lon="-3.2326550">
        <ele>264.2</ele>
        <time>2018-09-16T09:23:32Z</time>
      </trkpt>
      <trkpt lat="43.2430640" lon="-3.2323750">
        <ele>264.0</ele>
        <time>2018-09-16T09:23:34Z</time>
      </trkpt>
      <trkpt lat="43.2430020" lon="-3.2322370">
        <ele>264.0</ele>
        <time>2018-09-16T09:23:35Z</time>
      </trkpt>
      <trkpt lat="43.2428410" lon="-3.2319970">
        <ele>263.6</ele>
        <time>2018-09-16T09:23:37Z</time>
      </trkpt>
      <trkpt lat="43.2426350" lon="-3.2318440">
        <ele>262.6</ele>
        <time>2018-09-16T09:23:39Z</time>
      </trkpt>
      <trkpt lat="43.2424060" lon="-3.2317730">
        <ele>261.6</ele>
        <time>2018-09-16T09:23:41Z</time>
      </trkpt>
      <trkpt lat="43.2422850" lon="-3.2317630">
        <ele>261.4</ele>
        <time>2018-09-16T09:23:42Z</time>
      </trkpt>
      <trkpt lat="43.2421700" lon="-3.2317650">
        <ele>261.0</ele>
        <time>2018-09-16T09:23:43Z</time>
      </trkpt>
      <trkpt lat="43.2418310" lon="-3.2317910">
        <ele>260.4</ele>
        <time>2018-09-16T09:23:46Z</time>
      </trkpt>
      <trkpt lat="43.2417350" lon="-3.2317470">
        <ele>260.2</ele>
        <time>2018-09-16T09:23:47Z</time>
      </trkpt>
      <trkpt lat="43.2416720" lon="-3.2316560">
        <ele>259.6</ele>
        <time>2018-09-16T09:23:48Z</time>
      </trkpt>
      <trkpt lat="43.2416420" lon="-3.2315310">
        <ele>258.8</ele>
        <time>2018-09-16T09:23:49Z</time>
      </trkpt>
      <trkpt lat="43.2416530" lon="-3.2314110">
        <ele>258.0</ele>
        <time>2018-09-16T09:23:50Z</time>
      </trkpt>
      <trkpt lat="43.2416920" lon="-3.2312950">
        <ele>257.2</ele>
        <time>2018-09-16T09:23:51Z</time>
      </trkpt>
      <trkpt lat="43.2417480" lon="-3.2311900">
        <ele>256.8</ele>
        <time>2018-09-16T09:23:52Z</time>
      </trkpt>
      <trkpt lat="43.2418140" lon="-3.2310900">
        <ele>256.4</ele>
        <time>2018-09-16T09:23:53Z</time>
      </trkpt>
      <trkpt lat="43.2419460" lon="-3.2308830">
        <ele>256.2</ele>
        <time>2018-09-16T09:23:55Z</time>
      </trkpt>
      <trkpt lat="43.2421420" lon="-3.2305450">
        <ele>255.2</ele>
        <time>2018-09-16T09:23:58Z</time>
      </trkpt>
      <trkpt lat="43.2421950" lon="-3.2304220">
        <ele>254.8</ele>
        <time>2018-09-16T09:23:59Z</time>
      </trkpt>
      <trkpt lat="43.2422650" lon="-3.2301450">
        <ele>253.6</ele>
        <time>2018-09-16T09:24:01Z</time>
      </trkpt>
      <trkpt lat="43.2422640" lon="-3.2298460">
        <ele>252.6</ele>
        <time>2018-09-16T09:24:03Z</time>
      </trkpt>
      <trkpt lat="43.2422230" lon="-3.2296950">
        <ele>252.2</ele>
        <time>2018-09-16T09:24:04Z</time>
      </trkpt>
      <trkpt lat="43.2420960" lon="-3.2292500">
        <ele>250.8</ele>
        <time>2018-09-16T09:24:07Z</time>
      </trkpt>
      <trkpt lat="43.2420490" lon="-3.2291130">
        <ele>250.4</ele>
        <time>2018-09-16T09:24:08Z</time>
      </trkpt>
      <trkpt lat="43.2419140" lon="-3.2288910">
        <ele>250.0</ele>
        <time>2018-09-16T09:24:10Z</time>
      </trkpt>
      <trkpt lat="43.2418300" lon="-3.2288200">
        <ele>249.8</ele>
        <time>2018-09-16T09:24:11Z</time>
      </trkpt>
      <trkpt lat="43.2417340" lon="-3.2288100">
        <ele>249.6</ele>
        <time>2018-09-16T09:24:12Z</time>
      </trkpt>
      <trkpt lat="43.2415300" lon="-3.2288960">
        <ele>249.2</ele>
        <time>2018-09-16T09:24:14Z</time>
      </trkpt>
      <trkpt lat="43.2414190" lon="-3.2289590">
        <ele>248.8</ele>
        <time>2018-09-16T09:24:15Z</time>
      </trkpt>
      <trkpt lat="43.2411830" lon="-3.2290670">
        <ele>247.8</ele>
        <time>2018-09-16T09:24:17Z</time>
      </trkpt>
      <trkpt lat="43.2410620" lon="-3.2291140">
        <ele>247.6</ele>
        <time>2018-09-16T09:24:18Z</time>
      </trkpt>
      <trkpt lat="43.2409470" lon="-3.2291570">
        <ele>247.2</ele>
        <time>2018-09-16T09:24:19Z</time>
      </trkpt>
      <trkpt lat="43.2407130" lon="-3.2292340">
        <ele>246.2</ele>
        <time>2018-09-16T09:24:21Z</time>
      </trkpt>
      <trkpt lat="43.2404790" lon="-3.2293150">
        <ele>244.8</ele>
        <time>2018-09-16T09:24:23Z</time>
      </trkpt>
      <trkpt lat="43.2402550" lon="-3.2293980">
        <ele>243.2</ele>
        <time>2018-09-16T09:24:25Z</time>
      </trkpt>
      <trkpt lat="43.2400550" lon="-3.2294560">
        <ele>241.8</ele>
        <time>2018-09-16T09:24:27Z</time>
      </trkpt>
      <trkpt lat="43.2399080" lon="-3.2294300">
        <ele>240.4</ele>
        <time>2018-09-16T09:24:29Z</time>
      </trkpt>
      <trkpt lat="43.2398720" lon="-3.2291780">
        <ele>239.4</ele>
        <time>2018-09-16T09:24:32Z</time>
      </trkpt>
      <trkpt lat="43.2399650" lon="-3.2290760">
        <ele>239.6</ele>
        <time>2018-09-16T09:24:34Z</time>
      </trkpt>
      <trkpt lat="43.2400970" lon="-3.2290140">
        <ele>240.0</ele>
        <time>2018-09-16T09:24:36Z</time>
      </trkpt>
      <trkpt lat="43.2402590" lon="-3.2289410">
        <ele>240.6</ele>
        <time>2018-09-16T09:24:38Z</time>
      </trkpt>
      <trkpt lat="43.2403360" lon="-3.2288990">
        <ele>241.0</ele>
        <time>2018-09-16T09:24:39Z</time>
      </trkpt>
      <trkpt lat="43.2404840" lon="-3.2287860">
        <ele>241.6</ele>
        <time>2018-09-16T09:24:41Z</time>
      </trkpt>
      <trkpt lat="43.2405670" lon="-3.2287070">
        <ele>241.4</ele>
        <time>2018-09-16T09:24:42Z</time>
      </trkpt>
      <trkpt lat="43.2407140" lon="-3.2284930">
        <ele>241.4</ele>
        <time>2018-09-16T09:24:44Z</time>
      </trkpt>
      <trkpt lat="43.2408420" lon="-3.2282490">
        <ele>241.0</ele>
        <time>2018-09-16T09:24:46Z</time>
      </trkpt>
      <trkpt lat="43.2409690" lon="-3.2280000">
        <ele>240.0</ele>
        <time>2018-09-16T09:24:48Z</time>
      </trkpt>
      <trkpt lat="43.2410420" lon="-3.2278670">
        <ele>239.4</ele>
        <time>2018-09-16T09:24:49Z</time>
      </trkpt>
      <trkpt lat="43.2412560" lon="-3.2275010">
        <ele>238.0</ele>
        <time>2018-09-16T09:24:52Z</time>
      </trkpt>
      <trkpt lat="43.2413740" lon="-3.2272440">
        <ele>236.4</ele>
        <time>2018-09-16T09:24:54Z</time>
      </trkpt>
      <trkpt lat="43.2414550" lon="-3.2269800">
        <ele>235.2</ele>
        <time>2018-09-16T09:24:56Z</time>
      </trkpt>
      <trkpt lat="43.2415570" lon="-3.2264560">
        <ele>234.0</ele>
        <time>2018-09-16T09:25:00Z</time>
      </trkpt>
      <trkpt lat="43.2415400" lon="-3.2261770">
        <ele>233.8</ele>
        <time>2018-09-16T09:25:02Z</time>
      </trkpt>
      <trkpt lat="43.2414910" lon="-3.2256130">
        <ele>233.4</ele>
        <time>2018-09-16T09:25:06Z</time>
      </trkpt>
      <trkpt lat="43.2414980" lon="-3.2253360">
        <ele>233.0</ele>
        <time>2018-09-16T09:25:08Z</time>
      </trkpt>
      <trkpt lat="43.2415650" lon="-3.2249620">
        <ele>232.0</ele>
        <time>2018-09-16T09:25:11Z</time>
      </trkpt>
      <trkpt lat="43.2415950" lon="-3.2248400">
        <ele>232.0</ele>
        <time>2018-09-16T09:25:12Z</time>
      </trkpt>
      <trkpt lat="43.2416550" lon="-3.2244760">
        <ele>231.6</ele>
        <time>2018-09-16T09:25:15Z</time>
      </trkpt>
      <trkpt lat="43.2416250" lon="-3.2242320">
        <ele>231.2</ele>
        <time>2018-09-16T09:25:17Z</time>
      </trkpt>
      <trkpt lat="43.2415980" lon="-3.2241120">
        <ele>230.8</ele>
        <time>2018-09-16T09:25:18Z</time>
      </trkpt>
      <trkpt lat="43.2415560" lon="-3.2239910">
        <ele>230.6</ele>
        <time>2018-09-16T09:25:19Z</time>
      </trkpt>
      <trkpt lat="43.2413300" lon="-3.2233790">
        <ele>230.0</ele>
        <time>2018-09-16T09:25:24Z</time>
      </trkpt>
      <trkpt lat="43.2412710" lon="-3.2232670">
        <ele>230.0</ele>
        <time>2018-09-16T09:25:25Z</time>
      </trkpt>
      <trkpt lat="43.2411410" lon="-3.2230750">
        <ele>230.0</ele>
        <time>2018-09-16T09:25:27Z</time>
      </trkpt>
      <trkpt lat="43.2410450" lon="-3.2228490">
        <ele>229.6</ele>
        <time>2018-09-16T09:25:29Z</time>
      </trkpt>
      <trkpt lat="43.2409660" lon="-3.2224780">
        <ele>228.8</ele>
        <time>2018-09-16T09:25:32Z</time>
      </trkpt>
      <trkpt lat="43.2409380" lon="-3.2222300">
        <ele>228.4</ele>
        <time>2018-09-16T09:25:34Z</time>
      </trkpt>
      <trkpt lat="43.2408380" lon="-3.2215040">
        <ele>228.0</ele>
        <time>2018-09-16T09:25:40Z</time>
      </trkpt>
      <trkpt lat="43.2408080" lon="-3.2209210">
        <ele>228.0</ele>
        <time>2018-09-16T09:25:45Z</time>
      </trkpt>
      <trkpt lat="43.2407410" lon="-3.2207110">
        <ele>227.8</ele>
        <time>2018-09-16T09:25:47Z</time>
      </trkpt>
      <trkpt lat="43.2406390" lon="-3.2205090">
        <ele>227.4</ele>
        <time>2018-09-16T09:25:49Z</time>
      </trkpt>
      <trkpt lat="43.2403810" lon="-3.2199920">
        <ele>228.0</ele>
        <time>2018-09-16T09:25:54Z</time>
      </trkpt>
      <trkpt lat="43.2403270" lon="-3.2197490">
        <ele>228.6</ele>
        <time>2018-09-16T09:25:56Z</time>
      </trkpt>
      <trkpt lat="43.2402650" lon="-3.2192870">
        <ele>228.8</ele>
        <time>2018-09-16T09:26:00Z</time>
      </trkpt>
      <trkpt lat="43.2400520" lon="-3.2185140">
        <ele>229.6</ele>
        <time>2018-09-16T09:26:07Z</time>
      </trkpt>
      <trkpt lat="43.2400150" lon="-3.2184000">
        <ele>229.6</ele>
        <time>2018-09-16T09:26:08Z</time>
      </trkpt>
      <trkpt lat="43.2399850" lon="-3.2182790">
        <ele>229.6</ele>
        <time>2018-09-16T09:26:09Z</time>
      </trkpt>
      <trkpt lat="43.2399190" lon="-3.2177750">
        <ele>229.6</ele>
        <time>2018-09-16T09:26:13Z</time>
      </trkpt>
      <trkpt lat="43.2399040" lon="-3.2175130">
        <ele>229.4</ele>
        <time>2018-09-16T09:26:15Z</time>
      </trkpt>
      <trkpt lat="43.2399060" lon="-3.2168600">
        <ele>230.0</ele>
        <time>2018-09-16T09:26:20Z</time>
      </trkpt>
      <trkpt lat="43.2400120" lon="-3.2162670">
        <ele>229.0</ele>
        <time>2018-09-16T09:26:25Z</time>
      </trkpt>
      <trkpt lat="43.2400840" lon="-3.2160620">
        <ele>228.8</ele>
        <time>2018-09-16T09:26:27Z</time>
      </trkpt>
      <trkpt lat="43.2401610" lon="-3.2158580">
        <ele>228.8</ele>
        <time>2018-09-16T09:26:29Z</time>
      </trkpt>
      <trkpt lat="43.2402090" lon="-3.2157570">
        <ele>228.8</ele>
        <time>2018-09-16T09:26:30Z</time>
      </trkpt>
      <trkpt lat="43.2403190" lon="-3.2155690">
        <ele>228.4</ele>
        <time>2018-09-16T09:26:32Z</time>
      </trkpt>
      <trkpt lat="43.2405180" lon="-3.2153070">
        <ele>227.0</ele>
        <time>2018-09-16T09:26:35Z</time>
      </trkpt>
      <trkpt lat="43.2407020" lon="-3.2150520">
        <ele>225.8</ele>
        <time>2018-09-16T09:26:38Z</time>
      </trkpt>
      <trkpt lat="43.2409590" lon="-3.2146880">
        <ele>224.8</ele>
        <time>2018-09-16T09:26:42Z</time>
      </trkpt>
      <trkpt lat="43.2410950" lon="-3.2145100">
        <ele>224.0</ele>
        <time>2018-09-16T09:26:44Z</time>
      </trkpt>
      <trkpt lat="43.2412580" lon="-3.2143450">
        <ele>223.6</ele>
        <time>2018-09-16T09:26:46Z</time>
      </trkpt>
      <trkpt lat="43.2415960" lon="-3.2140120">
        <ele>222.2</ele>
        <time>2018-09-16T09:26:50Z</time>
      </trkpt>
      <trkpt lat="43.2417640" lon="-3.2138410">
        <ele>221.2</ele>
        <time>2018-09-16T09:26:52Z</time>
      </trkpt>
      <trkpt lat="43.2420090" lon="-3.2135780">
        <ele>220.6</ele>
        <time>2018-09-16T09:26:55Z</time>
      </trkpt>
      <trkpt lat="43.2421720" lon="-3.2134080">
        <ele>220.2</ele>
        <time>2018-09-16T09:26:57Z</time>
      </trkpt>
      <trkpt lat="43.2424940" lon="-3.2130860">
        <ele>218.6</ele>
        <time>2018-09-16T09:27:01Z</time>
      </trkpt>
      <trkpt lat="43.2426450" lon="-3.2129340">
        <ele>217.4</ele>
        <time>2018-09-16T09:27:03Z</time>
      </trkpt>
      <trkpt lat="43.2428490" lon="-3.2127150">
        <ele>217.2</ele>
        <time>2018-09-16T09:27:06Z</time>
      </trkpt>
      <trkpt lat="43.2429030" lon="-3.2126360">
        <ele>217.4</ele>
        <time>2018-09-16T09:27:07Z</time>
      </trkpt>
      <trkpt lat="43.2429860" lon="-3.2124630">
        <ele>217.6</ele>
        <time>2018-09-16T09:27:09Z</time>
      </trkpt>
      <trkpt lat="43.2430520" lon="-3.2122940">
        <ele>218.6</ele>
        <time>2018-09-16T09:27:11Z</time>
      </trkpt>
      <trkpt lat="43.2431230" lon="-3.2120620">
        <ele>219.8</ele>
        <time>2018-09-16T09:27:14Z</time>
      </trkpt>
      <trkpt lat="43.2431630" lon="-3.2119200">
        <ele>220.2</ele>
        <time>2018-09-16T09:27:16Z</time>
      </trkpt>
      <trkpt lat="43.2432050" lon="-3.2117870">
        <ele>220.4</ele>
        <time>2018-09-16T09:27:18Z</time>
      </trkpt>
      <trkpt lat="43.2432620" lon="-3.2116060">
        <ele>220.8</ele>
        <time>2018-09-16T09:27:21Z</time>
      </trkpt>
      <trkpt lat="43.2433320" lon="-3.2114380">
        <ele>221.6</ele>
        <time>2018-09-16T09:27:24Z</time>
      </trkpt>
      <trkpt lat="43.2433850" lon="-3.2113280">
        <ele>222.0</ele>
        <time>2018-09-16T09:27:26Z</time>
      </trkpt>
      <trkpt lat="43.2434740" lon="-3.2111630">
        <ele>222.4</ele>
        <time>2018-09-16T09:27:29Z</time>
      </trkpt>
      <trkpt lat="43.2435630" lon="-3.2110020">
        <ele>223.0</ele>
        <time>2018-09-16T09:27:32Z</time>
      </trkpt>
      <trkpt lat="43.2435930" lon="-3.2109520">
        <ele>223.2</ele>
        <time>2018-09-16T09:27:33Z</time>
      </trkpt>
      <trkpt lat="43.2436840" lon="-3.2107960">
        <ele>223.8</ele>
        <time>2018-09-16T09:27:36Z</time>
      </trkpt>
      <trkpt lat="43.2437490" lon="-3.2106900">
        <ele>224.4</ele>
        <time>2018-09-16T09:27:38Z</time>
      </trkpt>
      <trkpt lat="43.2438300" lon="-3.2105350">
        <ele>224.8</ele>
        <time>2018-09-16T09:27:41Z</time>
      </trkpt>
      <trkpt lat="43.2438540" lon="-3.2104140">
        <ele>225.2</ele>
        <time>2018-09-16T09:27:43Z</time>
      </trkpt>
      <trkpt lat="43.2438550" lon="-3.2103480">
        <ele>225.6</ele>
        <time>2018-09-16T09:27:44Z</time>
      </trkpt>
      <trkpt lat="43.2438430" lon="-3.2102860">
        <ele>226.0</ele>
        <time>2018-09-16T09:27:45Z</time>
      </trkpt>
      <trkpt lat="43.2437860" lon="-3.2101770">
        <ele>226.8</ele>
        <time>2018-09-16T09:27:47Z</time>
      </trkpt>
      <trkpt lat="43.2437130" lon="-3.2101050">
        <ele>227.8</ele>
        <time>2018-09-16T09:27:49Z</time>
      </trkpt>
      <trkpt lat="43.2436210" lon="-3.2100630">
        <ele>228.6</ele>
        <time>2018-09-16T09:27:51Z</time>
      </trkpt>
      <trkpt lat="43.2434760" lon="-3.2100240">
        <ele>228.8</ele>
        <time>2018-09-16T09:27:54Z</time>
      </trkpt>
      <trkpt lat="43.2433760" lon="-3.2100040">
        <ele>229.0</ele>
        <time>2018-09-16T09:27:56Z</time>
      </trkpt>
      <trkpt lat="43.2429810" lon="-3.2099170">
        <ele>230.0</ele>
        <time>2018-09-16T09:28:04Z</time>
      </trkpt>
      <trkpt lat="43.2425990" lon="-3.2098400">
        <ele>231.2</ele>
        <time>2018-09-16T09:28:12Z</time>
      </trkpt>
      <trkpt lat="43.2424000" lon="-3.2098000">
        <ele>232.4</ele>
        <time>2018-09-16T09:28:16Z</time>
      </trkpt>
      <trkpt lat="43.2422530" lon="-3.2097560">
        <ele>233.6</ele>
        <time>2018-09-16T09:28:19Z</time>
      </trkpt>
      <trkpt lat="43.2420650" lon="-3.2096670">
        <ele>234.6</ele>
        <time>2018-09-16T09:28:23Z</time>
      </trkpt>
      <trkpt lat="43.2419830" lon="-3.2096040">
        <ele>235.0</ele>
        <time>2018-09-16T09:28:25Z</time>
      </trkpt>
      <trkpt lat="43.2418580" lon="-3.2094760">
        <ele>235.8</ele>
        <time>2018-09-16T09:28:28Z</time>
      </trkpt>
      <trkpt lat="43.2414790" lon="-3.2091200">
        <ele>237.2</ele>
        <time>2018-09-16T09:28:37Z</time>
      </trkpt>
      <trkpt lat="43.2411450" lon="-3.2089840">
        <ele>238.2</ele>
        <time>2018-09-16T09:28:44Z</time>
      </trkpt>
      <trkpt lat="43.2408940" lon="-3.2089360">
        <ele>239.4</ele>
        <time>2018-09-16T09:28:49Z</time>
      </trkpt>
      <trkpt lat="43.2405940" lon="-3.2088950">
        <ele>240.6</ele>
        <time>2018-09-16T09:28:55Z</time>
      </trkpt>
      <trkpt lat="43.2403440" lon="-3.2088410">
        <ele>241.6</ele>
        <time>2018-09-16T09:29:00Z</time>
      </trkpt>
      <trkpt lat="43.2400500" lon="-3.2087840">
        <ele>242.6</ele>
        <time>2018-09-16T09:29:06Z</time>
      </trkpt>
      <trkpt lat="43.2395610" lon="-3.2088130">
        <ele>243.8</ele>
        <time>2018-09-16T09:29:16Z</time>
      </trkpt>
      <trkpt lat="43.2393790" lon="-3.2088600">
        <ele>244.8</ele>
        <time>2018-09-16T09:29:20Z</time>
      </trkpt>
      <trkpt lat="43.2393370" lon="-3.2088790">
        <ele>245.2</ele>
        <time>2018-09-16T09:29:21Z</time>
      </trkpt>
      <trkpt lat="43.2391040" lon="-3.2089670">
        <ele>246.0</ele>
        <time>2018-09-16T09:29:26Z</time>
      </trkpt>
      <trkpt lat="43.2390540" lon="-3.2089690">
        <ele>246.4</ele>
        <time>2018-09-16T09:29:27Z</time>
      </trkpt>
      <trkpt lat="43.2389100" lon="-3.2089400">
        <ele>247.2</ele>
        <time>2018-09-16T09:29:30Z</time>
      </trkpt>
      <trkpt lat="43.2386590" lon="-3.2088130">
        <ele>248.2</ele>
        <time>2018-09-16T09:29:35Z</time>
      </trkpt>
      <trkpt lat="43.2382700" lon="-3.2086100">
        <ele>249.4</ele>
        <time>2018-09-16T09:29:43Z</time>
      </trkpt>
      <trkpt lat="43.2380420" lon="-3.2084370">
        <ele>250.6</ele>
        <time>2018-09-16T09:29:48Z</time>
      </trkpt>
      <trkpt lat="43.2377760" lon="-3.2081930">
        <ele>251.6</ele>
        <time>2018-09-16T09:29:54Z</time>
      </trkpt>
      <trkpt lat="43.2375640" lon="-3.2079910">
        <ele>252.8</ele>
        <time>2018-09-16T09:29:59Z</time>
      </trkpt>
      <trkpt lat="43.2373410" lon="-3.2076840">
        <ele>253.8</ele>
        <time>2018-09-16T09:30:05Z</time>
      </trkpt>
      <trkpt lat="43.2372350" lon="-3.2074690">
        <ele>254.8</ele>
        <time>2018-09-16T09:30:09Z</time>
      </trkpt>
      <trkpt lat="43.2372070" lon="-3.2074230">
        <ele>255.2</ele>
        <time>2018-09-16T09:30:10Z</time>
      </trkpt>
      <trkpt lat="43.2371350" lon="-3.2073340">
        <ele>255.6</ele>
        <time>2018-09-16T09:30:12Z</time>
      </trkpt>
      <trkpt lat="43.2370470" lon="-3.2072540">
        <ele>255.8</ele>
        <time>2018-09-16T09:30:14Z</time>
      </trkpt>
      <trkpt lat="43.2369530" lon="-3.2071920">
        <ele>256.6</ele>
        <time>2018-09-16T09:30:16Z</time>
      </trkpt>
      <trkpt lat="43.2368590" lon="-3.2071460">
        <ele>257.2</ele>
        <time>2018-09-16T09:30:18Z</time>
      </trkpt>
      <trkpt lat="43.2368090" lon="-3.2071310">
        <ele>257.4</ele>
        <time>2018-09-16T09:30:19Z</time>
      </trkpt>
      <trkpt lat="43.2367040" lon="-3.2071090">
        <ele>258.2</ele>
        <time>2018-09-16T09:30:21Z</time>
      </trkpt>
      <trkpt lat="43.2366120" lon="-3.2070870">
        <ele>258.8</ele>
        <time>2018-09-16T09:30:23Z</time>
      </trkpt>
      <trkpt lat="43.2365120" lon="-3.2070390">
        <ele>259.2</ele>
        <time>2018-09-16T09:30:25Z</time>
      </trkpt>
      <trkpt lat="43.2364220" lon="-3.2069470">
        <ele>259.6</ele>
        <time>2018-09-16T09:30:27Z</time>
      </trkpt>
      <trkpt lat="43.2363730" lon="-3.2068150">
        <ele>260.0</ele>
        <time>2018-09-16T09:30:29Z</time>
      </trkpt>
      <trkpt lat="43.2363650" lon="-3.2067420">
        <ele>260.4</ele>
        <time>2018-09-16T09:30:30Z</time>
      </trkpt>
      <trkpt lat="43.2363530" lon="-3.2065260">
        <ele>260.8</ele>
        <time>2018-09-16T09:30:33Z</time>
      </trkpt>
      <trkpt lat="43.2363090" lon="-3.2063860">
        <ele>261.2</ele>
        <time>2018-09-16T09:30:35Z</time>
      </trkpt>
      <trkpt lat="43.2362760" lon="-3.2063240">
        <ele>261.4</ele>
        <time>2018-09-16T09:30:36Z</time>
      </trkpt>
      <trkpt lat="43.2362400" lon="-3.2062760">
        <ele>261.4</ele>
        <time>2018-09-16T09:30:37Z</time>
      </trkpt>
      <trkpt lat="43.2360550" lon="-3.2061650">
        <ele>262.4</ele>
        <time>2018-09-16T09:30:41Z</time>
      </trkpt>
      <trkpt lat="43.2360070" lon="-3.2061470">
        <ele>262.6</ele>
        <time>2018-09-16T09:30:42Z</time>
      </trkpt>
      <trkpt lat="43.2358590" lon="-3.2061200">
        <ele>263.0</ele>
        <time>2018-09-16T09:30:45Z</time>
      </trkpt>
      <trkpt lat="43.2357050" lon="-3.2061400">
        <ele>263.4</ele>
        <time>2018-09-16T09:30:48Z</time>
      </trkpt>
      <trkpt lat="43.2354970" lon="-3.2061370">
        <ele>264.4</ele>
        <time>2018-09-16T09:30:52Z</time>
      </trkpt>
      <trkpt lat="43.2354450" lon="-3.2061170">
        <ele>264.8</ele>
        <time>2018-09-16T09:30:53Z</time>
      </trkpt>
      <trkpt lat="43.2353990" lon="-3.2060910">
        <ele>265.2</ele>
        <time>2018-09-16T09:30:54Z</time>
      </trkpt>
      <trkpt lat="43.2353000" lon="-3.2060260">
        <ele>265.8</ele>
        <time>2018-09-16T09:30:56Z</time>
      </trkpt>
      <trkpt lat="43.2351450" lon="-3.2058590">
        <ele>266.4</ele>
        <time>2018-09-16T09:31:00Z</time>
      </trkpt>
      <trkpt lat="43.2350630" lon="-3.2057790">
        <ele>267.0</ele>
        <time>2018-09-16T09:31:02Z</time>
      </trkpt>
      <trkpt lat="43.2348490" lon="-3.2055840">
        <ele>268.0</ele>
        <time>2018-09-16T09:31:07Z</time>
      </trkpt>
      <trkpt lat="43.2347770" lon="-3.2054850">
        <ele>268.2</ele>
        <time>2018-09-16T09:31:09Z</time>
      </trkpt>
      <trkpt lat="43.2347290" lon="-3.2053740">
        <ele>268.8</ele>
        <time>2018-09-16T09:31:11Z</time>
      </trkpt>
      <trkpt lat="43.2346820" lon="-3.2052350">
        <ele>269.0</ele>
        <time>2018-09-16T09:31:13Z</time>
      </trkpt>
      <trkpt lat="43.2346220" lon="-3.2050330">
        <ele>268.6</ele>
        <time>2018-09-16T09:31:16Z</time>
      </trkpt>
      <trkpt lat="43.2345910" lon="-3.2048970">
        <ele>268.6</ele>
        <time>2018-09-16T09:31:18Z</time>
      </trkpt>
      <trkpt lat="43.2345440" lon="-3.2046870">
        <ele>269.4</ele>
        <time>2018-09-16T09:31:21Z</time>
      </trkpt>
      <trkpt lat="43.2345350" lon="-3.2045370">
        <ele>269.6</ele>
        <time>2018-09-16T09:31:23Z</time>
      </trkpt>
      <trkpt lat="43.2345740" lon="-3.2041580">
        <ele>270.0</ele>
        <time>2018-09-16T09:31:28Z</time>
      </trkpt>
      <trkpt lat="43.2345760" lon="-3.2040740">
        <ele>270.4</ele>
        <time>2018-09-16T09:31:29Z</time>
      </trkpt>
      <trkpt lat="43.2345480" lon="-3.2039170">
        <ele>270.6</ele>
        <time>2018-09-16T09:31:31Z</time>
      </trkpt>
      <trkpt lat="43.2344960" lon="-3.2037710">
        <ele>270.8</ele>
        <time>2018-09-16T09:31:33Z</time>
      </trkpt>
      <trkpt lat="43.2344580" lon="-3.2036990">
        <ele>271.0</ele>
        <time>2018-09-16T09:31:34Z</time>
      </trkpt>
      <trkpt lat="43.2343700" lon="-3.2035460">
        <ele>271.4</ele>
        <time>2018-09-16T09:31:36Z</time>
      </trkpt>
      <trkpt lat="43.2342670" lon="-3.2034230">
        <ele>271.4</ele>
        <time>2018-09-16T09:31:38Z</time>
      </trkpt>
      <trkpt lat="43.2339680" lon="-3.2031640">
        <ele>272.2</ele>
        <time>2018-09-16T09:31:43Z</time>
      </trkpt>
      <trkpt lat="43.2338620" lon="-3.2030460">
        <ele>272.8</ele>
        <time>2018-09-16T09:31:45Z</time>
      </trkpt>
      <trkpt lat="43.2337650" lon="-3.2029050">
        <ele>273.0</ele>
        <time>2018-09-16T09:31:47Z</time>
      </trkpt>
      <trkpt lat="43.2336950" lon="-3.2027380">
        <ele>273.6</ele>
        <time>2018-09-16T09:31:49Z</time>
      </trkpt>
      <trkpt lat="43.2335470" lon="-3.2022710">
        <ele>274.8</ele>
        <time>2018-09-16T09:31:55Z</time>
      </trkpt>
      <trkpt lat="43.2334980" lon="-3.2020800">
        <ele>275.0</ele>
        <time>2018-09-16T09:31:58Z</time>
      </trkpt>
      <trkpt lat="43.2333250" lon="-3.2013680">
        <ele>275.8</ele>
        <time>2018-09-16T09:32:11Z</time>
      </trkpt>
      <trkpt lat="43.2332970" lon="-3.2012270">
        <ele>275.8</ele>
        <time>2018-09-16T09:32:14Z</time>
      </trkpt>
      <trkpt lat="43.2332140" lon="-3.2007960">
        <ele>277.0</ele>
        <time>2018-09-16T09:32:22Z</time>
      </trkpt>
      <trkpt lat="43.2331740" lon="-3.2005800">
        <ele>278.2</ele>
        <time>2018-09-16T09:32:26Z</time>
      </trkpt>
      <trkpt lat="43.2331340" lon="-3.2003760">
        <ele>279.4</ele>
        <time>2018-09-16T09:32:30Z</time>
      </trkpt>
      <trkpt lat="43.2331070" lon="-3.2002090">
        <ele>280.4</ele>
        <time>2018-09-16T09:32:33Z</time>
      </trkpt>
      <trkpt lat="43.2330340" lon="-3.1999250">
        <ele>281.4</ele>
        <time>2018-09-16T09:32:38Z</time>
      </trkpt>
      <trkpt lat="43.2329390" lon="-3.1996070">
        <ele>282.4</ele>
        <time>2018-09-16T09:32:44Z</time>
      </trkpt>
      <trkpt lat="43.2328820" lon="-3.1994480">
        <ele>283.0</ele>
        <time>2018-09-16T09:32:47Z</time>
      </trkpt>
      <trkpt lat="43.2328000" lon="-3.1993050">
        <ele>283.6</ele>
        <time>2018-09-16T09:32:50Z</time>
      </trkpt>
      <trkpt lat="43.2327300" lon="-3.1992290">
        <ele>283.8</ele>
        <time>2018-09-16T09:32:52Z</time>
      </trkpt>
      <trkpt lat="43.2324950" lon="-3.1991280">
        <ele>284.8</ele>
        <time>2018-09-16T09:32:58Z</time>
      </trkpt>
      <trkpt lat="43.2320900" lon="-3.1990510">
        <ele>286.0</ele>
        <time>2018-09-16T09:33:08Z</time>
      </trkpt>
      <trkpt lat="43.2318520" lon="-3.1990040">
        <ele>287.0</ele>
        <time>2018-09-16T09:33:14Z</time>
      </trkpt>
      <trkpt lat="43.2313130" lon="-3.1988880">
        <ele>287.4</ele>
        <time>2018-09-16T09:33:26Z</time>
      </trkpt>
      <trkpt lat="43.2310750" lon="-3.1988070">
        <ele>286.8</ele>
        <time>2018-09-16T09:33:31Z</time>
      </trkpt>
      <trkpt lat="43.2309860" lon="-3.1987280">
        <ele>286.8</ele>
        <time>2018-09-16T09:33:33Z</time>
      </trkpt>
      <trkpt lat="43.2309130" lon="-3.1986160">
        <ele>286.6</ele>
        <time>2018-09-16T09:33:35Z</time>
      </trkpt>
      <trkpt lat="43.2308390" lon="-3.1984240">
        <ele>286.2</ele>
        <time>2018-09-16T09:33:38Z</time>
      </trkpt>
      <trkpt lat="43.2308210" lon="-3.1983580">
        <ele>286.0</ele>
        <time>2018-09-16T09:33:39Z</time>
      </trkpt>
      <trkpt lat="43.2306130" lon="-3.1976180">
        <ele>286.2</ele>
        <time>2018-09-16T09:33:51Z</time>
      </trkpt>
      <trkpt lat="43.2305620" lon="-3.1975040">
        <ele>286.4</ele>
        <time>2018-09-16T09:33:53Z</time>
      </trkpt>
      <trkpt lat="43.2304780" lon="-3.1973470">
        <ele>287.0</ele>
        <time>2018-09-16T09:33:56Z</time>
      </trkpt>
      <trkpt lat="43.2303320" lon="-3.1970800">
        <ele>288.2</ele>
        <time>2018-09-16T09:34:01Z</time>
      </trkpt>
      <trkpt lat="43.2301490" lon="-3.1967690">
        <ele>289.2</ele>
        <time>2018-09-16T09:34:07Z</time>
      </trkpt>
      <trkpt lat="43.2299780" lon="-3.1965430">
        <ele>290.4</ele>
        <time>2018-09-16T09:34:12Z</time>
      </trkpt>
      <trkpt lat="43.2298090" lon="-3.1963080">
        <ele>291.2</ele>
        <time>2018-09-16T09:34:17Z</time>
      </trkpt>
      <trkpt lat="43.2297790" lon="-3.1962610">
        <ele>291.4</ele>
        <time>2018-09-16T09:34:18Z</time>
      </trkpt>
      <trkpt lat="43.2296750" lon="-3.1960690">
        <ele>293.0</ele>
        <time>2018-09-16T09:34:22Z</time>
      </trkpt>
      <trkpt lat="43.2296060" lon="-3.1959220">
        <ele>294.0</ele>
        <time>2018-09-16T09:34:25Z</time>
      </trkpt>
      <trkpt lat="43.2295110" lon="-3.1957080">
        <ele>294.6</ele>
        <time>2018-09-16T09:34:29Z</time>
      </trkpt>
      <trkpt lat="43.2294950" lon="-3.1956560">
        <ele>295.0</ele>
        <time>2018-09-16T09:34:30Z</time>
      </trkpt>
      <trkpt lat="43.2294300" lon="-3.1954910">
        <ele>296.2</ele>
        <time>2018-09-16T09:34:33Z</time>
      </trkpt>
      <trkpt lat="43.2293530" lon="-3.1952800">
        <ele>297.2</ele>
        <time>2018-09-16T09:34:37Z</time>
      </trkpt>
      <trkpt lat="43.2293150" lon="-3.1951640">
        <ele>297.8</ele>
        <time>2018-09-16T09:34:39Z</time>
      </trkpt>
      <trkpt lat="43.2292800" lon="-3.1950390">
        <ele>298.4</ele>
        <time>2018-09-16T09:34:41Z</time>
      </trkpt>
      <trkpt lat="43.2292190" lon="-3.1945530">
        <ele>299.4</ele>
        <time>2018-09-16T09:34:49Z</time>
      </trkpt>
      <trkpt lat="43.2291700" lon="-3.1943030">
        <ele>300.8</ele>
        <time>2018-09-16T09:34:53Z</time>
      </trkpt>
      <trkpt lat="43.2291120" lon="-3.1941750">
        <ele>302.0</ele>
        <time>2018-09-16T09:34:55Z</time>
      </trkpt>
      <trkpt lat="43.2290390" lon="-3.1940670">
        <ele>302.6</ele>
        <time>2018-09-16T09:34:57Z</time>
      </trkpt>
      <trkpt lat="43.2289720" lon="-3.1939650">
        <ele>303.0</ele>
        <time>2018-09-16T09:34:59Z</time>
      </trkpt>
      <trkpt lat="43.2286660" lon="-3.1936010">
        <ele>304.0</ele>
        <time>2018-09-16T09:35:07Z</time>
      </trkpt>
      <trkpt lat="43.2284070" lon="-3.1932940">
        <ele>305.2</ele>
        <time>2018-09-16T09:35:14Z</time>
      </trkpt>
      <trkpt lat="43.2281460" lon="-3.1930040">
        <ele>306.2</ele>
        <time>2018-09-16T09:35:21Z</time>
      </trkpt>
      <trkpt lat="43.2279150" lon="-3.1927750">
        <ele>307.4</ele>
        <time>2018-09-16T09:35:27Z</time>
      </trkpt>
      <trkpt lat="43.2276950" lon="-3.1926190">
        <ele>308.4</ele>
        <time>2018-09-16T09:35:32Z</time>
      </trkpt>
      <trkpt lat="43.2274250" lon="-3.1924160">
        <ele>309.4</ele>
        <time>2018-09-16T09:35:38Z</time>
      </trkpt>
      <trkpt lat="43.2273020" lon="-3.1922680">
        <ele>310.4</ele>
        <time>2018-09-16T09:35:41Z</time>
      </trkpt>
      <trkpt lat="43.2272650" lon="-3.1922120">
        <ele>310.6</ele>
        <time>2018-09-16T09:35:42Z</time>
      </trkpt>
      <trkpt lat="43.2272080" lon="-3.1920890">
        <ele>311.0</ele>
        <time>2018-09-16T09:35:44Z</time>
      </trkpt>
      <trkpt lat="43.2271450" lon="-3.1918990">
        <ele>311.8</ele>
        <time>2018-09-16T09:35:47Z</time>
      </trkpt>
      <trkpt lat="43.2270910" lon="-3.1917040">
        <ele>313.0</ele>
        <time>2018-09-16T09:35:50Z</time>
      </trkpt>
      <trkpt lat="43.2270540" lon="-3.1915710">
        <ele>314.0</ele>
        <time>2018-09-16T09:35:52Z</time>
      </trkpt>
      <trkpt lat="43.2269910" lon="-3.1913730">
        <ele>315.2</ele>
        <time>2018-09-16T09:35:55Z</time>
      </trkpt>
      <trkpt lat="43.2269060" lon="-3.1911080">
        <ele>316.2</ele>
        <time>2018-09-16T09:35:59Z</time>
      </trkpt>
      <trkpt lat="43.2267930" lon="-3.1907550">
        <ele>316.8</ele>
        <time>2018-09-16T09:36:04Z</time>
      </trkpt>
      <trkpt lat="43.2266090" lon="-3.1903100">
        <ele>317.4</ele>
        <time>2018-09-16T09:36:11Z</time>
      </trkpt>
      <trkpt lat="43.2264350" lon="-3.1900560">
        <ele>317.4</ele>
        <time>2018-09-16T09:36:15Z</time>
      </trkpt>
      <trkpt lat="43.2261710" lon="-3.1898200">
        <ele>316.4</ele>
        <time>2018-09-16T09:36:19Z</time>
      </trkpt>
      <trkpt lat="43.2260910" lon="-3.1897740">
        <ele>316.2</ele>
        <time>2018-09-16T09:36:20Z</time>
      </trkpt>
      <trkpt lat="43.2258250" lon="-3.1896630">
        <ele>315.2</ele>
        <time>2018-09-16T09:36:23Z</time>
      </trkpt>
      <trkpt lat="43.2256380" lon="-3.1896230">
        <ele>314.4</ele>
        <time>2018-09-16T09:36:25Z</time>
      </trkpt>
      <trkpt lat="43.2255420" lon="-3.1896050">
        <ele>314.0</ele>
        <time>2018-09-16T09:36:26Z</time>
      </trkpt>
      <trkpt lat="43.2252470" lon="-3.1895400">
        <ele>312.8</ele>
        <time>2018-09-16T09:36:29Z</time>
      </trkpt>
      <trkpt lat="43.2250610" lon="-3.1894230">
        <ele>312.4</ele>
        <time>2018-09-16T09:36:31Z</time>
      </trkpt>
      <trkpt lat="43.2249040" lon="-3.1892590">
        <ele>311.6</ele>
        <time>2018-09-16T09:36:33Z</time>
      </trkpt>
      <trkpt lat="43.2246740" lon="-3.1889870">
        <ele>310.6</ele>
        <time>2018-09-16T09:36:36Z</time>
      </trkpt>
      <trkpt lat="43.2245840" lon="-3.1889140">
        <ele>310.2</ele>
        <time>2018-09-16T09:36:37Z</time>
      </trkpt>
      <trkpt lat="43.2244870" lon="-3.1888530">
        <ele>309.8</ele>
        <time>2018-09-16T09:36:38Z</time>
      </trkpt>
      <trkpt lat="43.2242760" lon="-3.1887820">
        <ele>309.2</ele>
        <time>2018-09-16T09:36:40Z</time>
      </trkpt>
      <trkpt lat="43.2240490" lon="-3.1887900">
        <ele>308.6</ele>
        <time>2018-09-16T09:36:42Z</time>
      </trkpt>
      <trkpt lat="43.2238150" lon="-3.1888390">
        <ele>308.2</ele>
        <time>2018-09-16T09:36:44Z</time>
      </trkpt>
      <trkpt lat="43.2235790" lon="-3.1888120">
        <ele>307.6</ele>
        <time>2018-09-16T09:36:46Z</time>
      </trkpt>
      <trkpt lat="43.2233710" lon="-3.1886340">
        <ele>307.0</ele>
        <time>2018-09-16T09:36:48Z</time>
      </trkpt>
      <trkpt lat="43.2231110" lon="-3.1882780">
        <ele>305.6</ele>
        <time>2018-09-16T09:36:51Z</time>
      </trkpt>
      <trkpt lat="43.2228630" lon="-3.1879080">
        <ele>303.8</ele>
        <time>2018-09-16T09:36:54Z</time>
      </trkpt>
      <trkpt lat="43.2226950" lon="-3.1876840">
        <ele>302.2</ele>
        <time>2018-09-16T09:36:56Z</time>
      </trkpt>
      <trkpt lat="43.2224960" lon="-3.1875170">
        <ele>301.6</ele>
        <time>2018-09-16T09:36:58Z</time>
      </trkpt>
      <trkpt lat="43.2222750" lon="-3.1873570">
        <ele>301.0</ele>
        <time>2018-09-16T09:37:00Z</time>
      </trkpt>
      <trkpt lat="43.2221110" lon="-3.1871030">
        <ele>299.8</ele>
        <time>2018-09-16T09:37:02Z</time>
      </trkpt>
      <trkpt lat="43.2219430" lon="-3.1866370">
        <ele>298.4</ele>
        <time>2018-09-16T09:37:05Z</time>
      </trkpt>
      <trkpt lat="43.2219510" lon="-3.1862980">
        <ele>297.0</ele>
        <time>2018-09-16T09:37:07Z</time>
      </trkpt>
      <trkpt lat="43.2220680" lon="-3.1859900">
        <ele>294.8</ele>
        <time>2018-09-16T09:37:09Z</time>
      </trkpt>
      <trkpt lat="43.2221410" lon="-3.1858410">
        <ele>293.8</ele>
        <time>2018-09-16T09:37:10Z</time>
      </trkpt>
      <trkpt lat="43.2222640" lon="-3.1855280">
        <ele>292.6</ele>
        <time>2018-09-16T09:37:12Z</time>
      </trkpt>
      <trkpt lat="43.2223440" lon="-3.1851910">
        <ele>291.4</ele>
        <time>2018-09-16T09:37:14Z</time>
      </trkpt>
      <trkpt lat="43.2224120" lon="-3.1848780">
        <ele>290.0</ele>
        <time>2018-09-16T09:37:16Z</time>
      </trkpt>
      <trkpt lat="43.2224920" lon="-3.1845890">
        <ele>288.4</ele>
        <time>2018-09-16T09:37:18Z</time>
      </trkpt>
      <trkpt lat="43.2226080" lon="-3.1843150">
        <ele>287.2</ele>
        <time>2018-09-16T09:37:20Z</time>
      </trkpt>
      <trkpt lat="43.2227240" lon="-3.1840540">
        <ele>285.6</ele>
        <time>2018-09-16T09:37:22Z</time>
      </trkpt>
      <trkpt lat="43.2228190" lon="-3.1837790">
        <ele>284.0</ele>
        <time>2018-09-16T09:37:24Z</time>
      </trkpt>
      <trkpt lat="43.2228650" lon="-3.1834750">
        <ele>282.4</ele>
        <time>2018-09-16T09:37:26Z</time>
      </trkpt>
      <trkpt lat="43.2228350" lon="-3.1831670">
        <ele>281.2</ele>
        <time>2018-09-16T09:37:28Z</time>
      </trkpt>
      <trkpt lat="43.2227590" lon="-3.1828730">
        <ele>280.0</ele>
        <time>2018-09-16T09:37:30Z</time>
      </trkpt>
      <trkpt lat="43.2225530" lon="-3.1824440">
        <ele>278.6</ele>
        <time>2018-09-16T09:37:33Z</time>
      </trkpt>
      <trkpt lat="43.2224290" lon="-3.1821620">
        <ele>277.2</ele>
        <time>2018-09-16T09:37:35Z</time>
      </trkpt>
      <trkpt lat="43.2223840" lon="-3.1820140">
        <ele>276.6</ele>
        <time>2018-09-16T09:37:36Z</time>
      </trkpt>
      <trkpt lat="43.2223590" lon="-3.1818620">
        <ele>276.2</ele>
        <time>2018-09-16T09:37:37Z</time>
      </trkpt>
      <trkpt lat="43.2223590" lon="-3.1816990">
        <ele>275.6</ele>
        <time>2018-09-16T09:37:38Z</time>
      </trkpt>
      <trkpt lat="43.2223810" lon="-3.1815360">
        <ele>275.0</ele>
        <time>2018-09-16T09:37:39Z</time>
      </trkpt>
      <trkpt lat="43.2224440" lon="-3.1812290">
        <ele>273.6</ele>
        <time>2018-09-16T09:37:41Z</time>
      </trkpt>
      <trkpt lat="43.2224490" lon="-3.1809260">
        <ele>272.0</ele>
        <time>2018-09-16T09:37:43Z</time>
      </trkpt>
      <trkpt lat="43.2223510" lon="-3.1806200">
        <ele>270.8</ele>
        <time>2018-09-16T09:37:45Z</time>
      </trkpt>
      <trkpt lat="43.2221870" lon="-3.1803470">
        <ele>270.0</ele>
        <time>2018-09-16T09:37:47Z</time>
      </trkpt>
      <trkpt lat="43.2220950" lon="-3.1802240">
        <ele>269.6</ele>
        <time>2018-09-16T09:37:48Z</time>
      </trkpt>
      <trkpt lat="43.2219970" lon="-3.1801120">
        <ele>269.4</ele>
        <time>2018-09-16T09:37:49Z</time>
      </trkpt>
      <trkpt lat="43.2217830" lon="-3.1799320">
        <ele>269.0</ele>
        <time>2018-09-16T09:37:51Z</time>
      </trkpt>
      <trkpt lat="43.2215410" lon="-3.1798190">
        <ele>268.4</ele>
        <time>2018-09-16T09:37:53Z</time>
      </trkpt>
      <trkpt lat="43.2212820" lon="-3.1798210">
        <ele>268.0</ele>
        <time>2018-09-16T09:37:55Z</time>
      </trkpt>
      <trkpt lat="43.2210320" lon="-3.1799420">
        <ele>266.8</ele>
        <time>2018-09-16T09:37:57Z</time>
      </trkpt>
      <trkpt lat="43.2207960" lon="-3.1801160">
        <ele>266.0</ele>
        <time>2018-09-16T09:37:59Z</time>
      </trkpt>
      <trkpt lat="43.2206790" lon="-3.1802100">
        <ele>265.4</ele>
        <time>2018-09-16T09:38:00Z</time>
      </trkpt>
      <trkpt lat="43.2204350" lon="-3.1804050">
        <ele>263.8</ele>
        <time>2018-09-16T09:38:02Z</time>
      </trkpt>
      <trkpt lat="43.2203070" lon="-3.1804750">
        <ele>262.6</ele>
        <time>2018-09-16T09:38:03Z</time>
      </trkpt>
      <trkpt lat="43.2201720" lon="-3.1805200">
        <ele>261.8</ele>
        <time>2018-09-16T09:38:04Z</time>
      </trkpt>
      <trkpt lat="43.2200390" lon="-3.1805060">
        <ele>261.2</ele>
        <time>2018-09-16T09:38:05Z</time>
      </trkpt>
      <trkpt lat="43.2199130" lon="-3.1804510">
        <ele>260.4</ele>
        <time>2018-09-16T09:38:06Z</time>
      </trkpt>
      <trkpt lat="43.2198020" lon="-3.1803640">
        <ele>259.6</ele>
        <time>2018-09-16T09:38:07Z</time>
      </trkpt>
      <trkpt lat="43.2197050" lon="-3.1802310">
        <ele>258.8</ele>
        <time>2018-09-16T09:38:08Z</time>
      </trkpt>
      <trkpt lat="43.2196090" lon="-3.1800960">
        <ele>258.4</ele>
        <time>2018-09-16T09:38:09Z</time>
      </trkpt>
      <trkpt lat="43.2195050" lon="-3.1799740">
        <ele>258.0</ele>
        <time>2018-09-16T09:38:10Z</time>
      </trkpt>
      <trkpt lat="43.2192700" lon="-3.1797590">
        <ele>257.2</ele>
        <time>2018-09-16T09:38:12Z</time>
      </trkpt>
      <trkpt lat="43.2191400" lon="-3.1796750">
        <ele>256.4</ele>
        <time>2018-09-16T09:38:13Z</time>
      </trkpt>
      <trkpt lat="43.2190100" lon="-3.1795980">
        <ele>255.2</ele>
        <time>2018-09-16T09:38:14Z</time>
      </trkpt>
      <trkpt lat="43.2187530" lon="-3.1794290">
        <ele>253.6</ele>
        <time>2018-09-16T09:38:16Z</time>
      </trkpt>
      <trkpt lat="43.2185210" lon="-3.1792050">
        <ele>252.0</ele>
        <time>2018-09-16T09:38:18Z</time>
      </trkpt>
      <trkpt lat="43.2182930" lon="-3.1789840">
        <ele>250.6</ele>
        <time>2018-09-16T09:38:20Z</time>
      </trkpt>
      <trkpt lat="43.2181770" lon="-3.1788870">
        <ele>249.2</ele>
        <time>2018-09-16T09:38:21Z</time>
      </trkpt>
      <trkpt lat="43.2180640" lon="-3.1787860">
        <ele>248.0</ele>
        <time>2018-09-16T09:38:22Z</time>
      </trkpt>
      <trkpt lat="43.2178320" lon="-3.1786020">
        <ele>246.8</ele>
        <time>2018-09-16T09:38:24Z</time>
      </trkpt>
      <trkpt lat="43.2175070" lon="-3.1783610">
        <ele>245.6</ele>
        <time>2018-09-16T09:38:27Z</time>
      </trkpt>
      <trkpt lat="43.2172930" lon="-3.1782080">
        <ele>244.6</ele>
        <time>2018-09-16T09:38:29Z</time>
      </trkpt>
      <trkpt lat="43.2170770" lon="-3.1780580">
        <ele>243.0</ele>
        <time>2018-09-16T09:38:31Z</time>
      </trkpt>
      <trkpt lat="43.2168750" lon="-3.1779010">
        <ele>241.6</ele>
        <time>2018-09-16T09:38:33Z</time>
      </trkpt>
      <trkpt lat="43.2166760" lon="-3.1777560">
        <ele>240.4</ele>
        <time>2018-09-16T09:38:35Z</time>
      </trkpt>
      <trkpt lat="43.2163910" lon="-3.1775480">
        <ele>239.2</ele>
        <time>2018-09-16T09:38:38Z</time>
      </trkpt>
      <trkpt lat="43.2163190" lon="-3.1774680">
        <ele>238.8</ele>
        <time>2018-09-16T09:38:39Z</time>
      </trkpt>
      <trkpt lat="43.2162640" lon="-3.1772560">
        <ele>238.2</ele>
        <time>2018-09-16T09:38:41Z</time>
      </trkpt>
      <trkpt lat="43.2162870" lon="-3.1771410">
        <ele>237.8</ele>
        <time>2018-09-16T09:38:42Z</time>
      </trkpt>
      <trkpt lat="43.2163390" lon="-3.1770410">
        <ele>237.6</ele>
        <time>2018-09-16T09:38:43Z</time>
      </trkpt>
      <trkpt lat="43.2165500" lon="-3.1768010">
        <ele>236.8</ele>
        <time>2018-09-16T09:38:46Z</time>
      </trkpt>
      <trkpt lat="43.2167030" lon="-3.1766440">
        <ele>235.6</ele>
        <time>2018-09-16T09:38:48Z</time>
      </trkpt>
      <trkpt lat="43.2169320" lon="-3.1763950">
        <ele>234.2</ele>
        <time>2018-09-16T09:38:51Z</time>
      </trkpt>
      <trkpt lat="43.2171790" lon="-3.1761670">
        <ele>233.2</ele>
        <time>2018-09-16T09:38:54Z</time>
      </trkpt>
      <trkpt lat="43.2174570" lon="-3.1759930">
        <ele>232.4</ele>
        <time>2018-09-16T09:38:57Z</time>
      </trkpt>
      <trkpt lat="43.2175580" lon="-3.1759530">
        <ele>232.2</ele>
        <time>2018-09-16T09:38:58Z</time>
      </trkpt>
      <trkpt lat="43.2177670" lon="-3.1759250">
        <ele>231.8</ele>
        <time>2018-09-16T09:39:00Z</time>
      </trkpt>
      <trkpt lat="43.2179750" lon="-3.1759910">
        <ele>231.0</ele>
        <time>2018-09-16T09:39:02Z</time>
      </trkpt>
      <trkpt lat="43.2181690" lon="-3.1761410">
        <ele>229.6</ele>
        <time>2018-09-16T09:39:04Z</time>
      </trkpt>
      <trkpt lat="43.2183550" lon="-3.1763260">
        <ele>228.4</ele>
        <time>2018-09-16T09:39:06Z</time>
      </trkpt>
      <trkpt lat="43.2185430" lon="-3.1765240">
        <ele>227.4</ele>
        <time>2018-09-16T09:39:08Z</time>
      </trkpt>
      <trkpt lat="43.2187260" lon="-3.1767180">
        <ele>225.8</ele>
        <time>2018-09-16T09:39:10Z</time>
      </trkpt>
      <trkpt lat="43.2189580" lon="-3.1767750">
        <ele>224.2</ele>
        <time>2018-09-16T09:39:12Z</time>
      </trkpt>
      <trkpt lat="43.2191400" lon="-3.1766380">
        <ele>222.6</ele>
        <time>2018-09-16T09:39:14Z</time>
      </trkpt>
      <trkpt lat="43.2192650" lon="-3.1763680">
        <ele>221.0</ele>
        <time>2018-09-16T09:39:16Z</time>
      </trkpt>
      <trkpt lat="43.2193920" lon="-3.1760770">
        <ele>219.8</ele>
        <time>2018-09-16T09:39:18Z</time>
      </trkpt>
      <trkpt lat="43.2195200" lon="-3.1757810">
        <ele>218.8</ele>
        <time>2018-09-16T09:39:20Z</time>
      </trkpt>
      <trkpt lat="43.2195930" lon="-3.1756480">
        <ele>218.2</ele>
        <time>2018-09-16T09:39:21Z</time>
      </trkpt>
      <trkpt lat="43.2196920" lon="-3.1755420">
        <ele>217.6</ele>
        <time>2018-09-16T09:39:22Z</time>
      </trkpt>
      <trkpt lat="43.2198110" lon="-3.1754760">
        <ele>217.2</ele>
        <time>2018-09-16T09:39:23Z</time>
      </trkpt>
      <trkpt lat="43.2200680" lon="-3.1754180">
        <ele>216.2</ele>
        <time>2018-09-16T09:39:25Z</time>
      </trkpt>
      <trkpt lat="43.2203290" lon="-3.1753940">
        <ele>214.6</ele>
        <time>2018-09-16T09:39:27Z</time>
      </trkpt>
      <trkpt lat="43.2204590" lon="-3.1753840">
        <ele>213.6</ele>
        <time>2018-09-16T09:39:28Z</time>
      </trkpt>
      <trkpt lat="43.2205890" lon="-3.1753700">
        <ele>212.6</ele>
        <time>2018-09-16T09:39:29Z</time>
      </trkpt>
      <trkpt lat="43.2208570" lon="-3.1753480">
        <ele>211.0</ele>
        <time>2018-09-16T09:39:31Z</time>
      </trkpt>
      <trkpt lat="43.2211430" lon="-3.1753460">
        <ele>209.4</ele>
        <time>2018-09-16T09:39:33Z</time>
      </trkpt>
      <trkpt lat="43.2214260" lon="-3.1753340">
        <ele>207.6</ele>
        <time>2018-09-16T09:39:35Z</time>
      </trkpt>
      <trkpt lat="43.2217060" lon="-3.1753090">
        <ele>206.2</ele>
        <time>2018-09-16T09:39:37Z</time>
      </trkpt>
      <trkpt lat="43.2218480" lon="-3.1752960">
        <ele>205.0</ele>
        <time>2018-09-16T09:39:38Z</time>
      </trkpt>
      <trkpt lat="43.2219920" lon="-3.1752830">
        <ele>203.2</ele>
        <time>2018-09-16T09:39:39Z</time>
      </trkpt>
      <trkpt lat="43.2221340" lon="-3.1752700">
        <ele>201.4</ele>
        <time>2018-09-16T09:39:40Z</time>
      </trkpt>
      <trkpt lat="43.2222740" lon="-3.1752580">
        <ele>200.0</ele>
        <time>2018-09-16T09:39:41Z</time>
      </trkpt>
      <trkpt lat="43.2224100" lon="-3.1752410">
        <ele>198.6</ele>
        <time>2018-09-16T09:39:42Z</time>
      </trkpt>
      <trkpt lat="43.2225370" lon="-3.1752030">
        <ele>197.2</ele>
        <time>2018-09-16T09:39:43Z</time>
      </trkpt>
      <trkpt lat="43.2226560" lon="-3.1751460">
        <ele>196.0</ele>
        <time>2018-09-16T09:39:44Z</time>
      </trkpt>
      <trkpt lat="43.2227590" lon="-3.1750670">
        <ele>195.0</ele>
        <time>2018-09-16T09:39:45Z</time>
      </trkpt>
      <trkpt lat="43.2228150" lon="-3.1749500">
        <ele>194.4</ele>
        <time>2018-09-16T09:39:46Z</time>
      </trkpt>
      <trkpt lat="43.2228320" lon="-3.1747910">
        <ele>193.6</ele>
        <time>2018-09-16T09:39:47Z</time>
      </trkpt>
      <trkpt lat="43.2228260" lon="-3.1746320">
        <ele>192.6</ele>
        <time>2018-09-16T09:39:48Z</time>
      </trkpt>
      <trkpt lat="43.2227800" lon="-3.1744550">
        <ele>191.8</ele>
        <time>2018-09-16T09:39:49Z</time>
      </trkpt>
      <trkpt lat="43.2227200" lon="-3.1742940">
        <ele>191.2</ele>
        <time>2018-09-16T09:39:50Z</time>
      </trkpt>
      <trkpt lat="43.2226480" lon="-3.1741430">
        <ele>190.6</ele>
        <time>2018-09-16T09:39:51Z</time>
      </trkpt>
      <trkpt lat="43.2225720" lon="-3.1739920">
        <ele>190.0</ele>
        <time>2018-09-16T09:39:52Z</time>
      </trkpt>
      <trkpt lat="43.2223510" lon="-3.1735890">
        <ele>189.2</ele>
        <time>2018-09-16T09:39:55Z</time>
      </trkpt>
      <trkpt lat="43.2222600" lon="-3.1734810">
        <ele>189.0</ele>
        <time>2018-09-16T09:39:56Z</time>
      </trkpt>
      <trkpt lat="43.2221770" lon="-3.1733640">
        <ele>188.6</ele>
        <time>2018-09-16T09:39:57Z</time>
      </trkpt>
      <trkpt lat="43.2220860" lon="-3.1730700">
        <ele>187.6</ele>
        <time>2018-09-16T09:39:59Z</time>
      </trkpt>
      <trkpt lat="43.2219970" lon="-3.1727830">
        <ele>187.2</ele>
        <time>2018-09-16T09:40:01Z</time>
      </trkpt>
      <trkpt lat="43.2218680" lon="-3.1724950">
        <ele>186.2</ele>
        <time>2018-09-16T09:40:03Z</time>
      </trkpt>
      <trkpt lat="43.2218020" lon="-3.1723530">
        <ele>185.6</ele>
        <time>2018-09-16T09:40:04Z</time>
      </trkpt>
      <trkpt lat="43.2217360" lon="-3.1722130">
        <ele>185.0</ele>
        <time>2018-09-16T09:40:05Z</time>
      </trkpt>
      <trkpt lat="43.2216040" lon="-3.1719350">
        <ele>184.6</ele>
        <time>2018-09-16T09:40:07Z</time>
      </trkpt>
      <trkpt lat="43.2215390" lon="-3.1717880">
        <ele>185.0</ele>
        <time>2018-09-16T09:40:08Z</time>
      </trkpt>
      <trkpt lat="43.2214040" lon="-3.1714950">
        <ele>184.4</ele>
        <time>2018-09-16T09:40:10Z</time>
      </trkpt>
      <trkpt lat="43.2212650" lon="-3.1712060">
        <ele>183.6</ele>
        <time>2018-09-16T09:40:12Z</time>
      </trkpt>
      <trkpt lat="43.2211970" lon="-3.1710560">
        <ele>182.4</ele>
        <time>2018-09-16T09:40:13Z</time>
      </trkpt>
      <trkpt lat="43.2210550" lon="-3.1707600">
        <ele>180.8</ele>
        <time>2018-09-16T09:40:15Z</time>
      </trkpt>
      <trkpt lat="43.2209210" lon="-3.1704650">
        <ele>179.6</ele>
        <time>2018-09-16T09:40:17Z</time>
      </trkpt>
      <trkpt lat="43.2207230" lon="-3.1700290">
        <ele>177.8</ele>
        <time>2018-09-16T09:40:20Z</time>
      </trkpt>
      <trkpt lat="43.2205970" lon="-3.1697430">
        <ele>177.0</ele>
        <time>2018-09-16T09:40:22Z</time>
      </trkpt>
      <trkpt lat="43.2205360" lon="-3.1696040">
        <ele>176.4</ele>
        <time>2018-09-16T09:40:23Z</time>
      </trkpt>
      <trkpt lat="43.2204180" lon="-3.1693310">
        <ele>175.2</ele>
        <time>2018-09-16T09:40:25Z</time>
      </trkpt>
      <trkpt lat="43.2203170" lon="-3.1690540">
        <ele>173.8</ele>
        <time>2018-09-16T09:40:27Z</time>
      </trkpt>
      <trkpt lat="43.2201910" lon="-3.1686250">
        <ele>172.8</ele>
        <time>2018-09-16T09:40:30Z</time>
      </trkpt>
      <trkpt lat="43.2200680" lon="-3.1682020">
        <ele>172.6</ele>
        <time>2018-09-16T09:40:33Z</time>
      </trkpt>
      <trkpt lat="43.2199810" lon="-3.1677580">
        <ele>172.2</ele>
        <time>2018-09-16T09:40:36Z</time>
      </trkpt>
      <trkpt lat="43.2199490" lon="-3.1674510">
        <ele>172.0</ele>
        <time>2018-09-16T09:40:38Z</time>
      </trkpt>
      <trkpt lat="43.2199210" lon="-3.1671460">
        <ele>171.6</ele>
        <time>2018-09-16T09:40:40Z</time>
      </trkpt>
      <trkpt lat="43.2198340" lon="-3.1663490">
        <ele>171.0</ele>
        <time>2018-09-16T09:40:45Z</time>
      </trkpt>
      <trkpt lat="43.2197450" lon="-3.1655500">
        <ele>171.2</ele>
        <time>2018-09-16T09:40:50Z</time>
      </trkpt>
      <trkpt lat="43.2197270" lon="-3.1653910">
        <ele>170.2</ele>
        <time>2018-09-16T09:40:51Z</time>
      </trkpt>
      <trkpt lat="43.2196880" lon="-3.1650730">
        <ele>168.6</ele>
        <time>2018-09-16T09:40:53Z</time>
      </trkpt>
      <trkpt lat="43.2196280" lon="-3.1645890">
        <ele>167.2</ele>
        <time>2018-09-16T09:40:56Z</time>
      </trkpt>
      <trkpt lat="43.2195690" lon="-3.1641230">
        <ele>165.4</ele>
        <time>2018-09-16T09:40:59Z</time>
      </trkpt>
      <trkpt lat="43.2195310" lon="-3.1638170">
        <ele>164.4</ele>
        <time>2018-09-16T09:41:01Z</time>
      </trkpt>
      <trkpt lat="43.2194760" lon="-3.1633570">
        <ele>162.6</ele>
        <time>2018-09-16T09:41:04Z</time>
      </trkpt>
      <trkpt lat="43.2194270" lon="-3.1628730">
        <ele>161.4</ele>
        <time>2018-09-16T09:41:07Z</time>
      </trkpt>
      <trkpt lat="43.2194010" lon="-3.1625510">
        <ele>160.2</ele>
        <time>2018-09-16T09:41:09Z</time>
      </trkpt>
      <trkpt lat="43.2193830" lon="-3.1619190">
        <ele>159.0</ele>
        <time>2018-09-16T09:41:13Z</time>
      </trkpt>
      <trkpt lat="43.2193950" lon="-3.1616100">
        <ele>158.6</ele>
        <time>2018-09-16T09:41:15Z</time>
      </trkpt>
      <trkpt lat="43.2194310" lon="-3.1613140">
        <ele>157.6</ele>
        <time>2018-09-16T09:41:17Z</time>
      </trkpt>
      <trkpt lat="43.2194890" lon="-3.1610400">
        <ele>156.0</ele>
        <time>2018-09-16T09:41:19Z</time>
      </trkpt>
      <trkpt lat="43.2195640" lon="-3.1607760">
        <ele>154.6</ele>
        <time>2018-09-16T09:41:21Z</time>
      </trkpt>
      <trkpt lat="43.2196880" lon="-3.1603760">
        <ele>153.6</ele>
        <time>2018-09-16T09:41:24Z</time>
      </trkpt>
      <trkpt lat="43.2197740" lon="-3.1599440">
        <ele>152.4</ele>
        <time>2018-09-16T09:41:27Z</time>
      </trkpt>
      <trkpt lat="43.2197840" lon="-3.1595270">
        <ele>151.8</ele>
        <time>2018-09-16T09:41:30Z</time>
      </trkpt>
      <trkpt lat="43.2197740" lon="-3.1594020">
        <ele>151.4</ele>
        <time>2018-09-16T09:41:31Z</time>
      </trkpt>
      <trkpt lat="43.2197130" lon="-3.1586640">
        <ele>150.6</ele>
        <time>2018-09-16T09:41:37Z</time>
      </trkpt>
      <trkpt lat="43.2197830" lon="-3.1578330">
        <ele>151.0</ele>
        <time>2018-09-16T09:41:44Z</time>
      </trkpt>
      <trkpt lat="43.2198280" lon="-3.1574780">
        <ele>150.6</ele>
        <time>2018-09-16T09:41:47Z</time>
      </trkpt>
      <trkpt lat="43.2198410" lon="-3.1573550">
        <ele>150.0</ele>
        <time>2018-09-16T09:41:48Z</time>
      </trkpt>
      <trkpt lat="43.2198800" lon="-3.1569680">
        <ele>148.8</ele>
        <time>2018-09-16T09:41:51Z</time>
      </trkpt>
      <trkpt lat="43.2199130" lon="-3.1565490">
        <ele>147.8</ele>
        <time>2018-09-16T09:41:54Z</time>
      </trkpt>
      <trkpt lat="43.2199410" lon="-3.1562680">
        <ele>147.6</ele>
        <time>2018-09-16T09:41:56Z</time>
      </trkpt>
      <trkpt lat="43.2199620" lon="-3.1559850">
        <ele>147.4</ele>
        <time>2018-09-16T09:41:58Z</time>
      </trkpt>
      <trkpt lat="43.2199620" lon="-3.1551350">
        <ele>147.8</ele>
        <time>2018-09-16T09:42:04Z</time>
      </trkpt>
      <trkpt lat="43.2199440" lon="-3.1548580">
        <ele>147.8</ele>
        <time>2018-09-16T09:42:06Z</time>
      </trkpt>
      <trkpt lat="43.2199320" lon="-3.1545800">
        <ele>146.4</ele>
        <time>2018-09-16T09:42:08Z</time>
      </trkpt>
      <trkpt lat="43.2199300" lon="-3.1544380">
        <ele>145.2</ele>
        <time>2018-09-16T09:42:09Z</time>
      </trkpt>
      <trkpt lat="43.2199290" lon="-3.1542950">
        <ele>143.8</ele>
        <time>2018-09-16T09:42:10Z</time>
      </trkpt>
      <trkpt lat="43.2199340" lon="-3.1541520">
        <ele>142.6</ele>
        <time>2018-09-16T09:42:11Z</time>
      </trkpt>
      <trkpt lat="43.2199460" lon="-3.1538670">
        <ele>141.2</ele>
        <time>2018-09-16T09:42:13Z</time>
      </trkpt>
      <trkpt lat="43.2199890" lon="-3.1529960">
        <ele>141.2</ele>
        <time>2018-09-16T09:42:19Z</time>
      </trkpt>
      <trkpt lat="43.2199950" lon="-3.1527000">
        <ele>140.6</ele>
        <time>2018-09-16T09:42:21Z</time>
      </trkpt>
      <trkpt lat="43.2199920" lon="-3.1525510">
        <ele>140.2</ele>
        <time>2018-09-16T09:42:22Z</time>
      </trkpt>
      <trkpt lat="43.2199710" lon="-3.1522560">
        <ele>139.2</ele>
        <time>2018-09-16T09:42:24Z</time>
      </trkpt>
      <trkpt lat="43.2199520" lon="-3.1521100">
        <ele>138.6</ele>
        <time>2018-09-16T09:42:25Z</time>
      </trkpt>
      <trkpt lat="43.2199010" lon="-3.1518290">
        <ele>137.4</ele>
        <time>2018-09-16T09:42:27Z</time>
      </trkpt>
      <trkpt lat="43.2198490" lon="-3.1515690">
        <ele>136.6</ele>
        <time>2018-09-16T09:42:29Z</time>
      </trkpt>
      <trkpt lat="43.2198200" lon="-3.1514360">
        <ele>136.2</ele>
        <time>2018-09-16T09:42:30Z</time>
      </trkpt>
      <trkpt lat="43.2197390" lon="-3.1510350">
        <ele>135.0</ele>
        <time>2018-09-16T09:42:33Z</time>
      </trkpt>
      <trkpt lat="43.2196830" lon="-3.1507690">
        <ele>134.0</ele>
        <time>2018-09-16T09:42:35Z</time>
      </trkpt>
      <trkpt lat="43.2195790" lon="-3.1502560">
        <ele>133.2</ele>
        <time>2018-09-16T09:42:39Z</time>
      </trkpt>
      <trkpt lat="43.2195560" lon="-3.1501290">
        <ele>132.8</ele>
        <time>2018-09-16T09:42:40Z</time>
      </trkpt>
      <trkpt lat="43.2194860" lon="-3.1497360">
        <ele>132.6</ele>
        <time>2018-09-16T09:42:43Z</time>
      </trkpt>
      <trkpt lat="43.2193470" lon="-3.1491010">
        <ele>131.8</ele>
        <time>2018-09-16T09:42:48Z</time>
      </trkpt>
      <trkpt lat="43.2192300" lon="-3.1487330">
        <ele>130.6</ele>
        <time>2018-09-16T09:42:51Z</time>
      </trkpt>
      <trkpt lat="43.2191390" lon="-3.1485020">
        <ele>130.4</ele>
        <time>2018-09-16T09:42:53Z</time>
      </trkpt>
      <trkpt lat="43.2188390" lon="-3.1478520">
        <ele>129.6</ele>
        <time>2018-09-16T09:42:59Z</time>
      </trkpt>
      <trkpt lat="43.2187880" lon="-3.1477470">
        <ele>129.6</ele>
        <time>2018-09-16T09:43:00Z</time>
      </trkpt>
      <trkpt lat="43.2186910" lon="-3.1475320">
        <ele>129.4</ele>
        <time>2018-09-16T09:43:02Z</time>
      </trkpt>
      <trkpt lat="43.2185980" lon="-3.1473200">
        <ele>129.4</ele>
        <time>2018-09-16T09:43:04Z</time>
      </trkpt>
      <trkpt lat="43.2183220" lon="-3.1466790">
        <ele>129.2</ele>
        <time>2018-09-16T09:43:10Z</time>
      </trkpt>
      <trkpt lat="43.2181770" lon="-3.1463610">
        <ele>128.4</ele>
        <time>2018-09-16T09:43:13Z</time>
      </trkpt>
      <trkpt lat="43.2178360" lon="-3.1457790">
        <ele>128.0</ele>
        <time>2018-09-16T09:43:19Z</time>
      </trkpt>
      <trkpt lat="43.2176760" lon="-3.1455090">
        <ele>128.2</ele>
        <time>2018-09-16T09:43:22Z</time>
      </trkpt>
      <trkpt lat="43.2175800" lon="-3.1453180">
        <ele>128.4</ele>
        <time>2018-09-16T09:43:24Z</time>
      </trkpt>
      <trkpt lat="43.2173830" lon="-3.1447760">
        <ele>128.2</ele>
        <time>2018-09-16T09:43:29Z</time>
      </trkpt>
      <trkpt lat="43.2172530" lon="-3.1443040">
        <ele>127.8</ele>
        <time>2018-09-16T09:43:33Z</time>
      </trkpt>
      <trkpt lat="43.2171980" lon="-3.1440620">
        <ele>127.2</ele>
        <time>2018-09-16T09:43:35Z</time>
      </trkpt>
      <trkpt lat="43.2171280" lon="-3.1435790">
        <ele>126.0</ele>
        <time>2018-09-16T09:43:39Z</time>
      </trkpt>
      <trkpt lat="43.2170760" lon="-3.1430890">
        <ele>124.8</ele>
        <time>2018-09-16T09:43:43Z</time>
      </trkpt>
      <trkpt lat="43.2170140" lon="-3.1425950">
        <ele>123.8</ele>
        <time>2018-09-16T09:43:47Z</time>
      </trkpt>
      <trkpt lat="43.2169720" lon="-3.1421290">
        <ele>122.6</ele>
        <time>2018-09-16T09:43:51Z</time>
      </trkpt>
      <trkpt lat="43.2169030" lon="-3.1416500">
        <ele>121.6</ele>
        <time>2018-09-16T09:43:56Z</time>
      </trkpt>
      <trkpt lat="43.2168670" lon="-3.1414480">
        <ele>120.6</ele>
        <time>2018-09-16T09:43:59Z</time>
      </trkpt>
      <trkpt lat="43.2168570" lon="-3.1413770">
        <ele>120.0</ele>
        <time>2018-09-16T09:44:01Z</time>
      </trkpt>
      <trkpt lat="43.2168490" lon="-3.1413190">
        <ele>119.4</ele>
        <time>2018-09-16T09:44:03Z</time>
      </trkpt>
      <trkpt lat="43.2168290" lon="-3.1412280">
        <ele>118.4</ele>
        <time>2018-09-16T09:44:07Z</time>
      </trkpt>
      <trkpt lat="43.2168260" lon="-3.1412220">
        <ele>118.0</ele>
        <time>2018-09-16T09:44:09Z</time>
      </trkpt>
      <trkpt lat="43.2168190" lon="-3.1410860">
        <ele>112.0</ele>
        <time>2018-09-16T09:44:46Z</time>
      </trkpt>
      <trkpt lat="43.2168040" lon="-3.1409330">
        <ele>111.4</ele>
        <time>2018-09-16T09:44:51Z</time>
      </trkpt>
      <trkpt lat="43.2167960" lon="-3.1408790">
        <ele>111.4</ele>
        <time>2018-09-16T09:44:52Z</time>
      </trkpt>
      <trkpt lat="43.2167770" lon="-3.1407290">
        <ele>111.2</ele>
        <time>2018-09-16T09:44:54Z</time>
      </trkpt>
      <trkpt lat="43.2167690" lon="-3.1406390">
        <ele>111.4</ele>
        <time>2018-09-16T09:44:55Z</time>
      </trkpt>
      <trkpt lat="43.2167600" lon="-3.1405390">
        <ele>111.4</ele>
        <time>2018-09-16T09:44:56Z</time>
      </trkpt>
      <trkpt lat="43.2167510" lon="-3.1404350">
        <ele>111.6</ele>
        <time>2018-09-16T09:44:57Z</time>
      </trkpt>
      <trkpt lat="43.2167420" lon="-3.1403240">
        <ele>111.8</ele>
        <time>2018-09-16T09:44:58Z</time>
      </trkpt>
      <trkpt lat="43.2167050" lon="-3.1400830">
        <ele>112.2</ele>
        <time>2018-09-16T09:45:00Z</time>
      </trkpt>
      <trkpt lat="43.2166750" lon="-3.1399640">
        <ele>112.6</ele>
        <time>2018-09-16T09:45:01Z</time>
      </trkpt>
      <trkpt lat="43.2166450" lon="-3.1398480">
        <ele>112.8</ele>
        <time>2018-09-16T09:45:02Z</time>
      </trkpt>
      <trkpt lat="43.2166120" lon="-3.1397300">
        <ele>113.0</ele>
        <time>2018-09-16T09:45:03Z</time>
      </trkpt>
      <trkpt lat="43.2165770" lon="-3.1396140">
        <ele>113.2</ele>
        <time>2018-09-16T09:45:04Z</time>
      </trkpt>
      <trkpt lat="43.2163700" lon="-3.1388770">
        <ele>113.4</ele>
        <time>2018-09-16T09:45:10Z</time>
      </trkpt>
      <trkpt lat="43.2162310" lon="-3.1384270">
        <ele>113.8</ele>
        <time>2018-09-16T09:45:14Z</time>
      </trkpt>
      <trkpt lat="43.2161660" lon="-3.1382030">
        <ele>114.2</ele>
        <time>2018-09-16T09:45:16Z</time>
      </trkpt>
      <trkpt lat="43.2159730" lon="-3.1375070">
        <ele>114.6</ele>
        <time>2018-09-16T09:45:22Z</time>
      </trkpt>
      <trkpt lat="43.2157970" lon="-3.1368390">
        <ele>115.2</ele>
        <time>2018-09-16T09:45:28Z</time>
      </trkpt>
      <trkpt lat="43.2156000" lon="-3.1360430">
        <ele>115.2</ele>
        <time>2018-09-16T09:45:35Z</time>
      </trkpt>
      <trkpt lat="43.2154840" lon="-3.1356000">
        <ele>115.4</ele>
        <time>2018-09-16T09:45:39Z</time>
      </trkpt>
      <trkpt lat="43.2154000" lon="-3.1352650">
        <ele>115.2</ele>
        <time>2018-09-16T09:45:42Z</time>
      </trkpt>
      <trkpt lat="43.2152300" lon="-3.1345040">
        <ele>115.2</ele>
        <time>2018-09-16T09:45:49Z</time>
      </trkpt>
      <trkpt lat="43.2152350" lon="-3.1344030">
        <ele>115.2</ele>
        <time>2018-09-16T09:45:50Z</time>
      </trkpt>
      <trkpt lat="43.2151470" lon="-3.1342220">
        <ele>115.2</ele>
        <time>2018-09-16T09:45:52Z</time>
      </trkpt>
      <trkpt lat="43.2150920" lon="-3.1341530">
        <ele>115.2</ele>
        <time>2018-09-16T09:45:53Z</time>
      </trkpt>
      <trkpt lat="43.2150370" lon="-3.1340840">
        <ele>115.2</ele>
        <time>2018-09-16T09:45:54Z</time>
      </trkpt>
      <trkpt lat="43.2149890" lon="-3.1340070">
        <ele>115.2</ele>
        <time>2018-09-16T09:45:55Z</time>
      </trkpt>
      <trkpt lat="43.2149000" lon="-3.1338540">
        <ele>115.2</ele>
        <time>2018-09-16T09:45:57Z</time>
      </trkpt>
      <trkpt lat="43.2146340" lon="-3.1334230">
        <ele>115.2</ele>
        <time>2018-09-16T09:46:04Z</time>
      </trkpt>
      <trkpt lat="43.2145630" lon="-3.1334030">
        <ele>115.2</ele>
        <time>2018-09-16T09:46:06Z</time>
      </trkpt>
      <trkpt lat="43.2143670" lon="-3.1334840">
        <ele>114.0</ele>
        <time>2018-09-16T09:46:10Z</time>
      </trkpt>
      <trkpt lat="43.2142420" lon="-3.1334990">
        <ele>113.0</ele>
        <time>2018-09-16T09:46:13Z</time>
      </trkpt>
      <trkpt lat="43.2142090" lon="-3.1334160">
        <ele>112.2</ele>
        <time>2018-09-16T09:46:15Z</time>
      </trkpt>
      <trkpt lat="43.2142020" lon="-3.1333560">
        <ele>112.0</ele>
        <time>2018-09-16T09:46:16Z</time>
      </trkpt>
      <trkpt lat="43.2141770" lon="-3.1331540">
        <ele>111.2</ele>
        <time>2018-09-16T09:46:19Z</time>
      </trkpt>
      <trkpt lat="43.2141440" lon="-3.1329380">
        <ele>110.8</ele>
        <time>2018-09-16T09:46:22Z</time>
      </trkpt>
      <trkpt lat="43.2140510" lon="-3.1323070">
        <ele>110.8</ele>
        <time>2018-09-16T09:46:30Z</time>
      </trkpt>
      <trkpt lat="43.2139630" lon="-3.1320470">
        <ele>110.8</ele>
        <time>2018-09-16T09:46:33Z</time>
      </trkpt>
      <trkpt lat="43.2138880" lon="-3.1318510">
        <ele>110.8</ele>
        <time>2018-09-16T09:46:35Z</time>
      </trkpt>
      <trkpt lat="43.2137150" lon="-3.1313590">
        <ele>110.4</ele>
        <time>2018-09-16T09:46:40Z</time>
      </trkpt>
      <trkpt lat="43.2135700" lon="-3.1306160">
        <ele>111.4</ele>
        <time>2018-09-16T09:46:48Z</time>
      </trkpt>
      <trkpt lat="43.2134290" lon="-3.1301100">
        <ele>111.8</ele>
        <time>2018-09-16T09:46:55Z</time>
      </trkpt>
      <trkpt lat="43.2133870" lon="-3.1299680">
        <ele>112.0</ele>
        <time>2018-09-16T09:46:57Z</time>
      </trkpt>
      <trkpt lat="43.2133500" lon="-3.1298060">
        <ele>112.0</ele>
        <time>2018-09-16T09:46:59Z</time>
      </trkpt>
      <trkpt lat="43.2133010" lon="-3.1296330">
        <ele>111.6</ele>
        <time>2018-09-16T09:47:01Z</time>
      </trkpt>
      <trkpt lat="43.2132690" lon="-3.1295430">
        <ele>111.6</ele>
        <time>2018-09-16T09:47:02Z</time>
      </trkpt>
      <trkpt lat="43.2131940" lon="-3.1293600">
        <ele>111.6</ele>
        <time>2018-09-16T09:47:04Z</time>
      </trkpt>
      <trkpt lat="43.2131130" lon="-3.1291730">
        <ele>111.6</ele>
        <time>2018-09-16T09:47:06Z</time>
      </trkpt>
      <trkpt lat="43.2128510" lon="-3.1284810">
        <ele>111.6</ele>
        <time>2018-09-16T09:47:13Z</time>
      </trkpt>
      <trkpt lat="43.2127050" lon="-3.1277160">
        <ele>110.8</ele>
        <time>2018-09-16T09:47:20Z</time>
      </trkpt>
      <trkpt lat="43.2126840" lon="-3.1276060">
        <ele>110.8</ele>
        <time>2018-09-16T09:47:21Z</time>
      </trkpt>
      <trkpt lat="43.2126180" lon="-3.1273940">
        <ele>110.8</ele>
        <time>2018-09-16T09:47:23Z</time>
      </trkpt>
      <trkpt lat="43.2125240" lon="-3.1272060">
        <ele>110.8</ele>
        <time>2018-09-16T09:47:25Z</time>
      </trkpt>
      <trkpt lat="43.2122160" lon="-3.1268230">
        <ele>110.8</ele>
        <time>2018-09-16T09:47:30Z</time>
      </trkpt>
      <trkpt lat="43.2118660" lon="-3.1262090">
        <ele>111.2</ele>
        <time>2018-09-16T09:47:37Z</time>
      </trkpt>
      <trkpt lat="43.2115340" lon="-3.1255690">
        <ele>111.0</ele>
        <time>2018-09-16T09:47:44Z</time>
      </trkpt>
      <trkpt lat="43.2111050" lon="-3.1249990">
        <ele>110.8</ele>
        <time>2018-09-16T09:47:52Z</time>
      </trkpt>
      <trkpt lat="43.2109360" lon="-3.1248370">
        <ele>110.2</ele>
        <time>2018-09-16T09:47:55Z</time>
      </trkpt>
      <trkpt lat="43.2109240" lon="-3.1246590">
        <ele>110.4</ele>
        <time>2018-09-16T09:47:57Z</time>
      </trkpt>
      <trkpt lat="43.2110180" lon="-3.1244850">
        <ele>110.2</ele>
        <time>2018-09-16T09:47:59Z</time>
      </trkpt>
      <trkpt lat="43.2111170" lon="-3.1243220">
        <ele>110.4</ele>
        <time>2018-09-16T09:48:01Z</time>
      </trkpt>
      <trkpt lat="43.2111430" lon="-3.1241280">
        <ele>110.6</ele>
        <time>2018-09-16T09:48:03Z</time>
      </trkpt>
      <trkpt lat="43.2110300" lon="-3.1233990">
        <ele>111.0</ele>
        <time>2018-09-16T09:48:10Z</time>
      </trkpt>
      <trkpt lat="43.2107910" lon="-3.1226310">
        <ele>111.2</ele>
        <time>2018-09-16T09:48:18Z</time>
      </trkpt>
      <trkpt lat="43.2104970" lon="-3.1219950">
        <ele>111.4</ele>
        <time>2018-09-16T09:48:25Z</time>
      </trkpt>
      <trkpt lat="43.2101950" lon="-3.1213390">
        <ele>110.4</ele>
        <time>2018-09-16T09:48:32Z</time>
      </trkpt>
      <trkpt lat="43.2100760" lon="-3.1210430">
        <ele>110.2</ele>
        <time>2018-09-16T09:48:35Z</time>
      </trkpt>
      <trkpt lat="43.2100340" lon="-3.1208230">
        <ele>110.0</ele>
        <time>2018-09-16T09:48:37Z</time>
      </trkpt>
      <trkpt lat="43.2100350" lon="-3.1205920">
        <ele>110.2</ele>
        <time>2018-09-16T09:48:39Z</time>
      </trkpt>
      <trkpt lat="43.2100710" lon="-3.1202440">
        <ele>109.8</ele>
        <time>2018-09-16T09:48:42Z</time>
      </trkpt>
      <trkpt lat="43.2101870" lon="-3.1194150">
        <ele>109.4</ele>
        <time>2018-09-16T09:48:49Z</time>
      </trkpt>
      <trkpt lat="43.2102850" lon="-3.1186270">
        <ele>109.6</ele>
        <time>2018-09-16T09:48:56Z</time>
      </trkpt>
      <trkpt lat="43.2103660" lon="-3.1178480">
        <ele>109.4</ele>
        <time>2018-09-16T09:49:03Z</time>
      </trkpt>
      <trkpt lat="43.2104690" lon="-3.1170360">
        <ele>108.8</ele>
        <time>2018-09-16T09:49:10Z</time>
      </trkpt>
      <trkpt lat="43.2105320" lon="-3.1165750">
        <ele>108.4</ele>
        <time>2018-09-16T09:49:14Z</time>
      </trkpt>
      <trkpt lat="43.2106280" lon="-3.1157690">
        <ele>108.2</ele>
        <time>2018-09-16T09:49:21Z</time>
      </trkpt>
      <trkpt lat="43.2106590" lon="-3.1155390">
        <ele>107.8</ele>
        <time>2018-09-16T09:49:23Z</time>
      </trkpt>
      <trkpt lat="43.2106910" lon="-3.1153070">
        <ele>107.6</ele>
        <time>2018-09-16T09:49:25Z</time>
      </trkpt>
      <trkpt lat="43.2107750" lon="-3.1149780">
        <ele>107.2</ele>
        <time>2018-09-16T09:49:28Z</time>
      </trkpt>
      <trkpt lat="43.2110870" lon="-3.1143110">
        <ele>107.4</ele>
        <time>2018-09-16T09:49:35Z</time>
      </trkpt>
      <trkpt lat="43.2114210" lon="-3.1136270">
        <ele>106.8</ele>
        <time>2018-09-16T09:49:42Z</time>
      </trkpt>
      <trkpt lat="43.2117050" lon="-3.1129130">
        <ele>106.6</ele>
        <time>2018-09-16T09:49:49Z</time>
      </trkpt>
      <trkpt lat="43.2119160" lon="-3.1122900">
        <ele>107.0</ele>
        <time>2018-09-16T09:49:55Z</time>
      </trkpt>
      <trkpt lat="43.2119720" lon="-3.1114630">
        <ele>107.2</ele>
        <time>2018-09-16T09:50:02Z</time>
      </trkpt>
      <trkpt lat="43.2119170" lon="-3.1112380">
        <ele>107.2</ele>
        <time>2018-09-16T09:50:04Z</time>
      </trkpt>
      <trkpt lat="43.2116040" lon="-3.1106180">
        <ele>107.0</ele>
        <time>2018-09-16T09:50:10Z</time>
      </trkpt>
      <trkpt lat="43.2114610" lon="-3.1099010">
        <ele>106.6</ele>
        <time>2018-09-16T09:50:16Z</time>
      </trkpt>
      <trkpt lat="43.2114380" lon="-3.1097850">
        <ele>106.6</ele>
        <time>2018-09-16T09:50:17Z</time>
      </trkpt>
      <trkpt lat="43.2113570" lon="-3.1093000">
        <ele>106.8</ele>
        <time>2018-09-16T09:50:21Z</time>
      </trkpt>
      <trkpt lat="43.2113730" lon="-3.1090460">
        <ele>107.4</ele>
        <time>2018-09-16T09:50:23Z</time>
      </trkpt>
      <trkpt lat="43.2114390" lon="-3.1088170">
        <ele>107.4</ele>
        <time>2018-09-16T09:50:25Z</time>
      </trkpt>
      <trkpt lat="43.2117400" lon="-3.1081860">
        <ele>106.0</ele>
        <time>2018-09-16T09:50:31Z</time>
      </trkpt>
      <trkpt lat="43.2120900" lon="-3.1074940">
        <ele>106.0</ele>
        <time>2018-09-16T09:50:38Z</time>
      </trkpt>
      <trkpt lat="43.2122440" lon="-3.1071970">
        <ele>105.4</ele>
        <time>2018-09-16T09:50:41Z</time>
      </trkpt>
      <trkpt lat="43.2125880" lon="-3.1064940">
        <ele>105.4</ele>
        <time>2018-09-16T09:50:48Z</time>
      </trkpt>
      <trkpt lat="43.2127830" lon="-3.1059680">
        <ele>106.0</ele>
        <time>2018-09-16T09:50:53Z</time>
      </trkpt>
      <trkpt lat="43.2128320" lon="-3.1051560">
        <ele>105.8</ele>
        <time>2018-09-16T09:51:00Z</time>
      </trkpt>
      <trkpt lat="43.2128490" lon="-3.1043810">
        <ele>106.4</ele>
        <time>2018-09-16T09:51:07Z</time>
      </trkpt>
      <trkpt lat="43.2128670" lon="-3.1035970">
        <ele>105.6</ele>
        <time>2018-09-16T09:51:14Z</time>
      </trkpt>
      <trkpt lat="43.2128250" lon="-3.1028450">
        <ele>106.0</ele>
        <time>2018-09-16T09:51:21Z</time>
      </trkpt>
      <trkpt lat="43.2127880" lon="-3.1023420">
        <ele>106.4</ele>
        <time>2018-09-16T09:51:26Z</time>
      </trkpt>
      <trkpt lat="43.2127670" lon="-3.1018450">
        <ele>105.6</ele>
        <time>2018-09-16T09:51:31Z</time>
      </trkpt>
      <trkpt lat="43.2127700" lon="-3.1014170">
        <ele>104.2</ele>
        <time>2018-09-16T09:51:35Z</time>
      </trkpt>
      <trkpt lat="43.2127710" lon="-3.1010840">
        <ele>103.4</ele>
        <time>2018-09-16T09:51:38Z</time>
      </trkpt>
      <trkpt lat="43.2127680" lon="-3.1004870">
        <ele>103.0</ele>
        <time>2018-09-16T09:51:43Z</time>
      </trkpt>
      <trkpt lat="43.2127780" lon="-3.1000330">
        <ele>102.6</ele>
        <time>2018-09-16T09:51:47Z</time>
      </trkpt>
      <trkpt lat="43.2128110" lon="-3.0996980">
        <ele>102.6</ele>
        <time>2018-09-16T09:51:50Z</time>
      </trkpt>
      <trkpt lat="43.2128750" lon="-3.0991170">
        <ele>102.0</ele>
        <time>2018-09-16T09:51:55Z</time>
      </trkpt>
      <trkpt lat="43.2129120" lon="-3.0987710">
        <ele>101.6</ele>
        <time>2018-09-16T09:51:58Z</time>
      </trkpt>
      <trkpt lat="43.2129780" lon="-3.0979570">
        <ele>101.6</ele>
        <time>2018-09-16T09:52:05Z</time>
      </trkpt>
      <trkpt lat="43.2129840" lon="-3.0971400">
        <ele>101.2</ele>
        <time>2018-09-16T09:52:12Z</time>
      </trkpt>
      <trkpt lat="43.2129890" lon="-3.0969190">
        <ele>101.0</ele>
        <time>2018-09-16T09:52:14Z</time>
      </trkpt>
      <trkpt lat="43.2129900" lon="-3.0964820">
        <ele>100.4</ele>
        <time>2018-09-16T09:52:18Z</time>
      </trkpt>
      <trkpt lat="43.2129610" lon="-3.0959730">
        <ele>101.8</ele>
        <time>2018-09-16T09:52:23Z</time>
      </trkpt>
      <trkpt lat="43.2129420" lon="-3.0958930">
        <ele>101.8</ele>
        <time>2018-09-16T09:52:24Z</time>
      </trkpt>
      <trkpt lat="43.2129010" lon="-3.0958270">
        <ele>101.8</ele>
        <time>2018-09-16T09:52:25Z</time>
      </trkpt>
      <trkpt lat="43.2124020" lon="-3.0954590">
        <ele>101.4</ele>
        <time>2018-09-16T09:52:32Z</time>
      </trkpt>
      <trkpt lat="43.2122540" lon="-3.0954090">
        <ele>101.2</ele>
        <time>2018-09-16T09:52:34Z</time>
      </trkpt>
      <trkpt lat="43.2121070" lon="-3.0953930">
        <ele>101.4</ele>
        <time>2018-09-16T09:52:36Z</time>
      </trkpt>
      <trkpt lat="43.2118120" lon="-3.0954010">
        <ele>101.6</ele>
        <time>2018-09-16T09:52:40Z</time>
      </trkpt>
      <trkpt lat="43.2116610" lon="-3.0954090">
        <ele>101.6</ele>
        <time>2018-09-16T09:52:42Z</time>
      </trkpt>
      <trkpt lat="43.2112740" lon="-3.0954200">
        <ele>100.4</ele>
        <time>2018-09-16T09:52:47Z</time>
      </trkpt>
      <trkpt lat="43.2108770" lon="-3.0955000">
        <ele>99.8</ele>
        <time>2018-09-16T09:52:52Z</time>
      </trkpt>
      <trkpt lat="43.2103540" lon="-3.0955910">
        <ele>99.6</ele>
        <time>2018-09-16T09:53:00Z</time>
      </trkpt>
      <trkpt lat="43.2102960" lon="-3.0955800">
        <ele>99.4</ele>
        <time>2018-09-16T09:53:03Z</time>
      </trkpt>
      <trkpt lat="43.2102260" lon="-3.0955300">
        <ele>99.0</ele>
        <time>2018-09-16T09:53:05Z</time>
      </trkpt>
      <trkpt lat="43.2101550" lon="-3.0954150">
        <ele>98.8</ele>
        <time>2018-09-16T09:53:07Z</time>
      </trkpt>
      <trkpt lat="43.2100510" lon="-3.0951790">
        <ele>98.6</ele>
        <time>2018-09-16T09:53:10Z</time>
      </trkpt>
      <trkpt lat="43.2099750" lon="-3.0949990">
        <ele>98.6</ele>
        <time>2018-09-16T09:53:12Z</time>
      </trkpt>
      <trkpt lat="43.2098960" lon="-3.0948110">
        <ele>98.4</ele>
        <time>2018-09-16T09:53:14Z</time>
      </trkpt>
      <trkpt lat="43.2097730" lon="-3.0945270">
        <ele>98.0</ele>
        <time>2018-09-16T09:53:17Z</time>
      </trkpt>
      <trkpt lat="43.2096870" lon="-3.0943340">
        <ele>97.6</ele>
        <time>2018-09-16T09:53:19Z</time>
      </trkpt>
      <trkpt lat="43.2093970" lon="-3.0936670">
        <ele>97.6</ele>
        <time>2018-09-16T09:53:26Z</time>
      </trkpt>
      <trkpt lat="43.2091600" lon="-3.0931530">
        <ele>98.6</ele>
        <time>2018-09-16T09:53:32Z</time>
      </trkpt>
      <trkpt lat="43.2090870" lon="-3.0929950">
        <ele>99.8</ele>
        <time>2018-09-16T09:53:34Z</time>
      </trkpt>
      <trkpt lat="43.2089800" lon="-3.0927520">
        <ele>100.6</ele>
        <time>2018-09-16T09:53:37Z</time>
      </trkpt>
      <trkpt lat="43.2086650" lon="-3.0920870">
        <ele>99.6</ele>
        <time>2018-09-16T09:53:45Z</time>
      </trkpt>
      <trkpt lat="43.2084260" lon="-3.0917390">
        <ele>99.8</ele>
        <time>2018-09-16T09:53:50Z</time>
      </trkpt>
      <trkpt lat="43.2081380" lon="-3.0913190">
        <ele>100.8</ele>
        <time>2018-09-16T09:53:56Z</time>
      </trkpt>
      <trkpt lat="43.2078700" lon="-3.0909430">
        <ele>101.8</ele>
        <time>2018-09-16T09:54:02Z</time>
      </trkpt>
      <trkpt lat="43.2077410" lon="-3.0907610">
        <ele>103.0</ele>
        <time>2018-09-16T09:54:05Z</time>
      </trkpt>
      <trkpt lat="43.2075680" lon="-3.0905170">
        <ele>104.2</ele>
        <time>2018-09-16T09:54:09Z</time>
      </trkpt>
      <trkpt lat="43.2074430" lon="-3.0903400">
        <ele>105.6</ele>
        <time>2018-09-16T09:54:12Z</time>
      </trkpt>
      <trkpt lat="43.2073180" lon="-3.0901610">
        <ele>107.2</ele>
        <time>2018-09-16T09:54:15Z</time>
      </trkpt>
      <trkpt lat="43.2069450" lon="-3.0896140">
        <ele>106.8</ele>
        <time>2018-09-16T09:54:23Z</time>
      </trkpt>
      <trkpt lat="43.2067830" lon="-3.0893650">
        <ele>106.0</ele>
        <time>2018-09-16T09:54:26Z</time>
      </trkpt>
      <trkpt lat="43.2065900" lon="-3.0890040">
        <ele>104.6</ele>
        <time>2018-09-16T09:54:30Z</time>
      </trkpt>
      <trkpt lat="43.2064570" lon="-3.0885950">
        <ele>104.0</ele>
        <time>2018-09-16T09:54:34Z</time>
      </trkpt>
      <trkpt lat="43.2064270" lon="-3.0883920">
        <ele>103.6</ele>
        <time>2018-09-16T09:54:36Z</time>
      </trkpt>
      <trkpt lat="43.2064180" lon="-3.0882900">
        <ele>103.4</ele>
        <time>2018-09-16T09:54:37Z</time>
      </trkpt>
      <trkpt lat="43.2064070" lon="-3.0879840">
        <ele>103.2</ele>
        <time>2018-09-16T09:54:40Z</time>
      </trkpt>
      <trkpt lat="43.2064060" lon="-3.0877820">
        <ele>103.0</ele>
        <time>2018-09-16T09:54:42Z</time>
      </trkpt>
      <trkpt lat="43.2064080" lon="-3.0875840">
        <ele>103.0</ele>
        <time>2018-09-16T09:54:44Z</time>
      </trkpt>
      <trkpt lat="43.2063990" lon="-3.0873860">
        <ele>102.8</ele>
        <time>2018-09-16T09:54:46Z</time>
      </trkpt>
      <trkpt lat="43.2063860" lon="-3.0872880">
        <ele>102.8</ele>
        <time>2018-09-16T09:54:47Z</time>
      </trkpt>
      <trkpt lat="43.2063680" lon="-3.0870880">
        <ele>102.6</ele>
        <time>2018-09-16T09:54:49Z</time>
      </trkpt>
      <trkpt lat="43.2063730" lon="-3.0869850">
        <ele>102.2</ele>
        <time>2018-09-16T09:54:50Z</time>
      </trkpt>
      <trkpt lat="43.2063940" lon="-3.0867710">
        <ele>101.6</ele>
        <time>2018-09-16T09:54:52Z</time>
      </trkpt>
      <trkpt lat="43.2064010" lon="-3.0866570">
        <ele>101.2</ele>
        <time>2018-09-16T09:54:53Z</time>
      </trkpt>
      <trkpt lat="43.2064040" lon="-3.0864130">
        <ele>100.0</ele>
        <time>2018-09-16T09:54:55Z</time>
      </trkpt>
      <trkpt lat="43.2064030" lon="-3.0860240">
        <ele>98.8</ele>
        <time>2018-09-16T09:54:58Z</time>
      </trkpt>
      <trkpt lat="43.2064010" lon="-3.0856180">
        <ele>97.2</ele>
        <time>2018-09-16T09:55:01Z</time>
      </trkpt>
      <trkpt lat="43.2064010" lon="-3.0852170">
        <ele>95.8</ele>
        <time>2018-09-16T09:55:04Z</time>
      </trkpt>
      <trkpt lat="43.2064010" lon="-3.0848220">
        <ele>95.2</ele>
        <time>2018-09-16T09:55:07Z</time>
      </trkpt>
      <trkpt lat="43.2063960" lon="-3.0845600">
        <ele>94.8</ele>
        <time>2018-09-16T09:55:09Z</time>
      </trkpt>
      <trkpt lat="43.2063920" lon="-3.0841570">
        <ele>93.8</ele>
        <time>2018-09-16T09:55:12Z</time>
      </trkpt>
      <trkpt lat="43.2063890" lon="-3.0840220">
        <ele>93.6</ele>
        <time>2018-09-16T09:55:13Z</time>
      </trkpt>
      <trkpt lat="43.2063840" lon="-3.0834950">
        <ele>92.4</ele>
        <time>2018-09-16T09:55:17Z</time>
      </trkpt>
      <trkpt lat="43.2063860" lon="-3.0831370">
        <ele>92.0</ele>
        <time>2018-09-16T09:55:20Z</time>
      </trkpt>
      <trkpt lat="43.2063770" lon="-3.0827780">
        <ele>92.2</ele>
        <time>2018-09-16T09:55:23Z</time>
      </trkpt>
      <trkpt lat="43.2063750" lon="-3.0826590">
        <ele>92.2</ele>
        <time>2018-09-16T09:55:24Z</time>
      </trkpt>
      <trkpt lat="43.2063710" lon="-3.0824240">
        <ele>92.2</ele>
        <time>2018-09-16T09:55:26Z</time>
      </trkpt>
      <trkpt lat="43.2063650" lon="-3.0816750">
        <ele>92.4</ele>
        <time>2018-09-16T09:55:33Z</time>
      </trkpt>
      <trkpt lat="43.2063620" lon="-3.0813410">
        <ele>92.4</ele>
        <time>2018-09-16T09:55:36Z</time>
      </trkpt>
      <trkpt lat="43.2063560" lon="-3.0805430">
        <ele>91.8</ele>
        <time>2018-09-16T09:55:43Z</time>
      </trkpt>
      <trkpt lat="43.2063550" lon="-3.0803050">
        <ele>91.4</ele>
        <time>2018-09-16T09:55:45Z</time>
      </trkpt>
      <trkpt lat="43.2063550" lon="-3.0800630">
        <ele>90.2</ele>
        <time>2018-09-16T09:55:47Z</time>
      </trkpt>
      <trkpt lat="43.2063580" lon="-3.0798250">
        <ele>89.2</ele>
        <time>2018-09-16T09:55:49Z</time>
      </trkpt>
      <trkpt lat="43.2063630" lon="-3.0794770">
        <ele>88.8</ele>
        <time>2018-09-16T09:55:52Z</time>
      </trkpt>
      <trkpt lat="43.2063340" lon="-3.0789130">
        <ele>89.4</ele>
        <time>2018-09-16T09:55:57Z</time>
      </trkpt>
      <trkpt lat="43.2063090" lon="-3.0787040">
        <ele>90.0</ele>
        <time>2018-09-16T09:55:59Z</time>
      </trkpt>
      <trkpt lat="43.2062690" lon="-3.0785040">
        <ele>90.4</ele>
        <time>2018-09-16T09:56:01Z</time>
      </trkpt>
      <trkpt lat="43.2061870" lon="-3.0782190">
        <ele>91.0</ele>
        <time>2018-09-16T09:56:04Z</time>
      </trkpt>
      <trkpt lat="43.2060780" lon="-3.0779530">
        <ele>91.4</ele>
        <time>2018-09-16T09:56:07Z</time>
      </trkpt>
      <trkpt lat="43.2058390" lon="-3.0775460">
        <ele>91.6</ele>
        <time>2018-09-16T09:56:12Z</time>
      </trkpt>
      <trkpt lat="43.2054380" lon="-3.0770190">
        <ele>92.2</ele>
        <time>2018-09-16T09:56:19Z</time>
      </trkpt>
      <trkpt lat="43.2049830" lon="-3.0764600">
        <ele>91.8</ele>
        <time>2018-09-16T09:56:27Z</time>
      </trkpt>
      <trkpt lat="43.2048060" lon="-3.0762360">
        <ele>91.6</ele>
        <time>2018-09-16T09:56:30Z</time>
      </trkpt>
      <trkpt lat="43.2044930" lon="-3.0758010">
        <ele>90.0</ele>
        <time>2018-09-16T09:56:35Z</time>
      </trkpt>
      <trkpt lat="43.2044250" lon="-3.0757100">
        <ele>89.0</ele>
        <time>2018-09-16T09:56:36Z</time>
      </trkpt>
      <trkpt lat="43.2042830" lon="-3.0755310">
        <ele>87.8</ele>
        <time>2018-09-16T09:56:38Z</time>
      </trkpt>
      <trkpt lat="43.2041310" lon="-3.0753580">
        <ele>87.4</ele>
        <time>2018-09-16T09:56:40Z</time>
      </trkpt>
      <trkpt lat="43.2040590" lon="-3.0752740">
        <ele>87.2</ele>
        <time>2018-09-16T09:56:41Z</time>
      </trkpt>
      <trkpt lat="43.2039150" lon="-3.0751100">
        <ele>86.8</ele>
        <time>2018-09-16T09:56:43Z</time>
      </trkpt>
      <trkpt lat="43.2037030" lon="-3.0748540">
        <ele>86.6</ele>
        <time>2018-09-16T09:56:46Z</time>
      </trkpt>
      <trkpt lat="43.2033640" lon="-3.0744420">
        <ele>86.6</ele>
        <time>2018-09-16T09:56:51Z</time>
      </trkpt>
      <trkpt lat="43.2032330" lon="-3.0742860">
        <ele>86.4</ele>
        <time>2018-09-16T09:56:53Z</time>
      </trkpt>
      <trkpt lat="43.2029660" lon="-3.0739710">
        <ele>86.4</ele>
        <time>2018-09-16T09:56:57Z</time>
      </trkpt>
      <trkpt lat="43.2025300" lon="-3.0734400">
        <ele>87.4</ele>
        <time>2018-09-16T09:57:04Z</time>
      </trkpt>
      <trkpt lat="43.2020990" lon="-3.0729120">
        <ele>87.2</ele>
        <time>2018-09-16T09:57:11Z</time>
      </trkpt>
      <trkpt lat="43.2019150" lon="-3.0726850">
        <ele>87.4</ele>
        <time>2018-09-16T09:57:14Z</time>
      </trkpt>
      <trkpt lat="43.2017960" lon="-3.0725360">
        <ele>87.4</ele>
        <time>2018-09-16T09:57:16Z</time>
      </trkpt>
      <trkpt lat="43.2016270" lon="-3.0723140">
        <ele>87.6</ele>
        <time>2018-09-16T09:57:19Z</time>
      </trkpt>
      <trkpt lat="43.2012120" lon="-3.0716850">
        <ele>87.8</ele>
        <time>2018-09-16T09:57:27Z</time>
      </trkpt>
      <trkpt lat="43.2008650" lon="-3.0710920">
        <ele>87.6</ele>
        <time>2018-09-16T09:57:34Z</time>
      </trkpt>
      <trkpt lat="43.2007120" lon="-3.0708590">
        <ele>87.8</ele>
        <time>2018-09-16T09:57:37Z</time>
      </trkpt>
      <trkpt lat="43.2005140" lon="-3.0705870">
        <ele>88.6</ele>
        <time>2018-09-16T09:57:41Z</time>
      </trkpt>
      <trkpt lat="43.2004700" lon="-3.0705290">
        <ele>88.8</ele>
        <time>2018-09-16T09:57:42Z</time>
      </trkpt>
      <trkpt lat="43.2004280" lon="-3.0704780">
        <ele>89.2</ele>
        <time>2018-09-16T09:57:43Z</time>
      </trkpt>
      <trkpt lat="43.2003330" lon="-3.0703990">
        <ele>90.0</ele>
        <time>2018-09-16T09:57:45Z</time>
      </trkpt>
      <trkpt lat="43.2001650" lon="-3.0703400">
        <ele>91.0</ele>
        <time>2018-09-16T09:57:49Z</time>
      </trkpt>
      <trkpt lat="43.2000750" lon="-3.0702570">
        <ele>91.6</ele>
        <time>2018-09-16T09:57:51Z</time>
      </trkpt>
      <trkpt lat="43.2000040" lon="-3.0701110">
        <ele>92.0</ele>
        <time>2018-09-16T09:57:53Z</time>
      </trkpt>
      <trkpt lat="43.1999410" lon="-3.0699410">
        <ele>92.2</ele>
        <time>2018-09-16T09:57:55Z</time>
      </trkpt>
      <trkpt lat="43.1997510" lon="-3.0693590">
        <ele>91.4</ele>
        <time>2018-09-16T09:58:01Z</time>
      </trkpt>
      <trkpt lat="43.1994800" lon="-3.0687020">
        <ele>91.4</ele>
        <time>2018-09-16T09:58:08Z</time>
      </trkpt>
      <trkpt lat="43.1992290" lon="-3.0682130">
        <ele>92.6</ele>
        <time>2018-09-16T09:58:14Z</time>
      </trkpt>
      <trkpt lat="43.1990970" lon="-3.0679890">
        <ele>93.2</ele>
        <time>2018-09-16T09:58:17Z</time>
      </trkpt>
      <trkpt lat="43.1988220" lon="-3.0675810">
        <ele>94.2</ele>
        <time>2018-09-16T09:58:23Z</time>
      </trkpt>
      <trkpt lat="43.1984280" lon="-3.0670190">
        <ele>94.0</ele>
        <time>2018-09-16T09:58:31Z</time>
      </trkpt>
      <trkpt lat="43.1982330" lon="-3.0667670">
        <ele>94.4</ele>
        <time>2018-09-16T09:58:35Z</time>
      </trkpt>
      <trkpt lat="43.1978930" lon="-3.0661350">
        <ele>94.0</ele>
        <time>2018-09-16T09:58:43Z</time>
      </trkpt>
      <trkpt lat="43.1977370" lon="-3.0659060">
        <ele>93.4</ele>
        <time>2018-09-16T09:58:46Z</time>
      </trkpt>
      <trkpt lat="43.1974210" lon="-3.0654880">
        <ele>94.4</ele>
        <time>2018-09-16T09:58:52Z</time>
      </trkpt>
      <trkpt lat="43.1971280" lon="-3.0647870">
        <ele>94.4</ele>
        <time>2018-09-16T09:59:00Z</time>
      </trkpt>
      <trkpt lat="43.1970600" lon="-3.0646000">
        <ele>93.6</ele>
        <time>2018-09-16T09:59:02Z</time>
      </trkpt>
      <trkpt lat="43.1970230" lon="-3.0645050">
        <ele>93.2</ele>
        <time>2018-09-16T09:59:03Z</time>
      </trkpt>
      <trkpt lat="43.1967950" lon="-3.0637810">
        <ele>92.2</ele>
        <time>2018-09-16T09:59:10Z</time>
      </trkpt>
      <trkpt lat="43.1967210" lon="-3.0634660">
        <ele>92.0</ele>
        <time>2018-09-16T09:59:13Z</time>
      </trkpt>
      <trkpt lat="43.1965720" lon="-3.0626710">
        <ele>92.4</ele>
        <time>2018-09-16T09:59:21Z</time>
      </trkpt>
      <trkpt lat="43.1965560" lon="-3.0624680">
        <ele>92.2</ele>
        <time>2018-09-16T09:59:23Z</time>
      </trkpt>
      <trkpt lat="43.1965470" lon="-3.0622580">
        <ele>92.2</ele>
        <time>2018-09-16T09:59:25Z</time>
      </trkpt>
      <trkpt lat="43.1965650" lon="-3.0619500">
        <ele>92.2</ele>
        <time>2018-09-16T09:59:28Z</time>
      </trkpt>
      <trkpt lat="43.1968080" lon="-3.0612000">
        <ele>91.6</ele>
        <time>2018-09-16T09:59:36Z</time>
      </trkpt>
      <trkpt lat="43.1969310" lon="-3.0609400">
        <ele>92.6</ele>
        <time>2018-09-16T09:59:39Z</time>
      </trkpt>
      <trkpt lat="43.1970600" lon="-3.0606770">
        <ele>93.4</ele>
        <time>2018-09-16T09:59:42Z</time>
      </trkpt>
      <trkpt lat="43.1971910" lon="-3.0604250">
        <ele>92.8</ele>
        <time>2018-09-16T09:59:45Z</time>
      </trkpt>
      <trkpt lat="43.1972730" lon="-3.0602470">
        <ele>92.2</ele>
        <time>2018-09-16T09:59:47Z</time>
      </trkpt>
      <trkpt lat="43.1975470" lon="-3.0596230">
        <ele>91.4</ele>
        <time>2018-09-16T09:59:54Z</time>
      </trkpt>
      <trkpt lat="43.1976310" lon="-3.0592220">
        <ele>91.0</ele>
        <time>2018-09-16T09:59:58Z</time>
      </trkpt>
      <trkpt lat="43.1977330" lon="-3.0587430">
        <ele>91.4</ele>
        <time>2018-09-16T10:00:03Z</time>
      </trkpt>
      <trkpt lat="43.1979350" lon="-3.0579860">
        <ele>91.0</ele>
        <time>2018-09-16T10:00:11Z</time>
      </trkpt>
      <trkpt lat="43.1980980" lon="-3.0574730">
        <ele>90.0</ele>
        <time>2018-09-16T10:00:16Z</time>
      </trkpt>
      <trkpt lat="43.1982060" lon="-3.0571140">
        <ele>88.8</ele>
        <time>2018-09-16T10:00:19Z</time>
      </trkpt>
      <trkpt lat="43.1983410" lon="-3.0567460">
        <ele>87.8</ele>
        <time>2018-09-16T10:00:22Z</time>
      </trkpt>
      <trkpt lat="43.1985620" lon="-3.0562660">
        <ele>86.4</ele>
        <time>2018-09-16T10:00:26Z</time>
      </trkpt>
      <trkpt lat="43.1986720" lon="-3.0560300">
        <ele>85.2</ele>
        <time>2018-09-16T10:00:28Z</time>
      </trkpt>
      <trkpt lat="43.1987850" lon="-3.0558010">
        <ele>83.6</ele>
        <time>2018-09-16T10:00:30Z</time>
      </trkpt>
      <trkpt lat="43.1989030" lon="-3.0555860">
        <ele>82.2</ele>
        <time>2018-09-16T10:00:32Z</time>
      </trkpt>
      <trkpt lat="43.1990810" lon="-3.0552780">
        <ele>81.0</ele>
        <time>2018-09-16T10:00:35Z</time>
      </trkpt>
      <trkpt lat="43.1992900" lon="-3.0548850">
        <ele>80.0</ele>
        <time>2018-09-16T10:00:39Z</time>
      </trkpt>
      <trkpt lat="43.1996390" lon="-3.0541950">
        <ele>79.0</ele>
        <time>2018-09-16T10:00:46Z</time>
      </trkpt>
      <trkpt lat="43.1998510" lon="-3.0538070">
        <ele>80.0</ele>
        <time>2018-09-16T10:00:50Z</time>
      </trkpt>
      <trkpt lat="43.1999520" lon="-3.0536070">
        <ele>79.8</ele>
        <time>2018-09-16T10:00:52Z</time>
      </trkpt>
      <trkpt lat="43.2000530" lon="-3.0534100">
        <ele>78.6</ele>
        <time>2018-09-16T10:00:54Z</time>
      </trkpt>
      <trkpt lat="43.2002180" lon="-3.0531370">
        <ele>77.2</ele>
        <time>2018-09-16T10:00:57Z</time>
      </trkpt>
      <trkpt lat="43.2003960" lon="-3.0528680">
        <ele>76.2</ele>
        <time>2018-09-16T10:01:00Z</time>
      </trkpt>
      <trkpt lat="43.2005230" lon="-3.0527020">
        <ele>76.0</ele>
        <time>2018-09-16T10:01:02Z</time>
      </trkpt>
      <trkpt lat="43.2007920" lon="-3.0524030">
        <ele>75.6</ele>
        <time>2018-09-16T10:01:06Z</time>
      </trkpt>
      <trkpt lat="43.2009790" lon="-3.0521750">
        <ele>75.2</ele>
        <time>2018-09-16T10:01:09Z</time>
      </trkpt>
      <trkpt lat="43.2012870" lon="-3.0518030">
        <ele>76.0</ele>
        <time>2018-09-16T10:01:14Z</time>
      </trkpt>
      <trkpt lat="43.2013450" lon="-3.0517190">
        <ele>76.2</ele>
        <time>2018-09-16T10:01:15Z</time>
      </trkpt>
      <trkpt lat="43.2014500" lon="-3.0515650">
        <ele>76.2</ele>
        <time>2018-09-16T10:01:17Z</time>
      </trkpt>
      <trkpt lat="43.2018450" lon="-3.0510580">
        <ele>76.6</ele>
        <time>2018-09-16T10:01:24Z</time>
      </trkpt>
      <trkpt lat="43.2021910" lon="-3.0506570">
        <ele>74.6</ele>
        <time>2018-09-16T10:01:30Z</time>
      </trkpt>
      <trkpt lat="43.2023810" lon="-3.0504350">
        <ele>73.6</ele>
        <time>2018-09-16T10:01:33Z</time>
      </trkpt>
      <trkpt lat="43.2025610" lon="-3.0501800">
        <ele>73.0</ele>
        <time>2018-09-16T10:01:36Z</time>
      </trkpt>
      <trkpt lat="43.2027840" lon="-3.0496030">
        <ele>73.2</ele>
        <time>2018-09-16T10:01:42Z</time>
      </trkpt>
      <trkpt lat="43.2028280" lon="-3.0495120">
        <ele>73.2</ele>
        <time>2018-09-16T10:01:43Z</time>
      </trkpt>
      <trkpt lat="43.2031960" lon="-3.0489310">
        <ele>73.6</ele>
        <time>2018-09-16T10:01:50Z</time>
      </trkpt>
      <trkpt lat="43.2035340" lon="-3.0483480">
        <ele>73.2</ele>
        <time>2018-09-16T10:01:57Z</time>
      </trkpt>
      <trkpt lat="43.2038590" lon="-3.0478450">
        <ele>73.4</ele>
        <time>2018-09-16T10:02:04Z</time>
      </trkpt>
      <trkpt lat="43.2039750" lon="-3.0477410">
        <ele>73.6</ele>
        <time>2018-09-16T10:02:06Z</time>
      </trkpt>
      <trkpt lat="43.2043840" lon="-3.0474540">
        <ele>73.0</ele>
        <time>2018-09-16T10:02:12Z</time>
      </trkpt>
      <trkpt lat="43.2044570" lon="-3.0474030">
        <ele>72.4</ele>
        <time>2018-09-16T10:02:13Z</time>
      </trkpt>
      <trkpt lat="43.2046050" lon="-3.0473030">
        <ele>71.2</ele>
        <time>2018-09-16T10:02:15Z</time>
      </trkpt>
      <trkpt lat="43.2047520" lon="-3.0472020">
        <ele>70.2</ele>
        <time>2018-09-16T10:02:17Z</time>
      </trkpt>
      <trkpt lat="43.2051100" lon="-3.0469520">
        <ele>69.4</ele>
        <time>2018-09-16T10:02:22Z</time>
      </trkpt>
      <trkpt lat="43.2055810" lon="-3.0465880">
        <ele>70.0</ele>
        <time>2018-09-16T10:02:29Z</time>
      </trkpt>
      <trkpt lat="43.2058370" lon="-3.0464140">
        <ele>70.4</ele>
        <time>2018-09-16T10:02:33Z</time>
      </trkpt>
      <trkpt lat="43.2059320" lon="-3.0463280">
        <ele>70.8</ele>
        <time>2018-09-16T10:02:35Z</time>
      </trkpt>
      <trkpt lat="43.2060520" lon="-3.0462480">
        <ele>71.4</ele>
        <time>2018-09-16T10:02:37Z</time>
      </trkpt>
      <trkpt lat="43.2062330" lon="-3.0461210">
        <ele>72.4</ele>
        <time>2018-09-16T10:02:40Z</time>
      </trkpt>
      <trkpt lat="43.2062900" lon="-3.0460750">
        <ele>72.6</ele>
        <time>2018-09-16T10:02:41Z</time>
      </trkpt>
      <trkpt lat="43.2063430" lon="-3.0460220">
        <ele>72.8</ele>
        <time>2018-09-16T10:02:42Z</time>
      </trkpt>
      <trkpt lat="43.2067710" lon="-3.0454630">
        <ele>73.0</ele>
        <time>2018-09-16T10:02:50Z</time>
      </trkpt>
      <trkpt lat="43.2068870" lon="-3.0453140">
        <ele>72.6</ele>
        <time>2018-09-16T10:02:52Z</time>
      </trkpt>
      <trkpt lat="43.2070540" lon="-3.0450810">
        <ele>71.8</ele>
        <time>2018-09-16T10:02:55Z</time>
      </trkpt>
      <trkpt lat="43.2071640" lon="-3.0449270">
        <ele>71.4</ele>
        <time>2018-09-16T10:02:57Z</time>
      </trkpt>
      <trkpt lat="43.2075530" lon="-3.0444050">
        <ele>71.0</ele>
        <time>2018-09-16T10:03:04Z</time>
      </trkpt>
      <trkpt lat="43.2078520" lon="-3.0438570">
        <ele>71.8</ele>
        <time>2018-09-16T10:03:11Z</time>
      </trkpt>
      <trkpt lat="43.2079140" lon="-3.0437060">
        <ele>72.4</ele>
        <time>2018-09-16T10:03:13Z</time>
      </trkpt>
      <trkpt lat="43.2079880" lon="-3.0435020">
        <ele>73.4</ele>
        <time>2018-09-16T10:03:16Z</time>
      </trkpt>
      <trkpt lat="43.2080100" lon="-3.0434320">
        <ele>73.8</ele>
        <time>2018-09-16T10:03:17Z</time>
      </trkpt>
      <trkpt lat="43.2080610" lon="-3.0432480">
        <ele>74.4</ele>
        <time>2018-09-16T10:03:20Z</time>
      </trkpt>
      <trkpt lat="43.2080690" lon="-3.0431370">
        <ele>75.4</ele>
        <time>2018-09-16T10:03:22Z</time>
      </trkpt>
      <trkpt lat="43.2080900" lon="-3.0429970">
        <ele>76.6</ele>
        <time>2018-09-16T10:03:25Z</time>
      </trkpt>
      <trkpt lat="43.2081530" lon="-3.0428790">
        <ele>76.6</ele>
        <time>2018-09-16T10:03:27Z</time>
      </trkpt>
      <trkpt lat="43.2085420" lon="-3.0424030">
        <ele>75.4</ele>
        <time>2018-09-16T10:03:34Z</time>
      </trkpt>
      <trkpt lat="43.2087330" lon="-3.0421810">
        <ele>74.2</ele>
        <time>2018-09-16T10:03:37Z</time>
      </trkpt>
      <trkpt lat="43.2089400" lon="-3.0419510">
        <ele>73.0</ele>
        <time>2018-09-16T10:03:40Z</time>
      </trkpt>
      <trkpt lat="43.2091510" lon="-3.0417340">
        <ele>72.0</ele>
        <time>2018-09-16T10:03:43Z</time>
      </trkpt>
      <trkpt lat="43.2092220" lon="-3.0416650">
        <ele>71.8</ele>
        <time>2018-09-16T10:03:44Z</time>
      </trkpt>
      <trkpt lat="43.2096380" lon="-3.0412560">
        <ele>70.6</ele>
        <time>2018-09-16T10:03:50Z</time>
      </trkpt>
      <trkpt lat="43.2097710" lon="-3.0411410">
        <ele>70.2</ele>
        <time>2018-09-16T10:03:52Z</time>
      </trkpt>
      <trkpt lat="43.2101090" lon="-3.0408640">
        <ele>70.0</ele>
        <time>2018-09-16T10:03:57Z</time>
      </trkpt>
      <trkpt lat="43.2102360" lon="-3.0407280">
        <ele>69.4</ele>
        <time>2018-09-16T10:03:59Z</time>
      </trkpt>
      <trkpt lat="43.2104230" lon="-3.0405260">
        <ele>68.2</ele>
        <time>2018-09-16T10:04:02Z</time>
      </trkpt>
      <trkpt lat="43.2105520" lon="-3.0403900">
        <ele>67.4</ele>
        <time>2018-09-16T10:04:04Z</time>
      </trkpt>
      <trkpt lat="43.2107450" lon="-3.0401930">
        <ele>67.0</ele>
        <time>2018-09-16T10:04:07Z</time>
      </trkpt>
      <trkpt lat="43.2109980" lon="-3.0399240">
        <ele>66.4</ele>
        <time>2018-09-16T10:04:11Z</time>
      </trkpt>
      <trkpt lat="43.2111180" lon="-3.0397900">
        <ele>66.4</ele>
        <time>2018-09-16T10:04:13Z</time>
      </trkpt>
      <trkpt lat="43.2112900" lon="-3.0395970">
        <ele>66.4</ele>
        <time>2018-09-16T10:04:16Z</time>
      </trkpt>
      <trkpt lat="43.2114520" lon="-3.0394090">
        <ele>66.6</ele>
        <time>2018-09-16T10:04:19Z</time>
      </trkpt>
      <trkpt lat="43.2116110" lon="-3.0392280">
        <ele>66.6</ele>
        <time>2018-09-16T10:04:22Z</time>
      </trkpt>
      <trkpt lat="43.2117150" lon="-3.0391090">
        <ele>66.8</ele>
        <time>2018-09-16T10:04:24Z</time>
      </trkpt>
      <trkpt lat="43.2121660" lon="-3.0386850">
        <ele>67.6</ele>
        <time>2018-09-16T10:04:32Z</time>
      </trkpt>
      <trkpt lat="43.2126880" lon="-3.0383990">
        <ele>66.8</ele>
        <time>2018-09-16T10:04:40Z</time>
      </trkpt>
      <trkpt lat="43.2132350" lon="-3.0381860">
        <ele>67.2</ele>
        <time>2018-09-16T10:04:48Z</time>
      </trkpt>
      <trkpt lat="43.2136780" lon="-3.0378610">
        <ele>66.0</ele>
        <time>2018-09-16T10:04:55Z</time>
      </trkpt>
      <trkpt lat="43.2139380" lon="-3.0375410">
        <ele>66.6</ele>
        <time>2018-09-16T10:05:00Z</time>
      </trkpt>
      <trkpt lat="43.2143510" lon="-3.0370040">
        <ele>67.0</ele>
        <time>2018-09-16T10:05:08Z</time>
      </trkpt>
      <trkpt lat="43.2144020" lon="-3.0369400">
        <ele>67.2</ele>
        <time>2018-09-16T10:05:09Z</time>
      </trkpt>
      <trkpt lat="43.2145660" lon="-3.0367600">
        <ele>67.8</ele>
        <time>2018-09-16T10:05:12Z</time>
      </trkpt>
      <trkpt lat="43.2147290" lon="-3.0365950">
        <ele>68.0</ele>
        <time>2018-09-16T10:05:15Z</time>
      </trkpt>
      <trkpt lat="43.2149390" lon="-3.0363820">
        <ele>68.2</ele>
        <time>2018-09-16T10:05:19Z</time>
      </trkpt>
      <trkpt lat="43.2152640" lon="-3.0360570">
        <ele>69.2</ele>
        <time>2018-09-16T10:05:25Z</time>
      </trkpt>
      <trkpt lat="43.2153190" lon="-3.0360010">
        <ele>69.2</ele>
        <time>2018-09-16T10:05:26Z</time>
      </trkpt>
      <trkpt lat="43.2158150" lon="-3.0355200">
        <ele>68.8</ele>
        <time>2018-09-16T10:05:35Z</time>
      </trkpt>
      <trkpt lat="43.2163000" lon="-3.0350370">
        <ele>68.6</ele>
        <time>2018-09-16T10:05:44Z</time>
      </trkpt>
      <trkpt lat="43.2166210" lon="-3.0346020">
        <ele>68.6</ele>
        <time>2018-09-16T10:05:51Z</time>
      </trkpt>
      <trkpt lat="43.2169760" lon="-3.0339450">
        <ele>68.8</ele>
        <time>2018-09-16T10:06:00Z</time>
      </trkpt>
      <trkpt lat="43.2171380" lon="-3.0332930">
        <ele>69.2</ele>
        <time>2018-09-16T10:06:07Z</time>
      </trkpt>
      <trkpt lat="43.2171930" lon="-3.0327460">
        <ele>70.6</ele>
        <time>2018-09-16T10:06:13Z</time>
      </trkpt>
      <trkpt lat="43.2172140" lon="-3.0324950">
        <ele>71.4</ele>
        <time>2018-09-16T10:06:16Z</time>
      </trkpt>
      <trkpt lat="43.2172230" lon="-3.0324130">
        <ele>71.6</ele>
        <time>2018-09-16T10:06:17Z</time>
      </trkpt>
      <trkpt lat="43.2172480" lon="-3.0322580">
        <ele>72.2</ele>
        <time>2018-09-16T10:06:19Z</time>
      </trkpt>
      <trkpt lat="43.2172610" lon="-3.0321800">
        <ele>72.6</ele>
        <time>2018-09-16T10:06:20Z</time>
      </trkpt>
      <trkpt lat="43.2172810" lon="-3.0320260">
        <ele>73.4</ele>
        <time>2018-09-16T10:06:22Z</time>
      </trkpt>
      <trkpt lat="43.2172890" lon="-3.0319510">
        <ele>73.8</ele>
        <time>2018-09-16T10:06:23Z</time>
      </trkpt>
      <trkpt lat="43.2173080" lon="-3.0318080">
        <ele>74.4</ele>
        <time>2018-09-16T10:06:25Z</time>
      </trkpt>
      <trkpt lat="43.2173190" lon="-3.0315810">
        <ele>74.8</ele>
        <time>2018-09-16T10:06:28Z</time>
      </trkpt>
      <trkpt lat="43.2173110" lon="-3.0314190">
        <ele>74.8</ele>
        <time>2018-09-16T10:06:30Z</time>
      </trkpt>
      <trkpt lat="43.2172810" lon="-3.0312600">
        <ele>74.8</ele>
        <time>2018-09-16T10:06:32Z</time>
      </trkpt>
      <trkpt lat="43.2172050" lon="-3.0309870">
        <ele>76.0</ele>
        <time>2018-09-16T10:06:36Z</time>
      </trkpt>
      <trkpt lat="43.2171730" lon="-3.0308570">
        <ele>77.4</ele>
        <time>2018-09-16T10:06:38Z</time>
      </trkpt>
      <trkpt lat="43.2171470" lon="-3.0307270">
        <ele>79.2</ele>
        <time>2018-09-16T10:06:40Z</time>
      </trkpt>
      <trkpt lat="43.2171360" lon="-3.0305950">
        <ele>80.6</ele>
        <time>2018-09-16T10:06:42Z</time>
      </trkpt>
      <trkpt lat="43.2171350" lon="-3.0304640">
        <ele>81.8</ele>
        <time>2018-09-16T10:06:44Z</time>
      </trkpt>
      <trkpt lat="43.2171580" lon="-3.0303300">
        <ele>83.2</ele>
        <time>2018-09-16T10:06:46Z</time>
      </trkpt>
      <trkpt lat="43.2171980" lon="-3.0302110">
        <ele>84.2</ele>
        <time>2018-09-16T10:06:48Z</time>
      </trkpt>
      <trkpt lat="43.2173030" lon="-3.0300090">
        <ele>85.2</ele>
        <time>2018-09-16T10:06:52Z</time>
      </trkpt>
      <trkpt lat="43.2174910" lon="-3.0297300">
        <ele>86.4</ele>
        <time>2018-09-16T10:06:58Z</time>
      </trkpt>
      <trkpt lat="43.2177440" lon="-3.0293690">
        <ele>86.4</ele>
        <time>2018-09-16T10:07:04Z</time>
      </trkpt>
      <trkpt lat="43.2180180" lon="-3.0289770">
        <ele>85.4</ele>
        <time>2018-09-16T10:07:09Z</time>
      </trkpt>
      <trkpt lat="43.2180770" lon="-3.0288930">
        <ele>85.0</ele>
        <time>2018-09-16T10:07:10Z</time>
      </trkpt>
      <trkpt lat="43.2183220" lon="-3.0285280">
        <ele>83.8</ele>
        <time>2018-09-16T10:07:14Z</time>
      </trkpt>
      <trkpt lat="43.2186220" lon="-3.0280570">
        <ele>83.0</ele>
        <time>2018-09-16T10:07:19Z</time>
      </trkpt>
      <trkpt lat="43.2186820" lon="-3.0279650">
        <ele>82.6</ele>
        <time>2018-09-16T10:07:20Z</time>
      </trkpt>
      <trkpt lat="43.2188630" lon="-3.0276830">
        <ele>81.4</ele>
        <time>2018-09-16T10:07:23Z</time>
      </trkpt>
      <trkpt lat="43.2191420" lon="-3.0273250">
        <ele>80.4</ele>
        <time>2018-09-16T10:07:27Z</time>
      </trkpt>
      <trkpt lat="43.2193030" lon="-3.0271620">
        <ele>79.2</ele>
        <time>2018-09-16T10:07:29Z</time>
      </trkpt>
      <trkpt lat="43.2193950" lon="-3.0270940">
        <ele>78.6</ele>
        <time>2018-09-16T10:07:30Z</time>
      </trkpt>
      <trkpt lat="43.2194940" lon="-3.0270370">
        <ele>78.0</ele>
        <time>2018-09-16T10:07:31Z</time>
      </trkpt>
      <trkpt lat="43.2197080" lon="-3.0269370">
        <ele>77.0</ele>
        <time>2018-09-16T10:07:33Z</time>
      </trkpt>
      <trkpt lat="43.2199360" lon="-3.0268300">
        <ele>75.2</ele>
        <time>2018-09-16T10:07:35Z</time>
      </trkpt>
      <trkpt lat="43.2200570" lon="-3.0267780">
        <ele>72.8</ele>
        <time>2018-09-16T10:07:36Z</time>
      </trkpt>
      <trkpt lat="43.2201780" lon="-3.0267270">
        <ele>70.0</ele>
        <time>2018-09-16T10:07:37Z</time>
      </trkpt>
      <trkpt lat="43.2202980" lon="-3.0266760">
        <ele>67.8</ele>
        <time>2018-09-16T10:07:38Z</time>
      </trkpt>
      <trkpt lat="43.2204190" lon="-3.0266260">
        <ele>66.6</ele>
        <time>2018-09-16T10:07:39Z</time>
      </trkpt>
      <trkpt lat="43.2206560" lon="-3.0265360">
        <ele>66.2</ele>
        <time>2018-09-16T10:07:41Z</time>
      </trkpt>
      <trkpt lat="43.2209950" lon="-3.0264000">
        <ele>68.0</ele>
        <time>2018-09-16T10:07:44Z</time>
      </trkpt>
      <trkpt lat="43.2213840" lon="-3.0261730">
        <ele>67.0</ele>
        <time>2018-09-16T10:07:48Z</time>
      </trkpt>
      <trkpt lat="43.2214660" lon="-3.0261050">
        <ele>66.6</ele>
        <time>2018-09-16T10:07:49Z</time>
      </trkpt>
      <trkpt lat="43.2219570" lon="-3.0257270">
        <ele>66.0</ele>
        <time>2018-09-16T10:07:55Z</time>
      </trkpt>
      <trkpt lat="43.2221310" lon="-3.0255970">
        <ele>65.4</ele>
        <time>2018-09-16T10:07:57Z</time>
      </trkpt>
      <trkpt lat="43.2226680" lon="-3.0252120">
        <ele>64.6</ele>
        <time>2018-09-16T10:08:03Z</time>
      </trkpt>
      <trkpt lat="43.2227560" lon="-3.0251530">
        <ele>64.2</ele>
        <time>2018-09-16T10:08:04Z</time>
      </trkpt>
      <trkpt lat="43.2230180" lon="-3.0249760">
        <ele>63.0</ele>
        <time>2018-09-16T10:08:07Z</time>
      </trkpt>
      <trkpt lat="43.2234980" lon="-3.0246300">
        <ele>63.2</ele>
        <time>2018-09-16T10:08:13Z</time>
      </trkpt>
      <trkpt lat="43.2236550" lon="-3.0245360">
        <ele>64.6</ele>
        <time>2018-09-16T10:08:15Z</time>
      </trkpt>
      <trkpt lat="43.2241480" lon="-3.0242260">
        <ele>63.8</ele>
        <time>2018-09-16T10:08:22Z</time>
      </trkpt>
      <trkpt lat="43.2242080" lon="-3.0241750">
        <ele>63.4</ele>
        <time>2018-09-16T10:08:23Z</time>
      </trkpt>
      <trkpt lat="43.2243750" lon="-3.0240050">
        <ele>63.0</ele>
        <time>2018-09-16T10:08:26Z</time>
      </trkpt>
      <trkpt lat="43.2245610" lon="-3.0237500">
        <ele>62.2</ele>
        <time>2018-09-16T10:08:30Z</time>
      </trkpt>
      <trkpt lat="43.2248740" lon="-3.0231390">
        <ele>61.2</ele>
        <time>2018-09-16T10:08:38Z</time>
      </trkpt>
      <trkpt lat="43.2250620" lon="-3.0227300">
        <ele>61.4</ele>
        <time>2018-09-16T10:08:43Z</time>
      </trkpt>
      <trkpt lat="43.2252290" lon="-3.0223050">
        <ele>61.2</ele>
        <time>2018-09-16T10:08:48Z</time>
      </trkpt>
      <trkpt lat="43.2253490" lon="-3.0220460">
        <ele>61.2</ele>
        <time>2018-09-16T10:08:51Z</time>
      </trkpt>
      <trkpt lat="43.2253840" lon="-3.0219480">
        <ele>61.2</ele>
        <time>2018-09-16T10:08:52Z</time>
      </trkpt>
      <trkpt lat="43.2254480" lon="-3.0217320">
        <ele>61.2</ele>
        <time>2018-09-16T10:08:54Z</time>
      </trkpt>
      <trkpt lat="43.2255060" lon="-3.0215000">
        <ele>61.0</ele>
        <time>2018-09-16T10:08:56Z</time>
      </trkpt>
      <trkpt lat="43.2255750" lon="-3.0211440">
        <ele>60.8</ele>
        <time>2018-09-16T10:08:59Z</time>
      </trkpt>
      <trkpt lat="43.2256310" lon="-3.0207730">
        <ele>61.0</ele>
        <time>2018-09-16T10:09:02Z</time>
      </trkpt>
      <trkpt lat="43.2257270" lon="-3.0201490">
        <ele>61.8</ele>
        <time>2018-09-16T10:09:07Z</time>
      </trkpt>
      <trkpt lat="43.2257710" lon="-3.0199010">
        <ele>62.4</ele>
        <time>2018-09-16T10:09:09Z</time>
      </trkpt>
      <trkpt lat="43.2258300" lon="-3.0195290">
        <ele>63.8</ele>
        <time>2018-09-16T10:09:12Z</time>
      </trkpt>
      <trkpt lat="43.2259170" lon="-3.0189160">
        <ele>63.6</ele>
        <time>2018-09-16T10:09:17Z</time>
      </trkpt>
      <trkpt lat="43.2259680" lon="-3.0186870">
        <ele>62.2</ele>
        <time>2018-09-16T10:09:19Z</time>
      </trkpt>
      <trkpt lat="43.2262440" lon="-3.0179520">
        <ele>61.6</ele>
        <time>2018-09-16T10:09:26Z</time>
      </trkpt>
      <trkpt lat="43.2266780" lon="-3.0173800">
        <ele>63.2</ele>
        <time>2018-09-16T10:09:33Z</time>
      </trkpt>
      <trkpt lat="43.2267500" lon="-3.0173140">
        <ele>63.4</ele>
        <time>2018-09-16T10:09:34Z</time>
      </trkpt>
      <trkpt lat="43.2272320" lon="-3.0169610">
        <ele>64.2</ele>
        <time>2018-09-16T10:09:40Z</time>
      </trkpt>
      <trkpt lat="43.2277280" lon="-3.0166590">
        <ele>64.4</ele>
        <time>2018-09-16T10:09:46Z</time>
      </trkpt>
      <trkpt lat="43.2280820" lon="-3.0164670">
        <ele>63.6</ele>
        <time>2018-09-16T10:09:50Z</time>
      </trkpt>
      <trkpt lat="43.2284010" lon="-3.0162440">
        <ele>62.2</ele>
        <time>2018-09-16T10:09:54Z</time>
      </trkpt>
      <trkpt lat="43.2289210" lon="-3.0157930">
        <ele>62.6</ele>
        <time>2018-09-16T10:10:01Z</time>
      </trkpt>
      <trkpt lat="43.2292180" lon="-3.0155200">
        <ele>60.8</ele>
        <time>2018-09-16T10:10:05Z</time>
      </trkpt>
      <trkpt lat="43.2295260" lon="-3.0152420">
        <ele>59.8</ele>
        <time>2018-09-16T10:10:09Z</time>
      </trkpt>
      <trkpt lat="43.2299980" lon="-3.0148150">
        <ele>60.0</ele>
        <time>2018-09-16T10:10:15Z</time>
      </trkpt>
      <trkpt lat="43.2301520" lon="-3.0146760">
        <ele>61.0</ele>
        <time>2018-09-16T10:10:17Z</time>
      </trkpt>
      <trkpt lat="43.2306110" lon="-3.0142670">
        <ele>62.0</ele>
        <time>2018-09-16T10:10:23Z</time>
      </trkpt>
      <trkpt lat="43.2310830" lon="-3.0138510">
        <ele>62.4</ele>
        <time>2018-09-16T10:10:29Z</time>
      </trkpt>
      <trkpt lat="43.2314600" lon="-3.0135060">
        <ele>61.0</ele>
        <time>2018-09-16T10:10:34Z</time>
      </trkpt>
      <trkpt lat="43.2316100" lon="-3.0133980">
        <ele>60.8</ele>
        <time>2018-09-16T10:10:36Z</time>
      </trkpt>
      <trkpt lat="43.2317690" lon="-3.0133440">
        <ele>61.0</ele>
        <time>2018-09-16T10:10:38Z</time>
      </trkpt>
      <trkpt lat="43.2319280" lon="-3.0133630">
        <ele>61.2</ele>
        <time>2018-09-16T10:10:40Z</time>
      </trkpt>
      <trkpt lat="43.2320730" lon="-3.0134320">
        <ele>61.2</ele>
        <time>2018-09-16T10:10:42Z</time>
      </trkpt>
      <trkpt lat="43.2325810" lon="-3.0137730">
        <ele>61.4</ele>
        <time>2018-09-16T10:10:49Z</time>
      </trkpt>
      <trkpt lat="43.2327290" lon="-3.0139020">
        <ele>61.8</ele>
        <time>2018-09-16T10:10:51Z</time>
      </trkpt>
      <trkpt lat="43.2330970" lon="-3.0144080">
        <ele>60.6</ele>
        <time>2018-09-16T10:10:57Z</time>
      </trkpt>
      <trkpt lat="43.2332100" lon="-3.0145790">
        <ele>60.0</ele>
        <time>2018-09-16T10:10:59Z</time>
      </trkpt>
      <trkpt lat="43.2333650" lon="-3.0146780">
        <ele>59.6</ele>
        <time>2018-09-16T10:11:01Z</time>
      </trkpt>
      <trkpt lat="43.2336750" lon="-3.0148290">
        <ele>59.6</ele>
        <time>2018-09-16T10:11:05Z</time>
      </trkpt>
      <trkpt lat="43.2341380" lon="-3.0150880">
        <ele>60.2</ele>
        <time>2018-09-16T10:11:11Z</time>
      </trkpt>
      <trkpt lat="43.2344310" lon="-3.0152560">
        <ele>61.2</ele>
        <time>2018-09-16T10:11:15Z</time>
      </trkpt>
      <trkpt lat="43.2345680" lon="-3.0153310">
        <ele>62.2</ele>
        <time>2018-09-16T10:11:17Z</time>
      </trkpt>
      <trkpt lat="43.2346360" lon="-3.0153500">
        <ele>62.6</ele>
        <time>2018-09-16T10:11:18Z</time>
      </trkpt>
      <trkpt lat="43.2347710" lon="-3.0153390">
        <ele>63.2</ele>
        <time>2018-09-16T10:11:20Z</time>
      </trkpt>
      <trkpt lat="43.2348370" lon="-3.0153120">
        <ele>63.6</ele>
        <time>2018-09-16T10:11:21Z</time>
      </trkpt>
      <trkpt lat="43.2348990" lon="-3.0152690">
        <ele>64.0</ele>
        <time>2018-09-16T10:11:22Z</time>
      </trkpt>
      <trkpt lat="43.2350180" lon="-3.0151420">
        <ele>64.4</ele>
        <time>2018-09-16T10:11:24Z</time>
      </trkpt>
      <trkpt lat="43.2353740" lon="-3.0144360">
        <ele>64.0</ele>
        <time>2018-09-16T10:11:31Z</time>
      </trkpt>
      <trkpt lat="43.2354530" lon="-3.0140290">
        <ele>62.6</ele>
        <time>2018-09-16T10:11:34Z</time>
      </trkpt>
      <trkpt lat="43.2355110" lon="-3.0137560">
        <ele>61.4</ele>
        <time>2018-09-16T10:11:36Z</time>
      </trkpt>
      <trkpt lat="43.2355700" lon="-3.0132040">
        <ele>60.2</ele>
        <time>2018-09-16T10:11:40Z</time>
      </trkpt>
      <trkpt lat="43.2355590" lon="-3.0128050">
        <ele>59.0</ele>
        <time>2018-09-16T10:11:43Z</time>
      </trkpt>
      <trkpt lat="43.2355620" lon="-3.0122570">
        <ele>58.4</ele>
        <time>2018-09-16T10:11:47Z</time>
      </trkpt>
      <trkpt lat="43.2355950" lon="-3.0114550">
        <ele>59.0</ele>
        <time>2018-09-16T10:11:53Z</time>
      </trkpt>
      <trkpt lat="43.2356030" lon="-3.0113210">
        <ele>59.2</ele>
        <time>2018-09-16T10:11:54Z</time>
      </trkpt>
      <trkpt lat="43.2355970" lon="-3.0109410">
        <ele>58.4</ele>
        <time>2018-09-16T10:11:57Z</time>
      </trkpt>
      <trkpt lat="43.2355510" lon="-3.0106960">
        <ele>57.8</ele>
        <time>2018-09-16T10:11:59Z</time>
      </trkpt>
      <trkpt lat="43.2355250" lon="-3.0105660">
        <ele>57.4</ele>
        <time>2018-09-16T10:12:00Z</time>
      </trkpt>
      <trkpt lat="43.2355470" lon="-3.0103190">
        <ele>56.8</ele>
        <time>2018-09-16T10:12:02Z</time>
      </trkpt>
      <trkpt lat="43.2356360" lon="-3.0100860">
        <ele>56.4</ele>
        <time>2018-09-16T10:12:04Z</time>
      </trkpt>
      <trkpt lat="43.2358120" lon="-3.0093140">
        <ele>55.6</ele>
        <time>2018-09-16T10:12:10Z</time>
      </trkpt>
      <trkpt lat="43.2358950" lon="-3.0089400">
        <ele>57.6</ele>
        <time>2018-09-16T10:12:13Z</time>
      </trkpt>
      <trkpt lat="43.2359500" lon="-3.0086910">
        <ele>59.0</ele>
        <time>2018-09-16T10:12:15Z</time>
      </trkpt>
      <trkpt lat="43.2361170" lon="-3.0079430">
        <ele>58.8</ele>
        <time>2018-09-16T10:12:21Z</time>
      </trkpt>
      <trkpt lat="43.2362850" lon="-3.0071840">
        <ele>59.2</ele>
        <time>2018-09-16T10:12:27Z</time>
      </trkpt>
      <trkpt lat="43.2364510" lon="-3.0064320">
        <ele>59.0</ele>
        <time>2018-09-16T10:12:33Z</time>
      </trkpt>
      <trkpt lat="43.2365100" lon="-3.0061840">
        <ele>57.2</ele>
        <time>2018-09-16T10:12:35Z</time>
      </trkpt>
      <trkpt lat="43.2365660" lon="-3.0059320">
        <ele>56.2</ele>
        <time>2018-09-16T10:12:37Z</time>
      </trkpt>
      <trkpt lat="43.2366520" lon="-3.0055600">
        <ele>55.0</ele>
        <time>2018-09-16T10:12:40Z</time>
      </trkpt>
      <trkpt lat="43.2368250" lon="-3.0048210">
        <ele>56.2</ele>
        <time>2018-09-16T10:12:46Z</time>
      </trkpt>
      <trkpt lat="43.2370230" lon="-3.0042610">
        <ele>55.0</ele>
        <time>2018-09-16T10:12:51Z</time>
      </trkpt>
      <trkpt lat="43.2372450" lon="-3.0038520">
        <ele>54.0</ele>
        <time>2018-09-16T10:12:55Z</time>
      </trkpt>
      <trkpt lat="43.2375540" lon="-3.0031500">
        <ele>53.0</ele>
        <time>2018-09-16T10:13:02Z</time>
      </trkpt>
      <trkpt lat="43.2377260" lon="-3.0025960">
        <ele>54.4</ele>
        <time>2018-09-16T10:13:08Z</time>
      </trkpt>
      <trkpt lat="43.2377490" lon="-3.0025070">
        <ele>55.2</ele>
        <time>2018-09-16T10:13:09Z</time>
      </trkpt>
      <trkpt lat="43.2378010" lon="-3.0023400">
        <ele>56.2</ele>
        <time>2018-09-16T10:13:11Z</time>
      </trkpt>
      <trkpt lat="43.2378860" lon="-3.0020830">
        <ele>57.4</ele>
        <time>2018-09-16T10:13:14Z</time>
      </trkpt>
      <trkpt lat="43.2379460" lon="-3.0019000">
        <ele>58.4</ele>
        <time>2018-09-16T10:13:16Z</time>
      </trkpt>
      <trkpt lat="43.2379730" lon="-3.0018040">
        <ele>58.8</ele>
        <time>2018-09-16T10:13:17Z</time>
      </trkpt>
      <trkpt lat="43.2380820" lon="-3.0014230">
        <ele>59.6</ele>
        <time>2018-09-16T10:13:21Z</time>
      </trkpt>
      <trkpt lat="43.2382050" lon="-3.0010470">
        <ele>60.8</ele>
        <time>2018-09-16T10:13:25Z</time>
      </trkpt>
      <trkpt lat="43.2383470" lon="-3.0006860">
        <ele>61.8</ele>
        <time>2018-09-16T10:13:29Z</time>
      </trkpt>
      <trkpt lat="43.2385610" lon="-3.0002320">
        <ele>62.6</ele>
        <time>2018-09-16T10:13:35Z</time>
      </trkpt>
      <trkpt lat="43.2388190" lon="-2.9998290">
        <ele>62.6</ele>
        <time>2018-09-16T10:13:41Z</time>
      </trkpt>
      <trkpt lat="43.2390430" lon="-2.9994760">
        <ele>61.6</ele>
        <time>2018-09-16T10:13:46Z</time>
      </trkpt>
      <trkpt lat="43.2391710" lon="-2.9992480">
        <ele>60.6</ele>
        <time>2018-09-16T10:13:49Z</time>
      </trkpt>
      <trkpt lat="43.2392110" lon="-2.9991720">
        <ele>60.4</ele>
        <time>2018-09-16T10:13:50Z</time>
      </trkpt>
      <trkpt lat="43.2393500" lon="-2.9988720">
        <ele>60.4</ele>
        <time>2018-09-16T10:13:54Z</time>
      </trkpt>
      <trkpt lat="43.2394230" lon="-2.9987420">
        <ele>60.2</ele>
        <time>2018-09-16T10:13:57Z</time>
      </trkpt>
      <trkpt lat="43.2394600" lon="-2.9987380">
        <ele>59.8</ele>
        <time>2018-09-16T10:14:00Z</time>
      </trkpt>
      <trkpt lat="43.2394990" lon="-2.9987110">
        <ele>55.0</ele>
        <time>2018-09-16T10:15:03Z</time>
      </trkpt>
      <trkpt lat="43.2395170" lon="-2.9986930">
        <ele>55.0</ele>
        <time>2018-09-16T10:15:04Z</time>
      </trkpt>
      <trkpt lat="43.2395380" lon="-2.9986700">
        <ele>54.8</ele>
        <time>2018-09-16T10:15:05Z</time>
      </trkpt>
      <trkpt lat="43.2397300" lon="-2.9983820">
        <ele>54.0</ele>
        <time>2018-09-16T10:15:11Z</time>
      </trkpt>
      <trkpt lat="43.2398710" lon="-2.9981440">
        <ele>52.8</ele>
        <time>2018-09-16T10:15:15Z</time>
      </trkpt>
      <trkpt lat="43.2399450" lon="-2.9980140">
        <ele>51.8</ele>
        <time>2018-09-16T10:15:17Z</time>
      </trkpt>
      <trkpt lat="43.2401260" lon="-2.9976190">
        <ele>50.6</ele>
        <time>2018-09-16T10:15:22Z</time>
      </trkpt>
      <trkpt lat="43.2401650" lon="-2.9975190">
        <ele>50.4</ele>
        <time>2018-09-16T10:15:23Z</time>
      </trkpt>
      <trkpt lat="43.2402460" lon="-2.9973110">
        <ele>50.0</ele>
        <time>2018-09-16T10:15:25Z</time>
      </trkpt>
      <trkpt lat="43.2403240" lon="-2.9970970">
        <ele>49.4</ele>
        <time>2018-09-16T10:15:27Z</time>
      </trkpt>
      <trkpt lat="43.2404980" lon="-2.9966710">
        <ele>48.4</ele>
        <time>2018-09-16T10:15:31Z</time>
      </trkpt>
      <trkpt lat="43.2406520" lon="-2.9963670">
        <ele>48.0</ele>
        <time>2018-09-16T10:15:34Z</time>
      </trkpt>
      <trkpt lat="43.2407540" lon="-2.9961630">
        <ele>47.2</ele>
        <time>2018-09-16T10:15:36Z</time>
      </trkpt>
      <trkpt lat="43.2410280" lon="-2.9955130">
        <ele>46.4</ele>
        <time>2018-09-16T10:15:42Z</time>
      </trkpt>
      <trkpt lat="43.2410760" lon="-2.9954060">
        <ele>46.0</ele>
        <time>2018-09-16T10:15:43Z</time>
      </trkpt>
      <trkpt lat="43.2411870" lon="-2.9952000">
        <ele>45.8</ele>
        <time>2018-09-16T10:15:45Z</time>
      </trkpt>
      <trkpt lat="43.2413970" lon="-2.9949100">
        <ele>46.2</ele>
        <time>2018-09-16T10:15:48Z</time>
      </trkpt>
      <trkpt lat="43.2415240" lon="-2.9947200">
        <ele>47.0</ele>
        <time>2018-09-16T10:15:50Z</time>
      </trkpt>
      <trkpt lat="43.2415950" lon="-2.9946250">
        <ele>47.4</ele>
        <time>2018-09-16T10:15:51Z</time>
      </trkpt>
      <trkpt lat="43.2419840" lon="-2.9941000">
        <ele>48.0</ele>
        <time>2018-09-16T10:15:57Z</time>
      </trkpt>
      <trkpt lat="43.2424020" lon="-2.9935220">
        <ele>47.0</ele>
        <time>2018-09-16T10:16:04Z</time>
      </trkpt>
      <trkpt lat="43.2425240" lon="-2.9933520">
        <ele>46.0</ele>
        <time>2018-09-16T10:16:06Z</time>
      </trkpt>
      <trkpt lat="43.2427740" lon="-2.9930020">
        <ele>45.0</ele>
        <time>2018-09-16T10:16:10Z</time>
      </trkpt>
      <trkpt lat="43.2431790" lon="-2.9924200">
        <ele>45.2</ele>
        <time>2018-09-16T10:16:17Z</time>
      </trkpt>
      <trkpt lat="43.2435740" lon="-2.9918590">
        <ele>44.8</ele>
        <time>2018-09-16T10:16:24Z</time>
      </trkpt>
      <trkpt lat="43.2439480" lon="-2.9913210">
        <ele>44.2</ele>
        <time>2018-09-16T10:16:31Z</time>
      </trkpt>
      <trkpt lat="43.2442600" lon="-2.9908760">
        <ele>45.0</ele>
        <time>2018-09-16T10:16:37Z</time>
      </trkpt>
      <trkpt lat="43.2445620" lon="-2.9904560">
        <ele>45.8</ele>
        <time>2018-09-16T10:16:43Z</time>
      </trkpt>
      <trkpt lat="43.2446100" lon="-2.9903880">
        <ele>46.4</ele>
        <time>2018-09-16T10:16:44Z</time>
      </trkpt>
      <trkpt lat="43.2447480" lon="-2.9901840">
        <ele>47.6</ele>
        <time>2018-09-16T10:16:47Z</time>
      </trkpt>
      <trkpt lat="43.2449610" lon="-2.9898460">
        <ele>46.6</ele>
        <time>2018-09-16T10:16:52Z</time>
      </trkpt>
      <trkpt lat="43.2449950" lon="-2.9897710">
        <ele>46.8</ele>
        <time>2018-09-16T10:16:53Z</time>
      </trkpt>
      <trkpt lat="43.2450760" lon="-2.9895280">
        <ele>47.0</ele>
        <time>2018-09-16T10:16:56Z</time>
      </trkpt>
      <trkpt lat="43.2451160" lon="-2.9893290">
        <ele>46.2</ele>
        <time>2018-09-16T10:16:58Z</time>
      </trkpt>
      <trkpt lat="43.2451450" lon="-2.9891090">
        <ele>44.6</ele>
        <time>2018-09-16T10:17:00Z</time>
      </trkpt>
      <trkpt lat="43.2451770" lon="-2.9888740">
        <ele>43.6</ele>
        <time>2018-09-16T10:17:02Z</time>
      </trkpt>
      <trkpt lat="43.2452320" lon="-2.9884810">
        <ele>42.4</ele>
        <time>2018-09-16T10:17:05Z</time>
      </trkpt>
      <trkpt lat="43.2452730" lon="-2.9882030">
        <ele>41.2</ele>
        <time>2018-09-16T10:17:07Z</time>
      </trkpt>
      <trkpt lat="43.2453340" lon="-2.9877830">
        <ele>40.2</ele>
        <time>2018-09-16T10:17:10Z</time>
      </trkpt>
      <trkpt lat="43.2453930" lon="-2.9873700">
        <ele>38.8</ele>
        <time>2018-09-16T10:17:13Z</time>
      </trkpt>
      <trkpt lat="43.2454300" lon="-2.9871070">
        <ele>38.4</ele>
        <time>2018-09-16T10:17:15Z</time>
      </trkpt>
      <trkpt lat="43.2454880" lon="-2.9867300">
        <ele>38.2</ele>
        <time>2018-09-16T10:17:18Z</time>
      </trkpt>
      <trkpt lat="43.2455220" lon="-2.9864870">
        <ele>37.6</ele>
        <time>2018-09-16T10:17:20Z</time>
      </trkpt>
      <trkpt lat="43.2455690" lon="-2.9861290">
        <ele>36.2</ele>
        <time>2018-09-16T10:17:23Z</time>
      </trkpt>
      <trkpt lat="43.2455970" lon="-2.9859030">
        <ele>35.8</ele>
        <time>2018-09-16T10:17:25Z</time>
      </trkpt>
      <trkpt lat="43.2457320" lon="-2.9850840">
        <ele>35.4</ele>
        <time>2018-09-16T10:17:32Z</time>
      </trkpt>
      <trkpt lat="43.2457510" lon="-2.9849750">
        <ele>35.2</ele>
        <time>2018-09-16T10:17:33Z</time>
      </trkpt>
      <trkpt lat="43.2458370" lon="-2.9844580">
        <ele>35.6</ele>
        <time>2018-09-16T10:17:38Z</time>
      </trkpt>
      <trkpt lat="43.2458960" lon="-2.9842860">
        <ele>36.2</ele>
        <time>2018-09-16T10:17:40Z</time>
      </trkpt>
      <trkpt lat="43.2459310" lon="-2.9842110">
        <ele>36.4</ele>
        <time>2018-09-16T10:17:41Z</time>
      </trkpt>
      <trkpt lat="43.2459600" lon="-2.9841330">
        <ele>36.6</ele>
        <time>2018-09-16T10:17:42Z</time>
      </trkpt>
      <trkpt lat="43.2460400" lon="-2.9838820">
        <ele>37.2</ele>
        <time>2018-09-16T10:17:45Z</time>
      </trkpt>
      <trkpt lat="43.2460990" lon="-2.9837140">
        <ele>37.0</ele>
        <time>2018-09-16T10:17:47Z</time>
      </trkpt>
      <trkpt lat="43.2463130" lon="-2.9831440">
        <ele>36.2</ele>
        <time>2018-09-16T10:17:53Z</time>
      </trkpt>
      <trkpt lat="43.2463900" lon="-2.9828230">
        <ele>35.4</ele>
        <time>2018-09-16T10:17:56Z</time>
      </trkpt>
      <trkpt lat="43.2464790" lon="-2.9825120">
        <ele>34.4</ele>
        <time>2018-09-16T10:17:59Z</time>
      </trkpt>
      <trkpt lat="43.2465080" lon="-2.9824190">
        <ele>34.2</ele>
        <time>2018-09-16T10:18:00Z</time>
      </trkpt>
      <trkpt lat="43.2467270" lon="-2.9818380">
        <ele>34.2</ele>
        <time>2018-09-16T10:18:06Z</time>
      </trkpt>
      <trkpt lat="43.2469670" lon="-2.9811480">
        <ele>34.4</ele>
        <time>2018-09-16T10:18:13Z</time>
      </trkpt>
      <trkpt lat="43.2472180" lon="-2.9803900">
        <ele>33.8</ele>
        <time>2018-09-16T10:18:21Z</time>
      </trkpt>
      <trkpt lat="43.2474430" lon="-2.9796740">
        <ele>34.6</ele>
        <time>2018-09-16T10:18:28Z</time>
      </trkpt>
      <trkpt lat="43.2476130" lon="-2.9791800">
        <ele>33.0</ele>
        <time>2018-09-16T10:18:33Z</time>
      </trkpt>
      <trkpt lat="43.2476790" lon="-2.9789840">
        <ele>32.0</ele>
        <time>2018-09-16T10:18:35Z</time>
      </trkpt>
      <trkpt lat="43.2476990" lon="-2.9788880">
        <ele>31.6</ele>
        <time>2018-09-16T10:18:36Z</time>
      </trkpt>
      <trkpt lat="43.2477100" lon="-2.9785920">
        <ele>32.0</ele>
        <time>2018-09-16T10:18:39Z</time>
      </trkpt>
      <trkpt lat="43.2477560" lon="-2.9784080">
        <ele>32.8</ele>
        <time>2018-09-16T10:18:41Z</time>
      </trkpt>
      <trkpt lat="43.2477990" lon="-2.9783300">
        <ele>33.4</ele>
        <time>2018-09-16T10:18:42Z</time>
      </trkpt>
      <trkpt lat="43.2479880" lon="-2.9780470">
        <ele>33.6</ele>
        <time>2018-09-16T10:18:46Z</time>
      </trkpt>
      <trkpt lat="43.2480810" lon="-2.9779190">
        <ele>33.6</ele>
        <time>2018-09-16T10:18:48Z</time>
      </trkpt>
      <trkpt lat="43.2482310" lon="-2.9777590">
        <ele>34.0</ele>
        <time>2018-09-16T10:18:51Z</time>
      </trkpt>
      <trkpt lat="43.2483370" lon="-2.9776530">
        <ele>34.6</ele>
        <time>2018-09-16T10:18:53Z</time>
      </trkpt>
      <trkpt lat="43.2487210" lon="-2.9773460">
        <ele>33.8</ele>
        <time>2018-09-16T10:19:00Z</time>
      </trkpt>
      <trkpt lat="43.2487770" lon="-2.9773060">
        <ele>33.6</ele>
        <time>2018-09-16T10:19:01Z</time>
      </trkpt>
      <trkpt lat="43.2492470" lon="-2.9768740">
        <ele>34.4</ele>
        <time>2018-09-16T10:19:10Z</time>
      </trkpt>
      <trkpt lat="43.2492960" lon="-2.9768200">
        <ele>34.6</ele>
        <time>2018-09-16T10:19:11Z</time>
      </trkpt>
      <trkpt lat="43.2494690" lon="-2.9765550">
        <ele>35.8</ele>
        <time>2018-09-16T10:19:15Z</time>
      </trkpt>
      <trkpt lat="43.2497310" lon="-2.9761410">
        <ele>34.4</ele>
        <time>2018-09-16T10:19:21Z</time>
      </trkpt>
      <trkpt lat="43.2499120" lon="-2.9758450">
        <ele>33.4</ele>
        <time>2018-09-16T10:19:25Z</time>
      </trkpt>
      <trkpt lat="43.2501410" lon="-2.9754740">
        <ele>32.8</ele>
        <time>2018-09-16T10:19:30Z</time>
      </trkpt>
      <trkpt lat="43.2504160" lon="-2.9751030">
        <ele>32.4</ele>
        <time>2018-09-16T10:19:35Z</time>
      </trkpt>
      <trkpt lat="43.2504740" lon="-2.9750380">
        <ele>32.2</ele>
        <time>2018-09-16T10:19:36Z</time>
      </trkpt>
      <trkpt lat="43.2505930" lon="-2.9749060">
        <ele>31.4</ele>
        <time>2018-09-16T10:19:38Z</time>
      </trkpt>
      <trkpt lat="43.2506540" lon="-2.9748360">
        <ele>31.0</ele>
        <time>2018-09-16T10:19:39Z</time>
      </trkpt>
      <trkpt lat="43.2507760" lon="-2.9746920">
        <ele>30.6</ele>
        <time>2018-09-16T10:19:41Z</time>
      </trkpt>
      <trkpt lat="43.2508950" lon="-2.9745530">
        <ele>30.2</ele>
        <time>2018-09-16T10:19:43Z</time>
      </trkpt>
      <trkpt lat="43.2510640" lon="-2.9743460">
        <ele>30.0</ele>
        <time>2018-09-16T10:19:46Z</time>
      </trkpt>
      <trkpt lat="43.2512690" lon="-2.9741250">
        <ele>28.6</ele>
        <time>2018-09-16T10:19:49Z</time>
      </trkpt>
      <trkpt lat="43.2516470" lon="-2.9737940">
        <ele>27.6</ele>
        <time>2018-09-16T10:19:54Z</time>
      </trkpt>
      <trkpt lat="43.2518140" lon="-2.9736840">
        <ele>27.4</ele>
        <time>2018-09-16T10:19:56Z</time>
      </trkpt>
      <trkpt lat="43.2519760" lon="-2.9736230">
        <ele>27.4</ele>
        <time>2018-09-16T10:19:58Z</time>
      </trkpt>
      <trkpt lat="43.2522160" lon="-2.9736430">
        <ele>28.0</ele>
        <time>2018-09-16T10:20:01Z</time>
      </trkpt>
      <trkpt lat="43.2524730" lon="-2.9737120">
        <ele>28.6</ele>
        <time>2018-09-16T10:20:04Z</time>
      </trkpt>
      <trkpt lat="43.2527660" lon="-2.9737790">
        <ele>29.0</ele>
        <time>2018-09-16T10:20:08Z</time>
      </trkpt>
      <trkpt lat="43.2529100" lon="-2.9737930">
        <ele>29.8</ele>
        <time>2018-09-16T10:20:10Z</time>
      </trkpt>
      <trkpt lat="43.2531220" lon="-2.9737970">
        <ele>30.4</ele>
        <time>2018-09-16T10:20:13Z</time>
      </trkpt>
      <trkpt lat="43.2533340" lon="-2.9737900">
        <ele>30.8</ele>
        <time>2018-09-16T10:20:16Z</time>
      </trkpt>
      <trkpt lat="43.2535520" lon="-2.9737620">
        <ele>32.0</ele>
        <time>2018-09-16T10:20:19Z</time>
      </trkpt>
      <trkpt lat="43.2536140" lon="-2.9737500">
        <ele>32.4</ele>
        <time>2018-09-16T10:20:20Z</time>
      </trkpt>
      <trkpt lat="43.2537240" lon="-2.9736950">
        <ele>33.4</ele>
        <time>2018-09-16T10:20:22Z</time>
      </trkpt>
      <trkpt lat="43.2537940" lon="-2.9735870">
        <ele>34.0</ele>
        <time>2018-09-16T10:20:24Z</time>
      </trkpt>
      <trkpt lat="43.2538310" lon="-2.9735200">
        <ele>34.4</ele>
        <time>2018-09-16T10:20:25Z</time>
      </trkpt>
      <trkpt lat="43.2538770" lon="-2.9734590">
        <ele>35.0</ele>
        <time>2018-09-16T10:20:26Z</time>
      </trkpt>
      <trkpt lat="43.2539340" lon="-2.9734240">
        <ele>35.6</ele>
        <time>2018-09-16T10:20:27Z</time>
      </trkpt>
      <trkpt lat="43.2539990" lon="-2.9734150">
        <ele>36.4</ele>
        <time>2018-09-16T10:20:28Z</time>
      </trkpt>
      <trkpt lat="43.2540670" lon="-2.9734290">
        <ele>36.8</ele>
        <time>2018-09-16T10:20:29Z</time>
      </trkpt>
      <trkpt lat="43.2541340" lon="-2.9734590">
        <ele>36.8</ele>
        <time>2018-09-16T10:20:30Z</time>
      </trkpt>
      <trkpt lat="43.2542430" lon="-2.9735120">
        <ele>37.2</ele>
        <time>2018-09-16T10:20:32Z</time>
      </trkpt>
      <trkpt lat="43.2543390" lon="-2.9734680">
        <ele>37.4</ele>
        <time>2018-09-16T10:20:34Z</time>
      </trkpt>
      <trkpt lat="43.2547530" lon="-2.9729250">
        <ele>36.6</ele>
        <time>2018-09-16T10:20:43Z</time>
      </trkpt>
      <trkpt lat="43.2550960" lon="-2.9722900">
        <ele>36.0</ele>
        <time>2018-09-16T10:20:51Z</time>
      </trkpt>
      <trkpt lat="43.2552380" lon="-2.9719740">
        <ele>36.4</ele>
        <time>2018-09-16T10:20:55Z</time>
      </trkpt>
      <trkpt lat="43.2554330" lon="-2.9715590">
        <ele>35.4</ele>
        <time>2018-09-16T10:21:00Z</time>
      </trkpt>
      <trkpt lat="43.2555740" lon="-2.9713320">
        <ele>35.2</ele>
        <time>2018-09-16T10:21:03Z</time>
      </trkpt>
      <trkpt lat="43.2557520" lon="-2.9711510">
        <ele>34.6</ele>
        <time>2018-09-16T10:21:06Z</time>
      </trkpt>
      <trkpt lat="43.2558220" lon="-2.9711060">
        <ele>34.4</ele>
        <time>2018-09-16T10:21:07Z</time>
      </trkpt>
      <trkpt lat="43.2559710" lon="-2.9710210">
        <ele>33.2</ele>
        <time>2018-09-16T10:21:09Z</time>
      </trkpt>
      <trkpt lat="43.2561280" lon="-2.9709460">
        <ele>32.0</ele>
        <time>2018-09-16T10:21:11Z</time>
      </trkpt>
      <trkpt lat="43.2562830" lon="-2.9708700">
        <ele>30.8</ele>
        <time>2018-09-16T10:21:13Z</time>
      </trkpt>
      <trkpt lat="43.2565100" lon="-2.9707710">
        <ele>30.0</ele>
        <time>2018-09-16T10:21:16Z</time>
      </trkpt>
      <trkpt lat="43.2570490" lon="-2.9705140">
        <ele>31.8</ele>
        <time>2018-09-16T10:21:24Z</time>
      </trkpt>
      <trkpt lat="43.2571130" lon="-2.9704750">
        <ele>32.0</ele>
        <time>2018-09-16T10:21:25Z</time>
      </trkpt>
      <trkpt lat="43.2574250" lon="-2.9702290">
        <ele>32.0</ele>
        <time>2018-09-16T10:21:30Z</time>
      </trkpt>
      <trkpt lat="43.2575970" lon="-2.9700670">
        <ele>31.4</ele>
        <time>2018-09-16T10:21:33Z</time>
      </trkpt>
      <trkpt lat="43.2577610" lon="-2.9699050">
        <ele>31.4</ele>
        <time>2018-09-16T10:21:36Z</time>
      </trkpt>
      <trkpt lat="43.2579380" lon="-2.9697920">
        <ele>31.8</ele>
        <time>2018-09-16T10:21:39Z</time>
      </trkpt>
      <trkpt lat="43.2581140" lon="-2.9696970">
        <ele>31.8</ele>
        <time>2018-09-16T10:21:42Z</time>
      </trkpt>
      <trkpt lat="43.2583750" lon="-2.9696230">
        <ele>31.4</ele>
        <time>2018-09-16T10:21:46Z</time>
      </trkpt>
      <trkpt lat="43.2585110" lon="-2.9696450">
        <ele>31.6</ele>
        <time>2018-09-16T10:21:48Z</time>
      </trkpt>
      <trkpt lat="43.2589490" lon="-2.9698770">
        <ele>30.8</ele>
        <time>2018-09-16T10:21:55Z</time>
      </trkpt>
      <trkpt lat="43.2592940" lon="-2.9700200">
        <ele>29.8</ele>
        <time>2018-09-16T10:22:00Z</time>
      </trkpt>
      <trkpt lat="43.2598830" lon="-2.9701610">
        <ele>29.2</ele>
        <time>2018-09-16T10:22:08Z</time>
      </trkpt>
      <trkpt lat="43.2603540" lon="-2.9702760">
        <ele>29.4</ele>
        <time>2018-09-16T10:22:14Z</time>
      </trkpt>
      <trkpt lat="43.2608560" lon="-2.9706050">
        <ele>30.0</ele>
        <time>2018-09-16T10:22:22Z</time>
      </trkpt>
      <trkpt lat="43.2609610" lon="-2.9707290">
        <ele>30.8</ele>
        <time>2018-09-16T10:22:24Z</time>
      </trkpt>
      <trkpt lat="43.2610600" lon="-2.9708760">
        <ele>32.0</ele>
        <time>2018-09-16T10:22:26Z</time>
      </trkpt>
      <trkpt lat="43.2611510" lon="-2.9710260">
        <ele>33.2</ele>
        <time>2018-09-16T10:22:28Z</time>
      </trkpt>
      <trkpt lat="43.2612420" lon="-2.9711760">
        <ele>34.4</ele>
        <time>2018-09-16T10:22:30Z</time>
      </trkpt>
      <trkpt lat="43.2613340" lon="-2.9713170">
        <ele>35.4</ele>
        <time>2018-09-16T10:22:32Z</time>
      </trkpt>
      <trkpt lat="43.2614730" lon="-2.9715140">
        <ele>36.6</ele>
        <time>2018-09-16T10:22:35Z</time>
      </trkpt>
      <trkpt lat="43.2616570" lon="-2.9717620">
        <ele>37.8</ele>
        <time>2018-09-16T10:22:39Z</time>
      </trkpt>
      <trkpt lat="43.2618620" lon="-2.9719440">
        <ele>39.2</ele>
        <time>2018-09-16T10:22:43Z</time>
      </trkpt>
      <trkpt lat="43.2620180" lon="-2.9720720">
        <ele>40.4</ele>
        <time>2018-09-16T10:22:46Z</time>
      </trkpt>
      <trkpt lat="43.2621020" lon="-2.9721610">
        <ele>41.6</ele>
        <time>2018-09-16T10:22:48Z</time>
      </trkpt>
      <trkpt lat="43.2621370" lon="-2.9722040">
        <ele>42.6</ele>
        <time>2018-09-16T10:22:49Z</time>
      </trkpt>
      <trkpt lat="43.2621690" lon="-2.9722510">
        <ele>43.4</ele>
        <time>2018-09-16T10:22:50Z</time>
      </trkpt>
      <trkpt lat="43.2621990" lon="-2.9723020">
        <ele>44.0</ele>
        <time>2018-09-16T10:22:51Z</time>
      </trkpt>
      <trkpt lat="43.2622530" lon="-2.9724050">
        <ele>44.4</ele>
        <time>2018-09-16T10:22:53Z</time>
      </trkpt>
      <trkpt lat="43.2623600" lon="-2.9726060">
        <ele>44.6</ele>
        <time>2018-09-16T10:22:57Z</time>
      </trkpt>
      <trkpt lat="43.2627050" lon="-2.9732740">
        <ele>44.8</ele>
        <time>2018-09-16T10:23:07Z</time>
      </trkpt>
      <trkpt lat="43.2629190" lon="-2.9735260">
        <ele>45.4</ele>
        <time>2018-09-16T10:23:12Z</time>
      </trkpt>
      <trkpt lat="43.2632060" lon="-2.9737500">
        <ele>46.4</ele>
        <time>2018-09-16T10:23:18Z</time>
      </trkpt>
      <trkpt lat="43.2633130" lon="-2.9738180">
        <ele>47.0</ele>
        <time>2018-09-16T10:23:20Z</time>
      </trkpt>
      <trkpt lat="43.2638530" lon="-2.9738850">
        <ele>46.8</ele>
        <time>2018-09-16T10:23:29Z</time>
      </trkpt>
      <trkpt lat="43.2639110" lon="-2.9738640">
        <ele>46.6</ele>
        <time>2018-09-16T10:23:30Z</time>
      </trkpt>
      <trkpt lat="43.2642090" lon="-2.9737110">
        <ele>46.6</ele>
        <time>2018-09-16T10:23:35Z</time>
      </trkpt>
      <trkpt lat="43.2644880" lon="-2.9735380">
        <ele>46.6</ele>
        <time>2018-09-16T10:23:40Z</time>
      </trkpt>
      <trkpt lat="43.2647970" lon="-2.9732140">
        <ele>46.6</ele>
        <time>2018-09-16T10:23:46Z</time>
      </trkpt>
      <trkpt lat="43.2650180" lon="-2.9730250">
        <ele>46.4</ele>
        <time>2018-09-16T10:23:50Z</time>
      </trkpt>
      <trkpt lat="43.2653310" lon="-2.9728390">
        <ele>46.0</ele>
        <time>2018-09-16T10:23:55Z</time>
      </trkpt>
      <trkpt lat="43.2655280" lon="-2.9727240">
        <ele>46.0</ele>
        <time>2018-09-16T10:23:58Z</time>
      </trkpt>
      <trkpt lat="43.2657880" lon="-2.9725790">
        <ele>45.4</ele>
        <time>2018-09-16T10:24:02Z</time>
      </trkpt>
      <trkpt lat="43.2659260" lon="-2.9725350">
        <ele>45.2</ele>
        <time>2018-09-16T10:24:04Z</time>
      </trkpt>
      <trkpt lat="43.2660670" lon="-2.9725170">
        <ele>45.4</ele>
        <time>2018-09-16T10:24:06Z</time>
      </trkpt>
      <trkpt lat="43.2662010" lon="-2.9725220">
        <ele>45.4</ele>
        <time>2018-09-16T10:24:08Z</time>
      </trkpt>
      <trkpt lat="43.2665240" lon="-2.9726100">
        <ele>44.4</ele>
        <time>2018-09-16T10:24:13Z</time>
      </trkpt>
      <trkpt lat="43.2665910" lon="-2.9726330">
        <ele>44.2</ele>
        <time>2018-09-16T10:24:14Z</time>
      </trkpt>
      <trkpt lat="43.2667980" lon="-2.9727020">
        <ele>44.0</ele>
        <time>2018-09-16T10:24:17Z</time>
      </trkpt>
      <trkpt lat="43.2669400" lon="-2.9727510">
        <ele>44.2</ele>
        <time>2018-09-16T10:24:19Z</time>
      </trkpt>
      <trkpt lat="43.2670850" lon="-2.9727990">
        <ele>44.0</ele>
        <time>2018-09-16T10:24:21Z</time>
      </trkpt>
      <trkpt lat="43.2674000" lon="-2.9728550">
        <ele>43.2</ele>
        <time>2018-09-16T10:24:26Z</time>
      </trkpt>
      <trkpt lat="43.2675350" lon="-2.9728760">
        <ele>43.0</ele>
        <time>2018-09-16T10:24:28Z</time>
      </trkpt>
      <trkpt lat="43.2677410" lon="-2.9729140">
        <ele>43.0</ele>
        <time>2018-09-16T10:24:31Z</time>
      </trkpt>
      <trkpt lat="43.2681890" lon="-2.9730620">
        <ele>43.2</ele>
        <time>2018-09-16T10:24:37Z</time>
      </trkpt>
      <trkpt lat="43.2685430" lon="-2.9732010">
        <ele>43.2</ele>
        <time>2018-09-16T10:24:42Z</time>
      </trkpt>
      <trkpt lat="43.2687460" lon="-2.9732910">
        <ele>43.2</ele>
        <time>2018-09-16T10:24:45Z</time>
      </trkpt>
      <trkpt lat="43.2691550" lon="-2.9734860">
        <ele>43.0</ele>
        <time>2018-09-16T10:24:51Z</time>
      </trkpt>
      <trkpt lat="43.2696890" lon="-2.9737620">
        <ele>43.6</ele>
        <time>2018-09-16T10:24:58Z</time>
      </trkpt>
      <trkpt lat="43.2701600" lon="-2.9740010">
        <ele>41.8</ele>
        <time>2018-09-16T10:25:04Z</time>
      </trkpt>
      <trkpt lat="43.2704590" lon="-2.9741720">
        <ele>40.6</ele>
        <time>2018-09-16T10:25:08Z</time>
      </trkpt>
      <trkpt lat="43.2706810" lon="-2.9742770">
        <ele>40.8</ele>
        <time>2018-09-16T10:25:11Z</time>
      </trkpt>
      <trkpt lat="43.2708370" lon="-2.9743070">
        <ele>40.8</ele>
        <time>2018-09-16T10:25:13Z</time>
      </trkpt>
      <trkpt lat="43.2714130" lon="-2.9743460">
        <ele>40.8</ele>
        <time>2018-09-16T10:25:21Z</time>
      </trkpt>
      <trkpt lat="43.2719750" lon="-2.9742410">
        <ele>41.2</ele>
        <time>2018-09-16T10:25:29Z</time>
      </trkpt>
      <trkpt lat="43.2723810" lon="-2.9741380">
        <ele>39.8</ele>
        <time>2018-09-16T10:25:35Z</time>
      </trkpt>
      <trkpt lat="43.2724990" lon="-2.9741150">
        <ele>39.6</ele>
        <time>2018-09-16T10:25:37Z</time>
      </trkpt>
      <trkpt lat="43.2726910" lon="-2.9740840">
        <ele>38.6</ele>
        <time>2018-09-16T10:25:40Z</time>
      </trkpt>
      <trkpt lat="43.2728370" lon="-2.9740700">
        <ele>36.8</ele>
        <time>2018-09-16T10:25:42Z</time>
      </trkpt>
      <trkpt lat="43.2732870" lon="-2.9739870">
        <ele>37.2</ele>
        <time>2018-09-16T10:25:48Z</time>
      </trkpt>
      <trkpt lat="43.2733480" lon="-2.9739700">
        <ele>37.4</ele>
        <time>2018-09-16T10:25:49Z</time>
      </trkpt>
    </trkseg>
  </trk>
</gpx>
